<?xml version='1.0' encoding='UTF-8'?><gpx version="1.1" creator="JPX - https://github.com/jenetics/jpx" xmlns="http://www.topografix.com/GPX/1/1"><trk><trkseg><trkpt lat="37.01634677831626" lon="15.21521724363124"><ele>14.0</ele><time>2026-04-26T05:59:27Z</time></trkpt><trkpt lat="37.01608540852127" lon="15.215091137564714"><ele>14.0</ele><time>2026-04-26T05:59:28Z</time></trkpt><trkpt lat="37.015811309669786" lon="15.21497024765549"><ele>14.0</ele><time>2026-04-26T05:59:29Z</time></trkpt><trkpt lat="37.01552862220964" lon="15.214854801096527"><ele>14.0</ele><time>2026-04-26T05:59:30Z</time></trkpt><trkpt lat="37.01523854904284" lon="15.214734121823687"><ele>15.5</ele><time>2026-04-26T05:59:31Z</time></trkpt><trkpt lat="37.0149487404355" lon="15.214615176272329"><ele>17.0</ele><time>2026-04-26T05:59:32Z</time></trkpt><trkpt lat="37.01466093838381" lon="15.214497423204275"><ele>17.0</ele><time>2026-04-26T05:59:33Z</time></trkpt><trkpt lat="37.014375752271405" lon="15.214374615398313"><ele>17.0</ele><time>2026-04-26T05:59:34Z</time></trkpt><trkpt lat="37.014088899788426" lon="15.214256438267858"><ele>19.0</ele><time>2026-04-26T05:59:35Z</time></trkpt><trkpt lat="37.013798792382374" lon="15.214151258425106"><ele>21.0</ele><time>2026-04-26T05:59:36Z</time></trkpt><trkpt lat="37.01351557295239" lon="15.214057391108256"><ele>21.5</ele><time>2026-04-26T05:59:37Z</time></trkpt><trkpt lat="37.013233854150194" lon="15.213967810562071"><ele>22.0</ele><time>2026-04-26T05:59:38Z</time></trkpt><trkpt lat="37.01295546202135" lon="15.213883634975614"><ele>22.0</ele><time>2026-04-26T05:59:39Z</time></trkpt><trkpt lat="37.01266563370754" lon="15.213804745305277"><ele>22.0</ele><time>2026-04-26T05:59:40Z</time></trkpt><trkpt lat="37.012371951622775" lon="15.213729107098755"><ele>23.5</ele><time>2026-04-26T05:59:41Z</time></trkpt><trkpt lat="37.01206962268533" lon="15.213641195511373"><ele>25.0</ele><time>2026-04-26T05:59:42Z</time></trkpt><trkpt lat="37.0117565701761" lon="15.213537934046933"><ele>25.5</ele><time>2026-04-26T05:59:43Z</time></trkpt><trkpt lat="37.01144234059319" lon="15.213424603447091"><ele>26.0</ele><time>2026-04-26T05:59:44Z</time></trkpt><trkpt lat="37.01115259327536" lon="15.21332230738689"><ele>26.0</ele><time>2026-04-26T05:59:45Z</time></trkpt><trkpt lat="37.010868051335954" lon="15.21322914957347"><ele>26.0</ele><time>2026-04-26T05:59:46Z</time></trkpt><trkpt lat="37.01059192178552" lon="15.213146010113357"><ele>25.0</ele><time>2026-04-26T05:59:47Z</time></trkpt><trkpt lat="37.01032581268777" lon="15.213066434150383"><ele>24.0</ele><time>2026-04-26T05:59:48Z</time></trkpt><trkpt lat="37.0100633345411" lon="15.212986304143502"><ele>25.0</ele><time>2026-04-26T05:59:49Z</time></trkpt><trkpt lat="37.00980164527494" lon="15.212905092633983"><ele>26.0</ele><time>2026-04-26T05:59:50Z</time></trkpt><trkpt lat="37.00953923379953" lon="15.212821250817331"><ele>26.0</ele><time>2026-04-26T05:59:51Z</time></trkpt><trkpt lat="37.009277543142076" lon="15.2127384168556"><ele>26.0</ele><time>2026-04-26T05:59:52Z</time></trkpt><trkpt lat="37.00901753349426" lon="15.212658008202654"><ele>26.5</ele><time>2026-04-26T05:59:53Z</time></trkpt><trkpt lat="37.00875947075045" lon="15.212577566464448"><ele>27.0</ele><time>2026-04-26T05:59:54Z</time></trkpt><trkpt lat="37.008501883905474" lon="15.212496943106723"><ele>27.0</ele><time>2026-04-26T05:59:55Z</time></trkpt><trkpt lat="37.00824210190944" lon="15.212413489246574"><ele>27.0</ele><time>2026-04-26T05:59:56Z</time></trkpt><trkpt lat="37.00798077976806" lon="15.212330044589974"><ele>26.5</ele><time>2026-04-26T05:59:57Z</time></trkpt><trkpt lat="37.007718003291195" lon="15.212248874583189"><ele>26.0</ele><time>2026-04-26T05:59:58Z</time></trkpt><trkpt lat="37.007453150165716" lon="15.212167457115118"><ele>25.5</ele><time>2026-04-26T05:59:59Z</time></trkpt><trkpt lat="37.00718973909534" lon="15.212084119800931"><ele>25.0</ele><time>2026-04-26T06:00:00Z</time></trkpt><trkpt lat="37.006926976748254" lon="15.211993539477833"><ele>25.0</ele><time>2026-04-26T06:00:01Z</time></trkpt><trkpt lat="37.00666333600704" lon="15.211896243936211"><ele>25.0</ele><time>2026-04-26T06:00:02Z</time></trkpt><trkpt lat="37.006402359401775" lon="15.211796197680227"><ele>26.0</ele><time>2026-04-26T06:00:03Z</time></trkpt><trkpt lat="37.006145377891656" lon="15.211695032018987"><ele>27.0</ele><time>2026-04-26T06:00:04Z</time></trkpt><trkpt lat="37.00588786070765" lon="15.211587419563177"><ele>26.5</ele><time>2026-04-26T06:00:05Z</time></trkpt><trkpt lat="37.005630112149085" lon="15.211471562637325"><ele>26.0</ele><time>2026-04-26T06:00:06Z</time></trkpt><trkpt lat="37.00537371235704" lon="15.211347806983957"><ele>26.0</ele><time>2026-04-26T06:00:07Z</time></trkpt><trkpt lat="37.00511972644759" lon="15.211224125703186"><ele>26.0</ele><time>2026-04-26T06:00:08Z</time></trkpt><trkpt lat="37.0048624676429" lon="15.21110098116491"><ele>26.0</ele><time>2026-04-26T06:00:09Z</time></trkpt><trkpt lat="37.00461118119519" lon="15.21097405978026"><ele>26.0</ele><time>2026-04-26T06:00:10Z</time></trkpt><trkpt lat="37.00436224722112" lon="15.210838673427084"><ele>26.5</ele><time>2026-04-26T06:00:11Z</time></trkpt><trkpt lat="37.00410902988993" lon="15.210696019681514"><ele>27.0</ele><time>2026-04-26T06:00:12Z</time></trkpt><trkpt lat="37.00385598651123" lon="15.21054575283474"><ele>27.0</ele><time>2026-04-26T06:00:13Z</time></trkpt><trkpt lat="37.00360242670195" lon="15.210392757701843"><ele>27.0</ele><time>2026-04-26T06:00:14Z</time></trkpt><trkpt lat="37.003354022886214" lon="15.210231966989605"><ele>28.0</ele><time>2026-04-26T06:00:15Z</time></trkpt><trkpt lat="37.00311212043677" lon="15.210071855269213"><ele>29.0</ele><time>2026-04-26T06:00:16Z</time></trkpt><trkpt lat="37.00287129912259" lon="15.209907456201261"><ele>29.0</ele><time>2026-04-26T06:00:17Z</time></trkpt><trkpt lat="37.002633431479005" lon="15.209739885757612"><ele>29.0</ele><time>2026-04-26T06:00:18Z</time></trkpt><trkpt lat="37.00240027475285" lon="15.209568197629311"><ele>30.0</ele><time>2026-04-26T06:00:19Z</time></trkpt><trkpt lat="37.002171122026674" lon="15.209392412974125"><ele>31.0</ele><time>2026-04-26T06:00:20Z</time></trkpt><trkpt lat="37.00194073592648" lon="15.209208951217388"><ele>31.0</ele><time>2026-04-26T06:00:21Z</time></trkpt><trkpt lat="37.00171200267796" lon="15.209022517715612"><ele>31.0</ele><time>2026-04-26T06:00:22Z</time></trkpt><trkpt lat="37.00148455412816" lon="15.208835403143214"><ele>30.5</ele><time>2026-04-26T06:00:23Z</time></trkpt><trkpt lat="37.001261384840696" lon="15.208640855877313"><ele>30.0</ele><time>2026-04-26T06:00:24Z</time></trkpt><trkpt lat="37.00104067914272" lon="15.208441376058886"><ele>30.5</ele><time>2026-04-26T06:00:25Z</time></trkpt><trkpt lat="37.00081940702145" lon="15.208242593385053"><ele>31.0</ele><time>2026-04-26T06:00:26Z</time></trkpt><trkpt lat="37.00059915941548" lon="15.208044607820014"><ele>31.5</ele><time>2026-04-26T06:00:27Z</time></trkpt><trkpt lat="37.00037912323643" lon="15.20784495357172"><ele>32.0</ele><time>2026-04-26T06:00:28Z</time></trkpt><trkpt lat="37.00015797572347" lon="15.207641763775415"><ele>32.0</ele><time>2026-04-26T06:00:29Z</time></trkpt><trkpt lat="36.999937094187516" lon="15.207436798155932"><ele>32.0</ele><time>2026-04-26T06:00:30Z</time></trkpt><trkpt lat="36.99971534100863" lon="15.207233258420604"><ele>32.0</ele><time>2026-04-26T06:00:31Z</time></trkpt><trkpt lat="36.99949548293559" lon="15.207034627911067"><ele>32.0</ele><time>2026-04-26T06:00:32Z</time></trkpt><trkpt lat="36.99927314918738" lon="15.206831589388337"><ele>32.0</ele><time>2026-04-26T06:00:33Z</time></trkpt><trkpt lat="36.999053801493844" lon="15.206631423175905"><ele>32.0</ele><time>2026-04-26T06:00:34Z</time></trkpt><trkpt lat="36.99883252323944" lon="15.20642763111812"><ele>32.0</ele><time>2026-04-26T06:00:35Z</time></trkpt><trkpt lat="36.99860854057697" lon="15.206224490371099"><ele>32.0</ele><time>2026-04-26T06:00:36Z</time></trkpt><trkpt lat="36.99837924141434" lon="15.206017904922405"><ele>32.5</ele><time>2026-04-26T06:00:37Z</time></trkpt><trkpt lat="36.998151689023985" lon="15.205819769843616"><ele>33.0</ele><time>2026-04-26T06:00:38Z</time></trkpt><trkpt lat="36.99791384708367" lon="15.205614403363475"><ele>33.5</ele><time>2026-04-26T06:00:39Z</time></trkpt><trkpt lat="36.99767411993976" lon="15.205399626708083"><ele>34.0</ele><time>2026-04-26T06:00:40Z</time></trkpt><trkpt lat="36.99743568008371" lon="15.205181855860442"><ele>35.0</ele><time>2026-04-26T06:00:41Z</time></trkpt><trkpt lat="36.99719829299144" lon="15.204965259510452"><ele>36.0</ele><time>2026-04-26T06:00:42Z</time></trkpt><trkpt lat="36.99696675567049" lon="15.204750980759613"><ele>36.0</ele><time>2026-04-26T06:00:43Z</time></trkpt><trkpt lat="36.996736148421824" lon="15.20453630054718"><ele>36.0</ele><time>2026-04-26T06:00:44Z</time></trkpt><trkpt lat="36.99650655870786" lon="15.204323574298504"><ele>36.0</ele><time>2026-04-26T06:00:45Z</time></trkpt><trkpt lat="36.996277348757964" lon="15.204106658221406"><ele>36.0</ele><time>2026-04-26T06:00:46Z</time></trkpt><trkpt lat="36.99605024109959" lon="15.203888951483659"><ele>37.5</ele><time>2026-04-26T06:00:47Z</time></trkpt><trkpt lat="36.99582122403227" lon="15.203673442710974"><ele>39.0</ele><time>2026-04-26T06:00:48Z</time></trkpt><trkpt lat="36.995596382618224" lon="15.203468264504634"><ele>39.0</ele><time>2026-04-26T06:00:49Z</time></trkpt><trkpt lat="36.99536822244742" lon="15.203256833062651"><ele>39.0</ele><time>2026-04-26T06:00:50Z</time></trkpt><trkpt lat="36.99514569029889" lon="15.203049891572956"><ele>39.0</ele><time>2026-04-26T06:00:51Z</time></trkpt><trkpt lat="36.99491954850042" lon="15.2028407031091"><ele>39.0</ele><time>2026-04-26T06:00:52Z</time></trkpt><trkpt lat="36.99469767508842" lon="15.20263670047577"><ele>39.0</ele><time>2026-04-26T06:00:53Z</time></trkpt><trkpt lat="36.99447534975861" lon="15.202432953827364"><ele>39.0</ele><time>2026-04-26T06:00:54Z</time></trkpt><trkpt lat="36.99425312161394" lon="15.202229242589388"><ele>39.5</ele><time>2026-04-26T06:00:55Z</time></trkpt><trkpt lat="36.994030720955" lon="15.202025904203069"><ele>40.0</ele><time>2026-04-26T06:00:56Z</time></trkpt><trkpt lat="36.993809380557835" lon="15.201819739183192"><ele>40.0</ele><time>2026-04-26T06:00:57Z</time></trkpt><trkpt lat="36.99358676783016" lon="15.201613633775834"><ele>40.0</ele><time>2026-04-26T06:00:58Z</time></trkpt><trkpt lat="36.99336204129513" lon="15.201407104389599"><ele>40.5</ele><time>2026-04-26T06:00:59Z</time></trkpt><trkpt lat="36.993141952293584" lon="15.201204258308266"><ele>41.0</ele><time>2026-04-26T06:01:00Z</time></trkpt><trkpt lat="36.99291584749461" lon="15.200997470600205"><ele>41.0</ele><time>2026-04-26T06:01:01Z</time></trkpt><trkpt lat="36.99269106162112" lon="15.200791303998024"><ele>41.0</ele><time>2026-04-26T06:01:02Z</time></trkpt><trkpt lat="36.99246766291996" lon="15.200589377850347"><ele>41.5</ele><time>2026-04-26T06:01:03Z</time></trkpt><trkpt lat="36.992241627272655" lon="15.20038449646399"><ele>42.0</ele><time>2026-04-26T06:01:04Z</time></trkpt><trkpt lat="36.99201485179056" lon="15.200180867504427"><ele>42.0</ele><time>2026-04-26T06:01:05Z</time></trkpt><trkpt lat="36.991784777699685" lon="15.199974971958772"><ele>42.0</ele><time>2026-04-26T06:01:06Z</time></trkpt><trkpt lat="36.99155532700166" lon="15.199771082401849"><ele>43.0</ele><time>2026-04-26T06:01:07Z</time></trkpt><trkpt lat="36.99132452845063" lon="15.199568006957746"><ele>44.0</ele><time>2026-04-26T06:01:08Z</time></trkpt><trkpt lat="36.99108993849382" lon="15.199367367701171"><ele>44.0</ele><time>2026-04-26T06:01:09Z</time></trkpt><trkpt lat="36.99085704668535" lon="15.199171878512418"><ele>44.0</ele><time>2026-04-26T06:01:10Z</time></trkpt><trkpt lat="36.990617311532034" lon="15.198979647373081"><ele>44.0</ele><time>2026-04-26T06:01:11Z</time></trkpt><trkpt lat="36.99037931443103" lon="15.198791140744229"><ele>44.0</ele><time>2026-04-26T06:01:12Z</time></trkpt><trkpt lat="36.99013660801807" lon="15.198605941810266"><ele>44.0</ele><time>2026-04-26T06:01:13Z</time></trkpt><trkpt lat="36.98989247375852" lon="15.198429559282706"><ele>44.0</ele><time>2026-04-26T06:01:14Z</time></trkpt><trkpt lat="36.98964951859162" lon="15.19826092972141"><ele>44.0</ele><time>2026-04-26T06:01:15Z</time></trkpt><trkpt lat="36.989399536656784" lon="15.19809536574096"><ele>44.0</ele><time>2026-04-26T06:01:16Z</time></trkpt><trkpt lat="36.989149210980166" lon="15.19793469632591"><ele>44.0</ele><time>2026-04-26T06:01:17Z</time></trkpt><trkpt lat="36.988901724406546" lon="15.197779226742718"><ele>44.0</ele><time>2026-04-26T06:01:18Z</time></trkpt><trkpt lat="36.98865154686614" lon="15.197624892764326"><ele>44.0</ele><time>2026-04-26T06:01:19Z</time></trkpt><trkpt lat="36.988399601132684" lon="15.197476925480224"><ele>44.0</ele><time>2026-04-26T06:01:20Z</time></trkpt><trkpt lat="36.98814444834508" lon="15.197334862942121"><ele>45.0</ele><time>2026-04-26T06:01:21Z</time></trkpt><trkpt lat="36.98788821073521" lon="15.197193018683736"><ele>46.0</ele><time>2026-04-26T06:01:22Z</time></trkpt><trkpt lat="36.98762914444747" lon="15.197054528897823"><ele>45.5</ele><time>2026-04-26T06:01:23Z</time></trkpt><trkpt lat="36.98736417386886" lon="15.196919820235665"><ele>45.0</ele><time>2026-04-26T06:01:24Z</time></trkpt><trkpt lat="36.9871004486043" lon="15.196793527230748"><ele>45.0</ele><time>2026-04-26T06:01:25Z</time></trkpt><trkpt lat="36.986838274704866" lon="15.196675135000145"><ele>45.0</ele><time>2026-04-26T06:01:26Z</time></trkpt><trkpt lat="36.98657438725105" lon="15.196563863292859"><ele>45.0</ele><time>2026-04-26T06:01:27Z</time></trkpt><trkpt lat="36.98630765972521" lon="15.196457263948849"><ele>45.0</ele><time>2026-04-26T06:01:28Z</time></trkpt><trkpt lat="36.98603723152517" lon="15.196352374000448"><ele>45.0</ele><time>2026-04-26T06:01:29Z</time></trkpt><trkpt lat="36.98576705790508" lon="15.196248506432935"><ele>45.0</ele><time>2026-04-26T06:01:30Z</time></trkpt><trkpt lat="36.985497189178105" lon="15.1961485097012"><ele>45.0</ele><time>2026-04-26T06:01:31Z</time></trkpt><trkpt lat="36.98522450631877" lon="15.196050851437917"><ele>45.0</ele><time>2026-04-26T06:01:32Z</time></trkpt><trkpt lat="36.984947947532774" lon="15.195956718686435"><ele>46.5</ele><time>2026-04-26T06:01:33Z</time></trkpt><trkpt lat="36.984677753115186" lon="15.195867835477065"><ele>48.0</ele><time>2026-04-26T06:01:34Z</time></trkpt><trkpt lat="36.98440223847129" lon="15.195775219652836"><ele>48.5</ele><time>2026-04-26T06:01:35Z</time></trkpt><trkpt lat="36.984127554479954" lon="15.19568120955396"><ele>49.0</ele><time>2026-04-26T06:01:36Z</time></trkpt><trkpt lat="36.98385102165676" lon="15.195585301923314"><ele>49.0</ele><time>2026-04-26T06:01:37Z</time></trkpt><trkpt lat="36.98357694123797" lon="15.195488376499558"><ele>49.0</ele><time>2026-04-26T06:01:38Z</time></trkpt><trkpt lat="36.98330303238217" lon="15.195391374941094"><ele>50.5</ele><time>2026-04-26T06:01:39Z</time></trkpt><trkpt lat="36.98303064663497" lon="15.195295855834635"><ele>52.0</ele><time>2026-04-26T06:01:40Z</time></trkpt><trkpt lat="36.98275623134934" lon="15.19520138242221"><ele>52.0</ele><time>2026-04-26T06:01:41Z</time></trkpt><trkpt lat="36.982484591798595" lon="15.195108543620737"><ele>52.0</ele><time>2026-04-26T06:01:42Z</time></trkpt><trkpt lat="36.98221457854267" lon="15.195015438250946"><ele>52.0</ele><time>2026-04-26T06:01:43Z</time></trkpt><trkpt lat="36.98194244606698" lon="15.194921702228823"><ele>52.0</ele><time>2026-04-26T06:01:44Z</time></trkpt><trkpt lat="36.98167280014548" lon="15.1948275107982"><ele>53.0</ele><time>2026-04-26T06:01:45Z</time></trkpt><trkpt lat="36.98140045460764" lon="15.194731122115414"><ele>54.0</ele><time>2026-04-26T06:01:46Z</time></trkpt><trkpt lat="36.98113110020081" lon="15.194637255197147"><ele>54.0</ele><time>2026-04-26T06:01:47Z</time></trkpt><trkpt lat="36.98086310182149" lon="15.19454439699907"><ele>54.0</ele><time>2026-04-26T06:01:48Z</time></trkpt><trkpt lat="36.980591586136924" lon="15.194447383155032"><ele>55.0</ele><time>2026-04-26T06:01:49Z</time></trkpt><trkpt lat="36.98032429883944" lon="15.194351184330396"><ele>56.0</ele><time>2026-04-26T06:01:50Z</time></trkpt><trkpt lat="36.98005916463891" lon="15.194255880331058"><ele>56.0</ele><time>2026-04-26T06:01:51Z</time></trkpt><trkpt lat="36.97978572029375" lon="15.194154826683622"><ele>56.0</ele><time>2026-04-26T06:01:52Z</time></trkpt><trkpt lat="36.97951796299875" lon="15.194053654643588"><ele>56.0</ele><time>2026-04-26T06:01:53Z</time></trkpt><trkpt lat="36.979254149554414" lon="15.193948863526607"><ele>56.0</ele><time>2026-04-26T06:01:54Z</time></trkpt><trkpt lat="36.97899179689832" lon="15.193839666515979"><ele>56.0</ele><time>2026-04-26T06:01:55Z</time></trkpt><trkpt lat="36.97872326502506" lon="15.193723635548517"><ele>56.0</ele><time>2026-04-26T06:01:56Z</time></trkpt><trkpt lat="36.97845824828662" lon="15.19360194442802"><ele>56.5</ele><time>2026-04-26T06:01:57Z</time></trkpt><trkpt lat="36.978194601423326" lon="15.193477155990356"><ele>57.0</ele><time>2026-04-26T06:01:58Z</time></trkpt><trkpt lat="36.977933354226636" lon="15.193347295475682"><ele>57.0</ele><time>2026-04-26T06:01:59Z</time></trkpt><trkpt lat="36.97767671791565" lon="15.193211210525243"><ele>57.0</ele><time>2026-04-26T06:02:00Z</time></trkpt><trkpt lat="36.97742126112768" lon="15.193068962525329"><ele>59.0</ele><time>2026-04-26T06:02:01Z</time></trkpt><trkpt lat="36.977169595607215" lon="15.192920958121679"><ele>61.0</ele><time>2026-04-26T06:02:02Z</time></trkpt><trkpt lat="36.97691902272784" lon="15.192768189360459"><ele>61.0</ele><time>2026-04-26T06:02:03Z</time></trkpt><trkpt lat="36.97666952119468" lon="15.192611820193191"><ele>61.0</ele><time>2026-04-26T06:02:04Z</time></trkpt><trkpt lat="36.976421537272294" lon="15.192450663511908"><ele>61.0</ele><time>2026-04-26T06:02:05Z</time></trkpt><trkpt lat="36.97617707294049" lon="15.192286019207547"><ele>61.0</ele><time>2026-04-26T06:02:06Z</time></trkpt><trkpt lat="36.97593380463478" lon="15.192116085864606"><ele>61.0</ele><time>2026-04-26T06:02:07Z</time></trkpt><trkpt lat="36.97569217428524" lon="15.19194099166829"><ele>61.0</ele><time>2026-04-26T06:02:08Z</time></trkpt><trkpt lat="36.97545123304045" lon="15.191761883202295"><ele>61.0</ele><time>2026-04-26T06:02:09Z</time></trkpt><trkpt lat="36.975210375064734" lon="15.191576839256511"><ele>61.0</ele><time>2026-04-26T06:02:10Z</time></trkpt><trkpt lat="36.974974437055224" lon="15.191388866985214"><ele>60.5</ele><time>2026-04-26T06:02:11Z</time></trkpt><trkpt lat="36.97473898301234" lon="15.191193082829692"><ele>60.0</ele><time>2026-04-26T06:02:12Z</time></trkpt><trkpt lat="36.974507411082314" lon="15.19099574575553"><ele>60.0</ele><time>2026-04-26T06:02:13Z</time></trkpt><trkpt lat="36.9742711483588" lon="15.190792087651486"><ele>60.0</ele><time>2026-04-26T06:02:14Z</time></trkpt><trkpt lat="36.97404086672617" lon="15.190589028584936"><ele>58.0</ele><time>2026-04-26T06:02:15Z</time></trkpt><trkpt lat="36.973810748302796" lon="15.190373436054086"><ele>56.0</ele><time>2026-04-26T06:02:16Z</time></trkpt><trkpt lat="36.97358821148785" lon="15.190166480906592"><ele>56.0</ele><time>2026-04-26T06:02:17Z</time></trkpt><trkpt lat="36.97336003773514" lon="15.189948884223291"><ele>56.0</ele><time>2026-04-26T06:02:18Z</time></trkpt><trkpt lat="36.973132271324374" lon="15.189729360123946"><ele>55.5</ele><time>2026-04-26T06:02:19Z</time></trkpt><trkpt lat="36.97290694288313" lon="15.189505886942078"><ele>55.0</ele><time>2026-04-26T06:02:20Z</time></trkpt><trkpt lat="36.97268304377442" lon="15.189276446806591"><ele>53.5</ele><time>2026-04-26T06:02:21Z</time></trkpt><trkpt lat="36.97246269542394" lon="15.189060847804742"><ele>52.0</ele><time>2026-04-26T06:02:22Z</time></trkpt><trkpt lat="36.9722391121285" lon="15.188835697151397"><ele>51.5</ele><time>2026-04-26T06:02:23Z</time></trkpt><trkpt lat="36.97202103704111" lon="15.188621110609935"><ele>51.0</ele><time>2026-04-26T06:02:24Z</time></trkpt><trkpt lat="36.971803211755265" lon="15.188405412216948"><ele>50.5</ele><time>2026-04-26T06:02:25Z</time></trkpt><trkpt lat="36.97158745039822" lon="15.188189461849374"><ele>50.0</ele><time>2026-04-26T06:02:26Z</time></trkpt><trkpt lat="36.97137308645459" lon="15.1879785185273"><ele>52.0</ele><time>2026-04-26T06:02:27Z</time></trkpt><trkpt lat="36.97115322985631" lon="15.187766137574775"><ele>54.0</ele><time>2026-04-26T06:02:28Z</time></trkpt><trkpt lat="36.97093748029368" lon="15.187555426326"><ele>54.0</ele><time>2026-04-26T06:02:29Z</time></trkpt><trkpt lat="36.970724897134154" lon="15.187344802197982"><ele>54.0</ele><time>2026-04-26T06:02:30Z</time></trkpt><trkpt lat="36.97051288539458" lon="15.187136461842698"><ele>54.5</ele><time>2026-04-26T06:02:31Z</time></trkpt><trkpt lat="36.970300368387655" lon="15.186925059538648"><ele>55.0</ele><time>2026-04-26T06:02:32Z</time></trkpt><trkpt lat="36.970089070756956" lon="15.186712465669386"><ele>54.0</ele><time>2026-04-26T06:02:33Z</time></trkpt><trkpt lat="36.969873806362834" lon="15.186499600916402"><ele>53.0</ele><time>2026-04-26T06:02:34Z</time></trkpt><trkpt lat="36.96965606041216" lon="15.186287842954785"><ele>53.0</ele><time>2026-04-26T06:02:35Z</time></trkpt><trkpt lat="36.96944087873549" lon="15.186077022050247"><ele>53.0</ele><time>2026-04-26T06:02:36Z</time></trkpt><trkpt lat="36.969226595977865" lon="15.18586570246572"><ele>53.0</ele><time>2026-04-26T06:02:37Z</time></trkpt><trkpt lat="36.96901241073786" lon="15.185654534264076"><ele>53.0</ele><time>2026-04-26T06:02:38Z</time></trkpt><trkpt lat="36.96880023733779" lon="15.185448202508134"><ele>53.0</ele><time>2026-04-26T06:02:39Z</time></trkpt><trkpt lat="36.96858957159138" lon="15.185243409804977"><ele>53.0</ele><time>2026-04-26T06:02:40Z</time></trkpt><trkpt lat="36.96837557236934" lon="15.18502924357765"><ele>52.5</ele><time>2026-04-26T06:02:41Z</time></trkpt><trkpt lat="36.9681613828951" lon="15.184815299627472"><ele>52.0</ele><time>2026-04-26T06:02:42Z</time></trkpt><trkpt lat="36.96794846729032" lon="15.184603661363397"><ele>52.0</ele><time>2026-04-26T06:02:43Z</time></trkpt><trkpt lat="36.96773283286064" lon="15.184394675565564"><ele>52.0</ele><time>2026-04-26T06:02:44Z</time></trkpt><trkpt lat="36.96751885521589" lon="15.184185473805297"><ele>51.5</ele><time>2026-04-26T06:02:45Z</time></trkpt><trkpt lat="36.96730717901683" lon="15.183974904461145"><ele>51.0</ele><time>2026-04-26T06:02:46Z</time></trkpt><trkpt lat="36.96709698388478" lon="15.183762934902806"><ele>51.0</ele><time>2026-04-26T06:02:47Z</time></trkpt><trkpt lat="36.966884269745385" lon="15.183550902978899"><ele>51.0</ele><time>2026-04-26T06:02:48Z</time></trkpt><trkpt lat="36.96667072742307" lon="15.183341949023042"><ele>51.5</ele><time>2026-04-26T06:02:49Z</time></trkpt><trkpt lat="36.96645447103495" lon="15.183130684458199"><ele>52.0</ele><time>2026-04-26T06:02:50Z</time></trkpt><trkpt lat="36.966240107018905" lon="15.182918778967561"><ele>52.0</ele><time>2026-04-26T06:02:51Z</time></trkpt><trkpt lat="36.96602935323125" lon="15.182708506255086"><ele>52.0</ele><time>2026-04-26T06:02:52Z</time></trkpt><trkpt lat="36.965811801694926" lon="15.18249165523153"><ele>52.5</ele><time>2026-04-26T06:02:53Z</time></trkpt><trkpt lat="36.96558548024978" lon="15.182272022045737"><ele>53.0</ele><time>2026-04-26T06:02:54Z</time></trkpt><trkpt lat="36.96535273759047" lon="15.1820539817332"><ele>53.0</ele><time>2026-04-26T06:02:55Z</time></trkpt><trkpt lat="36.965113269621476" lon="15.181816953176202"><ele>53.0</ele><time>2026-04-26T06:02:56Z</time></trkpt><trkpt lat="36.96488006914841" lon="15.181587555097467"><ele>52.0</ele><time>2026-04-26T06:02:57Z</time></trkpt><trkpt lat="36.96465322960395" lon="15.181363380113286"><ele>51.0</ele><time>2026-04-26T06:02:58Z</time></trkpt><trkpt lat="36.96442819606273" lon="15.181142207008035"><ele>51.0</ele><time>2026-04-26T06:02:59Z</time></trkpt><trkpt lat="36.96420412184065" lon="15.180923659144824"><ele>51.0</ele><time>2026-04-26T06:03:00Z</time></trkpt><trkpt lat="36.963985439567914" lon="15.180705120298137"><ele>51.5</ele><time>2026-04-26T06:03:01Z</time></trkpt><trkpt lat="36.96376979183236" lon="15.180484767142534"><ele>52.0</ele><time>2026-04-26T06:03:02Z</time></trkpt><trkpt lat="36.963552139352124" lon="15.18025854173118"><ele>51.5</ele><time>2026-04-26T06:03:03Z</time></trkpt><trkpt lat="36.96333487912054" lon="15.180029790917034"><ele>51.0</ele><time>2026-04-26T06:03:04Z</time></trkpt><trkpt lat="36.96311865157894" lon="15.17979648646849"><ele>52.5</ele><time>2026-04-26T06:03:05Z</time></trkpt><trkpt lat="36.96290779413834" lon="15.17956450270792"><ele>54.0</ele><time>2026-04-26T06:03:06Z</time></trkpt><trkpt lat="36.96270128321004" lon="15.179330123024775"><ele>53.5</ele><time>2026-04-26T06:03:07Z</time></trkpt><trkpt lat="36.9624995992296" lon="15.179096819754141"><ele>53.0</ele><time>2026-04-26T06:03:08Z</time></trkpt><trkpt lat="36.962295965107714" lon="15.178854219700648"><ele>54.0</ele><time>2026-04-26T06:03:09Z</time></trkpt><trkpt lat="36.96209790917845" lon="15.178614876453006"><ele>55.0</ele><time>2026-04-26T06:03:10Z</time></trkpt><trkpt lat="36.961898643690844" lon="15.178370179915426"><ele>56.0</ele><time>2026-04-26T06:03:11Z</time></trkpt><trkpt lat="36.96170265456493" lon="15.178124826156724"><ele>57.0</ele><time>2026-04-26T06:03:12Z</time></trkpt><trkpt lat="36.96150816627052" lon="15.17787467655084"><ele>55.0</ele><time>2026-04-26T06:03:13Z</time></trkpt><trkpt lat="36.96131866863887" lon="15.177623055992383"><ele>53.0</ele><time>2026-04-26T06:03:14Z</time></trkpt><trkpt lat="36.961130221465204" lon="15.177366182618057"><ele>52.5</ele><time>2026-04-26T06:03:15Z</time></trkpt><trkpt lat="36.96094097327538" lon="15.1771092964805"><ele>52.0</ele><time>2026-04-26T06:03:16Z</time></trkpt><trkpt lat="36.960758029601095" lon="15.176848002994287"><ele>52.0</ele><time>2026-04-26T06:03:17Z</time></trkpt><trkpt lat="36.96057496035797" lon="15.176589442437724"><ele>52.0</ele><time>2026-04-26T06:03:18Z</time></trkpt><trkpt lat="36.960392639982395" lon="15.176329085596734"><ele>52.5</ele><time>2026-04-26T06:03:19Z</time></trkpt><trkpt lat="36.96021041775658" lon="15.176069228618065"><ele>53.0</ele><time>2026-04-26T06:03:20Z</time></trkpt><trkpt lat="36.960030334498725" lon="15.175809785165358"><ele>53.0</ele><time>2026-04-26T06:03:21Z</time></trkpt><trkpt lat="36.95985151921901" lon="15.175553107529725"><ele>53.0</ele><time>2026-04-26T06:03:22Z</time></trkpt><trkpt lat="36.959669191715626" lon="15.175297478726927"><ele>53.0</ele><time>2026-04-26T06:03:23Z</time></trkpt><trkpt lat="36.95948556115646" lon="15.175040215773851"><ele>53.0</ele><time>2026-04-26T06:03:24Z</time></trkpt><trkpt lat="36.959297574495835" lon="15.174789026327906"><ele>53.0</ele><time>2026-04-26T06:03:25Z</time></trkpt><trkpt lat="36.95910376258721" lon="15.174541127405384"><ele>53.0</ele><time>2026-04-26T06:03:26Z</time></trkpt><trkpt lat="36.9589110241186" lon="15.174301675717096"><ele>53.0</ele><time>2026-04-26T06:03:27Z</time></trkpt><trkpt lat="36.958709248299336" lon="15.174063654154446"><ele>53.0</ele><time>2026-04-26T06:03:28Z</time></trkpt><trkpt lat="36.95851008899429" lon="15.173839849970866"><ele>49.0</ele><time>2026-04-26T06:03:29Z</time></trkpt><trkpt lat="36.95830560611805" lon="15.173618995195453"><ele>45.0</ele><time>2026-04-26T06:03:30Z</time></trkpt><trkpt lat="36.95809885155408" lon="15.173401985037055"><ele>38.5</ele><time>2026-04-26T06:03:31Z</time></trkpt><trkpt lat="36.95788312756021" lon="15.173185124437746"><ele>32.0</ele><time>2026-04-26T06:03:32Z</time></trkpt><trkpt lat="36.957664559722545" lon="15.172972771966485"><ele>28.0</ele><time>2026-04-26T06:03:33Z</time></trkpt><trkpt lat="36.95744174930292" lon="15.172765477749905"><ele>24.0</ele><time>2026-04-26T06:03:34Z</time></trkpt><trkpt lat="36.9572138132576" lon="15.172563457938418"><ele>24.0</ele><time>2026-04-26T06:03:35Z</time></trkpt><trkpt lat="36.956984650372895" lon="15.172368169299295"><ele>24.0</ele><time>2026-04-26T06:03:36Z</time></trkpt><trkpt lat="36.95675047848015" lon="15.172177840890802"><ele>30.5</ele><time>2026-04-26T06:03:37Z</time></trkpt><trkpt lat="36.95651616207334" lon="15.171993962218913"><ele>37.0</ele><time>2026-04-26T06:03:38Z</time></trkpt><trkpt lat="36.956276705979526" lon="15.171815086296577"><ele>37.0</ele><time>2026-04-26T06:03:39Z</time></trkpt><trkpt lat="36.956040816742515" lon="15.17164648621493"><ele>37.0</ele><time>2026-04-26T06:03:40Z</time></trkpt><trkpt lat="36.95580489898781" lon="15.171487844815989"><ele>46.0</ele><time>2026-04-26T06:03:41Z</time></trkpt><trkpt lat="36.9555645353617" lon="15.171333330995598"><ele>55.0</ele><time>2026-04-26T06:03:42Z</time></trkpt><trkpt lat="36.955323581415264" lon="15.171186164153728"><ele>55.0</ele><time>2026-04-26T06:03:43Z</time></trkpt><trkpt lat="36.95508134914016" lon="15.171042157383692"><ele>55.0</ele><time>2026-04-26T06:03:44Z</time></trkpt><trkpt lat="36.95483581208778" lon="15.170899952072077"><ele>54.5</ele><time>2026-04-26T06:03:45Z</time></trkpt><trkpt lat="36.954593906647645" lon="15.170759674519635"><ele>54.0</ele><time>2026-04-26T06:03:46Z</time></trkpt><trkpt lat="36.954347085740274" lon="15.170620070301805"><ele>54.5</ele><time>2026-04-26T06:03:47Z</time></trkpt><trkpt lat="36.95410286702652" lon="15.170487405253848"><ele>55.0</ele><time>2026-04-26T06:03:48Z</time></trkpt><trkpt lat="36.95384997595054" lon="15.170353483433052"><ele>55.0</ele><time>2026-04-26T06:03:49Z</time></trkpt><trkpt lat="36.95358771398804" lon="15.170212361663474"><ele>55.0</ele><time>2026-04-26T06:03:50Z</time></trkpt><trkpt lat="36.95332415165737" lon="15.1700493955794"><ele>54.5</ele><time>2026-04-26T06:03:51Z</time></trkpt><trkpt lat="36.95306725388619" lon="15.169871224614388"><ele>54.0</ele><time>2026-04-26T06:03:52Z</time></trkpt><trkpt lat="36.952821963827716" lon="15.169687035829261"><ele>55.5</ele><time>2026-04-26T06:03:53Z</time></trkpt><trkpt lat="36.952584173420306" lon="15.169499907969833"><ele>57.0</ele><time>2026-04-26T06:03:54Z</time></trkpt><trkpt lat="36.9523512839048" lon="15.169315763864502"><ele>57.0</ele><time>2026-04-26T06:03:55Z</time></trkpt><trkpt lat="36.952116447831976" lon="15.16913309222937"><ele>57.0</ele><time>2026-04-26T06:03:56Z</time></trkpt><trkpt lat="36.95188235853147" lon="15.168944515402014"><ele>56.5</ele><time>2026-04-26T06:03:57Z</time></trkpt><trkpt lat="36.95165182917154" lon="15.168750845998762"><ele>56.0</ele><time>2026-04-26T06:03:58Z</time></trkpt><trkpt lat="36.95142541936967" lon="15.168553443292234"><ele>56.0</ele><time>2026-04-26T06:03:59Z</time></trkpt><trkpt lat="36.951200999680125" lon="15.168355393404518"><ele>56.0</ele><time>2026-04-26T06:04:00Z</time></trkpt><trkpt lat="36.95097491948466" lon="15.16815577204761"><ele>55.5</ele><time>2026-04-26T06:04:01Z</time></trkpt><trkpt lat="36.95075072534879" lon="15.167949173579991"><ele>55.0</ele><time>2026-04-26T06:04:02Z</time></trkpt><trkpt lat="36.950531568283274" lon="15.167741278273574"><ele>55.0</ele><time>2026-04-26T06:04:03Z</time></trkpt><trkpt lat="36.95031383328066" lon="15.167533981732506"><ele>55.0</ele><time>2026-04-26T06:04:04Z</time></trkpt><trkpt lat="36.95009437430547" lon="15.167324847953141"><ele>54.0</ele><time>2026-04-26T06:04:05Z</time></trkpt><trkpt lat="36.94987201027629" lon="15.167114153125917"><ele>53.0</ele><time>2026-04-26T06:04:06Z</time></trkpt><trkpt lat="36.949651520209436" lon="15.166904637671614"><ele>53.0</ele><time>2026-04-26T06:04:07Z</time></trkpt><trkpt lat="36.94943074452222" lon="15.16669415899189"><ele>53.0</ele><time>2026-04-26T06:04:08Z</time></trkpt><trkpt lat="36.94920943571141" lon="15.166485148920462"><ele>53.0</ele><time>2026-04-26T06:04:09Z</time></trkpt><trkpt lat="36.94898880598031" lon="15.166279095012534"><ele>53.0</ele><time>2026-04-26T06:04:10Z</time></trkpt><trkpt lat="36.948763849506314" lon="15.16607483649719"><ele>53.0</ele><time>2026-04-26T06:04:11Z</time></trkpt><trkpt lat="36.94853871007676" lon="15.16587790122046"><ele>53.0</ele><time>2026-04-26T06:04:12Z</time></trkpt><trkpt lat="36.94831042285423" lon="15.165684154790856"><ele>51.5</ele><time>2026-04-26T06:04:13Z</time></trkpt><trkpt lat="36.9480795341" lon="15.165497607976329"><ele>50.0</ele><time>2026-04-26T06:04:14Z</time></trkpt><trkpt lat="36.94784569114973" lon="15.16531602869614"><ele>50.0</ele><time>2026-04-26T06:04:15Z</time></trkpt><trkpt lat="36.94761000144093" lon="15.165137516788832"><ele>50.0</ele><time>2026-04-26T06:04:16Z</time></trkpt><trkpt lat="36.9473726877902" lon="15.164964638272764"><ele>50.5</ele><time>2026-04-26T06:04:17Z</time></trkpt><trkpt lat="36.94713590641689" lon="15.16479861613948"><ele>51.0</ele><time>2026-04-26T06:04:18Z</time></trkpt><trkpt lat="36.94689881375461" lon="15.164639770310414"><ele>50.5</ele><time>2026-04-26T06:04:19Z</time></trkpt><trkpt lat="36.946661546494106" lon="15.164482535568414"><ele>50.0</ele><time>2026-04-26T06:04:20Z</time></trkpt><trkpt lat="36.946422353798646" lon="15.16433252117755"><ele>50.0</ele><time>2026-04-26T06:04:21Z</time></trkpt><trkpt lat="36.946179254403134" lon="15.164185803073252"><ele>50.0</ele><time>2026-04-26T06:04:22Z</time></trkpt><trkpt lat="36.94593655896029" lon="15.164042160181866"><ele>52.0</ele><time>2026-04-26T06:04:23Z</time></trkpt><trkpt lat="36.94569256621874" lon="15.163902098493788"><ele>54.0</ele><time>2026-04-26T06:04:24Z</time></trkpt><trkpt lat="36.94544733176671" lon="15.163767163510744"><ele>54.0</ele><time>2026-04-26T06:04:25Z</time></trkpt><trkpt lat="36.945204278536835" lon="15.163634921089722"><ele>54.0</ele><time>2026-04-26T06:04:26Z</time></trkpt><trkpt lat="36.94495725532353" lon="15.16350052150053"><ele>54.0</ele><time>2026-04-26T06:04:27Z</time></trkpt><trkpt lat="36.944711804408655" lon="15.163368531786476"><ele>54.0</ele><time>2026-04-26T06:04:28Z</time></trkpt><trkpt lat="36.94446381240001" lon="15.163233220945347"><ele>56.0</ele><time>2026-04-26T06:04:29Z</time></trkpt><trkpt lat="36.9442172290204" lon="15.163096752943382"><ele>58.0</ele><time>2026-04-26T06:04:30Z</time></trkpt><trkpt lat="36.943970117398756" lon="15.162961565612951"><ele>58.0</ele><time>2026-04-26T06:04:31Z</time></trkpt><trkpt lat="36.943722033219245" lon="15.162827804776027"><ele>58.0</ele><time>2026-04-26T06:04:32Z</time></trkpt><trkpt lat="36.9434795496583" lon="15.162694852574292"><ele>56.5</ele><time>2026-04-26T06:04:33Z</time></trkpt><trkpt lat="36.94323928446901" lon="15.162556156128558"><ele>55.0</ele><time>2026-04-26T06:04:34Z</time></trkpt><trkpt lat="36.942998088786865" lon="15.162410623491496"><ele>56.5</ele><time>2026-04-26T06:04:35Z</time></trkpt><trkpt lat="36.94275740082057" lon="15.16225806020661"><ele>58.0</ele><time>2026-04-26T06:04:36Z</time></trkpt><trkpt lat="36.94251920757817" lon="15.162099559603348"><ele>58.0</ele><time>2026-04-26T06:04:37Z</time></trkpt><trkpt lat="36.942280492513966" lon="15.161930070672167"><ele>58.0</ele><time>2026-04-26T06:04:38Z</time></trkpt><trkpt lat="36.94204651048176" lon="15.161752775524599"><ele>58.0</ele><time>2026-04-26T06:04:39Z</time></trkpt><trkpt lat="36.94181478778065" lon="15.16156985727184"><ele>58.0</ele><time>2026-04-26T06:04:40Z</time></trkpt><trkpt lat="36.941583477414014" lon="15.161381019040265"><ele>58.0</ele><time>2026-04-26T06:04:41Z</time></trkpt><trkpt lat="36.94135398625093" lon="15.161185641350963"><ele>58.0</ele><time>2026-04-26T06:04:42Z</time></trkpt><trkpt lat="36.94112989272296" lon="15.160985212082386"><ele>58.0</ele><time>2026-04-26T06:04:43Z</time></trkpt><trkpt lat="36.940911657057384" lon="15.160782718720117"><ele>58.0</ele><time>2026-04-26T06:04:44Z</time></trkpt><trkpt lat="36.940693451345055" lon="15.160570829183147"><ele>57.0</ele><time>2026-04-26T06:04:45Z</time></trkpt><trkpt lat="36.94048330283839" lon="15.160356003953751"><ele>56.0</ele><time>2026-04-26T06:04:46Z</time></trkpt><trkpt lat="36.940275300463924" lon="15.160140180010666"><ele>56.0</ele><time>2026-04-26T06:04:47Z</time></trkpt><trkpt lat="36.94007199447178" lon="15.159917417291705"><ele>56.0</ele><time>2026-04-26T06:04:48Z</time></trkpt><trkpt lat="36.939876387483565" lon="15.159693688808465"><ele>56.0</ele><time>2026-04-26T06:04:49Z</time></trkpt><trkpt lat="36.93968276656135" lon="15.159460825121528"><ele>56.0</ele><time>2026-04-26T06:04:50Z</time></trkpt><trkpt lat="36.93949574166167" lon="15.159228861507412"><ele>56.5</ele><time>2026-04-26T06:04:51Z</time></trkpt><trkpt lat="36.93931326845327" lon="15.158992332624532"><ele>57.0</ele><time>2026-04-26T06:04:52Z</time></trkpt><trkpt lat="36.93913381401018" lon="15.1587523448337"><ele>57.0</ele><time>2026-04-26T06:04:53Z</time></trkpt><trkpt lat="36.938961653276344" lon="15.158514412104502"><ele>57.0</ele><time>2026-04-26T06:04:54Z</time></trkpt><trkpt lat="36.93879412332845" lon="15.158269768864397"><ele>58.0</ele><time>2026-04-26T06:04:55Z</time></trkpt><trkpt lat="36.93863430212528" lon="15.158025809750015"><ele>59.0</ele><time>2026-04-26T06:04:56Z</time></trkpt><trkpt lat="36.938479704875995" lon="15.157781337627473"><ele>58.0</ele><time>2026-04-26T06:04:57Z</time></trkpt><trkpt lat="36.9383312117504" lon="15.157535342626973"><ele>57.0</ele><time>2026-04-26T06:04:58Z</time></trkpt><trkpt lat="36.938197520809" lon="15.15729862219107"><ele>57.0</ele><time>2026-04-26T06:04:59Z</time></trkpt><trkpt lat="36.93807295127756" lon="15.157073803418188"><ele>57.0</ele><time>2026-04-26T06:05:00Z</time></trkpt><trkpt lat="36.93794937633849" lon="15.156860518495073"><ele>57.0</ele><time>2026-04-26T06:05:01Z</time></trkpt><trkpt lat="36.93782879831305" lon="15.156656388611676"><ele>57.0</ele><time>2026-04-26T06:05:02Z</time></trkpt><trkpt lat="36.937717050032845" lon="15.156464642926874"><ele>57.0</ele><time>2026-04-26T06:05:03Z</time></trkpt><trkpt lat="36.93761162984784" lon="15.156280318670987"><ele>57.0</ele><time>2026-04-26T06:05:04Z</time></trkpt><trkpt lat="36.93751084840754" lon="15.15610244769935"><ele>56.33333333333333</ele><time>2026-04-26T06:05:05Z</time></trkpt><trkpt lat="36.937421589991985" lon="15.155928142644491"><ele>55.666666666666664</ele><time>2026-04-26T06:05:06Z</time></trkpt><trkpt lat="36.93735056497289" lon="15.15574813674378"><ele>55.0</ele><time>2026-04-26T06:05:07Z</time></trkpt><trkpt lat="36.937313550310584" lon="15.155566548980698"><ele>55.0</ele><time>2026-04-26T06:05:08Z</time></trkpt><trkpt lat="36.93731547851572" lon="15.155375619039726"><ele>55.0</ele><time>2026-04-26T06:05:09Z</time></trkpt><trkpt lat="36.937358560013365" lon="15.155173448976814"><ele>55.0</ele><time>2026-04-26T06:05:10Z</time></trkpt><trkpt lat="36.93743157001462" lon="15.154974417211147"><ele>55.0</ele><time>2026-04-26T06:05:11Z</time></trkpt><trkpt lat="36.93752095661496" lon="15.15478076313446"><ele>55.0</ele><time>2026-04-26T06:05:12Z</time></trkpt><trkpt lat="36.937597307232956" lon="15.154604783594571"><ele>55.0</ele><time>2026-04-26T06:05:13Z</time></trkpt><trkpt lat="36.937643195197644" lon="15.154429966217108"><ele>55.5</ele><time>2026-04-26T06:05:14Z</time></trkpt><trkpt lat="36.93765543178567" lon="15.154244542510172"><ele>56.0</ele><time>2026-04-26T06:05:15Z</time></trkpt><trkpt lat="36.9376339161079" lon="15.154065852266147"><ele>56.5</ele><time>2026-04-26T06:05:16Z</time></trkpt><trkpt lat="36.9375790145202" lon="15.153897914584562"><ele>57.0</ele><time>2026-04-26T06:05:17Z</time></trkpt><trkpt lat="36.937489928259886" lon="15.153750283941255"><ele>57.0</ele><time>2026-04-26T06:05:18Z</time></trkpt><trkpt lat="36.93737310265085" lon="15.15363725344448"><ele>57.0</ele><time>2026-04-26T06:05:19Z</time></trkpt><trkpt lat="36.93722798388739" lon="15.153559772542891"><ele>57.0</ele><time>2026-04-26T06:05:20Z</time></trkpt><trkpt lat="36.93707199067116" lon="15.15352720300804"><ele>57.0</ele><time>2026-04-26T06:05:21Z</time></trkpt><trkpt lat="36.93691531008508" lon="15.15355018122903"><ele>57.0</ele><time>2026-04-26T06:05:22Z</time></trkpt><trkpt lat="36.936755406517705" lon="15.153621303693834"><ele>57.0</ele><time>2026-04-26T06:05:23Z</time></trkpt><trkpt lat="36.936597747617114" lon="15.153736653218447"><ele>56.33333333333333</ele><time>2026-04-26T06:05:24Z</time></trkpt><trkpt lat="36.936439631486266" lon="15.153875572081873"><ele>55.666666666666664</ele><time>2026-04-26T06:05:25Z</time></trkpt><trkpt lat="36.93627568675382" lon="15.154022315558242"><ele>55.0</ele><time>2026-04-26T06:05:26Z</time></trkpt><trkpt lat="36.936109038515525" lon="15.154173952455329"><ele>54.33333333333333</ele><time>2026-04-26T06:05:27Z</time></trkpt><trkpt lat="36.935934693953286" lon="15.154337207581435"><ele>53.66666666666667</ele><time>2026-04-26T06:05:28Z</time></trkpt><trkpt lat="36.93574832365448" lon="15.154501091435627"><ele>53.0</ele><time>2026-04-26T06:05:29Z</time></trkpt><trkpt lat="36.93557776196445" lon="15.154642197776479"><ele>52.0</ele><time>2026-04-26T06:05:30Z</time></trkpt><trkpt lat="36.93542199809751" lon="15.154778087666957"><ele>51.0</ele><time>2026-04-26T06:05:31Z</time></trkpt><trkpt lat="36.93527518279707" lon="15.154904571570132"><ele>50.0</ele><time>2026-04-26T06:05:32Z</time></trkpt><trkpt lat="36.93513310775796" lon="15.15502692591368"><ele>49.333333333333336</ele><time>2026-04-26T06:05:33Z</time></trkpt><trkpt lat="36.93499198385744" lon="15.155148176271037"><ele>48.66666666666667</ele><time>2026-04-26T06:05:34Z</time></trkpt><trkpt lat="36.93484058365754" lon="15.155277582626642"><ele>48.0</ele><time>2026-04-26T06:05:35Z</time></trkpt><trkpt lat="36.93468124034672" lon="15.155414953686632"><ele>48.0</ele><time>2026-04-26T06:05:36Z</time></trkpt><trkpt lat="36.93451996630723" lon="15.155555579836735"><ele>48.0</ele><time>2026-04-26T06:05:37Z</time></trkpt><trkpt lat="36.93435360676496" lon="15.155703347463213"><ele>48.0</ele><time>2026-04-26T06:05:38Z</time></trkpt><trkpt lat="36.934185233259875" lon="15.15585267212798"><ele>46.666666666666664</ele><time>2026-04-26T06:05:39Z</time></trkpt><trkpt lat="36.93402173936293" lon="15.155999596289659"><ele>45.33333333333333</ele><time>2026-04-26T06:05:40Z</time></trkpt><trkpt lat="36.93386266833145" lon="15.156138349482578"><ele>44.0</ele><time>2026-04-26T06:05:41Z</time></trkpt><trkpt lat="36.93371408798269" lon="15.156262212017158"><ele>44.0</ele><time>2026-04-26T06:05:42Z</time></trkpt><trkpt lat="36.93357541507447" lon="15.156380233995081"><ele>44.0</ele><time>2026-04-26T06:05:43Z</time></trkpt><trkpt lat="36.933445637812696" lon="15.156493470677265"><ele>44.0</ele><time>2026-04-26T06:05:44Z</time></trkpt><trkpt lat="36.93332407277444" lon="15.156601462326519"><ele>43.33333333333333</ele><time>2026-04-26T06:05:45Z</time></trkpt><trkpt lat="36.93320087697811" lon="15.15671164282396"><ele>42.666666666666664</ele><time>2026-04-26T06:05:46Z</time></trkpt><trkpt lat="36.93307521011747" lon="15.156824537514922"><ele>42.0</ele><time>2026-04-26T06:05:47Z</time></trkpt><trkpt lat="36.93295058932648" lon="15.15694542924046"><ele>42.0</ele><time>2026-04-26T06:05:48Z</time></trkpt><trkpt lat="36.932832389239366" lon="15.15707293870913"><ele>42.0</ele><time>2026-04-26T06:05:49Z</time></trkpt><trkpt lat="36.93271726274302" lon="15.15720903223611"><ele>42.0</ele><time>2026-04-26T06:05:50Z</time></trkpt><trkpt lat="36.93260201837213" lon="15.15735562308418"><ele>41.0</ele><time>2026-04-26T06:05:51Z</time></trkpt><trkpt lat="36.932496941590934" lon="15.157505310219122"><ele>40.0</ele><time>2026-04-26T06:05:52Z</time></trkpt><trkpt lat="36.932401776478805" lon="15.157656030070566"><ele>39.0</ele><time>2026-04-26T06:05:53Z</time></trkpt><trkpt lat="36.93231202046583" lon="15.157808424333567"><ele>39.0</ele><time>2026-04-26T06:05:54Z</time></trkpt><trkpt lat="36.93222732400058" lon="15.157964089968523"><ele>39.0</ele><time>2026-04-26T06:05:55Z</time></trkpt><trkpt lat="36.93214655113929" lon="15.158124955628267"><ele>39.0</ele><time>2026-04-26T06:05:56Z</time></trkpt><trkpt lat="36.93207101832057" lon="15.158289327680086"><ele>39.0</ele><time>2026-04-26T06:05:57Z</time></trkpt><trkpt lat="36.93200467434116" lon="15.158453157370081"><ele>39.0</ele><time>2026-04-26T06:05:58Z</time></trkpt><trkpt lat="36.931941024245184" lon="15.158621725119062"><ele>39.0</ele><time>2026-04-26T06:05:59Z</time></trkpt><trkpt lat="36.9318808819821" lon="15.15879688764571"><ele>39.0</ele><time>2026-04-26T06:06:00Z</time></trkpt><trkpt lat="36.93183039085884" lon="15.158966680606563"><ele>38.5</ele><time>2026-04-26T06:06:01Z</time></trkpt><trkpt lat="36.931789833920774" lon="15.159131879165997"><ele>38.0</ele><time>2026-04-26T06:06:02Z</time></trkpt><trkpt lat="36.93175417280303" lon="15.159300466557651"><ele>37.5</ele><time>2026-04-26T06:06:03Z</time></trkpt><trkpt lat="36.931723525642184" lon="15.15946514693629"><ele>37.0</ele><time>2026-04-26T06:06:04Z</time></trkpt><trkpt lat="36.93169482087847" lon="15.159631474840207"><ele>37.0</ele><time>2026-04-26T06:06:05Z</time></trkpt><trkpt lat="36.93166625906487" lon="15.15979755745067"><ele>37.0</ele><time>2026-04-26T06:06:06Z</time></trkpt><trkpt lat="36.93163564046156" lon="15.159960435738029"><ele>37.0</ele><time>2026-04-26T06:06:07Z</time></trkpt><trkpt lat="36.93160998859056" lon="15.160108855505783"><ele>37.0</ele><time>2026-04-26T06:06:08Z</time></trkpt><trkpt lat="36.931584871977044" lon="15.16024813281246"><ele>36.800000000000004</ele><time>2026-04-26T06:06:09Z</time></trkpt><trkpt lat="36.931560648965956" lon="15.160380375648911"><ele>36.6</ele><time>2026-04-26T06:06:10Z</time></trkpt><trkpt lat="36.931537448518654" lon="15.1605062290639"><ele>36.400000000000006</ele><time>2026-04-26T06:06:11Z</time></trkpt><trkpt lat="36.931510535320065" lon="15.160625444853228"><ele>36.2</ele><time>2026-04-26T06:06:12Z</time></trkpt><trkpt lat="36.93147405344126" lon="15.160735375624832"><ele>36.0</ele><time>2026-04-26T06:06:13Z</time></trkpt><trkpt lat="36.931436713915296" lon="15.16084046931912"><ele>35.833333333333336</ele><time>2026-04-26T06:06:14Z</time></trkpt><trkpt lat="36.931410689924626" lon="15.160935320012864"><ele>35.666666666666664</ele><time>2026-04-26T06:06:15Z</time></trkpt><trkpt lat="36.9313893614826" lon="15.16103652701451"><ele>35.5</ele><time>2026-04-26T06:06:16Z</time></trkpt><trkpt lat="36.931371386232016" lon="15.161141154871862"><ele>35.33333333333333</ele><time>2026-04-26T06:06:17Z</time></trkpt><trkpt lat="36.93135247215662" lon="15.161248175533157"><ele>35.166666666666664</ele><time>2026-04-26T06:06:18Z</time></trkpt><trkpt lat="36.931329507666455" lon="15.16137537752226"><ele>35.0</ele><time>2026-04-26T06:06:19Z</time></trkpt><trkpt lat="36.93131469531171" lon="15.161525188670463"><ele>35.0</ele><time>2026-04-26T06:06:20Z</time></trkpt><trkpt lat="36.931290459369805" lon="15.161693989115879"><ele>35.0</ele><time>2026-04-26T06:06:21Z</time></trkpt><trkpt lat="36.93127128607083" lon="15.161859612278356"><ele>35.0</ele><time>2026-04-26T06:06:22Z</time></trkpt><trkpt lat="36.9312559538606" lon="15.162027105406672"><ele>35.0</ele><time>2026-04-26T06:06:23Z</time></trkpt><trkpt lat="36.93124463997675" lon="15.162191474279618"><ele>35.0</ele><time>2026-04-26T06:06:24Z</time></trkpt><trkpt lat="36.93123589939347" lon="15.162356338247116"><ele>35.0</ele><time>2026-04-26T06:06:25Z</time></trkpt><trkpt lat="36.9312222660425" lon="15.162534639506815"><ele>35.0</ele><time>2026-04-26T06:06:26Z</time></trkpt><trkpt lat="36.931204829687886" lon="15.162714654415053"><ele>35.0</ele><time>2026-04-26T06:06:27Z</time></trkpt><trkpt lat="36.93118455907534" lon="15.162899456105869"><ele>34.25</ele><time>2026-04-26T06:06:28Z</time></trkpt><trkpt lat="36.931166183167754" lon="15.163074904641494"><ele>33.5</ele><time>2026-04-26T06:06:29Z</time></trkpt><trkpt lat="36.93114857198755" lon="15.16325330333972"><ele>32.75</ele><time>2026-04-26T06:06:30Z</time></trkpt><trkpt lat="36.93113137938277" lon="15.163438976097536"><ele>32.0</ele><time>2026-04-26T06:06:31Z</time></trkpt><trkpt lat="36.93111309246159" lon="15.163621602323323"><ele>31.75</ele><time>2026-04-26T06:06:32Z</time></trkpt><trkpt lat="36.931093922783006" lon="15.163804130258319"><ele>31.5</ele><time>2026-04-26T06:06:33Z</time></trkpt><trkpt lat="36.93107154137402" lon="15.16398491796752"><ele>31.25</ele><time>2026-04-26T06:06:34Z</time></trkpt><trkpt lat="36.931044981512905" lon="15.16416699252992"><ele>31.0</ele><time>2026-04-26T06:06:35Z</time></trkpt><trkpt lat="36.93101236531739" lon="15.16433927892017"><ele>29.75</ele><time>2026-04-26T06:06:36Z</time></trkpt><trkpt lat="36.930974720746555" lon="15.164509388517194"><ele>28.5</ele><time>2026-04-26T06:06:37Z</time></trkpt><trkpt lat="36.93092710179877" lon="15.164669884797801"><ele>27.25</ele><time>2026-04-26T06:06:38Z</time></trkpt><trkpt lat="36.9308750769645" lon="15.164818847514642"><ele>26.0</ele><time>2026-04-26T06:06:39Z</time></trkpt><trkpt lat="36.93082061814449" lon="15.164957863468867"><ele>25.200000000000003</ele><time>2026-04-26T06:06:40Z</time></trkpt><trkpt lat="36.93076414125393" lon="15.165084298624908"><ele>24.400000000000002</ele><time>2026-04-26T06:06:41Z</time></trkpt><trkpt lat="36.93070357163254" lon="15.165205510368551"><ele>23.6</ele><time>2026-04-26T06:06:42Z</time></trkpt><trkpt lat="36.93064033657837" lon="15.165316779951116"><ele>22.8</ele><time>2026-04-26T06:06:43Z</time></trkpt><trkpt lat="36.930567044725244" lon="15.16541041416773"><ele>22.0</ele><time>2026-04-26T06:06:44Z</time></trkpt><trkpt lat="36.93047319582547" lon="15.16548432162377"><ele>22.0</ele><time>2026-04-26T06:06:45Z</time></trkpt><trkpt lat="36.93037084717269" lon="15.165525689587966"><ele>22.0</ele><time>2026-04-26T06:06:46Z</time></trkpt><trkpt lat="36.93027209971986" lon="15.165531972652143"><ele>22.0</ele><time>2026-04-26T06:06:47Z</time></trkpt><trkpt lat="36.93017191106404" lon="15.165510919826794"><ele>22.0</ele><time>2026-04-26T06:06:48Z</time></trkpt><trkpt lat="36.93007660795625" lon="15.165469341324112"><ele>22.0</ele><time>2026-04-26T06:06:49Z</time></trkpt><trkpt lat="36.929987345538045" lon="15.165410357201026"><ele>22.25</ele><time>2026-04-26T06:06:50Z</time></trkpt><trkpt lat="36.92989680092194" lon="15.16533706638465"><ele>22.5</ele><time>2026-04-26T06:06:51Z</time></trkpt><trkpt lat="36.929798164903595" lon="15.16526142392127"><ele>22.75</ele><time>2026-04-26T06:06:52Z</time></trkpt><trkpt lat="36.92969211860201" lon="15.165184688235048"><ele>23.0</ele><time>2026-04-26T06:06:53Z</time></trkpt><trkpt lat="36.92957708547156" lon="15.16510692479017"><ele>23.0</ele><time>2026-04-26T06:06:54Z</time></trkpt><trkpt lat="36.92945575224055" lon="15.165019292009381"><ele>23.0</ele><time>2026-04-26T06:06:55Z</time></trkpt><trkpt lat="36.929352149101824" lon="15.164947497308727"><ele>23.0</ele><time>2026-04-26T06:06:56Z</time></trkpt><trkpt lat="36.92926733929228" lon="15.164885360372336"><ele>23.0</ele><time>2026-04-26T06:06:57Z</time></trkpt><trkpt lat="36.92919376355271" lon="15.164835050605744"><ele>23.0</ele><time>2026-04-26T06:06:58Z</time></trkpt><trkpt lat="36.92912944221491" lon="15.164788026589592"><ele>23.0</ele><time>2026-04-26T06:06:59Z</time></trkpt><trkpt lat="36.92903926162622" lon="15.164690876546418"><ele>23.0</ele><time>2026-04-26T06:07:01Z</time></trkpt><trkpt lat="36.929009941357144" lon="15.164579994824567"><ele>23.0</ele><time>2026-04-26T06:07:03Z</time></trkpt><trkpt lat="36.92907720808571" lon="15.164452351728105"><ele>23.0</ele><time>2026-04-26T06:07:04Z</time></trkpt><trkpt lat="36.92915322709725" lon="15.16438956591461"><ele>23.0</ele><time>2026-04-26T06:07:05Z</time></trkpt><trkpt lat="36.92923541739445" lon="15.164372481829645"><ele>23.333333333333336</ele><time>2026-04-26T06:07:06Z</time></trkpt><trkpt lat="36.92931161570985" lon="15.164407033739643"><ele>23.666666666666668</ele><time>2026-04-26T06:07:07Z</time></trkpt><trkpt lat="36.92938146747403" lon="15.164482235288279"><ele>24.0</ele><time>2026-04-26T06:07:08Z</time></trkpt><trkpt lat="36.929450052900975" lon="15.164571450131312"><ele>24.333333333333336</ele><time>2026-04-26T06:07:09Z</time></trkpt><trkpt lat="36.92951444459327" lon="15.164638994850991"><ele>24.666666666666668</ele><time>2026-04-26T06:07:10Z</time></trkpt><trkpt lat="36.929587846955826" lon="15.16460911228147"><ele>25.0</ele><time>2026-04-26T06:07:11Z</time></trkpt><trkpt lat="36.92965923860527" lon="15.164556915175096"><ele>25.0</ele><time>2026-04-26T06:07:12Z</time></trkpt><trkpt lat="36.929721163999965" lon="15.164467835837366"><ele>25.0</ele><time>2026-04-26T06:07:13Z</time></trkpt><trkpt lat="36.929778975642755" lon="15.16436246191812"><ele>25.0</ele><time>2026-04-26T06:07:14Z</time></trkpt><trkpt lat="36.92984667344367" lon="15.164253547275909"><ele>25.0</ele><time>2026-04-26T06:07:15Z</time></trkpt><trkpt lat="36.929926298447455" lon="15.16414310308227"><ele>25.0</ele><time>2026-04-26T06:07:16Z</time></trkpt><trkpt lat="36.93001566523349" lon="15.164021699404339"><ele>26.0</ele><time>2026-04-26T06:07:17Z</time></trkpt><trkpt lat="36.93010905348853" lon="15.163886219132863"><ele>27.0</ele><time>2026-04-26T06:07:18Z</time></trkpt><trkpt lat="36.93020490726088" lon="15.16374887351907"><ele>28.0</ele><time>2026-04-26T06:07:19Z</time></trkpt><trkpt lat="36.930301438039464" lon="15.16360352732566"><ele>29.0</ele><time>2026-04-26T06:07:20Z</time></trkpt><trkpt lat="36.930400548828935" lon="15.16345708738253"><ele>29.0</ele><time>2026-04-26T06:07:21Z</time></trkpt><trkpt lat="36.93050495820749" lon="15.16331167517065"><ele>29.0</ele><time>2026-04-26T06:07:22Z</time></trkpt><trkpt lat="36.93060688799155" lon="15.163163265835406"><ele>29.0</ele><time>2026-04-26T06:07:23Z</time></trkpt><trkpt lat="36.930703417812296" lon="15.163031276193815"><ele>29.5</ele><time>2026-04-26T06:07:24Z</time></trkpt><trkpt lat="36.930788978658676" lon="15.16292078141032"><ele>30.0</ele><time>2026-04-26T06:07:25Z</time></trkpt><trkpt lat="36.930893190155665" lon="15.162833117575149"><ele>30.5</ele><time>2026-04-26T06:07:26Z</time></trkpt><trkpt lat="36.93097615188687" lon="15.162742393141944"><ele>31.0</ele><time>2026-04-26T06:07:27Z</time></trkpt><trkpt lat="36.93105396021976" lon="15.162677048628787"><ele>31.200000000000003</ele><time>2026-04-26T06:07:28Z</time></trkpt><trkpt lat="36.931107129751304" lon="15.162614178672388"><ele>31.400000000000002</ele><time>2026-04-26T06:07:29Z</time></trkpt><trkpt lat="36.93113624621952" lon="15.162534442478659"><ele>31.6</ele><time>2026-04-26T06:07:30Z</time></trkpt><trkpt lat="36.93113469194507" lon="15.162428631174553"><ele>31.8</ele><time>2026-04-26T06:07:31Z</time></trkpt><trkpt lat="36.93110356146108" lon="15.162285590447555"><ele>32.0</ele><time>2026-04-26T06:07:32Z</time></trkpt><trkpt lat="36.93104269576434" lon="15.162132006954792"><ele>32.0</ele><time>2026-04-26T06:07:33Z</time></trkpt><trkpt lat="36.93098145916559" lon="15.162005778790238"><ele>32.0</ele><time>2026-04-26T06:07:34Z</time></trkpt><trkpt lat="36.93092659523216" lon="15.161885207309636"><ele>32.0</ele><time>2026-04-26T06:07:35Z</time></trkpt><trkpt lat="36.93087724088798" lon="15.161776436748344"><ele>32.0</ele><time>2026-04-26T06:07:36Z</time></trkpt><trkpt lat="36.93081940520585" lon="15.161680052384845"><ele>32.0</ele><time>2026-04-26T06:07:37Z</time></trkpt><trkpt lat="36.93075946595903" lon="15.161599146552796"><ele>32.33333333333333</ele><time>2026-04-26T06:07:38Z</time></trkpt><trkpt lat="36.93071131190924" lon="15.161524477489976"><ele>32.666666666666664</ele><time>2026-04-26T06:07:39Z</time></trkpt><trkpt lat="36.93067053089489" lon="15.161449984120054"><ele>33.0</ele><time>2026-04-26T06:07:40Z</time></trkpt><trkpt lat="36.93063689130811" lon="15.161366653718162"><ele>33.333333333333336</ele><time>2026-04-26T06:07:41Z</time></trkpt><trkpt lat="36.93061885158621" lon="15.161267365085658"><ele>33.66666666666667</ele><time>2026-04-26T06:07:42Z</time></trkpt><trkpt lat="36.93061899036999" lon="15.161160696467297"><ele>34.0</ele><time>2026-04-26T06:07:43Z</time></trkpt><trkpt lat="36.9306369686918" lon="15.16105800209878"><ele>34.0</ele><time>2026-04-26T06:07:44Z</time></trkpt><trkpt lat="36.930668875589404" lon="15.160956093665027"><ele>34.0</ele><time>2026-04-26T06:07:45Z</time></trkpt><trkpt lat="36.93071025432034" lon="15.16086504900214"><ele>34.0</ele><time>2026-04-26T06:07:46Z</time></trkpt><trkpt lat="36.93076547361624" lon="15.160782124250241"><ele>34.0</ele><time>2026-04-26T06:07:47Z</time></trkpt><trkpt lat="36.93083276720112" lon="15.160715777349461"><ele>34.0</ele><time>2026-04-26T06:07:48Z</time></trkpt><trkpt lat="36.93091875899413" lon="15.1606681181438"><ele>34.0</ele><time>2026-04-26T06:07:49Z</time></trkpt><trkpt lat="36.931032881924054" lon="15.160633496599825"><ele>34.4</ele><time>2026-04-26T06:07:50Z</time></trkpt><trkpt lat="36.931146344180604" lon="15.16062002273633"><ele>34.8</ele><time>2026-04-26T06:07:51Z</time></trkpt><trkpt lat="36.93124170965924" lon="15.160612479417244"><ele>35.2</ele><time>2026-04-26T06:07:52Z</time></trkpt><trkpt lat="36.931326416814876" lon="15.16058851307698"><ele>35.6</ele><time>2026-04-26T06:07:53Z</time></trkpt><trkpt lat="36.93139854514268" lon="15.16052424554843"><ele>36.0</ele><time>2026-04-26T06:07:54Z</time></trkpt><trkpt lat="36.931473777166275" lon="15.160401914267759"><ele>36.0</ele><time>2026-04-26T06:07:55Z</time></trkpt><trkpt lat="36.931525781351915" lon="15.160231481209093"><ele>36.0</ele><time>2026-04-26T06:07:56Z</time></trkpt><trkpt lat="36.93155795139687" lon="15.160014059603174"><ele>36.0</ele><time>2026-04-26T06:07:57Z</time></trkpt><trkpt lat="36.93159133615082" lon="15.159747660396185"><ele>36.333333333333336</ele><time>2026-04-26T06:07:58Z</time></trkpt><trkpt lat="36.93163255539018" lon="15.159506142960234"><ele>36.66666666666667</ele><time>2026-04-26T06:07:59Z</time></trkpt><trkpt lat="36.93167079983096" lon="15.159309204110457"><ele>37.0</ele><time>2026-04-26T06:08:00Z</time></trkpt><trkpt lat="36.931705840503305" lon="15.159132787365454"><ele>37.5</ele><time>2026-04-26T06:08:01Z</time></trkpt><trkpt lat="36.93174329918718" lon="15.15896354116972"><ele>38.0</ele><time>2026-04-26T06:08:02Z</time></trkpt><trkpt lat="36.93178661987657" lon="15.158785770016442"><ele>38.5</ele><time>2026-04-26T06:08:03Z</time></trkpt><trkpt lat="36.931828427922355" lon="15.15861623783429"><ele>39.0</ele><time>2026-04-26T06:08:04Z</time></trkpt><trkpt lat="36.931881917257364" lon="15.15846710586292"><ele>39.0</ele><time>2026-04-26T06:08:05Z</time></trkpt><trkpt lat="36.93193686751281" lon="15.158336599128916"><ele>39.0</ele><time>2026-04-26T06:08:06Z</time></trkpt><trkpt lat="36.93198653053097" lon="15.158210960317811"><ele>39.0</ele><time>2026-04-26T06:08:07Z</time></trkpt><trkpt lat="36.93203063344529" lon="15.15809661917834"><ele>39.0</ele><time>2026-04-26T06:08:08Z</time></trkpt><trkpt lat="36.93207514530676" lon="15.157981765861713"><ele>39.0</ele><time>2026-04-26T06:08:09Z</time></trkpt><trkpt lat="36.932121438503316" lon="15.157864573718632"><ele>39.0</ele><time>2026-04-26T06:08:10Z</time></trkpt><trkpt lat="36.93216635351206" lon="15.157756786751875"><ele>39.0</ele><time>2026-04-26T06:08:11Z</time></trkpt><trkpt lat="36.932203237735884" lon="15.157657944805493"><ele>39.0</ele><time>2026-04-26T06:08:12Z</time></trkpt><trkpt lat="36.93224861750977" lon="15.1576014191956"><ele>39.0</ele><time>2026-04-26T06:08:13Z</time></trkpt><trkpt lat="36.9323062180927" lon="15.157527969786528"><ele>39.0</ele><time>2026-04-26T06:08:17Z</time></trkpt><trkpt lat="36.93239817854867" lon="15.157578722674778"><ele>39.0</ele><time>2026-04-26T06:08:18Z</time></trkpt><trkpt lat="36.9324799559185" lon="15.157652093589004"><ele>39.25</ele><time>2026-04-26T06:08:19Z</time></trkpt><trkpt lat="36.93258645765099" lon="15.157768557134448"><ele>39.5</ele><time>2026-04-26T06:08:20Z</time></trkpt><trkpt lat="36.93268495440577" lon="15.157877601181545"><ele>39.75</ele><time>2026-04-26T06:08:21Z</time></trkpt><trkpt lat="36.93278062850064" lon="15.157958620286538"><ele>40.0</ele><time>2026-04-26T06:08:22Z</time></trkpt><trkpt lat="36.93288309405837" lon="15.158054745781628"><ele>40.0</ele><time>2026-04-26T06:08:23Z</time></trkpt><trkpt lat="36.93300372149566" lon="15.158143048846389"><ele>40.0</ele><time>2026-04-26T06:08:24Z</time></trkpt><trkpt lat="36.93312208445166" lon="15.158240123616471"><ele>40.0</ele><time>2026-04-26T06:08:25Z</time></trkpt><trkpt lat="36.93324585334268" lon="15.158348050182598"><ele>40.0</ele><time>2026-04-26T06:08:26Z</time></trkpt><trkpt lat="36.93337945559357" lon="15.158465156068722"><ele>40.333333333333336</ele><time>2026-04-26T06:08:27Z</time></trkpt><trkpt lat="36.93351192695181" lon="15.158587168045797"><ele>40.666666666666664</ele><time>2026-04-26T06:08:28Z</time></trkpt><trkpt lat="36.933657362433664" lon="15.158714128333596"><ele>41.0</ele><time>2026-04-26T06:08:29Z</time></trkpt><trkpt lat="36.933806026676834" lon="15.15884077548648"><ele>41.0</ele><time>2026-04-26T06:08:30Z</time></trkpt><trkpt lat="36.93395668557668" lon="15.158973801718563"><ele>41.0</ele><time>2026-04-26T06:08:31Z</time></trkpt><trkpt lat="36.934102600449705" lon="15.159109211884061"><ele>41.0</ele><time>2026-04-26T06:08:32Z</time></trkpt><trkpt lat="36.934242778067514" lon="15.15924965217644"><ele>40.75</ele><time>2026-04-26T06:08:33Z</time></trkpt><trkpt lat="36.93437823019665" lon="15.15938929947559"><ele>40.5</ele><time>2026-04-26T06:08:34Z</time></trkpt><trkpt lat="36.93449240145972" lon="15.159507942110842"><ele>40.25</ele><time>2026-04-26T06:08:35Z</time></trkpt><trkpt lat="36.934579814535724" lon="15.159600522414548"><ele>40.0</ele><time>2026-04-26T06:08:36Z</time></trkpt><trkpt lat="36.9346588030952" lon="15.15968657576801"><ele>40.0</ele><time>2026-04-26T06:08:37Z</time></trkpt><trkpt lat="36.93473259639695" lon="15.159766381585571"><ele>40.0</ele><time>2026-04-26T06:08:38Z</time></trkpt><trkpt lat="36.93480017328685" lon="15.159828790799105"><ele>40.0</ele><time>2026-04-26T06:08:39Z</time></trkpt><trkpt lat="36.934874353842254" lon="15.159857394887728"><ele>40.0</ele><time>2026-04-26T06:08:40Z</time></trkpt><trkpt lat="36.93494465512436" lon="15.15984568074539"><ele>40.0</ele><time>2026-04-26T06:08:41Z</time></trkpt><trkpt lat="36.93504229624416" lon="15.159812212112154"><ele>40.0</ele><time>2026-04-26T06:08:43Z</time></trkpt><trkpt lat="36.93509179605665" lon="15.159863042281184"><ele>40.25</ele><time>2026-04-26T06:08:44Z</time></trkpt><trkpt lat="36.93513635725854" lon="15.159974444808007"><ele>40.5</ele><time>2026-04-26T06:08:45Z</time></trkpt><trkpt lat="36.935225918243745" lon="15.16011645136088"><ele>40.75</ele><time>2026-04-26T06:08:46Z</time></trkpt><trkpt lat="36.9353104947534" lon="15.16028149676093"><ele>41.0</ele><time>2026-04-26T06:08:47Z</time></trkpt><trkpt lat="36.93543316986301" lon="15.160428976923132"><ele>41.0</ele><time>2026-04-26T06:08:48Z</time></trkpt><trkpt lat="36.93557157396717" lon="15.160560719527416"><ele>41.0</ele><time>2026-04-26T06:08:49Z</time></trkpt><trkpt lat="36.93569989901103" lon="15.160679359807451"><ele>41.0</ele><time>2026-04-26T06:08:50Z</time></trkpt><trkpt lat="36.935831055176" lon="15.160799392464652"><ele>41.33333333333333</ele><time>2026-04-26T06:08:51Z</time></trkpt><trkpt lat="36.93596146881402" lon="15.160917223282205"><ele>41.666666666666664</ele><time>2026-04-26T06:08:52Z</time></trkpt><trkpt lat="36.9360993673668" lon="15.161032863280402"><ele>42.0</ele><time>2026-04-26T06:08:53Z</time></trkpt><trkpt lat="36.93623874732292" lon="15.161146500463213"><ele>42.0</ele><time>2026-04-26T06:08:54Z</time></trkpt><trkpt lat="36.93638015813298" lon="15.161261249667932"><ele>42.0</ele><time>2026-04-26T06:08:55Z</time></trkpt><trkpt lat="36.936522167494715" lon="15.161384833233173"><ele>42.0</ele><time>2026-04-26T06:08:56Z</time></trkpt><trkpt lat="36.936660507425124" lon="15.161510009569891"><ele>42.25</ele><time>2026-04-26T06:08:57Z</time></trkpt><trkpt lat="36.936790250181645" lon="15.161627616874894"><ele>42.5</ele><time>2026-04-26T06:08:58Z</time></trkpt><trkpt lat="36.936906137890425" lon="15.161732859671208"><ele>42.75</ele><time>2026-04-26T06:08:59Z</time></trkpt><trkpt lat="36.93701588483456" lon="15.161832736425463"><ele>43.0</ele><time>2026-04-26T06:09:00Z</time></trkpt><trkpt lat="36.937132469560375" lon="15.161938724912572"><ele>43.0</ele><time>2026-04-26T06:09:01Z</time></trkpt><trkpt lat="36.937250953709324" lon="15.162051792087365"><ele>43.0</ele><time>2026-04-26T06:09:02Z</time></trkpt><trkpt lat="36.93735411779825" lon="15.162158806506092"><ele>43.0</ele><time>2026-04-26T06:09:03Z</time></trkpt><trkpt lat="36.937444979218206" lon="15.162258449593107"><ele>43.0</ele><time>2026-04-26T06:09:04Z</time></trkpt><trkpt lat="36.9375355681451" lon="15.162358084406709"><ele>42.75</ele><time>2026-04-26T06:09:05Z</time></trkpt><trkpt lat="36.937629109472965" lon="15.162456866204135"><ele>42.5</ele><time>2026-04-26T06:09:06Z</time></trkpt><trkpt lat="36.93771686492442" lon="15.162553438692706"><ele>42.25</ele><time>2026-04-26T06:09:07Z</time></trkpt><trkpt lat="36.9378011150941" lon="15.162659192284"><ele>42.0</ele><time>2026-04-26T06:09:08Z</time></trkpt><trkpt lat="36.93788554780405" lon="15.16277119174654"><ele>42.0</ele><time>2026-04-26T06:09:09Z</time></trkpt><trkpt lat="36.93797256512706" lon="15.162890139299734"><ele>42.0</ele><time>2026-04-26T06:09:10Z</time></trkpt><trkpt lat="36.938048758879596" lon="15.163006946322392"><ele>42.0</ele><time>2026-04-26T06:09:11Z</time></trkpt><trkpt lat="36.93810889163095" lon="15.163101792903207"><ele>42.0</ele><time>2026-04-26T06:09:12Z</time></trkpt><trkpt lat="36.9381576324321" lon="15.163170075600753"><ele>42.0</ele><time>2026-04-26T06:09:13Z</time></trkpt><trkpt lat="36.93822703655843" lon="15.163224989524323"><ele>42.0</ele><time>2026-04-26T06:09:15Z</time></trkpt><trkpt lat="36.93830019321633" lon="15.163147347963944"><ele>42.0</ele><time>2026-04-26T06:09:17Z</time></trkpt><trkpt lat="36.938350103691214" lon="15.1630419736313"><ele>42.0</ele><time>2026-04-26T06:09:18Z</time></trkpt><trkpt lat="36.93841230564085" lon="15.162896899501673"><ele>42.0</ele><time>2026-04-26T06:09:19Z</time></trkpt><trkpt lat="36.93847893916136" lon="15.162741820811306"><ele>42.5</ele><time>2026-04-26T06:09:20Z</time></trkpt><trkpt lat="36.93854787252413" lon="15.162576193390807"><ele>43.0</ele><time>2026-04-26T06:09:21Z</time></trkpt><trkpt lat="36.93860709509774" lon="15.162423552624075"><ele>43.5</ele><time>2026-04-26T06:09:22Z</time></trkpt><trkpt lat="36.9386530425258" lon="15.162292095065212"><ele>44.0</ele><time>2026-04-26T06:09:23Z</time></trkpt><trkpt lat="36.93870029816764" lon="15.162183840087348"><ele>44.75</ele><time>2026-04-26T06:09:24Z</time></trkpt><trkpt lat="36.938751110258735" lon="15.16209659534934"><ele>45.5</ele><time>2026-04-26T06:09:25Z</time></trkpt><trkpt lat="36.93882253695191" lon="15.162018719796839"><ele>46.25</ele><time>2026-04-26T06:09:26Z</time></trkpt><trkpt lat="36.938930910270024" lon="15.16192414362357"><ele>47.0</ele><time>2026-04-26T06:09:27Z</time></trkpt><trkpt lat="36.93905890227348" lon="15.161804031822662"><ele>47.0</ele><time>2026-04-26T06:09:28Z</time></trkpt><trkpt lat="36.93917008464816" lon="15.161669606904537"><ele>47.0</ele><time>2026-04-26T06:09:29Z</time></trkpt><trkpt lat="36.939275716473624" lon="15.161531178404823"><ele>47.0</ele><time>2026-04-26T06:09:30Z</time></trkpt><trkpt lat="36.93937491352527" lon="15.161408721970865"><ele>47.0</ele><time>2026-04-26T06:09:31Z</time></trkpt><trkpt lat="36.93947010110013" lon="15.161293913473058"><ele>48.0</ele><time>2026-04-26T06:09:32Z</time></trkpt><trkpt lat="36.93956220756946" lon="15.161178030949568"><ele>49.0</ele><time>2026-04-26T06:09:33Z</time></trkpt><trkpt lat="36.939648270505856" lon="15.161058550574177"><ele>50.0</ele><time>2026-04-26T06:09:34Z</time></trkpt><trkpt lat="36.93972600591149" lon="15.160947286755698"><ele>51.0</ele><time>2026-04-26T06:09:35Z</time></trkpt><trkpt lat="36.93979453946958" lon="15.160849759751978"><ele>51.0</ele><time>2026-04-26T06:09:36Z</time></trkpt><trkpt lat="36.939849387633" lon="15.16075615100766"><ele>51.0</ele><time>2026-04-26T06:09:37Z</time></trkpt><trkpt lat="36.939883196089234" lon="15.160655504190004"><ele>51.0</ele><time>2026-04-26T06:09:38Z</time></trkpt><trkpt lat="36.93989395963354" lon="15.16055802698408"><ele>51.0</ele><time>2026-04-26T06:09:39Z</time></trkpt><trkpt lat="36.93989764052371" lon="15.16045065116321"><ele>51.0</ele><time>2026-04-26T06:09:40Z</time></trkpt><trkpt lat="36.93993163563897" lon="15.160339333562078"><ele>51.0</ele><time>2026-04-26T06:09:41Z</time></trkpt><trkpt lat="36.940014095054856" lon="15.160267256453507"><ele>52.0</ele><time>2026-04-26T06:09:42Z</time></trkpt><trkpt lat="36.94006355564596" lon="15.160170466555877"><ele>53.0</ele><time>2026-04-26T06:09:43Z</time></trkpt><trkpt lat="36.94012553895959" lon="15.160087582007277"><ele>53.99999999999999</ele><time>2026-04-26T06:09:44Z</time></trkpt><trkpt lat="36.940197299890386" lon="15.15999014117509"><ele>55.0</ele><time>2026-04-26T06:09:45Z</time></trkpt><trkpt lat="36.940268560607564" lon="15.159907699666112"><ele>56.0</ele><time>2026-04-26T06:09:46Z</time></trkpt><trkpt lat="36.94034008906904" lon="15.159872267448025"><ele>56.0</ele><time>2026-04-26T06:09:47Z</time></trkpt><trkpt lat="36.940469116895926" lon="15.1598730092463"><ele>56.0</ele><time>2026-04-26T06:09:48Z</time></trkpt><trkpt lat="36.94059891127127" lon="15.159815710905711"><ele>56.0</ele><time>2026-04-26T06:09:49Z</time></trkpt><trkpt lat="36.940706852806244" lon="15.159735646964668"><ele>56.0</ele><time>2026-04-26T06:09:50Z</time></trkpt><trkpt lat="36.940793246736284" lon="15.159642705509935"><ele>58.0</ele><time>2026-04-26T06:09:51Z</time></trkpt><trkpt lat="36.940883315123266" lon="15.159525676759452"><ele>60.0</ele><time>2026-04-26T06:09:52Z</time></trkpt><trkpt lat="36.94097108751118" lon="15.159377738974916"><ele>62.0</ele><time>2026-04-26T06:09:53Z</time></trkpt><trkpt lat="36.941051250318615" lon="15.159223329748016"><ele>64.0</ele><time>2026-04-26T06:09:54Z</time></trkpt><trkpt lat="36.94112489532738" lon="15.159066599371425"><ele>64.5</ele><time>2026-04-26T06:09:55Z</time></trkpt><trkpt lat="36.94122140956738" lon="15.15893258925699"><ele>65.0</ele><time>2026-04-26T06:09:56Z</time></trkpt><trkpt lat="36.94130751263449" lon="15.158790853000449"><ele>65.5</ele><time>2026-04-26T06:09:57Z</time></trkpt><trkpt lat="36.94139078112873" lon="15.158648871055515"><ele>66.0</ele><time>2026-04-26T06:09:58Z</time></trkpt><trkpt lat="36.941455316633125" lon="15.158529525697986"><ele>66.0</ele><time>2026-04-26T06:09:59Z</time></trkpt><trkpt lat="36.941517257558914" lon="15.158407965607012"><ele>66.0</ele><time>2026-04-26T06:10:00Z</time></trkpt><trkpt lat="36.94157959614038" lon="15.158271865756896"><ele>66.0</ele><time>2026-04-26T06:10:01Z</time></trkpt><trkpt lat="36.94164583561144" lon="15.158120862727387"><ele>66.0</ele><time>2026-04-26T06:10:02Z</time></trkpt><trkpt lat="36.94171115513544" lon="15.15796324426212"><ele>67.75</ele><time>2026-04-26T06:10:03Z</time></trkpt><trkpt lat="36.94177343456727" lon="15.157810947858124"><ele>69.5</ele><time>2026-04-26T06:10:04Z</time></trkpt><trkpt lat="36.94183542183693" lon="15.157656978979578"><ele>71.25</ele><time>2026-04-26T06:10:05Z</time></trkpt><trkpt lat="36.94189668427938" lon="15.15750166744029"><ele>73.0</ele><time>2026-04-26T06:10:06Z</time></trkpt><trkpt lat="36.94195792507736" lon="15.157346036049784"><ele>73.75</ele><time>2026-04-26T06:10:07Z</time></trkpt><trkpt lat="36.94202153900825" lon="15.157193167191627"><ele>74.5</ele><time>2026-04-26T06:10:08Z</time></trkpt><trkpt lat="36.942086632285594" lon="15.157043152752284"><ele>75.25</ele><time>2026-04-26T06:10:09Z</time></trkpt><trkpt lat="36.942155616313805" lon="15.156890744510438"><ele>76.0</ele><time>2026-04-26T06:10:10Z</time></trkpt><trkpt lat="36.94222463017415" lon="15.156739051490604"><ele>76.0</ele><time>2026-04-26T06:10:11Z</time></trkpt><trkpt lat="36.94228392882025" lon="15.156606228464373"><ele>76.0</ele><time>2026-04-26T06:10:12Z</time></trkpt><trkpt lat="36.9423350660135" lon="15.15648591890491"><ele>76.0</ele><time>2026-04-26T06:10:13Z</time></trkpt><trkpt lat="36.94238113390858" lon="15.156378863278999"><ele>76.0</ele><time>2026-04-26T06:10:14Z</time></trkpt><trkpt lat="36.94242670399577" lon="15.156289848988129"><ele>76.0</ele><time>2026-04-26T06:10:15Z</time></trkpt><trkpt lat="36.94248210954636" lon="15.156199700773907"><ele>76.71428571428571</ele><time>2026-04-26T06:10:16Z</time></trkpt><trkpt lat="36.94254088349528" lon="15.15611773742394"><ele>77.42857142857143</ele><time>2026-04-26T06:10:17Z</time></trkpt><trkpt lat="36.94258885371623" lon="15.156054752737747"><ele>78.14285714285714</ele><time>2026-04-26T06:10:18Z</time></trkpt><trkpt lat="36.9426281999307" lon="15.15599274724362"><ele>78.85714285714286</ele><time>2026-04-26T06:10:19Z</time></trkpt><trkpt lat="36.94267176724989" lon="15.155926851509166"><ele>79.57142857142857</ele><time>2026-04-26T06:10:20Z</time></trkpt><trkpt lat="36.94272111442323" lon="15.155861985584165"><ele>80.28571428571429</ele><time>2026-04-26T06:10:21Z</time></trkpt><trkpt lat="36.942770928726304" lon="15.155794898199337"><ele>81.0</ele><time>2026-04-26T06:10:22Z</time></trkpt><trkpt lat="36.942828710002985" lon="15.155724256541681"><ele>82.6</ele><time>2026-04-26T06:10:23Z</time></trkpt><trkpt lat="36.94288699707933" lon="15.155645584172172"><ele>84.19999999999999</ele><time>2026-04-26T06:10:24Z</time></trkpt><trkpt lat="36.94294976136807" lon="15.155560928175225"><ele>85.80000000000001</ele><time>2026-04-26T06:10:25Z</time></trkpt><trkpt lat="36.94303232862389" lon="15.155481136027058"><ele>87.4</ele><time>2026-04-26T06:10:26Z</time></trkpt><trkpt lat="36.943122429892355" lon="15.15536459354208"><ele>89.0</ele><time>2026-04-26T06:10:27Z</time></trkpt><trkpt lat="36.94321328275828" lon="15.155247078871795"><ele>89.0</ele><time>2026-04-26T06:10:28Z</time></trkpt><trkpt lat="36.94329038704444" lon="15.155147347481147"><ele>89.0</ele><time>2026-04-26T06:10:29Z</time></trkpt><trkpt lat="36.943355544102396" lon="15.155059658609574"><ele>89.0</ele><time>2026-04-26T06:10:30Z</time></trkpt><trkpt lat="36.94342024874302" lon="15.154968579942455"><ele>89.0</ele><time>2026-04-26T06:10:31Z</time></trkpt><trkpt lat="36.943477040959465" lon="15.154861452992984"><ele>89.0</ele><time>2026-04-26T06:10:32Z</time></trkpt><trkpt lat="36.94352513983545" lon="15.154711342292936"><ele>92.0</ele><time>2026-04-26T06:10:33Z</time></trkpt><trkpt lat="36.94355715644943" lon="15.154545393854281"><ele>95.0</ele><time>2026-04-26T06:10:34Z</time></trkpt><trkpt lat="36.94358646112854" lon="15.154393830923832"><ele>98.0</ele><time>2026-04-26T06:10:35Z</time></trkpt><trkpt lat="36.94361864187991" lon="15.15426498399564"><ele>101.0</ele><time>2026-04-26T06:10:36Z</time></trkpt><trkpt lat="36.943651860465145" lon="15.15414522622024"><ele>101.6</ele><time>2026-04-26T06:10:37Z</time></trkpt><trkpt lat="36.943692037443284" lon="15.154018423223103"><ele>102.19999999999999</ele><time>2026-04-26T06:10:38Z</time></trkpt><trkpt lat="36.94374276346659" lon="15.153894599952386"><ele>102.80000000000001</ele><time>2026-04-26T06:10:39Z</time></trkpt><trkpt lat="36.94379864848092" lon="15.15379752107128"><ele>103.4</ele><time>2026-04-26T06:10:40Z</time></trkpt><trkpt lat="36.943868140161634" lon="15.153704082992883"><ele>104.0</ele><time>2026-04-26T06:10:41Z</time></trkpt><trkpt lat="36.94395665751251" lon="15.15363055026685"><ele>104.0</ele><time>2026-04-26T06:10:42Z</time></trkpt><trkpt lat="36.94407756434603" lon="15.153528200641194"><ele>104.0</ele><time>2026-04-26T06:10:43Z</time></trkpt><trkpt lat="36.94422086103486" lon="15.153426540947025"><ele>104.0</ele><time>2026-04-26T06:10:44Z</time></trkpt><trkpt lat="36.94435278737852" lon="15.15330156694927"><ele>105.5</ele><time>2026-04-26T06:10:45Z</time></trkpt><trkpt lat="36.944469980295594" lon="15.1532066319472"><ele>107.0</ele><time>2026-04-26T06:10:46Z</time></trkpt><trkpt lat="36.94457097684537" lon="15.153106826024686"><ele>108.5</ele><time>2026-04-26T06:10:47Z</time></trkpt><trkpt lat="36.9446813258976" lon="15.152998320060316"><ele>110.0</ele><time>2026-04-26T06:10:48Z</time></trkpt><trkpt lat="36.94479115491099" lon="15.152891339966452"><ele>110.75</ele><time>2026-04-26T06:10:49Z</time></trkpt><trkpt lat="36.944902288923394" lon="15.152787396149936"><ele>111.5</ele><time>2026-04-26T06:10:50Z</time></trkpt><trkpt lat="36.94501551604727" lon="15.15268149464599"><ele>112.25</ele><time>2026-04-26T06:10:51Z</time></trkpt><trkpt lat="36.94512974015764" lon="15.152573127442208"><ele>113.0</ele><time>2026-04-26T06:10:52Z</time></trkpt><trkpt lat="36.94524372435572" lon="15.152462445216258"><ele>115.75</ele><time>2026-04-26T06:10:53Z</time></trkpt><trkpt lat="36.94535805399452" lon="15.152347483475461"><ele>118.5</ele><time>2026-04-26T06:10:54Z</time></trkpt><trkpt lat="36.94546968816218" lon="15.152230669173424"><ele>121.25</ele><time>2026-04-26T06:10:55Z</time></trkpt><trkpt lat="36.94557759264279" lon="15.152115030786927"><ele>124.0</ele><time>2026-04-26T06:10:56Z</time></trkpt><trkpt lat="36.945688063222455" lon="15.151996642390571"><ele>124.0</ele><time>2026-04-26T06:10:57Z</time></trkpt><trkpt lat="36.945797977724276" lon="15.151879892851605"><ele>124.0</ele><time>2026-04-26T06:10:58Z</time></trkpt><trkpt lat="36.94590402991356" lon="15.151768722597012"><ele>124.0</ele><time>2026-04-26T06:10:59Z</time></trkpt><trkpt lat="36.94598732294761" lon="15.151661979104459"><ele>124.0</ele><time>2026-04-26T06:11:00Z</time></trkpt><trkpt lat="36.946063044962614" lon="15.151614764462218"><ele>126.75</ele><time>2026-04-26T06:11:01Z</time></trkpt><trkpt lat="36.94614962937139" lon="15.15154953376228"><ele>129.5</ele><time>2026-04-26T06:11:03Z</time></trkpt><trkpt lat="36.946279126169564" lon="15.15155223140025"><ele>132.25</ele><time>2026-04-26T06:11:05Z</time></trkpt><trkpt lat="36.94638762121522" lon="15.151610662370974"><ele>135.0</ele><time>2026-04-26T06:11:06Z</time></trkpt><trkpt lat="36.946512100247745" lon="15.15167828074959"><ele>135.0</ele><time>2026-04-26T06:11:07Z</time></trkpt><trkpt lat="36.946658848743944" lon="15.151743740979573"><ele>135.0</ele><time>2026-04-26T06:11:08Z</time></trkpt><trkpt lat="36.94679544226849" lon="15.151822336699004"><ele>135.0</ele><time>2026-04-26T06:11:09Z</time></trkpt><trkpt lat="36.94692996769109" lon="15.151865275980049"><ele>135.0</ele><time>2026-04-26T06:11:10Z</time></trkpt><trkpt lat="36.947036075712965" lon="15.151915183552303"><ele>137.5</ele><time>2026-04-26T06:11:11Z</time></trkpt><trkpt lat="36.94713542348033" lon="15.151960392621055"><ele>140.0</ele><time>2026-04-26T06:11:12Z</time></trkpt><trkpt lat="36.947244892430795" lon="15.15197427212272"><ele>142.5</ele><time>2026-04-26T06:11:13Z</time></trkpt><trkpt lat="36.94736635363519" lon="15.151948400872966"><ele>145.0</ele><time>2026-04-26T06:11:14Z</time></trkpt><trkpt lat="36.94750788452718" lon="15.15189673613265"><ele>147.4</ele><time>2026-04-26T06:11:15Z</time></trkpt><trkpt lat="36.94764322715533" lon="15.151851389693347"><ele>149.8</ele><time>2026-04-26T06:11:16Z</time></trkpt><trkpt lat="36.94774934857601" lon="15.151821068008884"><ele>152.2</ele><time>2026-04-26T06:11:17Z</time></trkpt><trkpt lat="36.94782210295325" lon="15.151805810351991"><ele>154.6</ele><time>2026-04-26T06:11:18Z</time></trkpt><trkpt lat="36.94789330124239" lon="15.151749315888763"><ele>157.0</ele><time>2026-04-26T06:11:20Z</time></trkpt><trkpt lat="36.94783368635108" lon="15.151615167149929"><ele>157.0</ele><time>2026-04-26T06:11:22Z</time></trkpt><trkpt lat="36.9476892368602" lon="15.151595115883255"><ele>157.0</ele><time>2026-04-26T06:11:23Z</time></trkpt><trkpt lat="36.947543162562255" lon="15.151541720475084"><ele>157.0</ele><time>2026-04-26T06:11:24Z</time></trkpt><trkpt lat="36.94740442930561" lon="15.151493055169729"><ele>157.0</ele><time>2026-04-26T06:11:25Z</time></trkpt><trkpt lat="36.94731509040157" lon="15.151443225106885"><ele>154.75</ele><time>2026-04-26T06:11:26Z</time></trkpt><trkpt lat="36.94733235158758" lon="15.151360780194707"><ele>152.5</ele><time>2026-04-26T06:11:29Z</time></trkpt><trkpt lat="36.947531436689786" lon="15.1513372148213"><ele>150.25</ele><time>2026-04-26T06:11:31Z</time></trkpt><trkpt lat="36.947696070996614" lon="15.151347755007539"><ele>148.0</ele><time>2026-04-26T06:11:32Z</time></trkpt><trkpt lat="36.947900984978816" lon="15.151340896778668"><ele>159.5</ele><time>2026-04-26T06:11:33Z</time></trkpt><trkpt lat="36.94813498686247" lon="15.151312572773703"><ele>171.0</ele><time>2026-04-26T06:11:34Z</time></trkpt><trkpt lat="36.94837931915211" lon="15.151318868960633"><ele>178.66666666666669</ele><time>2026-04-26T06:11:35Z</time></trkpt><trkpt lat="36.94858509410699" lon="15.151305982142233"><ele>186.33333333333334</ele><time>2026-04-26T06:11:36Z</time></trkpt><trkpt lat="36.94877257213151" lon="15.151293415360401"><ele>194.0</ele><time>2026-04-26T06:11:37Z</time></trkpt><trkpt lat="36.94894869837942" lon="15.151281609488834"><ele>194.0</ele><time>2026-04-26T06:11:38Z</time></trkpt><trkpt lat="36.94911563175021" lon="15.151270419831082"><ele>194.0</ele><time>2026-04-26T06:11:39Z</time></trkpt><trkpt lat="36.94928711182427" lon="15.151258925395057"><ele>194.0</ele><time>2026-04-26T06:11:40Z</time></trkpt><trkpt lat="36.94944307086117" lon="15.151252580086274"><ele>199.66666666666669</ele><time>2026-04-26T06:11:41Z</time></trkpt><trkpt lat="36.949600696102664" lon="15.151303785951935"><ele>205.33333333333331</ele><time>2026-04-26T06:11:42Z</time></trkpt><trkpt lat="36.94979380449288" lon="15.151366639208042"><ele>211.0</ele><time>2026-04-26T06:11:43Z</time></trkpt><trkpt lat="36.94996690357283" lon="15.151426099142121"><ele>209.66666666666666</ele><time>2026-04-26T06:11:44Z</time></trkpt><trkpt lat="36.95011953301421" lon="15.151456739731056"><ele>208.33333333333331</ele><time>2026-04-26T06:11:45Z</time></trkpt><trkpt lat="36.95027397838275" lon="15.15149837284857"><ele>207.0</ele><time>2026-04-26T06:11:46Z</time></trkpt><trkpt lat="36.95045553224292" lon="15.151544150818415"><ele>207.0</ele><time>2026-04-26T06:11:47Z</time></trkpt><trkpt lat="36.95064308405454" lon="15.15158625777898"><ele>207.0</ele><time>2026-04-26T06:11:48Z</time></trkpt><trkpt lat="36.95078620082729" lon="15.151605385017788"><ele>207.0</ele><time>2026-04-26T06:11:49Z</time></trkpt><trkpt lat="36.950914050274704" lon="15.151633144001508"><ele>214.75</ele><time>2026-04-26T06:11:50Z</time></trkpt><trkpt lat="36.95105080679127" lon="15.151683853689537"><ele>222.5</ele><time>2026-04-26T06:11:51Z</time></trkpt><trkpt lat="36.95118884647578" lon="15.15175996083955"><ele>230.25</ele><time>2026-04-26T06:11:52Z</time></trkpt><trkpt lat="36.95131672546132" lon="15.15184632119454"><ele>238.0</ele><time>2026-04-26T06:11:53Z</time></trkpt><trkpt lat="36.951434721292074" lon="15.15195858487803"><ele>238.0</ele><time>2026-04-26T06:11:54Z</time></trkpt><trkpt lat="36.95151467561771" lon="15.152088940977364"><ele>238.0</ele><time>2026-04-26T06:11:55Z</time></trkpt><trkpt lat="36.95157650384617" lon="15.152231950867877"><ele>238.0</ele><time>2026-04-26T06:11:56Z</time></trkpt><trkpt lat="36.9516185650806" lon="15.15237007269197"><ele>238.0</ele><time>2026-04-26T06:11:57Z</time></trkpt><trkpt lat="36.951656803582964" lon="15.152472858087869"><ele>239.8</ele><time>2026-04-26T06:11:58Z</time></trkpt><trkpt lat="36.95169787635153" lon="15.152560788615506"><ele>241.60000000000002</ele><time>2026-04-26T06:11:59Z</time></trkpt><trkpt lat="36.951743682800995" lon="15.152628661533816"><ele>243.39999999999998</ele><time>2026-04-26T06:12:00Z</time></trkpt><trkpt lat="36.95181686575433" lon="15.152680204610396"><ele>245.2</ele><time>2026-04-26T06:12:01Z</time></trkpt><trkpt lat="36.95191052931348" lon="15.152719704932297"><ele>247.0</ele><time>2026-04-26T06:12:02Z</time></trkpt><trkpt lat="36.95202486353212" lon="15.15276345551003"><ele>247.0</ele><time>2026-04-26T06:12:03Z</time></trkpt><trkpt lat="36.95215317906471" lon="15.152859011300176"><ele>247.0</ele><time>2026-04-26T06:12:04Z</time></trkpt><trkpt lat="36.95228652557269" lon="15.15300972983253"><ele>247.0</ele><time>2026-04-26T06:12:05Z</time></trkpt><trkpt lat="36.95241018370214" lon="15.153140657378584"><ele>246.75</ele><time>2026-04-26T06:12:06Z</time></trkpt><trkpt lat="36.95254127533376" lon="15.153249992213555"><ele>246.5</ele><time>2026-04-26T06:12:07Z</time></trkpt><trkpt lat="36.952692162648724" lon="15.153340920186949"><ele>246.25</ele><time>2026-04-26T06:12:08Z</time></trkpt><trkpt lat="36.952789724168646" lon="15.1534213437276"><ele>246.0</ele><time>2026-04-26T06:12:09Z</time></trkpt><trkpt lat="36.95285771115105" lon="15.153460038244024"><ele>246.0</ele><time>2026-04-26T06:12:10Z</time></trkpt><trkpt lat="36.952947610511266" lon="15.15351387588186"><ele>246.00000000000003</ele><time>2026-04-26T06:12:12Z</time></trkpt><trkpt lat="36.95300833606239" lon="15.153480868830192"><ele>246.00000000000003</ele><time>2026-04-26T06:12:14Z</time></trkpt><trkpt lat="36.953020358017206" lon="15.153318216313835"><ele>246.0</ele><time>2026-04-26T06:12:16Z</time></trkpt><trkpt lat="36.95292375368057" lon="15.153177012970955"><ele>246.0</ele><time>2026-04-26T06:12:17Z</time></trkpt><trkpt lat="36.952804916540394" lon="15.153030411188537"><ele>246.25</ele><time>2026-04-26T06:12:18Z</time></trkpt><trkpt lat="36.9526940592022" lon="15.152869577442917"><ele>246.5</ele><time>2026-04-26T06:12:19Z</time></trkpt><trkpt lat="36.95260834234415" lon="15.152757416529578"><ele>246.75</ele><time>2026-04-26T06:12:20Z</time></trkpt><trkpt lat="36.95255920108722" lon="15.152679322526408"><ele>247.0</ele><time>2026-04-26T06:12:21Z</time></trkpt><trkpt lat="36.95251433420464" lon="15.152595625189145"><ele>246.99999999999997</ele><time>2026-04-26T06:12:22Z</time></trkpt><trkpt lat="36.95248155318994" lon="15.152496134478428"><ele>247.0</ele><time>2026-04-26T06:12:23Z</time></trkpt><trkpt lat="36.9524679224223" lon="15.152388230920806"><ele>247.0</ele><time>2026-04-26T06:12:24Z</time></trkpt><trkpt lat="36.95247727129621" lon="15.152302123634287"><ele>247.0</ele><time>2026-04-26T06:12:25Z</time></trkpt><trkpt lat="36.95247638595764" lon="15.152216709793358"><ele>246.99999999999997</ele><time>2026-04-26T06:12:26Z</time></trkpt><trkpt lat="36.95245634838171" lon="15.1521246837307"><ele>247.0</ele><time>2026-04-26T06:12:27Z</time></trkpt><trkpt lat="36.95239858651069" lon="15.152023311278557"><ele>249.75</ele><time>2026-04-26T06:12:28Z</time></trkpt><trkpt lat="36.95230874105176" lon="15.1518889388416"><ele>252.5</ele><time>2026-04-26T06:12:29Z</time></trkpt><trkpt lat="36.9522665311691" lon="15.151745425307533"><ele>255.25</ele><time>2026-04-26T06:12:30Z</time></trkpt><trkpt lat="36.95222396422877" lon="15.15158659784373"><ele>258.0</ele><time>2026-04-26T06:12:31Z</time></trkpt><trkpt lat="36.9521895465199" lon="15.151439472818373"><ele>262.2</ele><time>2026-04-26T06:12:32Z</time></trkpt><trkpt lat="36.95215635691066" lon="15.151323987922218"><ele>266.4</ele><time>2026-04-26T06:12:33Z</time></trkpt><trkpt lat="36.95210738975778" lon="15.151217109059754"><ele>270.59999999999997</ele><time>2026-04-26T06:12:34Z</time></trkpt><trkpt lat="36.95203929052653" lon="15.151121853891569"><ele>274.8</ele><time>2026-04-26T06:12:35Z</time></trkpt><trkpt lat="36.951961533274876" lon="15.151042701466817"><ele>279.0</ele><time>2026-04-26T06:12:36Z</time></trkpt><trkpt lat="36.951856452549166" lon="15.151029722836425"><ele>279.0</ele><time>2026-04-26T06:12:37Z</time></trkpt><trkpt lat="36.95180071941952" lon="15.150983574433752"><ele>279.0</ele><time>2026-04-26T06:12:38Z</time></trkpt><trkpt lat="36.9517576484815" lon="15.150923336825812"><ele>279.0</ele><time>2026-04-26T06:12:40Z</time></trkpt><trkpt lat="36.95184340578866" lon="15.1508561593989"><ele>279.0</ele><time>2026-04-26T06:12:42Z</time></trkpt><trkpt lat="36.95196008669515" lon="15.150845122623624"><ele>279.0</ele><time>2026-04-26T06:12:43Z</time></trkpt><trkpt lat="36.952086347522844" lon="15.150827030183224"><ele>279.0</ele><time>2026-04-26T06:12:44Z</time></trkpt><trkpt lat="36.9521825093518" lon="15.150816165743523"><ele>279.0</ele><time>2026-04-26T06:12:45Z</time></trkpt><trkpt lat="36.95225888767409" lon="15.150771429815748"><ele>279.0</ele><time>2026-04-26T06:12:47Z</time></trkpt><trkpt lat="36.95221909724934" lon="15.15058833687842"><ele>279.0</ele><time>2026-04-26T06:12:49Z</time></trkpt><trkpt lat="36.95210356349462" lon="15.150495981619548"><ele>282.0</ele><time>2026-04-26T06:12:50Z</time></trkpt><trkpt lat="36.95196688880949" lon="15.150368096036363"><ele>285.0</ele><time>2026-04-26T06:12:51Z</time></trkpt><trkpt lat="36.95182456179454" lon="15.150225168774773"><ele>288.0</ele><time>2026-04-26T06:12:52Z</time></trkpt><trkpt lat="36.95170278283423" lon="15.15010586179376"><ele>288.0</ele><time>2026-04-26T06:12:53Z</time></trkpt><trkpt lat="36.95161123819255" lon="15.150019493204006"><ele>288.0</ele><time>2026-04-26T06:12:54Z</time></trkpt><trkpt lat="36.95154112693333" lon="15.14994455697731"><ele>288.0</ele><time>2026-04-26T06:12:55Z</time></trkpt><trkpt lat="36.95148499844637" lon="15.149865284883042"><ele>288.0</ele><time>2026-04-26T06:12:56Z</time></trkpt><trkpt lat="36.95144245185623" lon="15.149791219461349"><ele>288.0</ele><time>2026-04-26T06:12:57Z</time></trkpt><trkpt lat="36.951444769989806" lon="15.14969395790164"><ele>288.0</ele><time>2026-04-26T06:12:58Z</time></trkpt><trkpt lat="36.951440873813254" lon="15.149576797195616"><ele>288.8333333333333</ele><time>2026-04-26T06:12:59Z</time></trkpt><trkpt lat="36.951453398882315" lon="15.149461244488522"><ele>289.6666666666667</ele><time>2026-04-26T06:13:00Z</time></trkpt><trkpt lat="36.95148786190978" lon="15.149363896579482"><ele>290.5</ele><time>2026-04-26T06:13:01Z</time></trkpt><trkpt lat="36.95153619897501" lon="15.149287584610343"><ele>291.33333333333337</ele><time>2026-04-26T06:13:02Z</time></trkpt><trkpt lat="36.95158833978034" lon="15.149228428076219"><ele>292.1666666666667</ele><time>2026-04-26T06:13:03Z</time></trkpt><trkpt lat="36.95164108369219" lon="15.149170817667239"><ele>293.0</ele><time>2026-04-26T06:13:04Z</time></trkpt><trkpt lat="36.95171369500595" lon="15.149151717473396"><ele>298.4</ele><time>2026-04-26T06:13:05Z</time></trkpt><trkpt lat="36.95179227899694" lon="15.149145268480202"><ele>303.8</ele><time>2026-04-26T06:13:06Z</time></trkpt><trkpt lat="36.951878457028016" lon="15.14916395142637"><ele>309.2</ele><time>2026-04-26T06:13:07Z</time></trkpt><trkpt lat="36.95198790235865" lon="15.1491969661383"><ele>314.6</ele><time>2026-04-26T06:13:08Z</time></trkpt><trkpt lat="36.952110717657334" lon="15.149231813161999"><ele>320.0</ele><time>2026-04-26T06:13:09Z</time></trkpt><trkpt lat="36.95227343947546" lon="15.14926940709476"><ele>320.0</ele><time>2026-04-26T06:13:10Z</time></trkpt><trkpt lat="36.952374210022725" lon="15.149292758251255"><ele>320.0</ele><time>2026-04-26T06:13:11Z</time></trkpt><trkpt lat="36.95248085021201" lon="15.14929145495294"><ele>320.0</ele><time>2026-04-26T06:13:13Z</time></trkpt><trkpt lat="36.95259451872231" lon="15.14927548484958"><ele>320.0</ele><time>2026-04-26T06:13:15Z</time></trkpt><trkpt lat="36.95269732320248" lon="15.149305829863431"><ele>320.0</ele><time>2026-04-26T06:13:16Z</time></trkpt><trkpt lat="36.95283472673138" lon="15.149328010974628"><ele>323.2</ele><time>2026-04-26T06:13:17Z</time></trkpt><trkpt lat="36.952956316536394" lon="15.149356086397551"><ele>326.4</ele><time>2026-04-26T06:13:18Z</time></trkpt><trkpt lat="36.9530515100231" lon="15.14935580996197"><ele>329.6</ele><time>2026-04-26T06:13:19Z</time></trkpt><trkpt lat="36.95311161544477" lon="15.149380002367813"><ele>332.8</ele><time>2026-04-26T06:13:20Z</time></trkpt><trkpt lat="36.953201815142435" lon="15.149288738484165"><ele>336.0</ele><time>2026-04-26T06:13:22Z</time></trkpt><trkpt lat="36.953205873076094" lon="15.1491803469002"><ele>336.0</ele><time>2026-04-26T06:13:23Z</time></trkpt><trkpt lat="36.9531024549198" lon="15.149047516497593"><ele>336.0</ele><time>2026-04-26T06:13:24Z</time></trkpt><trkpt lat="36.9529988556055" lon="15.14893034064105"><ele>336.0</ele><time>2026-04-26T06:13:25Z</time></trkpt><trkpt lat="36.952847703588624" lon="15.148796301991743"><ele>337.75</ele><time>2026-04-26T06:13:26Z</time></trkpt><trkpt lat="36.952685793083155" lon="15.148725284590231"><ele>339.5</ele><time>2026-04-26T06:13:27Z</time></trkpt><trkpt lat="36.952624175396515" lon="15.148640247907027"><ele>341.25</ele><time>2026-04-26T06:13:28Z</time></trkpt><trkpt lat="36.95266784855924" lon="15.1485778299999"><ele>343.0</ele><time>2026-04-26T06:13:31Z</time></trkpt><trkpt lat="36.952809934403746" lon="15.148576305693007"><ele>343.0</ele><time>2026-04-26T06:13:33Z</time></trkpt><trkpt lat="36.95294263530818" lon="15.148637820058381"><ele>343.0</ele><time>2026-04-26T06:13:34Z</time></trkpt><trkpt lat="36.953091253655295" lon="15.148710579396221"><ele>343.0</ele><time>2026-04-26T06:13:35Z</time></trkpt><trkpt lat="36.95321658701878" lon="15.148757233965119"><ele>343.0</ele><time>2026-04-26T06:13:36Z</time></trkpt><trkpt lat="36.95331611965948" lon="15.148803961274396"><ele>346.79999999999995</ele><time>2026-04-26T06:13:37Z</time></trkpt><trkpt lat="36.95341436139516" lon="15.148841136509574"><ele>350.6</ele><time>2026-04-26T06:13:38Z</time></trkpt><trkpt lat="36.953479038081475" lon="15.148834849763709"><ele>354.4</ele><time>2026-04-26T06:13:39Z</time></trkpt><trkpt lat="36.9535328803861" lon="15.148721894945716"><ele>358.20000000000005</ele><time>2026-04-26T06:13:41Z</time></trkpt><trkpt lat="36.95350866243953" lon="15.148604434677825"><ele>362.0</ele><time>2026-04-26T06:13:42Z</time></trkpt><trkpt lat="36.95342127171352" lon="15.148476546615788"><ele>362.0</ele><time>2026-04-26T06:13:43Z</time></trkpt><trkpt lat="36.95338553281949" lon="15.148378842578182"><ele>362.0</ele><time>2026-04-26T06:13:44Z</time></trkpt><trkpt lat="36.95345368852889" lon="15.148254501178794"><ele>362.0</ele><time>2026-04-26T06:13:46Z</time></trkpt><trkpt lat="36.953547925718" lon="15.148171056217274"><ele>362.0</ele><time>2026-04-26T06:13:47Z</time></trkpt><trkpt lat="36.95364081435828" lon="15.14803098466688"><ele>361.40000000000003</ele><time>2026-04-26T06:13:48Z</time></trkpt><trkpt lat="36.95373250055079" lon="15.147930968736253"><ele>360.8</ele><time>2026-04-26T06:13:49Z</time></trkpt><trkpt lat="36.953777036840464" lon="15.147814118381064"><ele>360.2</ele><time>2026-04-26T06:13:50Z</time></trkpt><trkpt lat="36.95375798322489" lon="15.147670311470442"><ele>359.6</ele><time>2026-04-26T06:13:51Z</time></trkpt><trkpt lat="36.95374818896458" lon="15.147545727051943"><ele>359.0</ele><time>2026-04-26T06:13:52Z</time></trkpt><trkpt lat="36.9536931473383" lon="15.147398083575862"><ele>359.2</ele><time>2026-04-26T06:13:53Z</time></trkpt><trkpt lat="36.953668393042406" lon="15.147229545783667"><ele>359.4</ele><time>2026-04-26T06:13:54Z</time></trkpt><trkpt lat="36.95364739228581" lon="15.147106566261849"><ele>359.6</ele><time>2026-04-26T06:13:55Z</time></trkpt><trkpt lat="36.953638766320516" lon="15.146994539841554"><ele>359.8</ele><time>2026-04-26T06:13:56Z</time></trkpt><trkpt lat="36.95366202711216" lon="15.146886577665693"><ele>360.0</ele><time>2026-04-26T06:13:57Z</time></trkpt><trkpt lat="36.95371307085747" lon="15.146750872762931"><ele>360.0</ele><time>2026-04-26T06:13:58Z</time></trkpt><trkpt lat="36.953796200452075" lon="15.146613295333063"><ele>360.0</ele><time>2026-04-26T06:13:59Z</time></trkpt><trkpt lat="36.95384817308974" lon="15.14645941260551"><ele>360.0</ele><time>2026-04-26T06:14:00Z</time></trkpt><trkpt lat="36.95391293818833" lon="15.146324370318444"><ele>360.0</ele><time>2026-04-26T06:14:01Z</time></trkpt><trkpt lat="36.95395830663493" lon="15.14616800001004"><ele>360.5</ele><time>2026-04-26T06:14:02Z</time></trkpt><trkpt lat="36.953999385993015" lon="15.14600795573605"><ele>361.0</ele><time>2026-04-26T06:14:03Z</time></trkpt><trkpt lat="36.95404180816324" lon="15.14583601066922"><ele>361.5</ele><time>2026-04-26T06:14:04Z</time></trkpt><trkpt lat="36.95408545443873" lon="15.145690425710631"><ele>362.0</ele><time>2026-04-26T06:14:05Z</time></trkpt><trkpt lat="36.95413497404323" lon="15.145594497461365"><ele>365.75</ele><time>2026-04-26T06:14:06Z</time></trkpt><trkpt lat="36.9542066851746" lon="15.14553365853498"><ele>369.5</ele><time>2026-04-26T06:14:07Z</time></trkpt><trkpt lat="36.954314795945706" lon="15.145480170564323"><ele>373.25</ele><time>2026-04-26T06:14:08Z</time></trkpt><trkpt lat="36.954444363719716" lon="15.1453912908735"><ele>377.0</ele><time>2026-04-26T06:14:09Z</time></trkpt><trkpt lat="36.95458357644377" lon="15.145341454435316"><ele>377.0</ele><time>2026-04-26T06:14:10Z</time></trkpt><trkpt lat="36.95471508086" lon="15.145264187297549"><ele>377.0</ele><time>2026-04-26T06:14:11Z</time></trkpt><trkpt lat="36.95483944906774" lon="15.145196188975968"><ele>377.0</ele><time>2026-04-26T06:14:12Z</time></trkpt><trkpt lat="36.9549428471266" lon="15.145118573131722"><ele>377.0</ele><time>2026-04-26T06:14:13Z</time></trkpt><trkpt lat="36.95503850036556" lon="15.145063454873288"><ele>377.8</ele><time>2026-04-26T06:14:14Z</time></trkpt><trkpt lat="36.9551514416509" lon="15.145004474224212"><ele>378.6</ele><time>2026-04-26T06:14:15Z</time></trkpt><trkpt lat="36.955225586918594" lon="15.144911148093883"><ele>379.40000000000003</ele><time>2026-04-26T06:14:16Z</time></trkpt><trkpt lat="36.955291679311344" lon="15.144817668802991"><ele>380.20000000000005</ele><time>2026-04-26T06:14:17Z</time></trkpt><trkpt lat="36.95534999583584" lon="15.144726244787254"><ele>381.0</ele><time>2026-04-26T06:14:18Z</time></trkpt><trkpt lat="36.95541301681864" lon="15.144612154076292"><ele>381.0</ele><time>2026-04-26T06:14:19Z</time></trkpt><trkpt lat="36.95546077058826" lon="15.144509336208115"><ele>381.0</ele><time>2026-04-26T06:14:20Z</time></trkpt><trkpt lat="36.95549848894883" lon="15.144426313402928"><ele>381.0</ele><time>2026-04-26T06:14:21Z</time></trkpt><trkpt lat="36.955552649686894" lon="15.144302253839031"><ele>381.0</ele><time>2026-04-26T06:14:22Z</time></trkpt><trkpt lat="36.95560086721454" lon="15.144171226871224"><ele>381.0</ele><time>2026-04-26T06:14:23Z</time></trkpt><trkpt lat="36.955620360555216" lon="15.144036547898244"><ele>382.20000000000005</ele><time>2026-04-26T06:14:24Z</time></trkpt><trkpt lat="36.95560665196623" lon="15.143919388567133"><ele>383.40000000000003</ele><time>2026-04-26T06:14:25Z</time></trkpt><trkpt lat="36.95554819163571" lon="15.143787814872525"><ele>384.6</ele><time>2026-04-26T06:14:26Z</time></trkpt><trkpt lat="36.955507842611844" lon="15.143653706819872"><ele>385.8</ele><time>2026-04-26T06:14:27Z</time></trkpt><trkpt lat="36.95550054247602" lon="15.143537853842435"><ele>387.0</ele><time>2026-04-26T06:14:28Z</time></trkpt><trkpt lat="36.955517369365765" lon="15.143431559773704"><ele>387.0</ele><time>2026-04-26T06:14:29Z</time></trkpt><trkpt lat="36.9555592686128" lon="15.14334080881054"><ele>387.0</ele><time>2026-04-26T06:14:30Z</time></trkpt><trkpt lat="36.955598182423564" lon="15.143237442421432"><ele>387.0</ele><time>2026-04-26T06:14:31Z</time></trkpt><trkpt lat="36.95564447987905" lon="15.14311288072038"><ele>387.0</ele><time>2026-04-26T06:14:32Z</time></trkpt><trkpt lat="36.955697640188056" lon="15.142972406864882"><ele>387.0</ele><time>2026-04-26T06:14:33Z</time></trkpt><trkpt lat="36.955765158087615" lon="15.14283262535749"><ele>387.75</ele><time>2026-04-26T06:14:34Z</time></trkpt><trkpt lat="36.95585437275623" lon="15.142696577530963"><ele>388.5</ele><time>2026-04-26T06:14:35Z</time></trkpt><trkpt lat="36.95595948889759" lon="15.142564779507254"><ele>389.25</ele><time>2026-04-26T06:14:36Z</time></trkpt><trkpt lat="36.956070363194115" lon="15.142467497827946"><ele>390.0</ele><time>2026-04-26T06:14:37Z</time></trkpt><trkpt lat="36.95618476732349" lon="15.142397977904363"><ele>392.5</ele><time>2026-04-26T06:14:38Z</time></trkpt><trkpt lat="36.95630329822017" lon="15.14235516803975"><ele>395.0</ele><time>2026-04-26T06:14:39Z</time></trkpt><trkpt lat="36.95640104606903" lon="15.142284802334371"><ele>397.5</ele><time>2026-04-26T06:14:40Z</time></trkpt><trkpt lat="36.95649622429336" lon="15.142213906634996"><ele>400.0</ele><time>2026-04-26T06:14:41Z</time></trkpt><trkpt lat="36.95655022325291" lon="15.142057991812763"><ele>400.0</ele><time>2026-04-26T06:14:42Z</time></trkpt><trkpt lat="36.956624227999576" lon="15.141895422631052"><ele>400.0</ele><time>2026-04-26T06:14:43Z</time></trkpt><trkpt lat="36.95668121941099" lon="15.141755587816139"><ele>400.0</ele><time>2026-04-26T06:14:44Z</time></trkpt><trkpt lat="36.95673581454156" lon="15.141621747995703"><ele>400.0</ele><time>2026-04-26T06:14:45Z</time></trkpt><trkpt lat="36.95679912511192" lon="15.141468034166786"><ele>398.5</ele><time>2026-04-26T06:14:46Z</time></trkpt><trkpt lat="36.95686161943003" lon="15.141316302179245"><ele>397.0</ele><time>2026-04-26T06:14:47Z</time></trkpt><trkpt lat="36.95692003820619" lon="15.141172383405893"><ele>395.5</ele><time>2026-04-26T06:14:48Z</time></trkpt><trkpt lat="36.956975960067865" lon="15.141031943638442"><ele>394.0</ele><time>2026-04-26T06:14:49Z</time></trkpt><trkpt lat="36.95702542259543" lon="15.140907725569651"><ele>394.0</ele><time>2026-04-26T06:14:50Z</time></trkpt><trkpt lat="36.95706906223701" lon="15.140798785291043"><ele>394.0</ele><time>2026-04-26T06:14:51Z</time></trkpt><trkpt lat="36.957112804538085" lon="15.140691519533673"><ele>394.0</ele><time>2026-04-26T06:14:52Z</time></trkpt><trkpt lat="36.95716328517222" lon="15.14056772996016"><ele>394.0</ele><time>2026-04-26T06:14:53Z</time></trkpt><trkpt lat="36.95722093404276" lon="15.140429971981122"><ele>394.0</ele><time>2026-04-26T06:14:54Z</time></trkpt><trkpt lat="36.95727798688809" lon="15.140306081911508"><ele>393.5</ele><time>2026-04-26T06:14:55Z</time></trkpt><trkpt lat="36.95733999930099" lon="15.140188213060194"><ele>393.0</ele><time>2026-04-26T06:14:56Z</time></trkpt><trkpt lat="36.957407269249096" lon="15.140067127119272"><ele>392.5</ele><time>2026-04-26T06:14:57Z</time></trkpt><trkpt lat="36.957487291874955" lon="15.13991307751525"><ele>392.0</ele><time>2026-04-26T06:14:58Z</time></trkpt><trkpt lat="36.957553920686976" lon="15.139752516940264"><ele>392.0</ele><time>2026-04-26T06:14:59Z</time></trkpt><trkpt lat="36.95760582484472" lon="15.13961445967118"><ele>392.0</ele><time>2026-04-26T06:15:00Z</time></trkpt><trkpt lat="36.957654143867224" lon="15.13948563706121"><ele>392.0</ele><time>2026-04-26T06:15:01Z</time></trkpt><trkpt lat="36.95768511342439" lon="15.139359641996416"><ele>392.0</ele><time>2026-04-26T06:15:02Z</time></trkpt><trkpt lat="36.95772932354895" lon="15.139252293233946"><ele>392.0</ele><time>2026-04-26T06:15:03Z</time></trkpt><trkpt lat="36.95778138094309" lon="15.139111040836966"><ele>392.66666666666663</ele><time>2026-04-26T06:15:04Z</time></trkpt><trkpt lat="36.9578299868654" lon="15.138984420991884"><ele>393.3333333333333</ele><time>2026-04-26T06:15:05Z</time></trkpt><trkpt lat="36.9578700378789" lon="15.138882797909309"><ele>394.0</ele><time>2026-04-26T06:15:06Z</time></trkpt><trkpt lat="36.95789797021921" lon="15.138803249148967"><ele>394.66666666666663</ele><time>2026-04-26T06:15:07Z</time></trkpt><trkpt lat="36.95793443206629" lon="15.138716049026087"><ele>395.3333333333333</ele><time>2026-04-26T06:15:08Z</time></trkpt><trkpt lat="36.9579817938671" lon="15.138637800855728"><ele>396.0</ele><time>2026-04-26T06:15:09Z</time></trkpt><trkpt lat="36.95800647368234" lon="15.138533444433957"><ele>396.0</ele><time>2026-04-26T06:15:10Z</time></trkpt><trkpt lat="36.95808372729206" lon="15.138383802124855"><ele>396.0</ele><time>2026-04-26T06:15:11Z</time></trkpt><trkpt lat="36.95814354751073" lon="15.138234741991907"><ele>396.0</ele><time>2026-04-26T06:15:12Z</time></trkpt><trkpt lat="36.95818730329663" lon="15.138125710909119"><ele>396.0</ele><time>2026-04-26T06:15:13Z</time></trkpt><trkpt lat="36.95822288293138" lon="15.138037053374422"><ele>397.25</ele><time>2026-04-26T06:15:14Z</time></trkpt><trkpt lat="36.95826547393403" lon="15.137930924991142"><ele>398.5</ele><time>2026-04-26T06:15:15Z</time></trkpt><trkpt lat="36.958328356412515" lon="15.137773894245363"><ele>399.75</ele><time>2026-04-26T06:15:16Z</time></trkpt><trkpt lat="36.95840959761483" lon="15.137570831401543"><ele>401.0</ele><time>2026-04-26T06:15:17Z</time></trkpt><trkpt lat="36.958496044828806" lon="15.137354758102731"><ele>402.66666666666663</ele><time>2026-04-26T06:15:18Z</time></trkpt><trkpt lat="36.95858404612567" lon="15.137134799092832"><ele>404.33333333333337</ele><time>2026-04-26T06:15:19Z</time></trkpt><trkpt lat="36.95867007240146" lon="15.136922949292202"><ele>406.0</ele><time>2026-04-26T06:15:20Z</time></trkpt><trkpt lat="36.958719170060824" lon="15.136751665036453"><ele>406.0</ele><time>2026-04-26T06:15:21Z</time></trkpt><trkpt lat="36.958781776472385" lon="15.136585460611553"><ele>406.0</ele><time>2026-04-26T06:15:22Z</time></trkpt><trkpt lat="36.95885234993261" lon="15.136419586445951"><ele>406.0</ele><time>2026-04-26T06:15:23Z</time></trkpt><trkpt lat="36.95892500407879" lon="15.136247208082168"><ele>407.75</ele><time>2026-04-26T06:15:24Z</time></trkpt><trkpt lat="36.958990371413734" lon="15.136078708674512"><ele>409.5</ele><time>2026-04-26T06:15:25Z</time></trkpt><trkpt lat="36.959049749284695" lon="15.135926067915193"><ele>411.25</ele><time>2026-04-26T06:15:26Z</time></trkpt><trkpt lat="36.95911034615748" lon="15.135785762401358"><ele>413.0</ele><time>2026-04-26T06:15:27Z</time></trkpt><trkpt lat="36.95917151549654" lon="15.135643400336692"><ele>395.5</ele><time>2026-04-26T06:15:28Z</time></trkpt><trkpt lat="36.959227189879876" lon="15.135503638160955"><ele>378.0</ele><time>2026-04-26T06:15:29Z</time></trkpt><trkpt lat="36.95925321938528" lon="15.1353553253639"><ele>360.5</ele><time>2026-04-26T06:15:30Z</time></trkpt><trkpt lat="36.959252599429895" lon="15.135168698463783"><ele>343.0</ele><time>2026-04-26T06:15:31Z</time></trkpt><trkpt lat="36.959231601452395" lon="15.134980564299369"><ele>349.75</ele><time>2026-04-26T06:15:32Z</time></trkpt><trkpt lat="36.95921085428805" lon="15.134819462979646"><ele>356.5</ele><time>2026-04-26T06:15:33Z</time></trkpt><trkpt lat="36.95918260030274" lon="15.134676543286023"><ele>363.25</ele><time>2026-04-26T06:15:34Z</time></trkpt><trkpt lat="36.959146581332845" lon="15.134541464547336"><ele>370.0</ele><time>2026-04-26T06:15:35Z</time></trkpt><trkpt lat="36.95912442082295" lon="15.134423685033985"><ele>379.0</ele><time>2026-04-26T06:15:36Z</time></trkpt><trkpt lat="36.95913300555788" lon="15.134305956486864"><ele>388.0</ele><time>2026-04-26T06:15:37Z</time></trkpt><trkpt lat="36.95918864614811" lon="15.134181871184573"><ele>397.0</ele><time>2026-04-26T06:15:38Z</time></trkpt><trkpt lat="36.95924129199901" lon="15.134038709116345"><ele>406.0</ele><time>2026-04-26T06:15:39Z</time></trkpt><trkpt lat="36.959295772105875" lon="15.133897422630062"><ele>406.0</ele><time>2026-04-26T06:15:40Z</time></trkpt><trkpt lat="36.95933922189809" lon="15.133733937816578"><ele>406.0</ele><time>2026-04-26T06:15:41Z</time></trkpt><trkpt lat="36.9593902914794" lon="15.133567704135897"><ele>406.0</ele><time>2026-04-26T06:15:42Z</time></trkpt><trkpt lat="36.95945496187778" lon="15.13339035287847"><ele>406.0</ele><time>2026-04-26T06:15:43Z</time></trkpt><trkpt lat="36.95949310240485" lon="15.133206202068965"><ele>412.25</ele><time>2026-04-26T06:15:44Z</time></trkpt><trkpt lat="36.95958261927626" lon="15.13305033489236"><ele>418.5</ele><time>2026-04-26T06:15:45Z</time></trkpt><trkpt lat="36.95964777037575" lon="15.132897639122383"><ele>424.75</ele><time>2026-04-26T06:15:46Z</time></trkpt><trkpt lat="36.95967186167913" lon="15.132741677520078"><ele>431.0</ele><time>2026-04-26T06:15:47Z</time></trkpt><trkpt lat="36.95970397854239" lon="15.132561721852918"><ele>434.3333333333333</ele><time>2026-04-26T06:15:48Z</time></trkpt><trkpt lat="36.9597170247407" lon="15.132322536633058"><ele>437.66666666666663</ele><time>2026-04-26T06:15:49Z</time></trkpt><trkpt lat="36.95972034771978" lon="15.132092205222975"><ele>441.0</ele><time>2026-04-26T06:15:50Z</time></trkpt><trkpt lat="36.95970984384702" lon="15.131901205733532"><ele>441.0</ele><time>2026-04-26T06:15:51Z</time></trkpt><trkpt lat="36.95970502616873" lon="15.131711959944408"><ele>441.0</ele><time>2026-04-26T06:15:52Z</time></trkpt><trkpt lat="36.9597048751358" lon="15.131537819709244"><ele>441.0</ele><time>2026-04-26T06:15:53Z</time></trkpt><trkpt lat="36.959737209037385" lon="15.1313734286498"><ele>441.0</ele><time>2026-04-26T06:15:54Z</time></trkpt><trkpt lat="36.95974676103575" lon="15.13120966063327"><ele>440.75</ele><time>2026-04-26T06:15:55Z</time></trkpt><trkpt lat="36.959773835926505" lon="15.131066771280606"><ele>440.5</ele><time>2026-04-26T06:15:56Z</time></trkpt><trkpt lat="36.95980892036266" lon="15.130935277639901"><ele>440.25</ele><time>2026-04-26T06:15:57Z</time></trkpt><trkpt lat="36.95984695670247" lon="15.130803070472789"><ele>440.0</ele><time>2026-04-26T06:15:58Z</time></trkpt><trkpt lat="36.95991062812156" lon="15.130668420738198"><ele>439.25</ele><time>2026-04-26T06:15:59Z</time></trkpt><trkpt lat="36.959976944671126" lon="15.130497970401311"><ele>438.5</ele><time>2026-04-26T06:16:00Z</time></trkpt><trkpt lat="36.96003432376818" lon="15.130350491617511"><ele>437.75</ele><time>2026-04-26T06:16:01Z</time></trkpt><trkpt lat="36.96007997679522" lon="15.130233151694911"><ele>437.0</ele><time>2026-04-26T06:16:02Z</time></trkpt><trkpt lat="36.96012206029011" lon="15.130124986499917"><ele>434.40000000000003</ele><time>2026-04-26T06:16:03Z</time></trkpt><trkpt lat="36.96017421375676" lon="15.129990908689473"><ele>431.80000000000007</ele><time>2026-04-26T06:16:04Z</time></trkpt><trkpt lat="36.96021346681045" lon="15.129887561872877"><ele>429.2</ele><time>2026-04-26T06:16:05Z</time></trkpt><trkpt lat="36.96026162669299" lon="15.129760764939974"><ele>426.6</ele><time>2026-04-26T06:16:06Z</time></trkpt><trkpt lat="36.96030853683424" lon="15.129637245844174"><ele>424.0</ele><time>2026-04-26T06:16:07Z</time></trkpt><trkpt lat="36.96034260879652" lon="15.129546994916598"><ele>424.0</ele><time>2026-04-26T06:16:08Z</time></trkpt><trkpt lat="36.96037748267687" lon="15.129454619819919"><ele>424.0</ele><time>2026-04-26T06:16:09Z</time></trkpt><trkpt lat="36.960409087943745" lon="15.129368062119816"><ele>424.0</ele><time>2026-04-26T06:16:11Z</time></trkpt><trkpt lat="36.96044723839051" lon="15.129263186004495"><ele>424.0</ele><time>2026-04-26T06:18:05Z</time></trkpt><trkpt lat="36.96048515551575" lon="15.129123092638054"><ele>424.0</ele><time>2026-04-26T06:18:07Z</time></trkpt><trkpt lat="36.96052831567551" lon="15.129002801851378"><ele>427.6</ele><time>2026-04-26T06:18:09Z</time></trkpt><trkpt lat="36.960560914013335" lon="15.128891645749167"><ele>431.2</ele><time>2026-04-26T06:18:11Z</time></trkpt><trkpt lat="36.96058845990354" lon="15.128756058459604"><ele>434.80000000000007</ele><time>2026-04-26T06:18:13Z</time></trkpt><trkpt lat="36.96062775709279" lon="15.128626053543302"><ele>438.40000000000003</ele><time>2026-04-26T06:18:15Z</time></trkpt><trkpt lat="36.96065402570162" lon="15.128546670937396"><ele>442.0</ele><time>2026-04-26T06:18:16Z</time></trkpt><trkpt lat="36.96068532385192" lon="15.128471431627347"><ele>442.0</ele><time>2026-04-26T06:18:17Z</time></trkpt><trkpt lat="36.960706641876264" lon="15.128385727581446"><ele>442.00000000000006</ele><time>2026-04-26T06:18:18Z</time></trkpt><trkpt lat="36.96077022939599" lon="15.128264226916867"><ele>442.00000000000006</ele><time>2026-04-26T06:18:20Z</time></trkpt><trkpt lat="36.96081200816873" lon="15.12812156519047"><ele>442.0</ele><time>2026-04-26T06:18:22Z</time></trkpt><trkpt lat="36.9608409995127" lon="15.128039571279052"><ele>442.0</ele><time>2026-04-26T06:18:23Z</time></trkpt><trkpt lat="36.96087278317515" lon="15.127955083717794"><ele>438.6666666666667</ele><time>2026-04-26T06:18:24Z</time></trkpt><trkpt lat="36.96089864195617" lon="15.127863358524825"><ele>435.33333333333337</ele><time>2026-04-26T06:18:25Z</time></trkpt><trkpt lat="36.96091669778517" lon="15.127762735132462"><ele>432.0</ele><time>2026-04-26T06:18:26Z</time></trkpt><trkpt lat="36.9609307993178" lon="15.127661239368722"><ele>428.66666666666663</ele><time>2026-04-26T06:18:27Z</time></trkpt><trkpt lat="36.96094315077108" lon="15.12755873796821"><ele>425.3333333333333</ele><time>2026-04-26T06:18:28Z</time></trkpt><trkpt lat="36.960954981187" lon="15.127465768918466"><ele>422.0</ele><time>2026-04-26T06:18:29Z</time></trkpt><trkpt lat="36.96096350489414" lon="15.127385543342681"><ele>422.0</ele><time>2026-04-26T06:18:30Z</time></trkpt><trkpt lat="36.96101790897819" lon="15.127237559668911"><ele>422.0</ele><time>2026-04-26T06:18:32Z</time></trkpt><trkpt lat="36.96105347554495" lon="15.12714956384841"><ele>422.0</ele><time>2026-04-26T06:18:33Z</time></trkpt><trkpt lat="36.9610963644189" lon="15.127069276845058"><ele>422.0</ele><time>2026-04-26T06:18:34Z</time></trkpt><trkpt lat="36.96112134857088" lon="15.126967341189156"><ele>422.0</ele><time>2026-04-26T06:18:35Z</time></trkpt><trkpt lat="36.961155034546316" lon="15.126870919713266"><ele>421.99999999999994</ele><time>2026-04-26T06:18:36Z</time></trkpt><trkpt lat="36.96119225196202" lon="15.12677771737354"><ele>422.0</ele><time>2026-04-26T06:18:37Z</time></trkpt><trkpt lat="36.96120403690608" lon="15.126672805875307"><ele>422.0</ele><time>2026-04-26T06:18:38Z</time></trkpt><trkpt lat="36.961239052796266" lon="15.126581826805618"><ele>422.0</ele><time>2026-04-26T06:18:39Z</time></trkpt><trkpt lat="36.96126898989958" lon="15.126493498369095"><ele>421.99999999999994</ele><time>2026-04-26T06:18:40Z</time></trkpt><trkpt lat="36.96130301612116" lon="15.126415931609907"><ele>422.0</ele><time>2026-04-26T06:18:41Z</time></trkpt><trkpt lat="36.961346750536286" lon="15.126332822371905"><ele>425.66666666666663</ele><time>2026-04-26T06:18:42Z</time></trkpt><trkpt lat="36.961395011265104" lon="15.126251224514345"><ele>429.3333333333333</ele><time>2026-04-26T06:18:43Z</time></trkpt><trkpt lat="36.96144450018126" lon="15.126168082996998"><ele>433.0</ele><time>2026-04-26T06:18:44Z</time></trkpt><trkpt lat="36.961486268025126" lon="15.126097948527756"><ele>436.66666666666663</ele><time>2026-04-26T06:18:45Z</time></trkpt><trkpt lat="36.961543967363" lon="15.125999834616762"><ele>440.3333333333333</ele><time>2026-04-26T06:18:47Z</time></trkpt><trkpt lat="36.961626013241386" lon="15.1259190253783"><ele>444.0</ele><time>2026-04-26T06:18:49Z</time></trkpt><trkpt lat="36.9616749816907" lon="15.12576570250464"><ele>436.8333333333333</ele><time>2026-04-26T06:18:51Z</time></trkpt><trkpt lat="36.96170394133991" lon="15.125666927127323"><ele>429.66666666666663</ele><time>2026-04-26T06:18:52Z</time></trkpt><trkpt lat="36.961750174040475" lon="15.125587980933297"><ele>422.5</ele><time>2026-04-26T06:18:53Z</time></trkpt><trkpt lat="36.96178658106901" lon="15.125508296229558"><ele>415.3333333333333</ele><time>2026-04-26T06:18:54Z</time></trkpt><trkpt lat="36.96182966245251" lon="15.125414024959735"><ele>408.16666666666663</ele><time>2026-04-26T06:18:55Z</time></trkpt><trkpt lat="36.96186881627691" lon="15.125285794495262"><ele>401.0</ele><time>2026-04-26T06:18:56Z</time></trkpt><trkpt lat="36.96192879604724" lon="15.12516821350917"><ele>401.0</ele><time>2026-04-26T06:18:57Z</time></trkpt><trkpt lat="36.961978496677766" lon="15.125033644212461"><ele>401.0</ele><time>2026-04-26T06:18:58Z</time></trkpt><trkpt lat="36.96203822495244" lon="15.124890705941992"><ele>401.0</ele><time>2026-04-26T06:18:59Z</time></trkpt><trkpt lat="36.962100305504045" lon="15.124755567852421"><ele>401.0</ele><time>2026-04-26T06:19:00Z</time></trkpt><trkpt lat="36.962154947573325" lon="15.12461264980816"><ele>408.20000000000005</ele><time>2026-04-26T06:19:01Z</time></trkpt><trkpt lat="36.96219745186039" lon="15.124475588382541"><ele>415.40000000000003</ele><time>2026-04-26T06:19:02Z</time></trkpt><trkpt lat="36.96222701076899" lon="15.124347441793594"><ele>422.6</ele><time>2026-04-26T06:19:03Z</time></trkpt><trkpt lat="36.96226091268763" lon="15.12423673183162"><ele>429.8</ele><time>2026-04-26T06:19:04Z</time></trkpt><trkpt lat="36.96229678924217" lon="15.124136134641589"><ele>437.0</ele><time>2026-04-26T06:19:05Z</time></trkpt><trkpt lat="36.962328175340396" lon="15.124032361540621"><ele>439.8</ele><time>2026-04-26T06:19:06Z</time></trkpt><trkpt lat="36.96236230396989" lon="15.12387418809131"><ele>442.6</ele><time>2026-04-26T06:19:07Z</time></trkpt><trkpt lat="36.96240357840165" lon="15.12375833301119"><ele>445.40000000000003</ele><time>2026-04-26T06:19:08Z</time></trkpt><trkpt lat="36.96244165923732" lon="15.123674149277434"><ele>448.20000000000005</ele><time>2026-04-26T06:19:09Z</time></trkpt><trkpt lat="36.96249411281528" lon="15.123525657744514"><ele>451.0</ele><time>2026-04-26T06:19:11Z</time></trkpt><trkpt lat="36.962550135752764" lon="15.123424810635495"><ele>451.0</ele><time>2026-04-26T06:19:13Z</time></trkpt><trkpt lat="36.96259346989349" lon="15.123342591738895"><ele>451.0</ele><time>2026-04-26T06:19:16Z</time></trkpt><trkpt lat="36.96252180107309" lon="15.1234379270539"><ele>451.0</ele><time>2026-04-26T06:19:21Z</time></trkpt><trkpt lat="36.96244441709" lon="15.123766725485684"><ele>451.0</ele><time>2026-04-26T06:19:22Z</time></trkpt><trkpt lat="36.96243760492379" lon="15.123662066131857"><ele>451.0</ele><time>2026-04-26T06:19:23Z</time></trkpt><trkpt lat="36.96241210331069" lon="15.123738474902542"><ele>451.0</ele><time>2026-04-26T06:19:24Z</time></trkpt><trkpt lat="36.96236865667448" lon="15.12380614940168"><ele>451.0</ele><time>2026-04-26T06:19:26Z</time></trkpt><trkpt lat="36.96229915740397" lon="15.123764342688226"><ele>451.0</ele><time>2026-04-26T06:19:29Z</time></trkpt><trkpt lat="36.962241381362546" lon="15.123802855838207"><ele>451.0</ele><time>2026-04-26T06:27:16Z</time></trkpt><trkpt lat="36.962182467038936" lon="15.123754189033393"><ele>451.0</ele><time>2026-04-26T06:27:19Z</time></trkpt><trkpt lat="36.96212474733141" lon="15.123720747050662"><ele>451.00000000000006</ele><time>2026-04-26T06:27:21Z</time></trkpt><trkpt lat="36.962060866369114" lon="15.123700447344927"><ele>451.0</ele><time>2026-04-26T06:27:23Z</time></trkpt><trkpt lat="36.9619890242097" lon="15.123673358021772"><ele>451.0</ele><time>2026-04-26T06:27:25Z</time></trkpt><trkpt lat="36.96191632161005" lon="15.123649300887777"><ele>451.0</ele><time>2026-04-26T06:27:27Z</time></trkpt><trkpt lat="36.96185131020093" lon="15.123635985519009"><ele>451.00000000000006</ele><time>2026-04-26T06:27:29Z</time></trkpt><trkpt lat="36.96176451198867" lon="15.123621237758035"><ele>451.0</ele><time>2026-04-26T06:27:32Z</time></trkpt><trkpt lat="36.9616767797269" lon="15.123608171184834"><ele>450.6666666666667</ele><time>2026-04-26T06:27:35Z</time></trkpt><trkpt lat="36.961587981054954" lon="15.123581966796216"><ele>450.33333333333337</ele><time>2026-04-26T06:27:38Z</time></trkpt><trkpt lat="36.96150400450567" lon="15.123563517959095"><ele>450.0</ele><time>2026-04-26T06:27:41Z</time></trkpt><trkpt lat="36.96143037141305" lon="15.123506428782694"><ele>449.66666666666663</ele><time>2026-04-26T06:27:44Z</time></trkpt><trkpt lat="36.961374648213734" lon="15.123465678230987"><ele>449.3333333333333</ele><time>2026-04-26T06:27:49Z</time></trkpt><trkpt lat="36.961300395022455" lon="15.123423407809216"><ele>449.0</ele><time>2026-04-26T06:27:53Z</time></trkpt><trkpt lat="36.961044509497135" lon="15.123781932598636"><ele>449.0</ele><time>2026-04-26T06:28:50Z</time></trkpt><trkpt lat="36.96102449931251" lon="15.12392797317379"><ele>449.0</ele><time>2026-04-26T06:28:52Z</time></trkpt><trkpt lat="36.9610289923507" lon="15.124050068420539"><ele>449.0</ele><time>2026-04-26T06:28:54Z</time></trkpt><trkpt lat="36.96103189423371" lon="15.124131336689794"><ele>449.0</ele><time>2026-04-26T06:28:55Z</time></trkpt><trkpt lat="36.961015641388755" lon="15.12424504806704"><ele>449.0</ele><time>2026-04-26T06:28:57Z</time></trkpt><trkpt lat="36.96093053066624" lon="15.124294295655675"><ele>447.3333333333333</ele><time>2026-04-26T06:29:00Z</time></trkpt><trkpt lat="36.96085102064286" lon="15.124275921301058"><ele>445.66666666666663</ele><time>2026-04-26T06:29:02Z</time></trkpt><trkpt lat="36.96078282373943" lon="15.124301382753982"><ele>444.0</ele><time>2026-04-26T06:29:04Z</time></trkpt><trkpt lat="36.96070666698642" lon="15.124381599433942"><ele>442.33333333333337</ele><time>2026-04-26T06:29:06Z</time></trkpt><trkpt lat="36.9606564939179" lon="15.124463955853324"><ele>440.6666666666667</ele><time>2026-04-26T06:29:07Z</time></trkpt><trkpt lat="36.96060127775645" lon="15.124576017388417"><ele>439.0</ele><time>2026-04-26T06:29:08Z</time></trkpt><trkpt lat="36.96056303712319" lon="15.124668631397592"><ele>439.0</ele><time>2026-04-26T06:29:09Z</time></trkpt><trkpt lat="36.960499707843255" lon="15.12479093452995"><ele>439.0</ele><time>2026-04-26T06:29:11Z</time></trkpt><trkpt lat="36.96044549292288" lon="15.124895220028472"><ele>439.0</ele><time>2026-04-26T06:29:13Z</time></trkpt><trkpt lat="36.96038397455972" lon="15.124978975970789"><ele>439.0</ele><time>2026-04-26T06:29:15Z</time></trkpt><trkpt lat="36.96027378360301" lon="15.12503159824549"><ele>439.0</ele><time>2026-04-26T06:29:17Z</time></trkpt><trkpt lat="36.96019405097248" lon="15.125068731767058"><ele>438.79999999999995</ele><time>2026-04-26T06:29:18Z</time></trkpt><trkpt lat="36.96011578868219" lon="15.125095824451469"><ele>438.59999999999997</ele><time>2026-04-26T06:29:19Z</time></trkpt><trkpt lat="36.960020303575696" lon="15.12511099579877"><ele>438.4</ele><time>2026-04-26T06:29:21Z</time></trkpt><trkpt lat="36.95992565601815" lon="15.125095223912867"><ele>438.2</ele><time>2026-04-26T06:29:23Z</time></trkpt><trkpt lat="36.9598504508848" lon="15.12509100473524"><ele>438.0</ele><time>2026-04-26T06:29:25Z</time></trkpt><trkpt lat="36.95982280509207" lon="15.12496139742237"><ele>438.6666666666667</ele><time>2026-04-26T06:29:28Z</time></trkpt><trkpt lat="36.95983249442869" lon="15.124848690616517"><ele>439.33333333333337</ele><time>2026-04-26T06:29:30Z</time></trkpt><trkpt lat="36.959827738402616" lon="15.124762909032343"><ele>440.0</ele><time>2026-04-26T06:29:33Z</time></trkpt><trkpt lat="36.959796056787546" lon="15.124691256735622"><ele>440.6666666666667</ele><time>2026-04-26T06:31:39Z</time></trkpt><trkpt lat="36.95976757255379" lon="15.124612055407692"><ele>441.33333333333337</ele><time>2026-04-26T06:31:42Z</time></trkpt><trkpt lat="36.95972538454936" lon="15.124538582341675"><ele>442.0</ele><time>2026-04-26T06:33:31Z</time></trkpt><trkpt lat="36.959628983814056" lon="15.124483738732971"><ele>442.0</ele><time>2026-04-26T06:33:34Z</time></trkpt><trkpt lat="36.95954912820153" lon="15.124472376906056"><ele>442.00000000000006</ele><time>2026-04-26T06:33:36Z</time></trkpt><trkpt lat="36.95944326299918" lon="15.124452527359344"><ele>442.00000000000006</ele><time>2026-04-26T06:33:38Z</time></trkpt><trkpt lat="36.959318720290995" lon="15.124421540564557"><ele>442.0</ele><time>2026-04-26T06:33:40Z</time></trkpt><trkpt lat="36.95919484653735" lon="15.124392697391578"><ele>442.0</ele><time>2026-04-26T06:33:42Z</time></trkpt><trkpt lat="36.95911954821691" lon="15.124388594898457"><ele>443.1666666666667</ele><time>2026-04-26T06:33:43Z</time></trkpt><trkpt lat="36.95904695348967" lon="15.12437608334193"><ele>444.33333333333337</ele><time>2026-04-26T06:33:44Z</time></trkpt><trkpt lat="36.95894857784092" lon="15.12436878922066"><ele>445.5</ele><time>2026-04-26T06:33:45Z</time></trkpt><trkpt lat="36.95886847675906" lon="15.124364765629174"><ele>446.66666666666663</ele><time>2026-04-26T06:33:46Z</time></trkpt><trkpt lat="36.9588049283715" lon="15.124352838565617"><ele>447.8333333333333</ele><time>2026-04-26T06:33:47Z</time></trkpt><trkpt lat="36.95871852071461" lon="15.124347858498206"><ele>449.0</ele><time>2026-04-26T06:33:48Z</time></trkpt><trkpt lat="36.95864240110675" lon="15.12434156325577"><ele>448.99999999999994</ele><time>2026-04-26T06:33:48.999Z</time></trkpt><trkpt lat="36.95857396083439" lon="15.124321412729252"><ele>449.0</ele><time>2026-04-26T06:33:49.999Z</time></trkpt><trkpt lat="36.958495337970675" lon="15.124287253348422"><ele>449.0</ele><time>2026-04-26T06:33:50.999Z</time></trkpt><trkpt lat="36.958425575671065" lon="15.124273064919063"><ele>449.0</ele><time>2026-04-26T06:33:51.999Z</time></trkpt><trkpt lat="36.958313578924276" lon="15.124233489615602"><ele>448.99999999999994</ele><time>2026-04-26T06:33:53.999Z</time></trkpt><trkpt lat="36.95825215586953" lon="15.12421069220983"><ele>449.0</ele><time>2026-04-26T06:33:54.999Z</time></trkpt><trkpt lat="36.95814809212195" lon="15.124161739204384"><ele>449.16666666666663</ele><time>2026-04-26T06:33:56.999Z</time></trkpt><trkpt lat="36.95804306748618" lon="15.124130773274906"><ele>449.3333333333333</ele><time>2026-04-26T06:33:58.999Z</time></trkpt><trkpt lat="36.95793408387592" lon="15.124113013264205"><ele>449.5</ele><time>2026-04-26T06:34:00.999Z</time></trkpt><trkpt lat="36.95787656516048" lon="15.124067331290846"><ele>449.66666666666663</ele><time>2026-04-26T06:34:02.999Z</time></trkpt><trkpt lat="36.95781604381788" lon="15.12400982022145"><ele>449.8333333333333</ele><time>2026-04-26T06:34:04.999Z</time></trkpt><trkpt lat="36.95775885313342" lon="15.123956124943499"><ele>450.0</ele><time>2026-04-26T06:34:08Z</time></trkpt><trkpt lat="36.9577171511083" lon="15.123875158726147"><ele>450.0</ele><time>2026-04-26T06:34:28Z</time></trkpt><trkpt lat="36.9576630221187" lon="15.123817924441024"><ele>450.0</ele><time>2026-04-26T06:34:31Z</time></trkpt><trkpt lat="36.95759189544419" lon="15.123760464141903"><ele>450.0</ele><time>2026-04-26T06:34:34Z</time></trkpt><trkpt lat="36.95752008841727" lon="15.123691136782375"><ele>450.0</ele><time>2026-04-26T06:34:37Z</time></trkpt><trkpt lat="36.9574380913862" lon="15.123645403799612"><ele>450.0</ele><time>2026-04-26T06:34:40Z</time></trkpt><trkpt lat="36.957361102602405" lon="15.123601386657294"><ele>450.0</ele><time>2026-04-26T06:34:43Z</time></trkpt><trkpt lat="36.95729812977266" lon="15.12358991137475"><ele>450.0</ele><time>2026-04-26T06:34:47Z</time></trkpt><trkpt lat="36.95726130903203" lon="15.123669195919737"><ele>450.0</ele><time>2026-04-26T06:35:08Z</time></trkpt><trkpt lat="36.957317556027114" lon="15.12359175636918"><ele>450.0</ele><time>2026-04-26T06:35:19Z</time></trkpt><trkpt lat="36.95737918941802" lon="15.12357253257073"><ele>450.0</ele><time>2026-04-26T06:35:22Z</time></trkpt><trkpt lat="36.957432844015145" lon="15.123636461166589"><ele>450.0</ele><time>2026-04-26T06:35:24Z</time></trkpt><trkpt lat="36.957528086185995" lon="15.123703801354027"><ele>450.0</ele><time>2026-04-26T06:35:26Z</time></trkpt><trkpt lat="36.95762102470165" lon="15.123795887734836"><ele>450.0</ele><time>2026-04-26T06:35:28Z</time></trkpt><trkpt lat="36.95767888151217" lon="15.123844094982262"><ele>450.0</ele><time>2026-04-26T06:35:29Z</time></trkpt><trkpt lat="36.95775617352958" lon="15.123917338160746"><ele>450.0</ele><time>2026-04-26T06:35:31Z</time></trkpt><trkpt lat="36.957808035977585" lon="15.124025366958262"><ele>450.0</ele><time>2026-04-26T06:35:33Z</time></trkpt><trkpt lat="36.9578989996349" lon="15.124092434358541"><ele>450.0</ele><time>2026-04-26T06:35:35Z</time></trkpt><trkpt lat="36.95799800460333" lon="15.124145345307499"><ele>450.1666666666667</ele><time>2026-04-26T06:35:37Z</time></trkpt><trkpt lat="36.95807492433208" lon="15.124165466388797"><ele>450.33333333333337</ele><time>2026-04-26T06:35:38Z</time></trkpt><trkpt lat="36.95817470712815" lon="15.124194164716016"><ele>450.5</ele><time>2026-04-26T06:35:39Z</time></trkpt><trkpt lat="36.95826467489487" lon="15.12422299490097"><ele>450.6666666666667</ele><time>2026-04-26T06:35:40Z</time></trkpt><trkpt lat="36.9583254679859" lon="15.12425084782685"><ele>450.83333333333337</ele><time>2026-04-26T06:35:41Z</time></trkpt><trkpt lat="36.958398519210036" lon="15.12429615900445"><ele>451.0</ele><time>2026-04-26T06:35:42Z</time></trkpt><trkpt lat="36.95851130350981" lon="15.12431407635819"><ele>450.6</ele><time>2026-04-26T06:35:44Z</time></trkpt><trkpt lat="36.958575998621924" lon="15.124325343228493"><ele>450.20000000000005</ele><time>2026-04-26T06:35:45Z</time></trkpt><trkpt lat="36.95870377530582" lon="15.124357422842264"><ele>449.79999999999995</ele><time>2026-04-26T06:35:47Z</time></trkpt><trkpt lat="36.95880520813568" lon="15.124369569337565"><ele>449.4</ele><time>2026-04-26T06:35:48Z</time></trkpt><trkpt lat="36.958881053784665" lon="15.12437148751034"><ele>449.0</ele><time>2026-04-26T06:35:49Z</time></trkpt><trkpt lat="36.958958224753104" lon="15.124370868074132"><ele>449.0</ele><time>2026-04-26T06:35:50Z</time></trkpt><trkpt lat="36.95903069865718" lon="15.124365769094272"><ele>448.99999999999994</ele><time>2026-04-26T06:35:51Z</time></trkpt><trkpt lat="36.95909690180032" lon="15.12438511680472"><ele>449.0</ele><time>2026-04-26T06:35:52Z</time></trkpt><trkpt lat="36.95916456959587" lon="15.124394464562013"><ele>449.0</ele><time>2026-04-26T06:35:53Z</time></trkpt><trkpt lat="36.95923064307926" lon="15.124404306345369"><ele>448.99999999999994</ele><time>2026-04-26T06:35:54Z</time></trkpt><trkpt lat="36.9592998417457" lon="15.124413314014205"><ele>449.0</ele><time>2026-04-26T06:35:54.999Z</time></trkpt><trkpt lat="36.95936422126814" lon="15.124420486651193"><ele>449.0</ele><time>2026-04-26T06:35:55.999Z</time></trkpt><trkpt lat="36.959473847636644" lon="15.124449792941556"><ele>447.8333333333333</ele><time>2026-04-26T06:35:57.999Z</time></trkpt><trkpt lat="36.95959223327875" lon="15.124481396055616"><ele>446.66666666666663</ele><time>2026-04-26T06:35:59.999Z</time></trkpt><trkpt lat="36.95969450914353" lon="15.124493793430938"><ele>445.5</ele><time>2026-04-26T06:36:01.999Z</time></trkpt><trkpt lat="36.959753085533016" lon="15.124562492547723"><ele>444.33333333333337</ele><time>2026-04-26T06:36:03.999Z</time></trkpt><trkpt lat="36.9597786455647" lon="15.124642351846703"><ele>443.1666666666667</ele><time>2026-04-26T06:36:06.999Z</time></trkpt><trkpt lat="36.95979808480954" lon="15.12472355550588"><ele>442.0</ele><time>2026-04-26T06:36:46Z</time></trkpt><trkpt lat="36.9598280058664" lon="15.124814602082395"><ele>441.6666666666667</ele><time>2026-04-26T06:36:51Z</time></trkpt><trkpt lat="36.95982761111309" lon="15.124921031864009"><ele>441.33333333333337</ele><time>2026-04-26T06:38:35Z</time></trkpt><trkpt lat="36.959830697127366" lon="15.125024443041541"><ele>441.0</ele><time>2026-04-26T06:38:37Z</time></trkpt><trkpt lat="36.959850870285834" lon="15.125116864916574"><ele>440.66666666666663</ele><time>2026-04-26T06:38:40Z</time></trkpt><trkpt lat="36.95991851897431" lon="15.12509962034632"><ele>440.3333333333333</ele><time>2026-04-26T06:38:44Z</time></trkpt><trkpt lat="36.95998139288732" lon="15.125091412875836"><ele>440.0</ele><time>2026-04-26T06:38:45Z</time></trkpt><trkpt lat="36.960059731436864" lon="15.12509245712841"><ele>439.8</ele><time>2026-04-26T06:38:46Z</time></trkpt><trkpt lat="36.96015184430834" lon="15.125076411269765"><ele>439.6</ele><time>2026-04-26T06:38:47Z</time></trkpt><trkpt lat="36.960255198403985" lon="15.125026881492557"><ele>439.4</ele><time>2026-04-26T06:38:48Z</time></trkpt><trkpt lat="36.96034855537845" lon="15.124984167839315"><ele>439.2</ele><time>2026-04-26T06:38:49Z</time></trkpt><trkpt lat="36.96041810771015" lon="15.124934187879974"><ele>439.0</ele><time>2026-04-26T06:38:50Z</time></trkpt><trkpt lat="36.96046740711696" lon="15.124874900506803"><ele>439.0</ele><time>2026-04-26T06:38:51Z</time></trkpt><trkpt lat="36.960497239620274" lon="15.124800166039947"><ele>439.0</ele><time>2026-04-26T06:38:52Z</time></trkpt><trkpt lat="36.96054032742974" lon="15.124687075988197"><ele>439.0</ele><time>2026-04-26T06:38:53Z</time></trkpt><trkpt lat="36.96060015248646" lon="15.124551700123476"><ele>439.0</ele><time>2026-04-26T06:38:54Z</time></trkpt><trkpt lat="36.96066513769016" lon="15.124409757383548"><ele>439.0</ele><time>2026-04-26T06:38:55Z</time></trkpt><trkpt lat="36.96071777627451" lon="15.124326999527778"><ele>439.00000000000006</ele><time>2026-04-26T06:38:56Z</time></trkpt><trkpt lat="36.96077082472791" lon="15.124277525663402"><ele>439.0</ele><time>2026-04-26T06:38:57Z</time></trkpt><trkpt lat="36.960880181623075" lon="15.124246288964013"><ele>439.0</ele><time>2026-04-26T06:38:59Z</time></trkpt><trkpt lat="36.96098996945047" lon="15.12427926056353"><ele>439.0</ele><time>2026-04-26T06:39:01Z</time></trkpt><trkpt lat="36.96103805001997" lon="15.124211941110003"><ele>439.00000000000006</ele><time>2026-04-26T06:39:03Z</time></trkpt><trkpt lat="36.9610336881099" lon="15.124110638337111"><ele>439.0</ele><time>2026-04-26T06:39:05Z</time></trkpt><trkpt lat="36.96102593823746" lon="15.124023271611694"><ele>440.6666666666667</ele><time>2026-04-26T06:39:06Z</time></trkpt><trkpt lat="36.96102572178675" lon="15.123917914036682"><ele>442.33333333333337</ele><time>2026-04-26T06:39:07Z</time></trkpt><trkpt lat="36.961031874376815" lon="15.123816033544013"><ele>444.0</ele><time>2026-04-26T06:39:08Z</time></trkpt><trkpt lat="36.961046974341215" lon="15.123729362929605"><ele>445.66666666666663</ele><time>2026-04-26T06:39:09Z</time></trkpt><trkpt lat="36.961068091117845" lon="15.123649741933425"><ele>447.3333333333333</ele><time>2026-04-26T06:39:10Z</time></trkpt><trkpt lat="36.96110375413854" lon="15.123546063795587"><ele>449.0</ele><time>2026-04-26T06:39:12Z</time></trkpt><trkpt lat="36.961170155084794" lon="15.123541761239045"><ele>449.0</ele><time>2026-04-26T06:39:47Z</time></trkpt><trkpt lat="36.96124536997215" lon="15.12351175366342"><ele>448.99999999999994</ele><time>2026-04-26T06:39:50Z</time></trkpt><trkpt lat="36.96130898002572" lon="15.123471802506948"><ele>449.0</ele><time>2026-04-26T06:39:52Z</time></trkpt><trkpt lat="36.96137033225851" lon="15.123509353008838"><ele>449.0</ele><time>2026-04-26T06:40:48Z</time></trkpt><trkpt lat="36.96141965194491" lon="15.123559458252455"><ele>448.99999999999994</ele><time>2026-04-26T06:40:50Z</time></trkpt><trkpt lat="36.96148481725556" lon="15.123570294079913"><ele>449.0</ele><time>2026-04-26T06:40:52Z</time></trkpt><trkpt lat="36.961561704185925" lon="15.123607193777993"><ele>449.0</ele><time>2026-04-26T06:40:54Z</time></trkpt><trkpt lat="36.96165136189949" lon="15.123629392802233"><ele>449.5</ele><time>2026-04-26T06:40:56Z</time></trkpt><trkpt lat="36.961742287699195" lon="15.123647340029004"><ele>450.0</ele><time>2026-04-26T06:40:58Z</time></trkpt><trkpt lat="36.961769651952416" lon="15.123432611556465"><ele>450.5</ele><time>2026-04-26T06:41:00Z</time></trkpt><trkpt lat="36.961786986527756" lon="15.123287404276567"><ele>451.0</ele><time>2026-04-26T06:41:02Z</time></trkpt><trkpt lat="36.96183133789396" lon="15.123178218506778"><ele>451.50000000000006</ele><time>2026-04-26T06:41:04Z</time></trkpt><trkpt lat="36.961905014688455" lon="15.123105177974907"><ele>452.0</ele><time>2026-04-26T06:41:06Z</time></trkpt><trkpt lat="36.961977932135746" lon="15.123083397837533"><ele>452.5</ele><time>2026-04-26T06:41:08Z</time></trkpt><trkpt lat="36.962046904662415" lon="15.123105346240965"><ele>453.0</ele><time>2026-04-26T06:41:10Z</time></trkpt><trkpt lat="36.962153975925666" lon="15.123139068156732"><ele>453.50000000000006</ele><time>2026-04-26T06:41:12Z</time></trkpt><trkpt lat="36.96221972452993" lon="15.123164165228028"><ele>454.0</ele><time>2026-04-26T06:41:13Z</time></trkpt><trkpt lat="36.962286421412294" lon="15.12318764415373"><ele>454.0</ele><time>2026-04-26T06:41:14Z</time></trkpt><trkpt lat="36.962351014958" lon="15.123216798390878"><ele>454.0</ele><time>2026-04-26T06:41:15Z</time></trkpt><trkpt lat="36.96245206318701" lon="15.123272868449725"><ele>454.0</ele><time>2026-04-26T06:41:17Z</time></trkpt><trkpt lat="36.96253534675558" lon="15.123331637846604"><ele>454.0</ele><time>2026-04-26T06:41:19Z</time></trkpt><trkpt lat="36.96263204351473" lon="15.12328125985903"><ele>454.0</ele><time>2026-04-26T06:41:23Z</time></trkpt><trkpt lat="36.962701273658304" lon="15.123194057758514"><ele>449.33333333333337</ele><time>2026-04-26T06:41:25Z</time></trkpt><trkpt lat="36.96277150735402" lon="15.123140296607374"><ele>444.6666666666667</ele><time>2026-04-26T06:41:28Z</time></trkpt><trkpt lat="36.962831635503285" lon="15.123084049273446"><ele>440.0</ele><time>2026-04-26T06:41:31Z</time></trkpt><trkpt lat="36.96289635314978" lon="15.1230236914488"><ele>435.33333333333337</ele><time>2026-04-26T06:41:33Z</time></trkpt><trkpt lat="36.962996656794466" lon="15.12290577583753"><ele>430.6666666666667</ele><time>2026-04-26T06:41:35Z</time></trkpt><trkpt lat="36.96304588853235" lon="15.122839661764933"><ele>426.0</ele><time>2026-04-26T06:41:36Z</time></trkpt><trkpt lat="36.96309154244457" lon="15.12275451715398"><ele>426.0</ele><time>2026-04-26T06:41:37Z</time></trkpt><trkpt lat="36.96313129371148" lon="15.122653651560023"><ele>426.0</ele><time>2026-04-26T06:41:38Z</time></trkpt><trkpt lat="36.96316691215761" lon="15.122531617876854"><ele>426.0</ele><time>2026-04-26T06:41:39Z</time></trkpt><trkpt lat="36.96319421372569" lon="15.122406002188947"><ele>426.0</ele><time>2026-04-26T06:41:40Z</time></trkpt><trkpt lat="36.963227465189775" lon="15.122262768955903"><ele>426.0</ele><time>2026-04-26T06:41:41Z</time></trkpt><trkpt lat="36.96325323957706" lon="15.122105860532189"><ele>431.0</ele><time>2026-04-26T06:41:42Z</time></trkpt><trkpt lat="36.96327553794234" lon="15.121927640357052"><ele>436.0</ele><time>2026-04-26T06:41:43Z</time></trkpt><trkpt lat="36.96329234666838" lon="15.121761588505235"><ele>441.0</ele><time>2026-04-26T06:41:44Z</time></trkpt><trkpt lat="36.96331081093502" lon="15.12160915355957"><ele>446.0</ele><time>2026-04-26T06:41:45Z</time></trkpt><trkpt lat="36.96331913671172" lon="15.121481219499453"><ele>446.0</ele><time>2026-04-26T06:41:46Z</time></trkpt><trkpt lat="36.9633078052295" lon="15.121354305513542"><ele>446.0</ele><time>2026-04-26T06:41:47Z</time></trkpt><trkpt lat="36.96328046467178" lon="15.12121828142593"><ele>446.0</ele><time>2026-04-26T06:41:48Z</time></trkpt><trkpt lat="36.96324848497501" lon="15.12109649563752"><ele>446.0</ele><time>2026-04-26T06:41:49Z</time></trkpt><trkpt lat="36.96322705135584" lon="15.120984351829959"><ele>446.0</ele><time>2026-04-26T06:41:50Z</time></trkpt><trkpt lat="36.96320498378246" lon="15.120873747844705"><ele>444.20000000000005</ele><time>2026-04-26T06:41:51Z</time></trkpt><trkpt lat="36.963174008485176" lon="15.120718433457117"><ele>442.40000000000003</ele><time>2026-04-26T06:41:52Z</time></trkpt><trkpt lat="36.96316452145595" lon="15.120594696240724"><ele>440.6</ele><time>2026-04-26T06:41:53Z</time></trkpt><trkpt lat="36.96314384755692" lon="15.120486995827273"><ele>438.8</ele><time>2026-04-26T06:41:54Z</time></trkpt><trkpt lat="36.96312584005526" lon="15.12039172882636"><ele>437.0</ele><time>2026-04-26T06:41:55Z</time></trkpt><trkpt lat="36.96308987937954" lon="15.120268471755583"><ele>436.99999999999994</ele><time>2026-04-26T06:41:57Z</time></trkpt><trkpt lat="36.963059429553184" lon="15.120131547915692"><ele>437.0</ele><time>2026-04-26T06:41:59Z</time></trkpt><trkpt lat="36.96303523304284" lon="15.120034571581538"><ele>437.0</ele><time>2026-04-26T06:42:00Z</time></trkpt><trkpt lat="36.962995189765714" lon="15.119935927293785"><ele>437.0</ele><time>2026-04-26T06:42:01Z</time></trkpt><trkpt lat="36.962942857436275" lon="15.119865774718381"><ele>436.99999999999994</ele><time>2026-04-26T06:42:02Z</time></trkpt><trkpt lat="36.96290259808249" lon="15.11978080397643"><ele>437.0</ele><time>2026-04-26T06:42:03Z</time></trkpt><trkpt lat="36.96284106173059" lon="15.119693837935332"><ele>436.25</ele><time>2026-04-26T06:42:04Z</time></trkpt><trkpt lat="36.962760675264576" lon="15.119577914706436"><ele>435.5</ele><time>2026-04-26T06:42:05Z</time></trkpt><trkpt lat="36.962661766606914" lon="15.119432540677074"><ele>434.75</ele><time>2026-04-26T06:42:06Z</time></trkpt><trkpt lat="36.962564819161685" lon="15.119281600672544"><ele>434.0</ele><time>2026-04-26T06:42:07.001Z</time></trkpt><trkpt lat="36.962491498904576" lon="15.119158376640732"><ele>436.66666666666663</ele><time>2026-04-26T06:42:08.001Z</time></trkpt><trkpt lat="36.962439050550174" lon="15.119056233129704"><ele>439.3333333333333</ele><time>2026-04-26T06:42:09.001Z</time></trkpt><trkpt lat="36.96240733016554" lon="15.118961351623884"><ele>442.0</ele><time>2026-04-26T06:42:10.001Z</time></trkpt><trkpt lat="36.96241518669438" lon="15.11886072874594"><ele>444.66666666666663</ele><time>2026-04-26T06:42:11.001Z</time></trkpt><trkpt lat="36.962419106882166" lon="15.118770386795878"><ele>447.3333333333333</ele><time>2026-04-26T06:42:12.001Z</time></trkpt><trkpt lat="36.962431145687034" lon="15.11865205676703"><ele>450.0</ele><time>2026-04-26T06:42:12.999Z</time></trkpt><trkpt lat="36.96244662076222" lon="15.118507473877598"><ele>450.0</ele><time>2026-04-26T06:42:13.999Z</time></trkpt><trkpt lat="36.96246160583559" lon="15.118372547092891"><ele>450.0</ele><time>2026-04-26T06:42:14.999Z</time></trkpt><trkpt lat="36.96247778516994" lon="15.118228885704168"><ele>450.0</ele><time>2026-04-26T06:42:15.999Z</time></trkpt><trkpt lat="36.96249653730966" lon="15.118052718359271"><ele>450.0</ele><time>2026-04-26T06:42:16.999Z</time></trkpt><trkpt lat="36.96251146338705" lon="15.117876680199714"><ele>449.0</ele><time>2026-04-26T06:42:17.999Z</time></trkpt><trkpt lat="36.962520786876745" lon="15.11770578146909"><ele>448.0</ele><time>2026-04-26T06:42:18.999Z</time></trkpt><trkpt lat="36.962510097414814" lon="15.117547140120843"><ele>447.0</ele><time>2026-04-26T06:42:19.999Z</time></trkpt><trkpt lat="36.962514891697886" lon="15.117406292777423"><ele>446.0</ele><time>2026-04-26T06:42:20.999Z</time></trkpt><trkpt lat="36.962499903583385" lon="15.117295325786625"><ele>445.8</ele><time>2026-04-26T06:42:21.999Z</time></trkpt><trkpt lat="36.96249563946482" lon="15.117186859725319"><ele>445.6</ele><time>2026-04-26T06:42:22.999Z</time></trkpt><trkpt lat="36.96248451846277" lon="15.117089084581172"><ele>445.4</ele><time>2026-04-26T06:42:23.999Z</time></trkpt><trkpt lat="36.962466818293144" lon="15.11695813140763"><ele>445.2</ele><time>2026-04-26T06:42:24.999Z</time></trkpt><trkpt lat="36.96244031291919" lon="15.116772433906347"><ele>445.0</ele><time>2026-04-26T06:42:25.999Z</time></trkpt><trkpt lat="36.962420177219165" lon="15.116606530757943"><ele>445.8</ele><time>2026-04-26T06:42:26.999Z</time></trkpt><trkpt lat="36.9624207564" lon="15.116472060464753"><ele>446.6</ele><time>2026-04-26T06:42:27.999Z</time></trkpt><trkpt lat="36.96241229560045" lon="15.116354076708612"><ele>447.4</ele><time>2026-04-26T06:42:28.999Z</time></trkpt><trkpt lat="36.96241399561328" lon="15.116251643141412"><ele>448.2</ele><time>2026-04-26T06:42:29.999Z</time></trkpt><trkpt lat="36.96242036247468" lon="15.116165554052044"><ele>449.0</ele><time>2026-04-26T06:42:30.999Z</time></trkpt><trkpt lat="36.962418437212314" lon="15.116011973062475"><ele>449.0</ele><time>2026-04-26T06:42:32.999Z</time></trkpt><trkpt lat="36.962445549978426" lon="15.115840473289534"><ele>449.0</ele><time>2026-04-26T06:42:34.999Z</time></trkpt><trkpt lat="36.962464728120544" lon="15.115728166985042"><ele>449.0</ele><time>2026-04-26T06:42:35.999Z</time></trkpt><trkpt lat="36.96248754480157" lon="15.115632634281093"><ele>449.0</ele><time>2026-04-26T06:42:36.999Z</time></trkpt><trkpt lat="36.962509256910735" lon="15.115549347214312"><ele>449.0</ele><time>2026-04-26T06:42:37.999Z</time></trkpt><trkpt lat="36.962535299706516" lon="15.115443168599379"><ele>439.2</ele><time>2026-04-26T06:42:39.999Z</time></trkpt><trkpt lat="36.96256487856869" lon="15.11533503366619"><ele>429.4</ele><time>2026-04-26T06:42:41.999Z</time></trkpt><trkpt lat="36.962587292852874" lon="15.115247693179205"><ele>419.6</ele><time>2026-04-26T06:42:42.999Z</time></trkpt><trkpt lat="36.96261911888536" lon="15.115140699445396"><ele>409.8</ele><time>2026-04-26T06:42:43.999Z</time></trkpt><trkpt lat="36.96264814084125" lon="15.11501863432109"><ele>400.0</ele><time>2026-04-26T06:42:44.999Z</time></trkpt><trkpt lat="36.96268518175859" lon="15.114887310008635"><ele>400.0</ele><time>2026-04-26T06:42:45.999Z</time></trkpt><trkpt lat="36.962717772361984" lon="15.11476455197619"><ele>400.0</ele><time>2026-04-26T06:42:46.999Z</time></trkpt><trkpt lat="36.962748519191074" lon="15.114676063443557"><ele>400.0</ele><time>2026-04-26T06:42:48Z</time></trkpt><trkpt lat="36.96278367485022" lon="15.114577769636412"><ele>400.0</ele><time>2026-04-26T06:42:49Z</time></trkpt><trkpt lat="36.9628150283684" lon="15.114471572849006"><ele>400.0</ele><time>2026-04-26T06:42:50Z</time></trkpt><trkpt lat="36.96285022122038" lon="15.114355870533778"><ele>400.0</ele><time>2026-04-26T06:42:51Z</time></trkpt><trkpt lat="36.96289565952694" lon="15.114186362070447"><ele>400.0</ele><time>2026-04-26T06:42:52Z</time></trkpt><trkpt lat="36.962946115067865" lon="15.113995225459385"><ele>400.0</ele><time>2026-04-26T06:42:53Z</time></trkpt><trkpt lat="36.96301708067054" lon="15.113788570530327"><ele>412.33333333333337</ele><time>2026-04-26T06:42:54Z</time></trkpt><trkpt lat="36.963065746162236" lon="15.113591827655148"><ele>424.66666666666663</ele><time>2026-04-26T06:42:55Z</time></trkpt><trkpt lat="36.96310691337196" lon="15.113404700439682"><ele>437.0</ele><time>2026-04-26T06:42:56Z</time></trkpt><trkpt lat="36.96315180361541" lon="15.11320821073481"><ele>446.0</ele><time>2026-04-26T06:42:57Z</time></trkpt><trkpt lat="36.96320019129109" lon="15.113017631427152"><ele>455.0</ele><time>2026-04-26T06:42:58Z</time></trkpt><trkpt lat="36.96325500315448" lon="15.112811849662396"><ele>464.0</ele><time>2026-04-26T06:42:59Z</time></trkpt><trkpt lat="36.9633047617288" lon="15.11262874414378"><ele>464.0</ele><time>2026-04-26T06:43:00Z</time></trkpt><trkpt lat="36.96335176776844" lon="15.112457168284458"><ele>464.0</ele><time>2026-04-26T06:43:01Z</time></trkpt><trkpt lat="36.96339315242185" lon="15.112301945411023"><ele>464.0</ele><time>2026-04-26T06:43:02Z</time></trkpt><trkpt lat="36.96341526172849" lon="15.112127337248454"><ele>464.0</ele><time>2026-04-26T06:43:03Z</time></trkpt><trkpt lat="36.96345928392139" lon="15.111962382003028"><ele>459.0</ele><time>2026-04-26T06:43:04Z</time></trkpt><trkpt lat="36.96349110981654" lon="15.111804095862714"><ele>454.0</ele><time>2026-04-26T06:43:05Z</time></trkpt><trkpt lat="36.96351294666576" lon="15.111671641118802"><ele>449.0</ele><time>2026-04-26T06:43:06Z</time></trkpt><trkpt lat="36.963526327538155" lon="15.111542726757657"><ele>444.0</ele><time>2026-04-26T06:43:07Z</time></trkpt><trkpt lat="36.96352482589205" lon="15.111426864858744"><ele>439.0</ele><time>2026-04-26T06:43:08Z</time></trkpt><trkpt lat="36.96353239915213" lon="15.111296851702399"><ele>439.0</ele><time>2026-04-26T06:43:09Z</time></trkpt><trkpt lat="36.96351352431019" lon="15.1111579966864"><ele>439.0</ele><time>2026-04-26T06:43:10Z</time></trkpt><trkpt lat="36.96349036328208" lon="15.111007182689749"><ele>439.0</ele><time>2026-04-26T06:43:11Z</time></trkpt><trkpt lat="36.963449470540375" lon="15.110879474891604"><ele>439.0</ele><time>2026-04-26T06:43:12Z</time></trkpt><trkpt lat="36.963421179933114" lon="15.110720227896758"><ele>445.25</ele><time>2026-04-26T06:43:13Z</time></trkpt><trkpt lat="36.96338793280994" lon="15.110520531661688"><ele>451.5</ele><time>2026-04-26T06:43:14Z</time></trkpt><trkpt lat="36.96337054406988" lon="15.110353528275537"><ele>457.75</ele><time>2026-04-26T06:43:15Z</time></trkpt><trkpt lat="36.96334714663831" lon="15.110216863637167"><ele>464.0</ele><time>2026-04-26T06:43:16Z</time></trkpt><trkpt lat="36.96332243826934" lon="15.110072541871622"><ele>465.4</ele><time>2026-04-26T06:43:17Z</time></trkpt><trkpt lat="36.96331336890335" lon="15.109934542800524"><ele>466.79999999999995</ele><time>2026-04-26T06:43:18Z</time></trkpt><trkpt lat="36.96332461756039" lon="15.109787140570333"><ele>468.20000000000005</ele><time>2026-04-26T06:43:19Z</time></trkpt><trkpt lat="36.96331160068824" lon="15.10965144088962"><ele>469.6</ele><time>2026-04-26T06:43:20Z</time></trkpt><trkpt lat="36.96330036512575" lon="15.109525497687839"><ele>471.0</ele><time>2026-04-26T06:43:21Z</time></trkpt><trkpt lat="36.96330124934903" lon="15.109435459319648"><ele>471.20000000000005</ele><time>2026-04-26T06:43:22Z</time></trkpt><trkpt lat="36.963314194215684" lon="15.10935430276202"><ele>471.40000000000003</ele><time>2026-04-26T06:43:23Z</time></trkpt><trkpt lat="36.9633503158571" lon="15.109270068563694"><ele>471.6</ele><time>2026-04-26T06:43:24Z</time></trkpt><trkpt lat="36.96339843256981" lon="15.109106162073749"><ele>471.8</ele><time>2026-04-26T06:43:26Z</time></trkpt><trkpt lat="36.96345931632534" lon="15.108978654923115"><ele>472.0</ele><time>2026-04-26T06:43:28Z</time></trkpt><trkpt lat="36.96349703560817" lon="15.108859434670096"><ele>472.8</ele><time>2026-04-26T06:43:30Z</time></trkpt><trkpt lat="36.96354867784231" lon="15.108710861287449"><ele>473.6</ele><time>2026-04-26T06:43:32Z</time></trkpt><trkpt lat="36.96358661823421" lon="15.10856392968499"><ele>474.40000000000003</ele><time>2026-04-26T06:43:34Z</time></trkpt><trkpt lat="36.96359750770804" lon="15.108482245963788"><ele>475.20000000000005</ele><time>2026-04-26T06:43:35Z</time></trkpt><trkpt lat="36.963615445677696" lon="15.108363389384026"><ele>476.0</ele><time>2026-04-26T06:43:37Z</time></trkpt><trkpt lat="36.963654700723545" lon="15.108221833547773"><ele>475.99999999999994</ele><time>2026-04-26T06:43:39Z</time></trkpt><trkpt lat="36.96367700550483" lon="15.108100271236788"><ele>476.0</ele><time>2026-04-26T06:43:41Z</time></trkpt><trkpt lat="36.963692044730465" lon="15.108008385299703"><ele>476.0</ele><time>2026-04-26T06:43:43Z</time></trkpt><trkpt lat="36.963718174206164" lon="15.107929989021825"><ele>476.0</ele><time>2026-04-26T06:43:45Z</time></trkpt><trkpt lat="36.963740623363115" lon="15.107833271528373"><ele>475.99999999999994</ele><time>2026-04-26T06:43:47Z</time></trkpt><trkpt lat="36.963748065943065" lon="15.107743890660348"><ele>476.0</ele><time>2026-04-26T06:43:49Z</time></trkpt><trkpt lat="36.96377623604973" lon="15.107657147317509"><ele>475.99999999999994</ele><time>2026-04-26T06:43:51Z</time></trkpt><trkpt lat="36.96380650379964" lon="15.107557479305443"><ele>476.0</ele><time>2026-04-26T06:43:54Z</time></trkpt><trkpt lat="36.963825602179284" lon="15.107480984467825"><ele>476.0</ele><time>2026-04-26T06:44:12Z</time></trkpt><trkpt lat="36.96385858706945" lon="15.107373886747578"><ele>476.0</ele><time>2026-04-26T06:44:14Z</time></trkpt><trkpt lat="36.963885037280384" lon="15.107295382055144"><ele>475.99999999999994</ele><time>2026-04-26T06:44:15Z</time></trkpt><trkpt lat="36.963918471946755" lon="15.107198654255999"><ele>476.0</ele><time>2026-04-26T06:44:16Z</time></trkpt><trkpt lat="36.96395449170189" lon="15.107095939714615"><ele>476.20000000000005</ele><time>2026-04-26T06:44:17Z</time></trkpt><trkpt lat="36.96400061706862" lon="15.106962581905325"><ele>476.40000000000003</ele><time>2026-04-26T06:44:18Z</time></trkpt><trkpt lat="36.964027759055135" lon="15.106826132625596"><ele>476.6</ele><time>2026-04-26T06:44:18.999Z</time></trkpt><trkpt lat="36.96406872940934" lon="15.106708666543508"><ele>476.8</ele><time>2026-04-26T06:44:19.999Z</time></trkpt><trkpt lat="36.964104300253304" lon="15.106594443521717"><ele>477.0</ele><time>2026-04-26T06:44:20.999Z</time></trkpt><trkpt lat="36.96414941412472" lon="15.106449257358102"><ele>477.20000000000005</ele><time>2026-04-26T06:44:21.999Z</time></trkpt><trkpt lat="36.96418541169462" lon="15.106295007467022"><ele>477.40000000000003</ele><time>2026-04-26T06:44:22.999Z</time></trkpt><trkpt lat="36.964221922420734" lon="15.106150063323764"><ele>477.59999999999997</ele><time>2026-04-26T06:44:23.999Z</time></trkpt><trkpt lat="36.964242952777106" lon="15.106027133566952"><ele>477.79999999999995</ele><time>2026-04-26T06:44:24.999Z</time></trkpt><trkpt lat="36.96427101026705" lon="15.105919364671061"><ele>478.0</ele><time>2026-04-26T06:44:25.999Z</time></trkpt><trkpt lat="36.964309019784835" lon="15.105787958201313"><ele>481.0</ele><time>2026-04-26T06:44:26.999Z</time></trkpt><trkpt lat="36.96434664740428" lon="15.105632503504259"><ele>484.0</ele><time>2026-04-26T06:44:27.999Z</time></trkpt><trkpt lat="36.96438777638249" lon="15.105463518186959"><ele>487.0</ele><time>2026-04-26T06:44:28.999Z</time></trkpt><trkpt lat="36.96441092730313" lon="15.105335524001314"><ele>490.0</ele><time>2026-04-26T06:44:29.999Z</time></trkpt><trkpt lat="36.96443028005786" lon="15.105214687049118"><ele>490.0</ele><time>2026-04-26T06:44:30.999Z</time></trkpt><trkpt lat="36.96443284167275" lon="15.105077282218357"><ele>490.0</ele><time>2026-04-26T06:44:31.999Z</time></trkpt><trkpt lat="36.96441411397191" lon="15.104931885751505"><ele>490.0</ele><time>2026-04-26T06:44:32.999Z</time></trkpt><trkpt lat="36.96439814144648" lon="15.104783893537856"><ele>490.0</ele><time>2026-04-26T06:44:33.999Z</time></trkpt><trkpt lat="36.964380985939535" lon="15.104645549861374"><ele>490.2</ele><time>2026-04-26T06:44:34.999Z</time></trkpt><trkpt lat="36.96436650555115" lon="15.104530261391362"><ele>490.4</ele><time>2026-04-26T06:44:35.999Z</time></trkpt><trkpt lat="36.96438044755508" lon="15.104438927363322"><ele>490.6</ele><time>2026-04-26T06:44:36.999Z</time></trkpt><trkpt lat="36.964396772050804" lon="15.104338701122188"><ele>490.8</ele><time>2026-04-26T06:44:37.999Z</time></trkpt><trkpt lat="36.964430768855806" lon="15.104223332236186"><ele>491.0</ele><time>2026-04-26T06:44:38.999Z</time></trkpt><trkpt lat="36.964456737680074" lon="15.104084291598648"><ele>491.5</ele><time>2026-04-26T06:44:39.999Z</time></trkpt><trkpt lat="36.96447750189473" lon="15.103953717500588"><ele>492.0</ele><time>2026-04-26T06:44:40.999Z</time></trkpt><trkpt lat="36.96447767141966" lon="15.103823325554849"><ele>492.5</ele><time>2026-04-26T06:44:41.999Z</time></trkpt><trkpt lat="36.96449044070303" lon="15.103679527307962"><ele>493.0</ele><time>2026-04-26T06:44:42.999Z</time></trkpt><trkpt lat="36.964507602958484" lon="15.103526135900207"><ele>493.0</ele><time>2026-04-26T06:44:43.999Z</time></trkpt><trkpt lat="36.964519564132026" lon="15.103384817930962"><ele>492.99999999999994</ele><time>2026-04-26T06:44:44.999Z</time></trkpt><trkpt lat="36.96452757985196" lon="15.103263875438122"><ele>492.99999999999994</ele><time>2026-04-26T06:44:45.999Z</time></trkpt><trkpt lat="36.964540011703264" lon="15.103148538953137"><ele>493.0</ele><time>2026-04-26T06:44:47Z</time></trkpt><trkpt lat="36.964552873255265" lon="15.103045453978467"><ele>493.0</ele><time>2026-04-26T06:44:48Z</time></trkpt><trkpt lat="36.964577056104694" lon="15.102940318911052"><ele>493.4</ele><time>2026-04-26T06:44:49Z</time></trkpt><trkpt lat="36.96464087598355" lon="15.102847153810922"><ele>493.79999999999995</ele><time>2026-04-26T06:44:50Z</time></trkpt><trkpt lat="36.96470511310973" lon="15.102731194811897"><ele>494.2</ele><time>2026-04-26T06:44:51Z</time></trkpt><trkpt lat="36.96475236755456" lon="15.10264423875965"><ele>494.6</ele><time>2026-04-26T06:44:52Z</time></trkpt><trkpt lat="36.96479712620505" lon="15.102562238428977"><ele>495.0</ele><time>2026-04-26T06:44:53Z</time></trkpt><trkpt lat="36.96484745235992" lon="15.102470054488741"><ele>495.2</ele><time>2026-04-26T06:44:54Z</time></trkpt><trkpt lat="36.964914982429306" lon="15.102357464719942"><ele>495.4</ele><time>2026-04-26T06:44:56Z</time></trkpt><trkpt lat="36.96496652596673" lon="15.102270699321416"><ele>495.6</ele><time>2026-04-26T06:44:58Z</time></trkpt><trkpt lat="36.96504010836709" lon="15.102177094034518"><ele>495.8</ele><time>2026-04-26T06:45:00Z</time></trkpt><trkpt lat="36.965094960055026" lon="15.102102364557503"><ele>496.0</ele><time>2026-04-26T06:45:01Z</time></trkpt><trkpt lat="36.965154193227384" lon="15.102025188347659"><ele>497.33333333333337</ele><time>2026-04-26T06:45:02Z</time></trkpt><trkpt lat="36.96521098052146" lon="15.101946659849363"><ele>498.6666666666667</ele><time>2026-04-26T06:45:03Z</time></trkpt><trkpt lat="36.96525476676378" lon="15.101881530929633"><ele>500.0</ele><time>2026-04-26T06:45:04Z</time></trkpt><trkpt lat="36.965299031313194" lon="15.101815341586796"><ele>501.33333333333337</ele><time>2026-04-26T06:45:05Z</time></trkpt><trkpt lat="36.96534743433708" lon="15.101762282936127"><ele>502.6666666666667</ele><time>2026-04-26T06:45:06Z</time></trkpt><trkpt lat="36.96540121079138" lon="15.101692662307999"><ele>504.0</ele><time>2026-04-26T06:45:07Z</time></trkpt><trkpt lat="36.96548601155446" lon="15.101584636010024"><ele>504.0</ele><time>2026-04-26T06:45:08Z</time></trkpt><trkpt lat="36.96558125459821" lon="15.101472828518594"><ele>504.0</ele><time>2026-04-26T06:45:09Z</time></trkpt><trkpt lat="36.96568128782531" lon="15.101357267722028"><ele>504.0</ele><time>2026-04-26T06:45:10Z</time></trkpt><trkpt lat="36.96578999032681" lon="15.101237298911965"><ele>504.0</ele><time>2026-04-26T06:45:11Z</time></trkpt><trkpt lat="36.96589091242123" lon="15.101137647955886"><ele>504.0</ele><time>2026-04-26T06:45:12Z</time></trkpt><trkpt lat="36.96598776688941" lon="15.101029476235585"><ele>504.0</ele><time>2026-04-26T06:45:13Z</time></trkpt><trkpt lat="36.96606350243199" lon="15.100931882401516"><ele>504.0</ele><time>2026-04-26T06:45:14Z</time></trkpt><trkpt lat="36.966136963974726" lon="15.100804241942779"><ele>504.0</ele><time>2026-04-26T06:45:15Z</time></trkpt><trkpt lat="36.966210229998566" lon="15.100649604911172"><ele>503.25</ele><time>2026-04-26T06:45:16Z</time></trkpt><trkpt lat="36.96628626476937" lon="15.100481550160232"><ele>502.5</ele><time>2026-04-26T06:45:17Z</time></trkpt><trkpt lat="36.96633339408925" lon="15.1003455750447"><ele>501.75</ele><time>2026-04-26T06:45:18Z</time></trkpt><trkpt lat="36.96636521355267" lon="15.100214923144303"><ele>501.0</ele><time>2026-04-26T06:45:19Z</time></trkpt><trkpt lat="36.96640472249314" lon="15.100096727540434"><ele>501.0</ele><time>2026-04-26T06:45:20Z</time></trkpt><trkpt lat="36.966437787994614" lon="15.099977445416236"><ele>501.0</ele><time>2026-04-26T06:45:21Z</time></trkpt><trkpt lat="36.966456367728576" lon="15.099853785411602"><ele>501.0</ele><time>2026-04-26T06:45:22Z</time></trkpt><trkpt lat="36.96647390697149" lon="15.099719633022797"><ele>501.0</ele><time>2026-04-26T06:45:23Z</time></trkpt><trkpt lat="36.966497489231315" lon="15.099573246760851"><ele>501.0</ele><time>2026-04-26T06:45:24Z</time></trkpt><trkpt lat="36.96651842692281" lon="15.09944230366094"><ele>499.8</ele><time>2026-04-26T06:45:25Z</time></trkpt><trkpt lat="36.96653911086215" lon="15.099306436586522"><ele>498.6</ele><time>2026-04-26T06:45:26Z</time></trkpt><trkpt lat="36.96655599933416" lon="15.099197905978102"><ele>497.4</ele><time>2026-04-26T06:45:27Z</time></trkpt><trkpt lat="36.9665736071632" lon="15.099085143610075"><ele>496.2</ele><time>2026-04-26T06:45:28Z</time></trkpt><trkpt lat="36.96659549148778" lon="15.09895937946936"><ele>495.0</ele><time>2026-04-26T06:45:29Z</time></trkpt><trkpt lat="36.96661732292706" lon="15.098823067281923"><ele>494.5</ele><time>2026-04-26T06:45:30Z</time></trkpt><trkpt lat="36.96664236027241" lon="15.098659691803961"><ele>494.0</ele><time>2026-04-26T06:45:31Z</time></trkpt><trkpt lat="36.96668773166942" lon="15.098503087837603"><ele>493.5</ele><time>2026-04-26T06:45:32Z</time></trkpt><trkpt lat="36.966694877260146" lon="15.09837041187334"><ele>493.0</ele><time>2026-04-26T06:45:33Z</time></trkpt><trkpt lat="36.96671744634653" lon="15.09823134294505"><ele>486.0</ele><time>2026-04-26T06:45:34Z</time></trkpt><trkpt lat="36.966740628802434" lon="15.098080080702815"><ele>479.0</ele><time>2026-04-26T06:45:35Z</time></trkpt><trkpt lat="36.966755661176904" lon="15.097905488706369"><ele>472.0</ele><time>2026-04-26T06:45:36Z</time></trkpt><trkpt lat="36.966776420029845" lon="15.097677233621772"><ele>465.0</ele><time>2026-04-26T06:45:37Z</time></trkpt><trkpt lat="36.966784642130555" lon="15.09747400104463"><ele>462.25</ele><time>2026-04-26T06:45:38Z</time></trkpt><trkpt lat="36.96679665503619" lon="15.097286439059534"><ele>459.5</ele><time>2026-04-26T06:45:39Z</time></trkpt><trkpt lat="36.96680346211524" lon="15.097107182039954"><ele>456.75</ele><time>2026-04-26T06:45:40Z</time></trkpt><trkpt lat="36.966803973985435" lon="15.096964255368826"><ele>454.0</ele><time>2026-04-26T06:45:41Z</time></trkpt><trkpt lat="36.96681756718359" lon="15.096823167781075"><ele>454.0</ele><time>2026-04-26T06:45:42Z</time></trkpt><trkpt lat="36.96680569188471" lon="15.09666970285854"><ele>454.0</ele><time>2026-04-26T06:45:43Z</time></trkpt><trkpt lat="36.96681101656635" lon="15.096494754316776"><ele>454.0</ele><time>2026-04-26T06:45:44Z</time></trkpt><trkpt lat="36.96681920499122" lon="15.096334202222126"><ele>454.0</ele><time>2026-04-26T06:45:45Z</time></trkpt><trkpt lat="36.96682506773808" lon="15.096204246723183"><ele>454.5</ele><time>2026-04-26T06:45:46Z</time></trkpt><trkpt lat="36.96685593592543" lon="15.096061446296249"><ele>455.0</ele><time>2026-04-26T06:45:47Z</time></trkpt><trkpt lat="36.966883815207304" lon="15.095934645419943"><ele>455.5</ele><time>2026-04-26T06:45:48Z</time></trkpt><trkpt lat="36.96691577877995" lon="15.095806824637865"><ele>456.0</ele><time>2026-04-26T06:45:49Z</time></trkpt><trkpt lat="36.966993458976475" lon="15.09566073337132"><ele>462.75</ele><time>2026-04-26T06:45:50Z</time></trkpt><trkpt lat="36.96708091143526" lon="15.09550446317597"><ele>469.5</ele><time>2026-04-26T06:45:51Z</time></trkpt><trkpt lat="36.96714600601082" lon="15.095361253110859"><ele>476.25</ele><time>2026-04-26T06:45:52Z</time></trkpt><trkpt lat="36.96721042686953" lon="15.095244399253248"><ele>483.0</ele><time>2026-04-26T06:45:53Z</time></trkpt><trkpt lat="36.96725855133207" lon="15.09514205515059"><ele>483.0</ele><time>2026-04-26T06:45:54Z</time></trkpt><trkpt lat="36.967293018578694" lon="15.09506316913236"><ele>482.99999999999994</ele><time>2026-04-26T06:45:55Z</time></trkpt><trkpt lat="36.967319320643355" lon="15.094929308468076"><ele>482.99999999999994</ele><time>2026-04-26T06:45:57Z</time></trkpt><trkpt lat="36.9673305335346" lon="15.094844816180577"><ele>483.0</ele><time>2026-04-26T06:45:59Z</time></trkpt><trkpt lat="36.96727607202484" lon="15.09475558609987"><ele>483.0</ele><time>2026-04-26T06:46:01Z</time></trkpt><trkpt lat="36.96716716454711" lon="15.094736073307889"><ele>486.59999999999997</ele><time>2026-04-26T06:46:03Z</time></trkpt><trkpt lat="36.967074776316785" lon="15.094715966177434"><ele>490.19999999999993</ele><time>2026-04-26T06:46:04Z</time></trkpt><trkpt lat="36.96696708027853" lon="15.094681909786383"><ele>493.8</ele><time>2026-04-26T06:46:05Z</time></trkpt><trkpt lat="36.96684966664581" lon="15.094648873819748"><ele>497.4</ele><time>2026-04-26T06:46:06Z</time></trkpt><trkpt lat="36.96673570627594" lon="15.094617316592664"><ele>501.0</ele><time>2026-04-26T06:46:07Z</time></trkpt><trkpt lat="36.966640124197376" lon="15.094590848590181"><ele>501.4</ele><time>2026-04-26T06:46:08Z</time></trkpt><trkpt lat="36.96655801753521" lon="15.094568112106753"><ele>501.8</ele><time>2026-04-26T06:46:09Z</time></trkpt><trkpt lat="36.966469591180164" lon="15.094545209889812"><ele>502.19999999999993</ele><time>2026-04-26T06:46:10Z</time></trkpt><trkpt lat="36.96636704065174" lon="15.094524803544784"><ele>502.59999999999997</ele><time>2026-04-26T06:46:11.001Z</time></trkpt><trkpt lat="36.96626040120818" lon="15.09448497385731"><ele>503.0</ele><time>2026-04-26T06:46:12.001Z</time></trkpt><trkpt lat="36.966141107544466" lon="15.094430240137308"><ele>503.0</ele><time>2026-04-26T06:46:13.001Z</time></trkpt><trkpt lat="36.96600170823901" lon="15.094392133279513"><ele>503.0</ele><time>2026-04-26T06:46:14.001Z</time></trkpt><trkpt lat="36.96584451533659" lon="15.094345094626357"><ele>503.0</ele><time>2026-04-26T06:46:15.001Z</time></trkpt><trkpt lat="36.96566341446427" lon="15.094314258118452"><ele>500.66666666666663</ele><time>2026-04-26T06:46:16.001Z</time></trkpt><trkpt lat="36.9654876727103" lon="15.094245184823013"><ele>498.33333333333337</ele><time>2026-04-26T06:46:17.001Z</time></trkpt><trkpt lat="36.96533016497807" lon="15.094194019484215"><ele>496.0</ele><time>2026-04-26T06:46:18.001Z</time></trkpt><trkpt lat="36.96518711754524" lon="15.094144401565108"><ele>496.0</ele><time>2026-04-26T06:46:19.001Z</time></trkpt><trkpt lat="36.96506315227449" lon="15.094099074200747"><ele>496.0</ele><time>2026-04-26T06:46:20.001Z</time></trkpt><trkpt lat="36.96495073322405" lon="15.094055452187927"><ele>496.0</ele><time>2026-04-26T06:46:21.001Z</time></trkpt><trkpt lat="36.96484317693298" lon="15.09401575047496"><ele>496.0</ele><time>2026-04-26T06:46:22.001Z</time></trkpt><trkpt lat="36.9647367892975" lon="15.094002033260393"><ele>494.6</ele><time>2026-04-26T06:46:23.001Z</time></trkpt><trkpt lat="36.9646379937316" lon="15.093976206872986"><ele>493.20000000000005</ele><time>2026-04-26T06:46:24.001Z</time></trkpt><trkpt lat="36.96452761318399" lon="15.09397871710314"><ele>491.79999999999995</ele><time>2026-04-26T06:46:25Z</time></trkpt><trkpt lat="36.96441528113461" lon="15.09400721291976"><ele>490.4</ele><time>2026-04-26T06:46:26Z</time></trkpt><trkpt lat="36.96430712021662" lon="15.094049064726608"><ele>489.0</ele><time>2026-04-26T06:46:27Z</time></trkpt><trkpt lat="36.96421178217253" lon="15.094079525814866"><ele>489.8333333333333</ele><time>2026-04-26T06:46:28Z</time></trkpt><trkpt lat="36.964128555342874" lon="15.094074636928907"><ele>490.66666666666663</ele><time>2026-04-26T06:46:29Z</time></trkpt><trkpt lat="36.96406454086127" lon="15.093997355071066"><ele>491.5</ele><time>2026-04-26T06:46:30Z</time></trkpt><trkpt lat="36.964009383735885" lon="15.093907722133102"><ele>492.3333333333333</ele><time>2026-04-26T06:46:31Z</time></trkpt><trkpt lat="36.96395734952924" lon="15.093812984655337"><ele>493.16666666666663</ele><time>2026-04-26T06:46:32Z</time></trkpt><trkpt lat="36.963915850388084" lon="15.093727436069178"><ele>494.0</ele><time>2026-04-26T06:46:33Z</time></trkpt><trkpt lat="36.96387906883767" lon="15.093651951577723"><ele>494.0</ele><time>2026-04-26T06:46:34Z</time></trkpt><trkpt lat="36.96383444394696" lon="15.093589633301072"><ele>494.0</ele><time>2026-04-26T06:46:35Z</time></trkpt><trkpt lat="36.96379999686481" lon="15.09347095274095"><ele>494.0</ele><time>2026-04-26T06:46:37Z</time></trkpt><trkpt lat="36.96375832732168" lon="15.093384779051245"><ele>494.0</ele><time>2026-04-26T06:46:39Z</time></trkpt><trkpt lat="36.96383858602226" lon="15.0932569421637"><ele>494.0</ele><time>2026-04-26T06:46:40Z</time></trkpt><trkpt lat="36.963881076337024" lon="15.093151112289918"><ele>494.4</ele><time>2026-04-26T06:46:41Z</time></trkpt><trkpt lat="36.963928808700125" lon="15.093055401786003"><ele>494.79999999999995</ele><time>2026-04-26T06:46:42Z</time></trkpt><trkpt lat="36.963972030038036" lon="15.09294501608733"><ele>495.20000000000005</ele><time>2026-04-26T06:46:43Z</time></trkpt><trkpt lat="36.964021123628875" lon="15.09282570153375"><ele>495.6</ele><time>2026-04-26T06:46:44Z</time></trkpt><trkpt lat="36.96406275293367" lon="15.092719529868445"><ele>496.0</ele><time>2026-04-26T06:46:45Z</time></trkpt><trkpt lat="36.96410944609794" lon="15.09260894827881"><ele>496.0</ele><time>2026-04-26T06:46:46Z</time></trkpt><trkpt lat="36.96416067133962" lon="15.092499854930995"><ele>496.0</ele><time>2026-04-26T06:46:47Z</time></trkpt><trkpt lat="36.96421038871803" lon="15.092394535129095"><ele>496.0</ele><time>2026-04-26T06:46:48Z</time></trkpt><trkpt lat="36.964258632239925" lon="15.09228128129326"><ele>496.0</ele><time>2026-04-26T06:46:49Z</time></trkpt><trkpt lat="36.96429223496182" lon="15.092151218989986"><ele>496.0</ele><time>2026-04-26T06:46:50Z</time></trkpt><trkpt lat="36.96431433475692" lon="15.091999014525028"><ele>496.25</ele><time>2026-04-26T06:46:51Z</time></trkpt><trkpt lat="36.96433422741167" lon="15.09183871090054"><ele>496.5</ele><time>2026-04-26T06:46:52Z</time></trkpt><trkpt lat="36.96433867617204" lon="15.091661762232864"><ele>496.75</ele><time>2026-04-26T06:46:53Z</time></trkpt><trkpt lat="36.96440899304758" lon="15.091486815145585"><ele>497.0</ele><time>2026-04-26T06:46:54Z</time></trkpt><trkpt lat="36.96448431105428" lon="15.091316843113939"><ele>498.0</ele><time>2026-04-26T06:46:55Z</time></trkpt><trkpt lat="36.964555879178825" lon="15.091175130526523"><ele>499.0</ele><time>2026-04-26T06:46:56Z</time></trkpt><trkpt lat="36.964610110748026" lon="15.091029272331022"><ele>500.0</ele><time>2026-04-26T06:46:57Z</time></trkpt><trkpt lat="36.964677124360115" lon="15.090888566568236"><ele>501.0</ele><time>2026-04-26T06:46:58Z</time></trkpt><trkpt lat="36.96475750472204" lon="15.090757367301302"><ele>501.5</ele><time>2026-04-26T06:46:59Z</time></trkpt><trkpt lat="36.96482327048345" lon="15.090624329262216"><ele>502.0</ele><time>2026-04-26T06:47:00Z</time></trkpt><trkpt lat="36.96489060664799" lon="15.090488114977353"><ele>502.5</ele><time>2026-04-26T06:47:01Z</time></trkpt><trkpt lat="36.96495937900432" lon="15.090346924713868"><ele>503.0</ele><time>2026-04-26T06:47:02Z</time></trkpt><trkpt lat="36.96500167894444" lon="15.090202226936453"><ele>502.25</ele><time>2026-04-26T06:47:03Z</time></trkpt><trkpt lat="36.965042664913284" lon="15.090048312317537"><ele>501.5</ele><time>2026-04-26T06:47:04Z</time></trkpt><trkpt lat="36.96505514187928" lon="15.089878935043616"><ele>500.75</ele><time>2026-04-26T06:47:05Z</time></trkpt><trkpt lat="36.965052054963046" lon="15.089702874203295"><ele>500.0</ele><time>2026-04-26T06:47:06Z</time></trkpt><trkpt lat="36.96506928533407" lon="15.089525143876989"><ele>500.0</ele><time>2026-04-26T06:47:07Z</time></trkpt><trkpt lat="36.96507139167264" lon="15.089347916680605"><ele>500.0</ele><time>2026-04-26T06:47:08Z</time></trkpt><trkpt lat="36.96507350158939" lon="15.089170388313953"><ele>500.0</ele><time>2026-04-26T06:47:09Z</time></trkpt><trkpt lat="36.9650756043806" lon="15.08899345922938"><ele>500.0</ele><time>2026-04-26T06:47:10Z</time></trkpt><trkpt lat="36.96507771573663" lon="15.088815809674431"><ele>500.0</ele><time>2026-04-26T06:47:11Z</time></trkpt><trkpt lat="36.965079860875775" lon="15.088635317877165"><ele>500.0</ele><time>2026-04-26T06:47:12Z</time></trkpt><trkpt lat="36.965081509788746" lon="15.088451000962351"><ele>500.0</ele><time>2026-04-26T06:47:13Z</time></trkpt><trkpt lat="36.96508295409477" lon="15.088259608765911"><ele>500.0</ele><time>2026-04-26T06:47:14Z</time></trkpt><trkpt lat="36.96508512591835" lon="15.088079372532194"><ele>500.8</ele><time>2026-04-26T06:47:15Z</time></trkpt><trkpt lat="36.96507386503919" lon="15.087920470206424"><ele>501.6</ele><time>2026-04-26T06:47:16Z</time></trkpt><trkpt lat="36.965093760256366" lon="15.087780444139803"><ele>502.4</ele><time>2026-04-26T06:47:17Z</time></trkpt><trkpt lat="36.96513810292792" lon="15.087664692914052"><ele>503.2</ele><time>2026-04-26T06:47:18Z</time></trkpt><trkpt lat="36.96523307310884" lon="15.087606700258558"><ele>504.0</ele><time>2026-04-26T06:47:19Z</time></trkpt><trkpt lat="36.965331011055056" lon="15.08751471401542"><ele>503.25</ele><time>2026-04-26T06:47:20Z</time></trkpt><trkpt lat="36.96543013616855" lon="15.087412861969034"><ele>502.5</ele><time>2026-04-26T06:47:21Z</time></trkpt><trkpt lat="36.96551870753543" lon="15.087315161053501"><ele>501.75</ele><time>2026-04-26T06:47:22Z</time></trkpt><trkpt lat="36.9655749866092" lon="15.087194706155088"><ele>501.0</ele><time>2026-04-26T06:47:23Z</time></trkpt><trkpt lat="36.965594700684086" lon="15.087051119576081"><ele>501.0</ele><time>2026-04-26T06:47:24Z</time></trkpt><trkpt lat="36.96558883929717" lon="15.086882116612768"><ele>501.0</ele><time>2026-04-26T06:47:25Z</time></trkpt><trkpt lat="36.965603769280186" lon="15.086701671682594"><ele>501.0</ele><time>2026-04-26T06:47:26Z</time></trkpt><trkpt lat="36.965612081234745" lon="15.0865066620841"><ele>501.0</ele><time>2026-04-26T06:47:27Z</time></trkpt><trkpt lat="36.96560822752557" lon="15.086316714134284"><ele>500.0</ele><time>2026-04-26T06:47:28Z</time></trkpt><trkpt lat="36.96561868016916" lon="15.086144058281207"><ele>499.0</ele><time>2026-04-26T06:47:29Z</time></trkpt><trkpt lat="36.965626228483906" lon="15.08596646058863"><ele>498.0</ele><time>2026-04-26T06:47:30Z</time></trkpt><trkpt lat="36.965634217888955" lon="15.085794549083587"><ele>497.0</ele><time>2026-04-26T06:47:31Z</time></trkpt><trkpt lat="36.9656418743229" lon="15.085644216866125"><ele>497.0</ele><time>2026-04-26T06:47:32Z</time></trkpt><trkpt lat="36.96567572541564" lon="15.085517702176807"><ele>497.0</ele><time>2026-04-26T06:47:33Z</time></trkpt><trkpt lat="36.96570159493715" lon="15.085396641450467"><ele>497.0</ele><time>2026-04-26T06:47:34Z</time></trkpt><trkpt lat="36.96564854533398" lon="15.0852261047351"><ele>497.0</ele><time>2026-04-26T06:47:35Z</time></trkpt><trkpt lat="36.965614492111726" lon="15.085079840676645"><ele>497.25</ele><time>2026-04-26T06:47:36Z</time></trkpt><trkpt lat="36.96560235615546" lon="15.084923736640016"><ele>497.5</ele><time>2026-04-26T06:47:37Z</time></trkpt><trkpt lat="36.965589449682376" lon="15.084774956425743"><ele>497.75</ele><time>2026-04-26T06:47:38Z</time></trkpt><trkpt lat="36.9655762134398" lon="15.084638878178875"><ele>498.0</ele><time>2026-04-26T06:47:39Z</time></trkpt><trkpt lat="36.96556791504386" lon="15.084512042273966"><ele>498.0</ele><time>2026-04-26T06:47:40Z</time></trkpt><trkpt lat="36.965576624393215" lon="15.084380985622213"><ele>497.99999999999994</ele><time>2026-04-26T06:47:41Z</time></trkpt><trkpt lat="36.965620851173554" lon="15.084245072712262"><ele>497.99999999999994</ele><time>2026-04-26T06:47:42Z</time></trkpt><trkpt lat="36.965639204208394" lon="15.08410251210454"><ele>498.0</ele><time>2026-04-26T06:47:43.001Z</time></trkpt><trkpt lat="36.96566690021928" lon="15.083983744949018"><ele>498.0</ele><time>2026-04-26T06:47:44.001Z</time></trkpt><trkpt lat="36.96568653575092" lon="15.083865924423915"><ele>497.79999999999995</ele><time>2026-04-26T06:47:45.001Z</time></trkpt><trkpt lat="36.96571882743719" lon="15.08374525789627"><ele>497.59999999999997</ele><time>2026-04-26T06:47:46.001Z</time></trkpt><trkpt lat="36.9657280049768" lon="15.08360703190425"><ele>497.40000000000003</ele><time>2026-04-26T06:47:47.001Z</time></trkpt><trkpt lat="36.965716654465666" lon="15.083470452300244"><ele>497.20000000000005</ele><time>2026-04-26T06:47:48.001Z</time></trkpt><trkpt lat="36.965716724884054" lon="15.083335305671731"><ele>497.0</ele><time>2026-04-26T06:47:49.001Z</time></trkpt><trkpt lat="36.965691790513105" lon="15.083205607977952"><ele>494.75</ele><time>2026-04-26T06:47:50.001Z</time></trkpt><trkpt lat="36.96565842460399" lon="15.083068759223279"><ele>492.5</ele><time>2026-04-26T06:47:51.001Z</time></trkpt><trkpt lat="36.96563462606353" lon="15.082911776254976"><ele>490.25</ele><time>2026-04-26T06:47:52.001Z</time></trkpt><trkpt lat="36.965589481828076" lon="15.082759446649959"><ele>488.0</ele><time>2026-04-26T06:47:53.001Z</time></trkpt><trkpt lat="36.96553731662227" lon="15.08260993927493"><ele>488.0</ele><time>2026-04-26T06:47:54.001Z</time></trkpt><trkpt lat="36.96548309199319" lon="15.082457425767432"><ele>488.0</ele><time>2026-04-26T06:47:55.001Z</time></trkpt><trkpt lat="36.965427047890834" lon="15.082299794901754"><ele>488.0</ele><time>2026-04-26T06:47:56.001Z</time></trkpt><trkpt lat="36.96537573904944" lon="15.082140735729757"><ele>488.0</ele><time>2026-04-26T06:47:57.001Z</time></trkpt><trkpt lat="36.96533131573168" lon="15.081975159296562"><ele>484.66666666666663</ele><time>2026-04-26T06:47:58.001Z</time></trkpt><trkpt lat="36.96528901242375" lon="15.081788285834413"><ele>481.33333333333337</ele><time>2026-04-26T06:47:59.001Z</time></trkpt><trkpt lat="36.965257962413524" lon="15.081581875036772"><ele>478.0</ele><time>2026-04-26T06:48:00.001Z</time></trkpt><trkpt lat="36.96523626396806" lon="15.08136214730306"><ele>475.33333333333337</ele><time>2026-04-26T06:48:01.001Z</time></trkpt><trkpt lat="36.9652217750428" lon="15.081136579762234"><ele>472.66666666666663</ele><time>2026-04-26T06:48:02.001Z</time></trkpt><trkpt lat="36.96521153503873" lon="15.080921912931524"><ele>470.0</ele><time>2026-04-26T06:48:03.001Z</time></trkpt><trkpt lat="36.96518559778275" lon="15.080719808568404"><ele>469.0</ele><time>2026-04-26T06:48:04.001Z</time></trkpt><trkpt lat="36.96517355625741" lon="15.080524848257754"><ele>468.0</ele><time>2026-04-26T06:48:05.001Z</time></trkpt><trkpt lat="36.96517274249677" lon="15.080326739619844"><ele>467.0</ele><time>2026-04-26T06:48:06.001Z</time></trkpt><trkpt lat="36.96513849328891" lon="15.08011934280787"><ele>468.0</ele><time>2026-04-26T06:48:07.001Z</time></trkpt><trkpt lat="36.965092838981555" lon="15.079906230238059"><ele>469.0</ele><time>2026-04-26T06:48:08.001Z</time></trkpt><trkpt lat="36.96504391790856" lon="15.079687518675689"><ele>470.0</ele><time>2026-04-26T06:48:09.001Z</time></trkpt><trkpt lat="36.96498887695076" lon="15.079467670320318"><ele>468.3333333333333</ele><time>2026-04-26T06:48:10.001Z</time></trkpt><trkpt lat="36.96492967889683" lon="15.079250523044484"><ele>466.66666666666663</ele><time>2026-04-26T06:48:11.001Z</time></trkpt><trkpt lat="36.96486911956726" lon="15.07903536226974"><ele>465.0</ele><time>2026-04-26T06:48:12.001Z</time></trkpt><trkpt lat="36.96481100769509" lon="15.07882996487518"><ele>465.0</ele><time>2026-04-26T06:48:13.001Z</time></trkpt><trkpt lat="36.96475875867902" lon="15.078649696213837"><ele>465.0</ele><time>2026-04-26T06:48:14.001Z</time></trkpt><trkpt lat="36.96471217290389" lon="15.078493384725748"><ele>465.0</ele><time>2026-04-26T06:48:15.001Z</time></trkpt><trkpt lat="36.96465181464536" lon="15.07835976813066"><ele>465.0</ele><time>2026-04-26T06:48:16.001Z</time></trkpt><trkpt lat="36.964601079777005" lon="15.078218256740008"><ele>464.6</ele><time>2026-04-26T06:48:17.001Z</time></trkpt><trkpt lat="36.96453067604559" lon="15.078082149752174"><ele>464.2</ele><time>2026-04-26T06:48:18.001Z</time></trkpt><trkpt lat="36.96445592981865" lon="15.07796242944603"><ele>463.79999999999995</ele><time>2026-04-26T06:48:19.001Z</time></trkpt><trkpt lat="36.96439106504705" lon="15.077873391981418"><ele>463.4</ele><time>2026-04-26T06:48:20.001Z</time></trkpt><trkpt lat="36.964332817290995" lon="15.077795835030077"><ele>463.0</ele><time>2026-04-26T06:48:21.001Z</time></trkpt><trkpt lat="36.964277088257894" lon="15.077716496038061"><ele>463.00000000000006</ele><time>2026-04-26T06:48:22.001Z</time></trkpt><trkpt lat="36.964232005294576" lon="15.077643989793492"><ele>463.0</ele><time>2026-04-26T06:48:23.001Z</time></trkpt><trkpt lat="36.9641686679551" lon="15.077544100699827"><ele>463.0</ele><time>2026-04-26T06:48:25.001Z</time></trkpt><trkpt lat="36.96412694867255" lon="15.077482291129467"><ele>463.0</ele><time>2026-04-26T06:49:03Z</time></trkpt><trkpt lat="36.964070846150065" lon="15.077379218829787"><ele>463.00000000000006</ele><time>2026-04-26T06:49:08Z</time></trkpt><trkpt lat="36.96401456205642" lon="15.077313988651142"><ele>463.0</ele><time>2026-04-26T06:49:10Z</time></trkpt><trkpt lat="36.96394957738908" lon="15.077239404653335"><ele>461.0</ele><time>2026-04-26T06:49:12Z</time></trkpt><trkpt lat="36.96407335720297" lon="15.076876073430574"><ele>459.0</ele><time>2026-04-26T06:49:14Z</time></trkpt><trkpt lat="36.96406110347761" lon="15.076715253252424"><ele>457.0</ele><time>2026-04-26T06:49:16Z</time></trkpt><trkpt lat="36.964054809515" lon="15.076588393911281"><ele>456.0</ele><time>2026-04-26T06:49:18Z</time></trkpt><trkpt lat="36.96404994784076" lon="15.07649622352584"><ele>455.00000000000006</ele><time>2026-04-26T06:49:20Z</time></trkpt><trkpt lat="36.96403534834444" lon="15.076417451419948"><ele>454.00000000000006</ele><time>2026-04-26T06:49:21Z</time></trkpt><trkpt lat="36.96399300655796" lon="15.07631069534133"><ele>453.0</ele><time>2026-04-26T06:49:23Z</time></trkpt><trkpt lat="36.96394856137484" lon="15.076162922611443"><ele>452.0</ele><time>2026-04-26T06:49:25Z</time></trkpt><trkpt lat="36.96388944801453" lon="15.076013684003154"><ele>451.99999999999994</ele><time>2026-04-26T06:49:27.001Z</time></trkpt><trkpt lat="36.9638571736429" lon="15.075910918116081"><ele>452.0</ele><time>2026-04-26T06:49:28.001Z</time></trkpt><trkpt lat="36.96383287114009" lon="15.075812623818674"><ele>452.0</ele><time>2026-04-26T06:49:29.001Z</time></trkpt><trkpt lat="36.96381356975427" lon="15.075718041902816"><ele>452.0</ele><time>2026-04-26T06:49:30.001Z</time></trkpt><trkpt lat="36.963792969693046" lon="15.075642908496855"><ele>451.99999999999994</ele><time>2026-04-26T06:49:31.001Z</time></trkpt><trkpt lat="36.963770239199434" lon="15.075564269572375"><ele>452.0</ele><time>2026-04-26T06:49:32.001Z</time></trkpt><trkpt lat="36.96371386547386" lon="15.07544180110016"><ele>452.3333333333333</ele><time>2026-04-26T06:49:34.001Z</time></trkpt><trkpt lat="36.963674373918586" lon="15.075343866845966"><ele>452.66666666666663</ele><time>2026-04-26T06:49:36.001Z</time></trkpt><trkpt lat="36.96362969253258" lon="15.075231087304182"><ele>453.0</ele><time>2026-04-26T06:49:38.001Z</time></trkpt><trkpt lat="36.96358964475506" lon="15.075081108689654"><ele>453.33333333333337</ele><time>2026-04-26T06:49:40.001Z</time></trkpt><trkpt lat="36.96357433196507" lon="15.075000766543178"><ele>453.6666666666667</ele><time>2026-04-26T06:49:41.001Z</time></trkpt><trkpt lat="36.963566210080764" lon="15.074920003126847"><ele>454.0</ele><time>2026-04-26T06:49:42.001Z</time></trkpt><trkpt lat="36.96357841180595" lon="15.074750738644353"><ele>454.6666666666667</ele><time>2026-04-26T06:49:44.001Z</time></trkpt><trkpt lat="36.9635936755301" lon="15.074648197046171"><ele>455.33333333333337</ele><time>2026-04-26T06:49:45.001Z</time></trkpt><trkpt lat="36.96361032590357" lon="15.074548054236155"><ele>456.0</ele><time>2026-04-26T06:49:46.001Z</time></trkpt><trkpt lat="36.96363139735491" lon="15.07446479292952"><ele>456.66666666666663</ele><time>2026-04-26T06:49:47.001Z</time></trkpt><trkpt lat="36.9636739633257" lon="15.074366334425793"><ele>457.3333333333333</ele><time>2026-04-26T06:49:49.001Z</time></trkpt><trkpt lat="36.96370876668732" lon="15.074257185943695"><ele>458.0</ele><time>2026-04-26T06:49:51.001Z</time></trkpt><trkpt lat="36.96377361503655" lon="15.074144513590824"><ele>458.2</ele><time>2026-04-26T06:49:53.001Z</time></trkpt><trkpt lat="36.96382826607666" lon="15.074018986993394"><ele>458.4</ele><time>2026-04-26T06:49:56.001Z</time></trkpt><trkpt lat="36.96387515034042" lon="15.073912652567783"><ele>458.59999999999997</ele><time>2026-04-26T06:49:58.001Z</time></trkpt><trkpt lat="36.96393409234948" lon="15.073776458676141"><ele>458.79999999999995</ele><time>2026-04-26T06:50:00.001Z</time></trkpt><trkpt lat="36.96396003107881" lon="15.073643549152944"><ele>459.0</ele><time>2026-04-26T06:50:02.001Z</time></trkpt><trkpt lat="36.963983820827764" lon="15.073504811776601"><ele>459.0</ele><time>2026-04-26T06:50:04.001Z</time></trkpt><trkpt lat="36.964013805616915" lon="15.073411478026262"><ele>459.0</ele><time>2026-04-26T06:50:05.001Z</time></trkpt><trkpt lat="36.96403571949653" lon="15.073328590063673"><ele>459.0</ele><time>2026-04-26T06:50:06.001Z</time></trkpt><trkpt lat="36.964050445619996" lon="15.073244443832419"><ele>459.0</ele><time>2026-04-26T06:50:07.001Z</time></trkpt><trkpt lat="36.9640688976558" lon="15.073137112649077"><ele>459.0</ele><time>2026-04-26T06:50:09.001Z</time></trkpt><trkpt lat="36.9640789039136" lon="15.073010503228387"><ele>459.0</ele><time>2026-04-26T06:50:11.001Z</time></trkpt><trkpt lat="36.96409356491347" lon="15.072911771822692"><ele>458.8333333333333</ele><time>2026-04-26T06:50:12.001Z</time></trkpt><trkpt lat="36.96410347305352" lon="15.072825805408405"><ele>458.66666666666663</ele><time>2026-04-26T06:50:13.001Z</time></trkpt><trkpt lat="36.96410345501376" lon="15.072740800047445"><ele>458.5</ele><time>2026-04-26T06:50:14.001Z</time></trkpt><trkpt lat="36.96411468577305" lon="15.072607354909914"><ele>458.3333333333333</ele><time>2026-04-26T06:50:16.001Z</time></trkpt><trkpt lat="36.9641171136787" lon="15.07251428577457"><ele>458.16666666666663</ele><time>2026-04-26T06:50:17.001Z</time></trkpt><trkpt lat="36.964116067578786" lon="15.072415249912439"><ele>458.0</ele><time>2026-04-26T06:50:18.001Z</time></trkpt><trkpt lat="36.96411704392922" lon="15.072267664721172"><ele>457.99999999999994</ele><time>2026-04-26T06:50:20.001Z</time></trkpt><trkpt lat="36.96411420491833" lon="15.072128496049574"><ele>458.0</ele><time>2026-04-26T06:50:22.001Z</time></trkpt><trkpt lat="36.964081517558114" lon="15.072041918211884"><ele>458.0</ele><time>2026-04-26T06:50:23.001Z</time></trkpt><trkpt lat="36.96405048860915" lon="15.071952320240626"><ele>458.0</ele><time>2026-04-26T06:50:24.001Z</time></trkpt><trkpt lat="36.96402445052213" lon="15.071869902230041"><ele>457.99999999999994</ele><time>2026-04-26T06:50:25.001Z</time></trkpt><trkpt lat="36.96402010533573" lon="15.07178552701238"><ele>458.0</ele><time>2026-04-26T06:50:26.001Z</time></trkpt><trkpt lat="36.96400336320465" lon="15.071643925180883"><ele>458.2</ele><time>2026-04-26T06:50:28.001Z</time></trkpt><trkpt lat="36.96400899193864" lon="15.071556452361207"><ele>458.4</ele><time>2026-04-26T06:50:30.001Z</time></trkpt><trkpt lat="36.964024516195245" lon="15.071383004465577"><ele>458.59999999999997</ele><time>2026-04-26T06:50:33.001Z</time></trkpt><trkpt lat="36.96403529729632" lon="15.071229466725148"><ele>458.79999999999995</ele><time>2026-04-26T06:50:35.001Z</time></trkpt><trkpt lat="36.96403764598221" lon="15.071095619132896"><ele>459.0</ele><time>2026-04-26T06:50:37.001Z</time></trkpt><trkpt lat="36.9640442756068" lon="15.071013612408418"><ele>459.0</ele><time>2026-04-26T06:50:38.001Z</time></trkpt><trkpt lat="36.96404441735477" lon="15.07087384697395"><ele>459.0</ele><time>2026-04-26T06:50:40.001Z</time></trkpt><trkpt lat="36.96404363385823" lon="15.070789890867559"><ele>459.0</ele><time>2026-04-26T06:50:42.001Z</time></trkpt><trkpt lat="36.96404767498609" lon="15.07068991601615"><ele>459.0</ele><time>2026-04-26T06:50:44.001Z</time></trkpt><trkpt lat="36.96403822800128" lon="15.070592590939969"><ele>459.0</ele><time>2026-04-26T06:50:46.001Z</time></trkpt><trkpt lat="36.96405459853054" lon="15.07048112342192"><ele>459.0</ele><time>2026-04-26T06:50:49Z</time></trkpt><trkpt lat="36.96405912258279" lon="15.07040179652349"><ele>458.8333333333333</ele><time>2026-04-26T06:50:51Z</time></trkpt><trkpt lat="36.96402968049172" lon="15.07029249761904"><ele>458.66666666666663</ele><time>2026-04-26T06:50:53Z</time></trkpt><trkpt lat="36.96399529219816" lon="15.070195433437295"><ele>458.5</ele><time>2026-04-26T06:50:55Z</time></trkpt><trkpt lat="36.963985349632836" lon="15.070108027069699"><ele>458.3333333333333</ele><time>2026-04-26T06:50:57Z</time></trkpt><trkpt lat="36.96395628217219" lon="15.070009989337635"><ele>458.16666666666663</ele><time>2026-04-26T06:51:00Z</time></trkpt><trkpt lat="36.96393920893504" lon="15.06992713453589"><ele>458.0</ele><time>2026-04-26T06:51:04Z</time></trkpt><trkpt lat="36.96390345340177" lon="15.069844437791128"><ele>458.0</ele><time>2026-04-26T06:51:06Z</time></trkpt><trkpt lat="36.96387625254595" lon="15.06971316534396"><ele>457.99999999999994</ele><time>2026-04-26T06:51:08Z</time></trkpt><trkpt lat="36.963858102570036" lon="15.069593372201492"><ele>457.99999999999994</ele><time>2026-04-26T06:51:10Z</time></trkpt><trkpt lat="36.963813052762994" lon="15.069456093828345"><ele>458.0</ele><time>2026-04-26T06:51:12Z</time></trkpt><trkpt lat="36.96375932425788" lon="15.069315669231598"><ele>458.0</ele><time>2026-04-26T06:51:14Z</time></trkpt><trkpt lat="36.963704346945725" lon="15.069180523159936"><ele>457.99999999999994</ele><time>2026-04-26T06:51:16Z</time></trkpt><trkpt lat="36.96366823206624" lon="15.069113695280114"><ele>458.0</ele><time>2026-04-26T06:51:17Z</time></trkpt><trkpt lat="36.96358287857501" lon="15.068978828718038"><ele>458.0</ele><time>2026-04-26T06:51:19Z</time></trkpt><trkpt lat="36.96352324299901" lon="15.068908085340302"><ele>458.0</ele><time>2026-04-26T06:51:20.001Z</time></trkpt><trkpt lat="36.9634695657408" lon="15.068848492704971"><ele>457.99999999999994</ele><time>2026-04-26T06:51:21.001Z</time></trkpt><trkpt lat="36.96341595905039" lon="15.06880060437808"><ele>458.0</ele><time>2026-04-26T06:51:22.001Z</time></trkpt><trkpt lat="36.963359416339365" lon="15.068759119293496"><ele>458.3333333333333</ele><time>2026-04-26T06:51:23.001Z</time></trkpt><trkpt lat="36.96326111074953" lon="15.068656979506194"><ele>458.66666666666663</ele><time>2026-04-26T06:51:25.001Z</time></trkpt><trkpt lat="36.963203725162614" lon="15.068607036265579"><ele>459.0</ele><time>2026-04-26T06:51:26.001Z</time></trkpt><trkpt lat="36.96314857758279" lon="15.06854823488916"><ele>459.33333333333337</ele><time>2026-04-26T06:51:28.001Z</time></trkpt><trkpt lat="36.96309592721091" lon="15.068483033955822"><ele>459.6666666666667</ele><time>2026-04-26T06:51:30.001Z</time></trkpt><trkpt lat="36.963039629250616" lon="15.068424884571657"><ele>460.0</ele><time>2026-04-26T06:51:32.001Z</time></trkpt><trkpt lat="36.963001977513606" lon="15.068359121431488"><ele>460.6</ele><time>2026-04-26T06:51:33.001Z</time></trkpt><trkpt lat="36.96293003080532" lon="15.06826338842098"><ele>461.2</ele><time>2026-04-26T06:51:35.001Z</time></trkpt><trkpt lat="36.962866166075194" lon="15.068152235748268"><ele>461.79999999999995</ele><time>2026-04-26T06:51:37.001Z</time></trkpt><trkpt lat="36.96280138446744" lon="15.068041425370968"><ele>462.4</ele><time>2026-04-26T06:51:39.001Z</time></trkpt><trkpt lat="36.96276241154537" lon="15.067961233615353"><ele>463.0</ele><time>2026-04-26T06:51:41.001Z</time></trkpt><trkpt lat="36.96272387354751" lon="15.067848732825539"><ele>463.0</ele><time>2026-04-26T06:51:43.001Z</time></trkpt><trkpt lat="36.96265942618905" lon="15.067773290905775"><ele>462.99999999999994</ele><time>2026-04-26T06:51:45.001Z</time></trkpt><trkpt lat="36.962635442458485" lon="15.067690795823014"><ele>462.99999999999994</ele><time>2026-04-26T06:51:47.001Z</time></trkpt><trkpt lat="36.962711805253065" lon="15.067569843856292"><ele>463.0</ele><time>2026-04-26T06:53:40.001Z</time></trkpt><trkpt lat="36.96276286330728" lon="15.067440496488882"><ele>463.0</ele><time>2026-04-26T06:53:42.001Z</time></trkpt><trkpt lat="36.96282901184739" lon="15.067311830119994"><ele>462.6666666666667</ele><time>2026-04-26T06:53:44.001Z</time></trkpt><trkpt lat="36.962856094277896" lon="15.067229937354675"><ele>462.33333333333337</ele><time>2026-04-26T06:53:45.001Z</time></trkpt><trkpt lat="36.96288637509818" lon="15.067138373231185"><ele>462.0</ele><time>2026-04-26T06:53:46.001Z</time></trkpt><trkpt lat="36.96291921044676" lon="15.067039084575823"><ele>461.66666666666663</ele><time>2026-04-26T06:53:47.001Z</time></trkpt><trkpt lat="36.962942299022565" lon="15.066957314102366"><ele>461.3333333333333</ele><time>2026-04-26T06:53:48.001Z</time></trkpt><trkpt lat="36.962967862698505" lon="15.066849456702753"><ele>461.0</ele><time>2026-04-26T06:53:49.001Z</time></trkpt><trkpt lat="36.96299428221379" lon="15.066711634577437"><ele>460.3333333333333</ele><time>2026-04-26T06:53:51.001Z</time></trkpt><trkpt lat="36.96302030118413" lon="15.066562962173437"><ele>459.66666666666663</ele><time>2026-04-26T06:53:53.001Z</time></trkpt><trkpt lat="36.96303914880966" lon="15.066455266553655"><ele>459.0</ele><time>2026-04-26T06:53:54.001Z</time></trkpt><trkpt lat="36.96305922696615" lon="15.066360984892745"><ele>458.33333333333337</ele><time>2026-04-26T06:53:55.001Z</time></trkpt><trkpt lat="36.96307867713166" lon="15.06627574990773"><ele>457.6666666666667</ele><time>2026-04-26T06:53:56.001Z</time></trkpt><trkpt lat="36.96309637770961" lon="15.066186489386657"><ele>457.0</ele><time>2026-04-26T06:53:57.001Z</time></trkpt><trkpt lat="36.9631135633236" lon="15.066084327671168"><ele>457.00000000000006</ele><time>2026-04-26T06:53:58.001Z</time></trkpt><trkpt lat="36.963128167881635" lon="15.066001519845301"><ele>457.0</ele><time>2026-04-26T06:53:59.001Z</time></trkpt><trkpt lat="36.96314614122167" lon="15.065909362731611"><ele>457.0</ele><time>2026-04-26T06:54:00.001Z</time></trkpt><trkpt lat="36.96318437734026" lon="15.065760306452527"><ele>457.0</ele><time>2026-04-26T06:54:02.001Z</time></trkpt><trkpt lat="36.96322217048785" lon="15.065672274636855"><ele>457.00000000000006</ele><time>2026-04-26T06:54:03.001Z</time></trkpt><trkpt lat="36.96324538722636" lon="15.065555952723379"><ele>457.0</ele><time>2026-04-26T06:54:04.001Z</time></trkpt><trkpt lat="36.963264981857726" lon="15.065446374317915"><ele>456.0</ele><time>2026-04-26T06:54:05.001Z</time></trkpt><trkpt lat="36.963282784586134" lon="15.06533635118857"><ele>455.00000000000006</ele><time>2026-04-26T06:54:06.001Z</time></trkpt><trkpt lat="36.963292100471094" lon="15.065226697711006"><ele>454.00000000000006</ele><time>2026-04-26T06:54:07.001Z</time></trkpt><trkpt lat="36.96327528158267" lon="15.065098889256678"><ele>453.0</ele><time>2026-04-26T06:54:08.001Z</time></trkpt><trkpt lat="36.96327828750305" lon="15.064978359196243"><ele>452.0</ele><time>2026-04-26T06:54:09.001Z</time></trkpt><trkpt lat="36.96330587806215" lon="15.064832320335924"><ele>451.8</ele><time>2026-04-26T06:54:10.001Z</time></trkpt><trkpt lat="36.963305260339084" lon="15.064717071785179"><ele>451.6</ele><time>2026-04-26T06:54:11.001Z</time></trkpt><trkpt lat="36.96332491514953" lon="15.064621074033912"><ele>451.40000000000003</ele><time>2026-04-26T06:54:12.001Z</time></trkpt><trkpt lat="36.96336727882485" lon="15.064531762782785"><ele>451.20000000000005</ele><time>2026-04-26T06:54:13.001Z</time></trkpt><trkpt lat="36.9634026785263" lon="15.064413229672462"><ele>451.0</ele><time>2026-04-26T06:54:14.001Z</time></trkpt><trkpt lat="36.96342134854591" lon="15.064260874967642"><ele>451.8</ele><time>2026-04-26T06:54:15.001Z</time></trkpt><trkpt lat="36.96345898338803" lon="15.064124296049581"><ele>452.6</ele><time>2026-04-26T06:54:16.001Z</time></trkpt><trkpt lat="36.96348805594663" lon="15.064027796405135"><ele>453.4</ele><time>2026-04-26T06:54:17.001Z</time></trkpt><trkpt lat="36.963536841242885" lon="15.063944720461171"><ele>454.2</ele><time>2026-04-26T06:54:18.001Z</time></trkpt><trkpt lat="36.96360050074294" lon="15.063859711249236"><ele>455.0</ele><time>2026-04-26T06:54:19.001Z</time></trkpt><trkpt lat="36.96366699030538" lon="15.063740992163567"><ele>455.0</ele><time>2026-04-26T06:54:20.001Z</time></trkpt><trkpt lat="36.96371402067238" lon="15.063664585339255"><ele>455.0</ele><time>2026-04-26T06:54:21.001Z</time></trkpt><trkpt lat="36.96377715910648" lon="15.063557381263308"><ele>455.0</ele><time>2026-04-26T06:54:22.001Z</time></trkpt><trkpt lat="36.963823695109795" lon="15.063471017091672"><ele>455.0</ele><time>2026-04-26T06:54:23.001Z</time></trkpt><trkpt lat="36.96387977081532" lon="15.063366948755288"><ele>455.0</ele><time>2026-04-26T06:54:24.001Z</time></trkpt><trkpt lat="36.9639495178678" lon="15.0632236502294"><ele>455.99999999999994</ele><time>2026-04-26T06:54:26.001Z</time></trkpt><trkpt lat="36.96399621957474" lon="15.063127444192103"><ele>457.0</ele><time>2026-04-26T06:54:27.001Z</time></trkpt><trkpt lat="36.96404830170434" lon="15.063053492316765"><ele>458.0</ele><time>2026-04-26T06:54:30.001Z</time></trkpt><trkpt lat="36.96408786780346" lon="15.06298089723619"><ele>459.0</ele><time>2026-04-26T06:54:33.001Z</time></trkpt><trkpt lat="36.96414856281041" lon="15.062890948687416"><ele>459.99999999999994</ele><time>2026-04-26T06:55:28Z</time></trkpt><trkpt lat="36.96420010206978" lon="15.062811798077595"><ele>461.0</ele><time>2026-04-26T06:55:30Z</time></trkpt><trkpt lat="36.964310066121755" lon="15.062755996671253"><ele>461.4</ele><time>2026-04-26T06:55:32Z</time></trkpt><trkpt lat="36.96437592475732" lon="15.062676248089216"><ele>461.8</ele><time>2026-04-26T06:55:34Z</time></trkpt><trkpt lat="36.96441570511244" lon="15.062542617090243"><ele>462.19999999999993</ele><time>2026-04-26T06:55:36Z</time></trkpt><trkpt lat="36.96445051445716" lon="15.062405476746784"><ele>462.59999999999997</ele><time>2026-04-26T06:55:38Z</time></trkpt><trkpt lat="36.964476145252824" lon="15.062255554474083"><ele>463.0</ele><time>2026-04-26T06:55:40Z</time></trkpt><trkpt lat="36.96452353249036" lon="15.062146940331171"><ele>463.6666666666667</ele><time>2026-04-26T06:55:41Z</time></trkpt><trkpt lat="36.96459197681828" lon="15.062064074159961"><ele>464.33333333333337</ele><time>2026-04-26T06:55:42Z</time></trkpt><trkpt lat="36.964603518647074" lon="15.0619754146144"><ele>465.0</ele><time>2026-04-26T06:55:43Z</time></trkpt><trkpt lat="36.964636469668946" lon="15.061901760610288"><ele>465.66666666666663</ele><time>2026-04-26T06:55:44Z</time></trkpt><trkpt lat="36.96466691633203" lon="15.061827000624456"><ele>466.3333333333333</ele><time>2026-04-26T06:55:45Z</time></trkpt><trkpt lat="36.964729194650474" lon="15.06168865538081"><ele>467.0</ele><time>2026-04-26T06:55:47Z</time></trkpt><trkpt lat="36.96476366012815" lon="15.061621596699302"><ele>467.20000000000005</ele><time>2026-04-26T06:55:48Z</time></trkpt><trkpt lat="36.96481457246226" lon="15.061520571376704"><ele>467.40000000000003</ele><time>2026-04-26T06:55:49Z</time></trkpt><trkpt lat="36.964869944237925" lon="15.061410448444008"><ele>467.59999999999997</ele><time>2026-04-26T06:55:50Z</time></trkpt><trkpt lat="36.96491662190377" lon="15.061319911316655"><ele>467.79999999999995</ele><time>2026-04-26T06:55:51Z</time></trkpt><trkpt lat="36.964977622287506" lon="15.061230014989716"><ele>468.0</ele><time>2026-04-26T06:55:52Z</time></trkpt><trkpt lat="36.96503524835422" lon="15.061108836250304"><ele>468.4</ele><time>2026-04-26T06:55:53Z</time></trkpt><trkpt lat="36.965091599318576" lon="15.060984206933774"><ele>468.79999999999995</ele><time>2026-04-26T06:55:54Z</time></trkpt><trkpt lat="36.965138883779" lon="15.06087572712669"><ele>469.2</ele><time>2026-04-26T06:55:55Z</time></trkpt><trkpt lat="36.965191162347885" lon="15.060752767652223"><ele>469.6</ele><time>2026-04-26T06:55:56Z</time></trkpt><trkpt lat="36.96524012020372" lon="15.060635985857315"><ele>470.0</ele><time>2026-04-26T06:55:57Z</time></trkpt><trkpt lat="36.96529350586055" lon="15.06051237028857"><ele>469.99999999999994</ele><time>2026-04-26T06:55:58Z</time></trkpt><trkpt lat="36.9653328821742" lon="15.06042513143199"><ele>470.0</ele><time>2026-04-26T06:55:59Z</time></trkpt><trkpt lat="36.965374141726265" lon="15.0603393370459"><ele>470.0</ele><time>2026-04-26T06:56:00Z</time></trkpt><trkpt lat="36.96542462201287" lon="15.060243404400003"><ele>470.0</ele><time>2026-04-26T06:56:01Z</time></trkpt><trkpt lat="36.965479623319496" lon="15.060147377972516"><ele>469.99999999999994</ele><time>2026-04-26T06:56:02Z</time></trkpt><trkpt lat="36.965526183735825" lon="15.060050241810151"><ele>470.0</ele><time>2026-04-26T06:56:03Z</time></trkpt><trkpt lat="36.965610050268296" lon="15.059974025046966"><ele>470.2</ele><time>2026-04-26T06:56:04Z</time></trkpt><trkpt lat="36.965674583675366" lon="15.059854262176811"><ele>470.4</ele><time>2026-04-26T06:56:05Z</time></trkpt><trkpt lat="36.965731513173" lon="15.059757507642049"><ele>470.6</ele><time>2026-04-26T06:56:06Z</time></trkpt><trkpt lat="36.96577628765947" lon="15.059664558353514"><ele>470.8</ele><time>2026-04-26T06:56:07Z</time></trkpt><trkpt lat="36.9658167355558" lon="15.059572161991586"><ele>471.0</ele><time>2026-04-26T06:56:08Z</time></trkpt><trkpt lat="36.9658743062974" lon="15.059481781499038"><ele>471.0</ele><time>2026-04-26T06:56:09Z</time></trkpt><trkpt lat="36.96590409008731" lon="15.059371302527847"><ele>471.0</ele><time>2026-04-26T06:56:10Z</time></trkpt><trkpt lat="36.965946284691135" lon="15.059276557165534"><ele>471.0</ele><time>2026-04-26T06:56:11Z</time></trkpt><trkpt lat="36.96598026747327" lon="15.059175587850643"><ele>471.0</ele><time>2026-04-26T06:56:12Z</time></trkpt><trkpt lat="36.96601009418496" lon="15.059053576478432"><ele>471.0</ele><time>2026-04-26T06:56:13Z</time></trkpt><trkpt lat="36.96605119398692" lon="15.058944165222721"><ele>470.6</ele><time>2026-04-26T06:56:14.001Z</time></trkpt><trkpt lat="36.96607567793735" lon="15.058828817378894"><ele>470.20000000000005</ele><time>2026-04-26T06:56:15.001Z</time></trkpt><trkpt lat="36.966096089627165" lon="15.058705739610472"><ele>469.79999999999995</ele><time>2026-04-26T06:56:16.001Z</time></trkpt><trkpt lat="36.96609065217277" lon="15.058589997167804"><ele>469.4</ele><time>2026-04-26T06:56:17.001Z</time></trkpt><trkpt lat="36.96609174399248" lon="15.058472044033813"><ele>469.0</ele><time>2026-04-26T06:56:18.001Z</time></trkpt><trkpt lat="36.966091823079154" lon="15.058345282532887"><ele>468.4</ele><time>2026-04-26T06:56:19.001Z</time></trkpt><trkpt lat="36.966110138034416" lon="15.058233866744272"><ele>467.79999999999995</ele><time>2026-04-26T06:56:20.001Z</time></trkpt><trkpt lat="36.966111989528926" lon="15.058112015326572"><ele>467.20000000000005</ele><time>2026-04-26T06:56:21.001Z</time></trkpt><trkpt lat="36.966113904859576" lon="15.05798596252247"><ele>466.6</ele><time>2026-04-26T06:56:22.001Z</time></trkpt><trkpt lat="36.966115901238354" lon="15.057869854941025"><ele>466.0</ele><time>2026-04-26T06:56:23.001Z</time></trkpt><trkpt lat="36.96612526633759" lon="15.057771272800512"><ele>466.0</ele><time>2026-04-26T06:56:24.001Z</time></trkpt><trkpt lat="36.96614270862041" lon="15.057677198070982"><ele>466.0</ele><time>2026-04-26T06:56:25.001Z</time></trkpt><trkpt lat="36.96618546229132" lon="15.05749557198205"><ele>466.0</ele><time>2026-04-26T06:56:27.001Z</time></trkpt><trkpt lat="36.9662125769262" lon="15.05739463813351"><ele>466.0</ele><time>2026-04-26T06:56:28.001Z</time></trkpt><trkpt lat="36.96623725963533" lon="15.057300934916073"><ele>466.0</ele><time>2026-04-26T06:56:29.001Z</time></trkpt><trkpt lat="36.96625637878662" lon="15.057222880580342"><ele>465.0</ele><time>2026-04-26T06:56:30.001Z</time></trkpt><trkpt lat="36.96627479752367" lon="15.057143352643468"><ele>464.0</ele><time>2026-04-26T06:56:31.001Z</time></trkpt><trkpt lat="36.966293340257835" lon="15.057049748534366"><ele>463.0</ele><time>2026-04-26T06:56:32.001Z</time></trkpt><trkpt lat="36.9663151424438" lon="15.05692674210341"><ele>462.0</ele><time>2026-04-26T06:56:33.001Z</time></trkpt><trkpt lat="36.966333078659744" lon="15.056809013336117"><ele>461.0</ele><time>2026-04-26T06:56:34.001Z</time></trkpt><trkpt lat="36.966349921383134" lon="15.056666826089932"><ele>460.0</ele><time>2026-04-26T06:56:35.001Z</time></trkpt><trkpt lat="36.96636751762691" lon="15.056501621246218"><ele>459.0</ele><time>2026-04-26T06:56:36.001Z</time></trkpt><trkpt lat="36.9663823571057" lon="15.05636229875777"><ele>458.0</ele><time>2026-04-26T06:56:37.001Z</time></trkpt><trkpt lat="36.96639542192561" lon="15.05623523330469"><ele>457.0</ele><time>2026-04-26T06:56:38.001Z</time></trkpt><trkpt lat="36.96639209212376" lon="15.056104940217306"><ele>457.00000000000006</ele><time>2026-04-26T06:56:39.001Z</time></trkpt><trkpt lat="36.96639879679044" lon="15.055974671133136"><ele>457.0</ele><time>2026-04-26T06:56:40.001Z</time></trkpt><trkpt lat="36.96639713166322" lon="15.055863847463714"><ele>457.0</ele><time>2026-04-26T06:56:41.001Z</time></trkpt><trkpt lat="36.9663915772485" lon="15.055779517235289"><ele>457.0</ele><time>2026-04-26T06:56:42.001Z</time></trkpt><trkpt lat="36.96638416284863" lon="15.055696057041784"><ele>457.00000000000006</ele><time>2026-04-26T06:56:43.001Z</time></trkpt><trkpt lat="36.9664024323724" lon="15.055590121083958"><ele>457.0</ele><time>2026-04-26T06:56:44.001Z</time></trkpt><trkpt lat="36.96640762216804" lon="15.055487509339212"><ele>456.0</ele><time>2026-04-26T06:56:45.001Z</time></trkpt><trkpt lat="36.96641780592443" lon="15.055343595607132"><ele>455.00000000000006</ele><time>2026-04-26T06:56:47.001Z</time></trkpt><trkpt lat="36.9664379939046" lon="15.055202761486889"><ele>454.00000000000006</ele><time>2026-04-26T06:56:49.001Z</time></trkpt><trkpt lat="36.9664540383863" lon="15.0551213286448"><ele>453.0</ele><time>2026-04-26T06:56:50.001Z</time></trkpt><trkpt lat="36.96647696565235" lon="15.055011608016091"><ele>452.0</ele><time>2026-04-26T06:56:53.001Z</time></trkpt><trkpt lat="36.96649384755515" lon="15.054930817995865"><ele>450.8</ele><time>2026-04-26T06:56:55Z</time></trkpt><trkpt lat="36.9665146857388" lon="15.054782506755457"><ele>449.6</ele><time>2026-04-26T06:56:57Z</time></trkpt><trkpt lat="36.966536551862184" lon="15.05464633532474"><ele>448.40000000000003</ele><time>2026-04-26T06:56:59Z</time></trkpt><trkpt lat="36.96655961331678" lon="15.054543849366823"><ele>447.20000000000005</ele><time>2026-04-26T06:57:00Z</time></trkpt><trkpt lat="36.966573536609744" lon="15.054452057757757"><ele>446.0</ele><time>2026-04-26T06:57:01Z</time></trkpt><trkpt lat="36.9665904030137" lon="15.054351861455356"><ele>446.0</ele><time>2026-04-26T06:57:02Z</time></trkpt><trkpt lat="36.96660701630318" lon="15.054248838480317"><ele>446.0</ele><time>2026-04-26T06:57:03Z</time></trkpt><trkpt lat="36.96662046973337" lon="15.05413841526477"><ele>446.0</ele><time>2026-04-26T06:57:04Z</time></trkpt><trkpt lat="36.96665644817909" lon="15.054012343722416"><ele>446.0</ele><time>2026-04-26T06:57:05Z</time></trkpt><trkpt lat="36.96666713730377" lon="15.05388458337809"><ele>446.0</ele><time>2026-04-26T06:57:06Z</time></trkpt><trkpt lat="36.96669306553996" lon="15.05376222181343"><ele>446.8</ele><time>2026-04-26T06:57:07Z</time></trkpt><trkpt lat="36.96670864428088" lon="15.053638307870596"><ele>447.6</ele><time>2026-04-26T06:57:08Z</time></trkpt><trkpt lat="36.96673461859395" lon="15.053529255866133"><ele>448.4</ele><time>2026-04-26T06:57:09Z</time></trkpt><trkpt lat="36.96675679578992" lon="15.053410007805049"><ele>449.2</ele><time>2026-04-26T06:57:10Z</time></trkpt><trkpt lat="36.966773648294804" lon="15.053295210925905"><ele>450.0</ele><time>2026-04-26T06:57:11Z</time></trkpt><trkpt lat="36.96678458907894" lon="15.053177794158405"><ele>450.0</ele><time>2026-04-26T06:57:12Z</time></trkpt><trkpt lat="36.96678909429794" lon="15.05305389025867"><ele>450.0</ele><time>2026-04-26T06:57:13Z</time></trkpt><trkpt lat="36.96677782838863" lon="15.052937265840349"><ele>450.0</ele><time>2026-04-26T06:57:14Z</time></trkpt><trkpt lat="36.96676775365089" lon="15.05274484070222"><ele>450.0</ele><time>2026-04-26T06:57:16Z</time></trkpt><trkpt lat="36.966737135418526" lon="15.052613636187003"><ele>448.75</ele><time>2026-04-26T06:57:17Z</time></trkpt><trkpt lat="36.96671447112364" lon="15.052446515390672"><ele>447.5</ele><time>2026-04-26T06:57:18Z</time></trkpt><trkpt lat="36.96667340242208" lon="15.052313440388447"><ele>446.25</ele><time>2026-04-26T06:57:19Z</time></trkpt><trkpt lat="36.96661892537174" lon="15.052176203536247"><ele>445.0</ele><time>2026-04-26T06:57:20Z</time></trkpt><trkpt lat="36.966565801291644" lon="15.052018219881997"><ele>443.4</ele><time>2026-04-26T06:57:21Z</time></trkpt><trkpt lat="36.96651154980602" lon="15.051892447108452"><ele>441.8</ele><time>2026-04-26T06:57:22Z</time></trkpt><trkpt lat="36.966468204211914" lon="15.05179053879553"><ele>440.20000000000005</ele><time>2026-04-26T06:57:23Z</time></trkpt><trkpt lat="36.96643661290731" lon="15.051675655483448"><ele>438.6</ele><time>2026-04-26T06:57:24Z</time></trkpt><trkpt lat="36.96641208682286" lon="15.0515564780347"><ele>437.0</ele><time>2026-04-26T06:57:25Z</time></trkpt><trkpt lat="36.96638640114833" lon="15.051430912193219"><ele>436.40000000000003</ele><time>2026-04-26T06:57:26Z</time></trkpt><trkpt lat="36.966358375998496" lon="15.051297652489028"><ele>435.80000000000007</ele><time>2026-04-26T06:57:27Z</time></trkpt><trkpt lat="36.966335921989106" lon="15.051197891062662"><ele>435.2</ele><time>2026-04-26T06:57:28Z</time></trkpt><trkpt lat="36.96631295688943" lon="15.051098649272289"><ele>434.6</ele><time>2026-04-26T06:57:29Z</time></trkpt><trkpt lat="36.96628957152255" lon="15.05100612453929"><ele>434.0</ele><time>2026-04-26T06:57:30Z</time></trkpt><trkpt lat="36.966254607254584" lon="15.050877058720337"><ele>431.99999999999994</ele><time>2026-04-26T06:57:31Z</time></trkpt><trkpt lat="36.966223793121294" lon="15.050764750331592"><ele>430.0</ele><time>2026-04-26T06:57:32Z</time></trkpt><trkpt lat="36.966187717329085" lon="15.050646047121443"><ele>428.0</ele><time>2026-04-26T06:57:33Z</time></trkpt><trkpt lat="36.96615782157798" lon="15.050543408055258"><ele>426.0</ele><time>2026-04-26T06:57:34Z</time></trkpt><trkpt lat="36.96613832161581" lon="15.050442414895597"><ele>423.99999999999994</ele><time>2026-04-26T06:57:35Z</time></trkpt><trkpt lat="36.96613119497168" lon="15.050351741585619"><ele>422.0</ele><time>2026-04-26T06:57:36Z</time></trkpt><trkpt lat="36.96612429919524" lon="15.050246053509793"><ele>421.99999999999994</ele><time>2026-04-26T06:57:37Z</time></trkpt><trkpt lat="36.966117425053596" lon="15.050146392350522"><ele>422.0</ele><time>2026-04-26T06:57:38Z</time></trkpt><trkpt lat="36.966106925936316" lon="15.049994176234227"><ele>422.0</ele><time>2026-04-26T06:57:40Z</time></trkpt><trkpt lat="36.96610137220408" lon="15.049913547382102"><ele>422.0</ele><time>2026-04-26T06:57:41Z</time></trkpt><trkpt lat="36.966095764809104" lon="15.04983184595915"><ele>421.99999999999994</ele><time>2026-04-26T06:57:42Z</time></trkpt><trkpt lat="36.9660886839607" lon="15.049732906881207"><ele>422.0</ele><time>2026-04-26T06:57:43Z</time></trkpt><trkpt lat="36.966080583595904" lon="15.049639211551991"><ele>421.0</ele><time>2026-04-26T06:57:44Z</time></trkpt><trkpt lat="36.9660718249389" lon="15.049537901897466"><ele>420.0</ele><time>2026-04-26T06:57:45Z</time></trkpt><trkpt lat="36.96606332655191" lon="15.049432677062516"><ele>419.0</ele><time>2026-04-26T06:57:46Z</time></trkpt><trkpt lat="36.96605449701034" lon="15.04928935081883"><ele>418.0</ele><time>2026-04-26T06:57:47Z</time></trkpt><trkpt lat="36.9660532517802" lon="15.049148221418362"><ele>417.0</ele><time>2026-04-26T06:57:48Z</time></trkpt><trkpt lat="36.9660553985203" lon="15.049031019912013"><ele>416.6666666666667</ele><time>2026-04-26T06:57:49Z</time></trkpt><trkpt lat="36.96605781965493" lon="15.048921332521376"><ele>416.33333333333337</ele><time>2026-04-26T06:57:50Z</time></trkpt><trkpt lat="36.966060476908766" lon="15.048838638817754"><ele>416.0</ele><time>2026-04-26T06:57:51Z</time></trkpt><trkpt lat="36.966052942470405" lon="15.048700754895757"><ele>415.6666666666667</ele><time>2026-04-26T06:57:53Z</time></trkpt><trkpt lat="36.96606348149721" lon="15.04860232661251"><ele>415.33333333333337</ele><time>2026-04-26T06:57:54Z</time></trkpt><trkpt lat="36.96605434993191" lon="15.048491617801567"><ele>415.0</ele><time>2026-04-26T06:57:55Z</time></trkpt><trkpt lat="36.966065898870106" lon="15.048400329236275"><ele>415.0</ele><time>2026-04-26T06:57:56Z</time></trkpt><trkpt lat="36.966056557638765" lon="15.048302883844661"><ele>415.0</ele><time>2026-04-26T06:57:58Z</time></trkpt><trkpt lat="36.966037976373904" lon="15.048208615746264"><ele>415.0</ele><time>2026-04-26T06:58:00Z</time></trkpt><trkpt lat="36.96602196821878" lon="15.048092802790835"><ele>415.0</ele><time>2026-04-26T06:58:01Z</time></trkpt><trkpt lat="36.966010037928996" lon="15.047942649904972"><ele>415.0</ele><time>2026-04-26T06:58:02Z</time></trkpt><trkpt lat="36.96601214402912" lon="15.04781156730939"><ele>414.6</ele><time>2026-04-26T06:58:03Z</time></trkpt><trkpt lat="36.96602012819279" lon="15.047690311429013"><ele>414.2</ele><time>2026-04-26T06:58:04Z</time></trkpt><trkpt lat="36.966035609202365" lon="15.04754209673415"><ele>413.79999999999995</ele><time>2026-04-26T06:58:05Z</time></trkpt><trkpt lat="36.96604617818567" lon="15.047422313079476"><ele>413.4</ele><time>2026-04-26T06:58:06Z</time></trkpt><trkpt lat="36.966045933200554" lon="15.047318833759354"><ele>413.0</ele><time>2026-04-26T06:58:07Z</time></trkpt><trkpt lat="36.966027534497236" lon="15.047210286161542"><ele>412.49999999999994</ele><time>2026-04-26T06:58:08Z</time></trkpt><trkpt lat="36.96598468319816" lon="15.047123616524344"><ele>412.0</ele><time>2026-04-26T06:58:11Z</time></trkpt><trkpt lat="36.96597047188739" lon="15.047041805553311"><ele>411.5</ele><time>2026-04-26T06:58:13Z</time></trkpt><trkpt lat="36.965925340216366" lon="15.046956197893326"><ele>411.0</ele><time>2026-04-26T06:58:15Z</time></trkpt><trkpt lat="36.965894755384326" lon="15.046829574733321"><ele>410.49999999999994</ele><time>2026-04-26T06:58:17Z</time></trkpt><trkpt lat="36.96587696805475" lon="15.046715153916791"><ele>410.0</ele><time>2026-04-26T06:58:19Z</time></trkpt><trkpt lat="36.9658410217652" lon="15.046649683184686"><ele>409.49999999999994</ele><time>2026-04-26T06:58:21Z</time></trkpt><trkpt lat="36.96575583057189" lon="15.046600157268204"><ele>409.0</ele><time>2026-04-26T06:59:11Z</time></trkpt><trkpt lat="36.96563318940257" lon="15.046579785177213"><ele>408.5</ele><time>2026-04-26T06:59:13Z</time></trkpt><trkpt lat="36.96557409710339" lon="15.046551736899946"><ele>408.0</ele><time>2026-04-26T06:59:14Z</time></trkpt><trkpt lat="36.965514327193866" lon="15.046507237491982"><ele>407.49999999999994</ele><time>2026-04-26T06:59:15Z</time></trkpt><trkpt lat="36.96544995597352" lon="15.046472257445188"><ele>407.0</ele><time>2026-04-26T06:59:16Z</time></trkpt><trkpt lat="36.9653915374179" lon="15.046434916518884"><ele>406.99999999999994</ele><time>2026-04-26T06:59:17Z</time></trkpt><trkpt lat="36.965329347533284" lon="15.046386575327123"><ele>407.0</ele><time>2026-04-26T06:59:18Z</time></trkpt><trkpt lat="36.96528203812542" lon="15.04632543818446"><ele>407.0</ele><time>2026-04-26T06:59:19Z</time></trkpt><trkpt lat="36.96523177456474" lon="15.046264883546609"><ele>407.0</ele><time>2026-04-26T06:59:20Z</time></trkpt><trkpt lat="36.96519993279124" lon="15.046155107537357"><ele>406.99999999999994</ele><time>2026-04-26T06:59:21Z</time></trkpt><trkpt lat="36.96515391572697" lon="15.04599861657704"><ele>407.0</ele><time>2026-04-26T06:59:22Z</time></trkpt><trkpt lat="36.96510793285944" lon="15.045851992624643"><ele>407.20000000000005</ele><time>2026-04-26T06:59:23Z</time></trkpt><trkpt lat="36.965062657242115" lon="15.045720091780208"><ele>407.4</ele><time>2026-04-26T06:59:24Z</time></trkpt><trkpt lat="36.96500842085019" lon="15.045629294198324"><ele>407.6</ele><time>2026-04-26T06:59:25Z</time></trkpt><trkpt lat="36.96494976623307" lon="15.045528894584384"><ele>407.79999999999995</ele><time>2026-04-26T06:59:26Z</time></trkpt><trkpt lat="36.9649248574471" lon="15.045424019919233"><ele>408.0</ele><time>2026-04-26T06:59:27Z</time></trkpt><trkpt lat="36.96489222361288" lon="15.045330793736273"><ele>406.79999999999995</ele><time>2026-04-26T06:59:28Z</time></trkpt><trkpt lat="36.96485821535924" lon="15.045216380605883"><ele>405.6</ele><time>2026-04-26T06:59:29Z</time></trkpt><trkpt lat="36.964834414862054" lon="15.045110701402317"><ele>404.4</ele><time>2026-04-26T06:59:30Z</time></trkpt><trkpt lat="36.96479143344111" lon="15.045009594884691"><ele>403.20000000000005</ele><time>2026-04-26T06:59:31Z</time></trkpt><trkpt lat="36.96475628523952" lon="15.044929123556583"><ele>402.0</ele><time>2026-04-26T06:59:32Z</time></trkpt><trkpt lat="36.96470389877095" lon="15.044808184090893"><ele>401.20000000000005</ele><time>2026-04-26T06:59:33Z</time></trkpt><trkpt lat="36.96463351187544" lon="15.044673411565398"><ele>400.4</ele><time>2026-04-26T06:59:34Z</time></trkpt><trkpt lat="36.9645828578355" lon="15.044558283700306"><ele>399.6</ele><time>2026-04-26T06:59:35Z</time></trkpt><trkpt lat="36.96452588889619" lon="15.044473949888976"><ele>398.79999999999995</ele><time>2026-04-26T06:59:36Z</time></trkpt><trkpt lat="36.96447763685462" lon="15.04438379436422"><ele>398.0</ele><time>2026-04-26T06:59:37Z</time></trkpt><trkpt lat="36.9644104645144" lon="15.044290358648073"><ele>397.99999999999994</ele><time>2026-04-26T06:59:38Z</time></trkpt><trkpt lat="36.964333707235646" lon="15.044206418456062"><ele>398.0</ele><time>2026-04-26T06:59:39Z</time></trkpt><trkpt lat="36.964274906662425" lon="15.044103946361385"><ele>398.0</ele><time>2026-04-26T06:59:40Z</time></trkpt><trkpt lat="36.964221874496715" lon="15.04402234711391"><ele>398.0</ele><time>2026-04-26T06:59:41Z</time></trkpt><trkpt lat="36.96418346051774" lon="15.043942225501779"><ele>397.99999999999994</ele><time>2026-04-26T06:59:42Z</time></trkpt><trkpt lat="36.96413807881315" lon="15.04386648784128"><ele>398.0</ele><time>2026-04-26T06:59:43Z</time></trkpt><trkpt lat="36.96408348041988" lon="15.04379847173956"><ele>396.79999999999995</ele><time>2026-04-26T06:59:44Z</time></trkpt><trkpt lat="36.96399837620337" lon="15.043740938452833"><ele>395.6</ele><time>2026-04-26T06:59:45Z</time></trkpt><trkpt lat="36.963911008955705" lon="15.043658849445015"><ele>394.4</ele><time>2026-04-26T06:59:46Z</time></trkpt><trkpt lat="36.963863425672955" lon="15.043570001488995"><ele>393.20000000000005</ele><time>2026-04-26T06:59:47Z</time></trkpt><trkpt lat="36.96382245158033" lon="15.043493024688189"><ele>392.0</ele><time>2026-04-26T06:59:48Z</time></trkpt><trkpt lat="36.96379315109783" lon="15.0433939377208"><ele>391.8</ele><time>2026-04-26T06:59:49Z</time></trkpt><trkpt lat="36.96376886821859" lon="15.043275570735785"><ele>391.6</ele><time>2026-04-26T06:59:50Z</time></trkpt><trkpt lat="36.96375246483797" lon="15.043134494663104"><ele>391.40000000000003</ele><time>2026-04-26T06:59:51Z</time></trkpt><trkpt lat="36.9637462592365" lon="15.04299347054315"><ele>391.20000000000005</ele><time>2026-04-26T06:59:52Z</time></trkpt><trkpt lat="36.96374215351084" lon="15.042858140908217"><ele>391.0</ele><time>2026-04-26T06:59:53Z</time></trkpt><trkpt lat="36.96373304010249" lon="15.042707658480094"><ele>391.0</ele><time>2026-04-26T06:59:54Z</time></trkpt><trkpt lat="36.963732025068474" lon="15.042564686892888"><ele>391.0</ele><time>2026-04-26T06:59:55Z</time></trkpt><trkpt lat="36.963713138344794" lon="15.042426960255087"><ele>391.0</ele><time>2026-04-26T06:59:56Z</time></trkpt><trkpt lat="36.96368391012655" lon="15.042270221270234"><ele>391.0</ele><time>2026-04-26T06:59:57Z</time></trkpt><trkpt lat="36.963659133349815" lon="15.042121349217352"><ele>392.25</ele><time>2026-04-26T06:59:58Z</time></trkpt><trkpt lat="36.9636412418803" lon="15.041950068571678"><ele>393.5</ele><time>2026-04-26T06:59:59Z</time></trkpt><trkpt lat="36.963633205258354" lon="15.04179009151612"><ele>394.75</ele><time>2026-04-26T07:00:00Z</time></trkpt><trkpt lat="36.96361870056843" lon="15.041620509658742"><ele>396.0</ele><time>2026-04-26T07:00:01Z</time></trkpt><trkpt lat="36.963581658789714" lon="15.041421853531398"><ele>397.5</ele><time>2026-04-26T07:00:02Z</time></trkpt><trkpt lat="36.963554108533486" lon="15.041244871523567"><ele>399.0</ele><time>2026-04-26T07:00:03Z</time></trkpt><trkpt lat="36.96353839837516" lon="15.041110939529466"><ele>400.5</ele><time>2026-04-26T07:00:04Z</time></trkpt><trkpt lat="36.9635253405984" lon="15.040973175153972"><ele>402.0</ele><time>2026-04-26T07:00:05Z</time></trkpt><trkpt lat="36.96353050278319" lon="15.04080518789591"><ele>403.66666666666663</ele><time>2026-04-26T07:00:06Z</time></trkpt><trkpt lat="36.96350125043541" lon="15.040623329319999"><ele>405.3333333333333</ele><time>2026-04-26T07:00:07Z</time></trkpt><trkpt lat="36.96349036800481" lon="15.040399663756133"><ele>407.0</ele><time>2026-04-26T07:00:08Z</time></trkpt><trkpt lat="36.963481206912896" lon="15.040218152616998"><ele>407.0</ele><time>2026-04-26T07:00:09Z</time></trkpt><trkpt lat="36.96347475763471" lon="15.040060153125905"><ele>407.0</ele><time>2026-04-26T07:00:10Z</time></trkpt><trkpt lat="36.96345734849029" lon="15.039908138421891"><ele>407.0</ele><time>2026-04-26T07:00:11Z</time></trkpt><trkpt lat="36.963426254572674" lon="15.039753438793712"><ele>407.0</ele><time>2026-04-26T07:00:12Z</time></trkpt><trkpt lat="36.9633974770009" lon="15.039583950555315"><ele>407.75</ele><time>2026-04-26T07:00:13Z</time></trkpt><trkpt lat="36.96340539540242" lon="15.039409672975077"><ele>408.5</ele><time>2026-04-26T07:00:14Z</time></trkpt><trkpt lat="36.963389906597754" lon="15.03924613967953"><ele>409.25</ele><time>2026-04-26T07:00:15Z</time></trkpt><trkpt lat="36.963387857478295" lon="15.039103993048997"><ele>410.0</ele><time>2026-04-26T07:00:16Z</time></trkpt><trkpt lat="36.96337514760252" lon="15.038957520773144"><ele>410.0</ele><time>2026-04-26T07:00:17Z</time></trkpt><trkpt lat="36.96335311326964" lon="15.038821271797822"><ele>410.0</ele><time>2026-04-26T07:00:18Z</time></trkpt><trkpt lat="36.96330926258774" lon="15.038698777828511"><ele>410.0</ele><time>2026-04-26T07:00:19Z</time></trkpt><trkpt lat="36.96323677994119" lon="15.038581004202971"><ele>410.0</ele><time>2026-04-26T07:00:20Z</time></trkpt><trkpt lat="36.96314061302122" lon="15.038472493707683"><ele>410.0</ele><time>2026-04-26T07:00:21Z</time></trkpt><trkpt lat="36.96305830895161" lon="15.03836098997495"><ele>410.0</ele><time>2026-04-26T07:00:22Z</time></trkpt><trkpt lat="36.962967546501645" lon="15.038303941168083"><ele>410.0</ele><time>2026-04-26T07:00:23Z</time></trkpt><trkpt lat="36.96288440846418" lon="15.038230357550898"><ele>410.0</ele><time>2026-04-26T07:00:24Z</time></trkpt><trkpt lat="36.96281609803909" lon="15.038138201754151"><ele>410.0</ele><time>2026-04-26T07:00:25Z</time></trkpt><trkpt lat="36.96275552432709" lon="15.038057208772479"><ele>411.6</ele><time>2026-04-26T07:00:26Z</time></trkpt><trkpt lat="36.96271169386299" lon="15.03797122780672"><ele>413.2</ele><time>2026-04-26T07:00:27Z</time></trkpt><trkpt lat="36.96268075918163" lon="15.037883570624016"><ele>414.79999999999995</ele><time>2026-04-26T07:00:28Z</time></trkpt><trkpt lat="36.96264215014821" lon="15.037793690877983"><ele>416.4</ele><time>2026-04-26T07:00:30Z</time></trkpt><trkpt lat="36.962756768636964" lon="15.037696285633166"><ele>418.0</ele><time>2026-04-26T07:00:34Z</time></trkpt><trkpt lat="36.96288108387239" lon="15.03764911667438"><ele>418.0</ele><time>2026-04-26T07:00:36Z</time></trkpt><trkpt lat="36.962934588070404" lon="15.037591424348658"><ele>418.0</ele><time>2026-04-26T07:00:37Z</time></trkpt><trkpt lat="36.96301913665097" lon="15.0374944350214"><ele>418.0</ele><time>2026-04-26T07:00:39Z</time></trkpt><trkpt lat="36.963081477513185" lon="15.03741105149695"><ele>418.0</ele><time>2026-04-26T07:00:40Z</time></trkpt><trkpt lat="36.96316244528462" lon="15.037343265767143"><ele>418.0</ele><time>2026-04-26T07:00:41Z</time></trkpt><trkpt lat="36.963227215492964" lon="15.037238840220063"><ele>418.50000000000006</ele><time>2026-04-26T07:00:42Z</time></trkpt><trkpt lat="36.96328465396331" lon="15.037171078115504"><ele>419.0</ele><time>2026-04-26T07:00:43Z</time></trkpt><trkpt lat="36.96334960823348" lon="15.03708577266496"><ele>419.5</ele><time>2026-04-26T07:00:44Z</time></trkpt><trkpt lat="36.963414762657344" lon="15.037033905926153"><ele>420.0</ele><time>2026-04-26T07:00:45Z</time></trkpt><trkpt lat="36.96346974973783" lon="15.036971537940593"><ele>420.50000000000006</ele><time>2026-04-26T07:00:46Z</time></trkpt><trkpt lat="36.96351160255423" lon="15.036909534528597"><ele>421.0</ele><time>2026-04-26T07:00:47Z</time></trkpt><trkpt lat="36.96356860571528" lon="15.036839468926111"><ele>421.6666666666667</ele><time>2026-04-26T07:00:48Z</time></trkpt><trkpt lat="36.963634256438745" lon="15.03674843206507"><ele>422.33333333333337</ele><time>2026-04-26T07:00:49Z</time></trkpt><trkpt lat="36.963677056725984" lon="15.03669006511681"><ele>423.0</ele><time>2026-04-26T07:00:50Z</time></trkpt><trkpt lat="36.963718880177396" lon="15.036615818393859"><ele>423.66666666666663</ele><time>2026-04-26T07:00:51Z</time></trkpt><trkpt lat="36.96378812408834" lon="15.036534705683122"><ele>424.3333333333333</ele><time>2026-04-26T07:00:52Z</time></trkpt><trkpt lat="36.9638407389884" lon="15.0364710027142"><ele>425.0</ele><time>2026-04-26T07:00:53Z</time></trkpt><trkpt lat="36.963898894254065" lon="15.036378642752139"><ele>426.16666666666663</ele><time>2026-04-26T07:00:55Z</time></trkpt><trkpt lat="36.96394198201823" lon="15.036321009893355"><ele>427.3333333333333</ele><time>2026-04-26T07:00:56Z</time></trkpt><trkpt lat="36.96400019238046" lon="15.036237850037892"><ele>428.5</ele><time>2026-04-26T07:00:57Z</time></trkpt><trkpt lat="36.9640701301057" lon="15.03614570499916"><ele>429.66666666666663</ele><time>2026-04-26T07:00:58Z</time></trkpt><trkpt lat="36.96411923635114" lon="15.036084645438805"><ele>430.8333333333333</ele><time>2026-04-26T07:00:59Z</time></trkpt><trkpt lat="36.96419160208123" lon="15.035970344119013"><ele>432.0</ele><time>2026-04-26T07:01:01Z</time></trkpt><trkpt lat="36.96424045679778" lon="15.035885739190297"><ele>432.1666666666667</ele><time>2026-04-26T07:01:02Z</time></trkpt><trkpt lat="36.96430082244479" lon="15.035815996948186"><ele>432.33333333333337</ele><time>2026-04-26T07:01:03Z</time></trkpt><trkpt lat="36.9643544559959" lon="15.035745939941027"><ele>432.5</ele><time>2026-04-26T07:01:04Z</time></trkpt><trkpt lat="36.96442853249621" lon="15.035665772583569"><ele>432.6666666666667</ele><time>2026-04-26T07:01:06Z</time></trkpt><trkpt lat="36.964481425640344" lon="15.03559898454239"><ele>432.83333333333337</ele><time>2026-04-26T07:01:07Z</time></trkpt><trkpt lat="36.96456607842838" lon="15.035500111387725"><ele>433.0</ele><time>2026-04-26T07:01:08Z</time></trkpt><trkpt lat="36.9646455038391" lon="15.03542346912472"><ele>433.6666666666667</ele><time>2026-04-26T07:01:09Z</time></trkpt><trkpt lat="36.964709880043095" lon="15.035353578441097"><ele>434.33333333333337</ele><time>2026-04-26T07:01:10Z</time></trkpt><trkpt lat="36.96479204647856" lon="15.035318466978865"><ele>435.0</ele><time>2026-04-26T07:01:11Z</time></trkpt><trkpt lat="36.96485533850744" lon="15.035283588815572"><ele>435.66666666666663</ele><time>2026-04-26T07:01:12Z</time></trkpt><trkpt lat="36.96493519552222" lon="15.03523760161478"><ele>436.3333333333333</ele><time>2026-04-26T07:01:13Z</time></trkpt><trkpt lat="36.96502673871579" lon="15.035160132530333"><ele>437.0</ele><time>2026-04-26T07:01:14Z</time></trkpt><trkpt lat="36.965143359816324" lon="15.03507960613192"><ele>437.0</ele><time>2026-04-26T07:01:15Z</time></trkpt><trkpt lat="36.96523115467136" lon="15.035036583218988"><ele>437.0</ele><time>2026-04-26T07:01:16Z</time></trkpt><trkpt lat="36.96530990581435" lon="15.034958833676725"><ele>437.0</ele><time>2026-04-26T07:01:17Z</time></trkpt><trkpt lat="36.965435571818404" lon="15.034885046944904"><ele>437.0</ele><time>2026-04-26T07:01:18Z</time></trkpt><trkpt lat="36.965563887036176" lon="15.034827571926968"><ele>437.16666666666663</ele><time>2026-04-26T07:01:19Z</time></trkpt><trkpt lat="36.96566075474229" lon="15.03477389534426"><ele>437.3333333333333</ele><time>2026-04-26T07:01:20Z</time></trkpt><trkpt lat="36.96572934838573" lon="15.034713241277593"><ele>437.5</ele><time>2026-04-26T07:01:21Z</time></trkpt><trkpt lat="36.965788046384446" lon="15.034679360552122"><ele>437.66666666666663</ele><time>2026-04-26T07:01:22Z</time></trkpt><trkpt lat="36.965858659222654" lon="15.034599687011234"><ele>437.8333333333333</ele><time>2026-04-26T07:01:24Z</time></trkpt><trkpt lat="36.965875080979096" lon="15.034509409506738"><ele>438.0</ele><time>2026-04-26T07:01:26Z</time></trkpt><trkpt lat="36.965875921059336" lon="15.034423351860305"><ele>438.0</ele><time>2026-04-26T07:01:29Z</time></trkpt><trkpt lat="36.965897936926936" lon="15.034344117250217"><ele>437.99999999999994</ele><time>2026-04-26T07:01:32Z</time></trkpt><trkpt lat="36.965998692445545" lon="15.034351377830067"><ele>437.99999999999994</ele><time>2026-04-26T07:01:33Z</time></trkpt><trkpt lat="36.96608154162692" lon="15.034319298129386"><ele>438.0</ele><time>2026-04-26T07:01:34Z</time></trkpt><trkpt lat="36.96617841971624" lon="15.03430735139355"><ele>438.0</ele><time>2026-04-26T07:01:35Z</time></trkpt><trkpt lat="36.96627711293133" lon="15.03427673461641"><ele>438.0</ele><time>2026-04-26T07:01:36Z</time></trkpt><trkpt lat="36.96638552112991" lon="15.03423923726043"><ele>438.0</ele><time>2026-04-26T07:01:37Z</time></trkpt><trkpt lat="36.96649825822938" lon="15.034211661906278"><ele>438.0</ele><time>2026-04-26T07:01:38Z</time></trkpt><trkpt lat="36.96661887962605" lon="15.034191996415876"><ele>438.0</ele><time>2026-04-26T07:01:39Z</time></trkpt><trkpt lat="36.96674950690977" lon="15.034167850264485"><ele>438.0</ele><time>2026-04-26T07:01:40Z</time></trkpt><trkpt lat="36.96688412619873" lon="15.034131625270113"><ele>438.0</ele><time>2026-04-26T07:01:41Z</time></trkpt><trkpt lat="36.967029492192545" lon="15.034095383515625"><ele>438.0</ele><time>2026-04-26T07:01:42Z</time></trkpt><trkpt lat="36.96718100684017" lon="15.034055642910655"><ele>438.0</ele><time>2026-04-26T07:01:43Z</time></trkpt><trkpt lat="36.96733711320951" lon="15.034016264342661"><ele>438.0</ele><time>2026-04-26T07:01:44Z</time></trkpt><trkpt lat="36.96750314336739" lon="15.03398780499895"><ele>438.0</ele><time>2026-04-26T07:01:45Z</time></trkpt><trkpt lat="36.96766845398601" lon="15.033950675212212"><ele>438.0</ele><time>2026-04-26T07:01:46Z</time></trkpt><trkpt lat="36.967839522274396" lon="15.033908002516815"><ele>439.0</ele><time>2026-04-26T07:01:47Z</time></trkpt><trkpt lat="36.968007957428874" lon="15.03387073102858"><ele>440.0</ele><time>2026-04-26T07:01:48Z</time></trkpt><trkpt lat="36.968172284275546" lon="15.033825919393292"><ele>441.0</ele><time>2026-04-26T07:01:49Z</time></trkpt><trkpt lat="36.96831894100688" lon="15.033783063555637"><ele>441.33333333333337</ele><time>2026-04-26T07:01:50Z</time></trkpt><trkpt lat="36.96846364940937" lon="15.033738417361398"><ele>441.6666666666667</ele><time>2026-04-26T07:01:51Z</time></trkpt><trkpt lat="36.96861338332419" lon="15.033691725161317"><ele>442.0</ele><time>2026-04-26T07:01:52Z</time></trkpt><trkpt lat="36.96875922719895" lon="15.033640979769416"><ele>442.0</ele><time>2026-04-26T07:01:53Z</time></trkpt><trkpt lat="36.96890872861461" lon="15.033584914379794"><ele>442.0</ele><time>2026-04-26T07:01:54Z</time></trkpt><trkpt lat="36.969058814749594" lon="15.033527334267221"><ele>442.0</ele><time>2026-04-26T07:01:55Z</time></trkpt><trkpt lat="36.96920774856017" lon="15.033464815327246"><ele>442.6666666666667</ele><time>2026-04-26T07:01:56Z</time></trkpt><trkpt lat="36.96936095230038" lon="15.033399358954222"><ele>443.33333333333337</ele><time>2026-04-26T07:01:57Z</time></trkpt><trkpt lat="36.9695164630442" lon="15.03333736824899"><ele>444.0</ele><time>2026-04-26T07:01:58Z</time></trkpt><trkpt lat="36.96968194318011" lon="15.033283760784512"><ele>444.0</ele><time>2026-04-26T07:01:59Z</time></trkpt><trkpt lat="36.96984949543983" lon="15.033226018951442"><ele>444.0</ele><time>2026-04-26T07:02:00Z</time></trkpt><trkpt lat="36.97002572301966" lon="15.033168566833425"><ele>444.0</ele><time>2026-04-26T07:02:01Z</time></trkpt><trkpt lat="36.97021555432643" lon="15.033127418172588"><ele>444.0</ele><time>2026-04-26T07:02:02Z</time></trkpt><trkpt lat="36.970409651354096" lon="15.033138342182683"><ele>444.0</ele><time>2026-04-26T07:02:03Z</time></trkpt><trkpt lat="36.97059166042324" lon="15.033129169575707"><ele>444.0</ele><time>2026-04-26T07:02:04Z</time></trkpt><trkpt lat="36.970767142753175" lon="15.033135585403675"><ele>446.0</ele><time>2026-04-26T07:02:05Z</time></trkpt><trkpt lat="36.97094964185654" lon="15.033135812369158"><ele>448.0</ele><time>2026-04-26T07:02:06Z</time></trkpt><trkpt lat="36.97113266223468" lon="15.033133485613504"><ele>450.0</ele><time>2026-04-26T07:02:07Z</time></trkpt><trkpt lat="36.97130769349722" lon="15.033130085044391"><ele>450.0</ele><time>2026-04-26T07:02:08Z</time></trkpt><trkpt lat="36.97148007703711" lon="15.033127865143724"><ele>450.0</ele><time>2026-04-26T07:02:09Z</time></trkpt><trkpt lat="36.97165015552493" lon="15.03312808608661"><ele>450.0</ele><time>2026-04-26T07:02:10Z</time></trkpt><trkpt lat="36.971811181003424" lon="15.033114882673367"><ele>448.66666666666663</ele><time>2026-04-26T07:02:11Z</time></trkpt><trkpt lat="36.97196999911082" lon="15.033073000523514"><ele>447.3333333333333</ele><time>2026-04-26T07:02:12Z</time></trkpt><trkpt lat="36.97213206340915" lon="15.033008015361947"><ele>446.0</ele><time>2026-04-26T07:02:13Z</time></trkpt><trkpt lat="36.97229349548372" lon="15.032937124944574"><ele>446.0</ele><time>2026-04-26T07:02:14Z</time></trkpt><trkpt lat="36.97246382874172" lon="15.032863656118648"><ele>446.0</ele><time>2026-04-26T07:02:15Z</time></trkpt><trkpt lat="36.972645772495305" lon="15.03278852566346"><ele>446.0</ele><time>2026-04-26T07:02:16Z</time></trkpt><trkpt lat="36.97283647556189" lon="15.03270968261582"><ele>446.0</ele><time>2026-04-26T07:02:17Z</time></trkpt><trkpt lat="36.973031629038324" lon="15.032626153798974"><ele>446.0</ele><time>2026-04-26T07:02:18Z</time></trkpt><trkpt lat="36.973225992034216" lon="15.03253784622433"><ele>446.0</ele><time>2026-04-26T07:02:19Z</time></trkpt><trkpt lat="36.97341992699311" lon="15.032454425692922"><ele>446.0</ele><time>2026-04-26T07:02:20Z</time></trkpt><trkpt lat="36.97361699281304" lon="15.032373434000434"><ele>446.0</ele><time>2026-04-26T07:02:21Z</time></trkpt><trkpt lat="36.9738129208675" lon="15.03229687399169"><ele>446.0</ele><time>2026-04-26T07:02:22Z</time></trkpt><trkpt lat="36.97400736994315" lon="15.032219965936507"><ele>446.0</ele><time>2026-04-26T07:02:23Z</time></trkpt><trkpt lat="36.9742027649043" lon="15.032138269633244"><ele>446.0</ele><time>2026-04-26T07:02:24Z</time></trkpt><trkpt lat="36.97440035986538" lon="15.032054921482485"><ele>446.0</ele><time>2026-04-26T07:02:25Z</time></trkpt><trkpt lat="36.97459538000368" lon="15.03197001601356"><ele>446.0</ele><time>2026-04-26T07:02:26Z</time></trkpt><trkpt lat="36.97479262085826" lon="15.031885478691594"><ele>446.0</ele><time>2026-04-26T07:02:27Z</time></trkpt><trkpt lat="36.974984427752595" lon="15.031809431614205"><ele>446.0</ele><time>2026-04-26T07:02:28Z</time></trkpt><trkpt lat="36.975164577923366" lon="15.031740110453525"><ele>447.3333333333333</ele><time>2026-04-26T07:02:29Z</time></trkpt><trkpt lat="36.97533175821455" lon="15.031676671160637"><ele>448.66666666666663</ele><time>2026-04-26T07:02:30Z</time></trkpt><trkpt lat="36.97549549417776" lon="15.031633452763533"><ele>450.0</ele><time>2026-04-26T07:02:31Z</time></trkpt><trkpt lat="36.97565816878301" lon="15.031629160686311"><ele>450.0</ele><time>2026-04-26T07:02:32Z</time></trkpt><trkpt lat="36.97580449096418" lon="15.031668514123584"><ele>450.0</ele><time>2026-04-26T07:02:33Z</time></trkpt><trkpt lat="36.975930182264264" lon="15.03173863761812"><ele>450.0</ele><time>2026-04-26T07:02:34Z</time></trkpt><trkpt lat="36.97601910517647" lon="15.031856562438161"><ele>450.0</ele><time>2026-04-26T07:02:35Z</time></trkpt><trkpt lat="36.97611190219968" lon="15.03197374345831"><ele>452.0</ele><time>2026-04-26T07:02:36Z</time></trkpt><trkpt lat="36.97620056282699" lon="15.032136410672198"><ele>454.0</ele><time>2026-04-26T07:02:37Z</time></trkpt><trkpt lat="36.97629746549201" lon="15.032294775519189"><ele>456.0</ele><time>2026-04-26T07:02:38Z</time></trkpt><trkpt lat="36.97639125041504" lon="15.032441880147736"><ele>454.75</ele><time>2026-04-26T07:02:39Z</time></trkpt><trkpt lat="36.9764953156637" lon="15.032554419542874"><ele>453.5</ele><time>2026-04-26T07:02:40Z</time></trkpt><trkpt lat="36.976629914268756" lon="15.032624393588357"><ele>452.25</ele><time>2026-04-26T07:02:41Z</time></trkpt><trkpt lat="36.97678903149294" lon="15.032648313804625"><ele>451.0</ele><time>2026-04-26T07:02:42Z</time></trkpt><trkpt lat="36.976957239477564" lon="15.032638345419134"><ele>450.0</ele><time>2026-04-26T07:02:43Z</time></trkpt><trkpt lat="36.9771308085766" lon="15.032610186729404"><ele>449.0</ele><time>2026-04-26T07:02:44Z</time></trkpt><trkpt lat="36.97730176644175" lon="15.032561550936276"><ele>448.0</ele><time>2026-04-26T07:02:45Z</time></trkpt><trkpt lat="36.97746944478491" lon="15.032483923355645"><ele>445.6666666666667</ele><time>2026-04-26T07:02:46Z</time></trkpt><trkpt lat="36.97762836815627" lon="15.03237658347855"><ele>443.33333333333337</ele><time>2026-04-26T07:02:47Z</time></trkpt><trkpt lat="36.97777587595041" lon="15.03225096513423"><ele>441.0</ele><time>2026-04-26T07:02:48Z</time></trkpt><trkpt lat="36.977906098399515" lon="15.032109245466422"><ele>441.0</ele><time>2026-04-26T07:02:49Z</time></trkpt><trkpt lat="36.97800756665494" lon="15.031952888915187"><ele>441.0</ele><time>2026-04-26T07:02:50Z</time></trkpt><trkpt lat="36.97808576161661" lon="15.031779903590367"><ele>441.0</ele><time>2026-04-26T07:02:51Z</time></trkpt><trkpt lat="36.97815383226685" lon="15.031599208439873"><ele>440.66666666666663</ele><time>2026-04-26T07:02:52Z</time></trkpt><trkpt lat="36.97823311455645" lon="15.031407048053964"><ele>440.3333333333333</ele><time>2026-04-26T07:02:53Z</time></trkpt><trkpt lat="36.97831361873374" lon="15.03122620980731"><ele>440.0</ele><time>2026-04-26T07:02:54Z</time></trkpt><trkpt lat="36.978389411967605" lon="15.031063449556788"><ele>440.0</ele><time>2026-04-26T07:02:55Z</time></trkpt><trkpt lat="36.97845639506983" lon="15.030936041904315"><ele>440.0</ele><time>2026-04-26T07:02:56Z</time></trkpt><trkpt lat="36.97852485361522" lon="15.030841767402062"><ele>440.0</ele><time>2026-04-26T07:02:57Z</time></trkpt><trkpt lat="36.97860072079848" lon="15.030781808865285"><ele>440.0</ele><time>2026-04-26T07:02:58Z</time></trkpt><trkpt lat="36.97868409426789" lon="15.030766513431718"><ele>440.0</ele><time>2026-04-26T07:02:59Z</time></trkpt><trkpt lat="36.9787780186851" lon="15.03082235273767"><ele>440.0</ele><time>2026-04-26T07:03:00Z</time></trkpt><trkpt lat="36.97889328354163" lon="15.03087500272362"><ele>440.0</ele><time>2026-04-26T07:03:01Z</time></trkpt><trkpt lat="36.97900731245185" lon="15.030963544054307"><ele>440.0</ele><time>2026-04-26T07:03:02Z</time></trkpt><trkpt lat="36.97913106763269" lon="15.031038736304403"><ele>440.0</ele><time>2026-04-26T07:03:03Z</time></trkpt><trkpt lat="36.97926896399283" lon="15.031078693113262"><ele>439.0</ele><time>2026-04-26T07:03:04Z</time></trkpt><trkpt lat="36.979423952239046" lon="15.031068635350211"><ele>438.0</ele><time>2026-04-26T07:03:05Z</time></trkpt><trkpt lat="36.979581451891704" lon="15.03101055021845"><ele>437.0</ele><time>2026-04-26T07:03:06Z</time></trkpt><trkpt lat="36.979736934597305" lon="15.03090675684408"><ele>437.0</ele><time>2026-04-26T07:03:07Z</time></trkpt><trkpt lat="36.97989653399709" lon="15.03078400541983"><ele>437.0</ele><time>2026-04-26T07:03:08Z</time></trkpt><trkpt lat="36.98006294433877" lon="15.030670150778825"><ele>437.0</ele><time>2026-04-26T07:03:09Z</time></trkpt><trkpt lat="36.98021670861845" lon="15.030567824023237"><ele>437.0</ele><time>2026-04-26T07:03:10Z</time></trkpt><trkpt lat="36.980363616422295" lon="15.030471423182204"><ele>437.0</ele><time>2026-04-26T07:03:11Z</time></trkpt><trkpt lat="36.98051843808486" lon="15.03036935153211"><ele>437.0</ele><time>2026-04-26T07:03:12Z</time></trkpt><trkpt lat="36.98068534232927" lon="15.030259886311551"><ele>436.0</ele><time>2026-04-26T07:03:13Z</time></trkpt><trkpt lat="36.98087399029106" lon="15.030133534236557"><ele>435.0</ele><time>2026-04-26T07:03:14Z</time></trkpt><trkpt lat="36.9810837870075" lon="15.029987566462072"><ele>435.0</ele><time>2026-04-26T07:03:15Z</time></trkpt><trkpt lat="36.981276227337986" lon="15.02985562842433"><ele>435.0</ele><time>2026-04-26T07:03:16Z</time></trkpt><trkpt lat="36.98145872327063" lon="15.029738373045555"><ele>435.0</ele><time>2026-04-26T07:03:17Z</time></trkpt><trkpt lat="36.98163936805066" lon="15.029619103402258"><ele>434.33333333333337</ele><time>2026-04-26T07:03:18Z</time></trkpt><trkpt lat="36.98183152911623" lon="15.029516645032698"><ele>433.6666666666667</ele><time>2026-04-26T07:03:19Z</time></trkpt><trkpt lat="36.98201292187089" lon="15.02937908963563"><ele>433.0</ele><time>2026-04-26T07:03:20Z</time></trkpt><trkpt lat="36.9821876602189" lon="15.029261660382367"><ele>433.0</ele><time>2026-04-26T07:03:21Z</time></trkpt><trkpt lat="36.98234468324024" lon="15.029159003849516"><ele>433.0</ele><time>2026-04-26T07:03:22Z</time></trkpt><trkpt lat="36.982500116280086" lon="15.029055301939682"><ele>433.0</ele><time>2026-04-26T07:03:23Z</time></trkpt><trkpt lat="36.982658908720694" lon="15.028955080621113"><ele>433.33333333333337</ele><time>2026-04-26T07:03:24Z</time></trkpt><trkpt lat="36.98282593264763" lon="15.028883995728767"><ele>433.66666666666663</ele><time>2026-04-26T07:03:25Z</time></trkpt><trkpt lat="36.9829952886282" lon="15.028811713327222"><ele>434.0</ele><time>2026-04-26T07:03:26Z</time></trkpt><trkpt lat="36.98316864433484" lon="15.028747212421711"><ele>434.0</ele><time>2026-04-26T07:03:27Z</time></trkpt><trkpt lat="36.98334024912355" lon="15.028668805996633"><ele>434.0</ele><time>2026-04-26T07:03:28Z</time></trkpt><trkpt lat="36.98352225926102" lon="15.028608924815424"><ele>434.0</ele><time>2026-04-26T07:03:29Z</time></trkpt><trkpt lat="36.983704919706" lon="15.028541434493585"><ele>433.66666666666663</ele><time>2026-04-26T07:03:30Z</time></trkpt><trkpt lat="36.98388515561282" lon="15.028478538100318"><ele>433.33333333333337</ele><time>2026-04-26T07:03:31Z</time></trkpt><trkpt lat="36.98406641792782" lon="15.02841331887671"><ele>433.0</ele><time>2026-04-26T07:03:32Z</time></trkpt><trkpt lat="36.98424418332851" lon="15.02835101604623"><ele>433.33333333333337</ele><time>2026-04-26T07:03:33Z</time></trkpt><trkpt lat="36.9844218440973" lon="15.028286383333056"><ele>433.66666666666663</ele><time>2026-04-26T07:03:34Z</time></trkpt><trkpt lat="36.984594338461655" lon="15.028226345285569"><ele>434.0</ele><time>2026-04-26T07:03:35Z</time></trkpt><trkpt lat="36.98476143570185" lon="15.028166278562969"><ele>434.0</ele><time>2026-04-26T07:03:36Z</time></trkpt><trkpt lat="36.98491623345402" lon="15.028114786470343"><ele>434.0</ele><time>2026-04-26T07:03:37Z</time></trkpt><trkpt lat="36.98507093660639" lon="15.028064893095891"><ele>434.0</ele><time>2026-04-26T07:03:38Z</time></trkpt><trkpt lat="36.98521266321183" lon="15.028013861182707"><ele>432.25</ele><time>2026-04-26T07:03:39Z</time></trkpt><trkpt lat="36.985342689812256" lon="15.027963987232928"><ele>430.5</ele><time>2026-04-26T07:03:40Z</time></trkpt><trkpt lat="36.985470738211205" lon="15.027901757849305"><ele>428.75</ele><time>2026-04-26T07:03:41Z</time></trkpt><trkpt lat="36.985595284927655" lon="15.027812771833391"><ele>427.0</ele><time>2026-04-26T07:03:42Z</time></trkpt><trkpt lat="36.9857051281636" lon="15.027684139694227"><ele>427.0</ele><time>2026-04-26T07:03:43Z</time></trkpt><trkpt lat="36.985800637546646" lon="15.027527148109039"><ele>427.0</ele><time>2026-04-26T07:03:44Z</time></trkpt><trkpt lat="36.98588200730182" lon="15.027368404598876"><ele>427.0</ele><time>2026-04-26T07:03:45Z</time></trkpt><trkpt lat="36.985953832083055" lon="15.027196841877046"><ele>425.25</ele><time>2026-04-26T07:03:46Z</time></trkpt><trkpt lat="36.98601077212785" lon="15.027037890731567"><ele>423.5</ele><time>2026-04-26T07:03:47Z</time></trkpt><trkpt lat="36.986051255709185" lon="15.026915356013514"><ele>421.75</ele><time>2026-04-26T07:03:48Z</time></trkpt><trkpt lat="36.98608996484117" lon="15.026791897973165"><ele>420.0</ele><time>2026-04-26T07:03:49Z</time></trkpt><trkpt lat="36.986131407105006" lon="15.026672658775247"><ele>419.6666666666667</ele><time>2026-04-26T07:03:50Z</time></trkpt><trkpt lat="36.98619051211902" lon="15.026581664221041"><ele>419.33333333333337</ele><time>2026-04-26T07:03:51Z</time></trkpt><trkpt lat="36.98622857516143" lon="15.02648587041645"><ele>419.0</ele><time>2026-04-26T07:03:52Z</time></trkpt><trkpt lat="36.98629410264545" lon="15.026435690263176"><ele>418.6666666666667</ele><time>2026-04-26T07:03:53Z</time></trkpt><trkpt lat="36.98636197787156" lon="15.026421984025438"><ele>418.33333333333337</ele><time>2026-04-26T07:03:54Z</time></trkpt><trkpt lat="36.986439333751925" lon="15.026455023583024"><ele>418.0</ele><time>2026-04-26T07:03:56Z</time></trkpt><trkpt lat="36.98651959909266" lon="15.02647964005643"><ele>418.00000000000006</ele><time>2026-04-26T07:04:00Z</time></trkpt><trkpt lat="36.986574663225866" lon="15.026403213595794"><ele>418.0</ele><time>2026-04-26T07:04:02Z</time></trkpt><trkpt lat="36.98661416045336" lon="15.026297222342217"><ele>418.0</ele><time>2026-04-26T07:04:03Z</time></trkpt><trkpt lat="36.98665628571961" lon="15.026179580991693"><ele>418.0</ele><time>2026-04-26T07:04:04Z</time></trkpt><trkpt lat="36.98667619900976" lon="15.026067234417507"><ele>418.00000000000006</ele><time>2026-04-26T07:04:05Z</time></trkpt><trkpt lat="36.986685475083654" lon="15.025969372480684"><ele>418.0</ele><time>2026-04-26T07:04:06Z</time></trkpt><trkpt lat="36.98668027905166" lon="15.02588815135728"><ele>417.79999999999995</ele><time>2026-04-26T07:04:07Z</time></trkpt><trkpt lat="36.98658683243412" lon="15.025763696361025"><ele>417.6</ele><time>2026-04-26T07:04:09Z</time></trkpt><trkpt lat="36.98657235909567" lon="15.025630732930539"><ele>417.4</ele><time>2026-04-26T07:04:11Z</time></trkpt><trkpt lat="36.98657322587662" lon="15.025546940951939"><ele>417.20000000000005</ele><time>2026-04-26T07:04:12Z</time></trkpt><trkpt lat="36.986584081681194" lon="15.025430526849988"><ele>417.0</ele><time>2026-04-26T07:04:13Z</time></trkpt><trkpt lat="36.98659282262061" lon="15.025309456170602"><ele>417.0</ele><time>2026-04-26T07:04:14Z</time></trkpt><trkpt lat="36.98662525885019" lon="15.02519081927675"><ele>417.0</ele><time>2026-04-26T07:04:15Z</time></trkpt><trkpt lat="36.98665977165338" lon="15.025086547636327"><ele>417.0</ele><time>2026-04-26T07:04:16Z</time></trkpt><trkpt lat="36.98668423985809" lon="15.024990305330004"><ele>417.0</ele><time>2026-04-26T07:04:17Z</time></trkpt><trkpt lat="36.986716610670086" lon="15.02489912303561"><ele>417.0</ele><time>2026-04-26T07:04:18Z</time></trkpt><trkpt lat="36.98678291708693" lon="15.024757310004727"><ele>415.25</ele><time>2026-04-26T07:04:20Z</time></trkpt><trkpt lat="36.98681192459695" lon="15.024683313385667"><ele>413.5</ele><time>2026-04-26T07:04:21Z</time></trkpt><trkpt lat="36.986851444300186" lon="15.024600441932566"><ele>411.75</ele><time>2026-04-26T07:04:23Z</time></trkpt><trkpt lat="36.986891088265125" lon="15.024538775582046"><ele>410.0</ele><time>2026-04-26T07:04:29Z</time></trkpt><trkpt lat="36.987133296111224" lon="15.02465692883893"><ele>410.0</ele><time>2026-04-26T07:07:23Z</time></trkpt><trkpt lat="36.98713699837012" lon="15.024744236489141"><ele>410.0</ele><time>2026-04-26T07:09:06Z</time></trkpt><trkpt lat="36.987182348858795" lon="15.02480107894249"><ele>410.0</ele><time>2026-04-26T07:09:21Z</time></trkpt><trkpt lat="36.9872531843083" lon="15.024805966771693"><ele>410.0</ele><time>2026-04-26T07:09:28Z</time></trkpt><trkpt lat="36.98730432378486" lon="15.024740270958787"><ele>410.0</ele><time>2026-04-26T07:09:34.999Z</time></trkpt><trkpt lat="36.98729514825808" lon="15.024643403965916"><ele>410.0</ele><time>2026-04-26T07:09:43.999Z</time></trkpt><trkpt lat="36.98731657098758" lon="15.024739811795838"><ele>410.0</ele><time>2026-04-26T07:11:30Z</time></trkpt><trkpt lat="36.98728053605608" lon="15.02480557406677"><ele>410.0</ele><time>2026-04-26T07:11:53.999Z</time></trkpt><trkpt lat="36.98721311857846" lon="15.024812029460662"><ele>410.0</ele><time>2026-04-26T07:12:39Z</time></trkpt><trkpt lat="36.98714430559696" lon="15.024801966779629"><ele>410.0</ele><time>2026-04-26T07:12:50Z</time></trkpt><trkpt lat="36.98712967761968" lon="15.024719418007308"><ele>410.0</ele><time>2026-04-26T07:13:01Z</time></trkpt><trkpt lat="36.98710589019225" lon="15.02464503538804"><ele>410.0</ele><time>2026-04-26T07:13:11Z</time></trkpt><trkpt lat="36.98703274089221" lon="15.02463070295239"><ele>410.0</ele><time>2026-04-26T07:13:19Z</time></trkpt><trkpt lat="36.98699027303107" lon="15.024690312264491"><ele>410.0</ele><time>2026-04-26T07:13:33Z</time></trkpt><trkpt lat="36.986939399218194" lon="15.0246411021335"><ele>409.99999999999994</ele><time>2026-04-26T07:22:52Z</time></trkpt><trkpt lat="36.986943895833086" lon="15.024548674346354"><ele>410.0</ele><time>2026-04-26T07:22:55Z</time></trkpt><trkpt lat="36.9868790433712" lon="15.024484271356963"><ele>410.0</ele><time>2026-04-26T07:23:16Z</time></trkpt><trkpt lat="36.986883972047664" lon="15.02436453844375"><ele>410.0</ele><time>2026-04-26T07:23:18Z</time></trkpt><trkpt lat="36.98690217557597" lon="15.02426641888488"><ele>409.99999999999994</ele><time>2026-04-26T07:23:19Z</time></trkpt><trkpt lat="36.986945532489315" lon="15.024171321931773"><ele>410.0</ele><time>2026-04-26T07:23:20Z</time></trkpt><trkpt lat="36.98695902040364" lon="15.024091652318639"><ele>411.6</ele><time>2026-04-26T07:23:21Z</time></trkpt><trkpt lat="36.987005624059385" lon="15.02394808639171"><ele>413.2</ele><time>2026-04-26T07:23:23Z</time></trkpt><trkpt lat="36.98700606900052" lon="15.023833244393652"><ele>414.79999999999995</ele><time>2026-04-26T07:23:24Z</time></trkpt><trkpt lat="36.986948440557995" lon="15.023731814517832"><ele>416.4</ele><time>2026-04-26T07:23:25Z</time></trkpt><trkpt lat="36.98691693921914" lon="15.023629801714339"><ele>418.0</ele><time>2026-04-26T07:23:26Z</time></trkpt><trkpt lat="36.986886440158635" lon="15.02354016743838"><ele>418.00000000000006</ele><time>2026-04-26T07:23:27Z</time></trkpt><trkpt lat="36.98685835165174" lon="15.02345822614917"><ele>418.0</ele><time>2026-04-26T07:23:28Z</time></trkpt><trkpt lat="36.98683105247421" lon="15.023378586965384"><ele>418.0</ele><time>2026-04-26T07:23:29Z</time></trkpt><trkpt lat="36.98679958256003" lon="15.023280242319654"><ele>418.0</ele><time>2026-04-26T07:23:30Z</time></trkpt><trkpt lat="36.98677169808858" lon="15.023182262536883"><ele>418.00000000000006</ele><time>2026-04-26T07:23:31Z</time></trkpt><trkpt lat="36.98674704135578" lon="15.023082826262858"><ele>418.0</ele><time>2026-04-26T07:23:32Z</time></trkpt><trkpt lat="36.98672574146655" lon="15.022975390553867"><ele>419.2</ele><time>2026-04-26T07:23:33Z</time></trkpt><trkpt lat="36.98670929097922" lon="15.022860585330701"><ele>420.4</ele><time>2026-04-26T07:23:34Z</time></trkpt><trkpt lat="36.98669403918279" lon="15.022739157010204"><ele>421.59999999999997</ele><time>2026-04-26T07:23:35Z</time></trkpt><trkpt lat="36.98668494234786" lon="15.022625224530307"><ele>422.79999999999995</ele><time>2026-04-26T07:23:36Z</time></trkpt><trkpt lat="36.986679319001915" lon="15.022519171531844"><ele>424.0</ele><time>2026-04-26T07:23:37Z</time></trkpt><trkpt lat="36.98667902839361" lon="15.022410327078981"><ele>425.00000000000006</ele><time>2026-04-26T07:23:38Z</time></trkpt><trkpt lat="36.98668694383371" lon="15.022300230712311"><ele>426.0</ele><time>2026-04-26T07:23:39Z</time></trkpt><trkpt lat="36.986705665137414" lon="15.022212545892687"><ele>427.0</ele><time>2026-04-26T07:23:40Z</time></trkpt><trkpt lat="36.98673890243219" lon="15.022135427311957"><ele>428.0</ele><time>2026-04-26T07:23:41Z</time></trkpt><trkpt lat="36.98680079572918" lon="15.022055328644361"><ele>429.00000000000006</ele><time>2026-04-26T07:23:42Z</time></trkpt><trkpt lat="36.98687091327103" lon="15.02198473603799"><ele>430.0</ele><time>2026-04-26T07:23:43Z</time></trkpt><trkpt lat="36.98692982079145" lon="15.021933722096732"><ele>430.0</ele><time>2026-04-26T07:23:44Z</time></trkpt><trkpt lat="36.986993220111316" lon="15.021890544492514"><ele>430.0</ele><time>2026-04-26T07:23:45Z</time></trkpt><trkpt lat="36.987069102124465" lon="15.021863394835403"><ele>430.0</ele><time>2026-04-26T07:23:46Z</time></trkpt><trkpt lat="36.9871523915683" lon="15.021817356339264"><ele>430.0</ele><time>2026-04-26T07:23:47.001Z</time></trkpt><trkpt lat="36.98725616089165" lon="15.021790702912973"><ele>430.0</ele><time>2026-04-26T07:23:48.001Z</time></trkpt><trkpt lat="36.98737471495061" lon="15.021781235108191"><ele>430.00000000000006</ele><time>2026-04-26T07:23:49.001Z</time></trkpt><trkpt lat="36.98746403540377" lon="15.021758345167576"><ele>430.0</ele><time>2026-04-26T07:23:50.001Z</time></trkpt><trkpt lat="36.98754362617613" lon="15.02173820782675"><ele>430.0</ele><time>2026-04-26T07:23:51.001Z</time></trkpt><trkpt lat="36.98761297792641" lon="15.02171900767121"><ele>430.0</ele><time>2026-04-26T07:23:52.001Z</time></trkpt><trkpt lat="36.98767843435829" lon="15.02168736444292"><ele>430.00000000000006</ele><time>2026-04-26T07:23:53.001Z</time></trkpt><trkpt lat="36.98773846853477" lon="15.02163878257523"><ele>430.0</ele><time>2026-04-26T07:23:54.001Z</time></trkpt><trkpt lat="36.98779365621638" lon="15.021587123818628"><ele>430.6666666666667</ele><time>2026-04-26T07:23:55.001Z</time></trkpt><trkpt lat="36.987839065296676" lon="15.021511752565942"><ele>431.33333333333337</ele><time>2026-04-26T07:23:56.001Z</time></trkpt><trkpt lat="36.9878839307675" lon="15.021419998756828"><ele>432.0</ele><time>2026-04-26T07:23:57.001Z</time></trkpt><trkpt lat="36.98792058152649" lon="15.021300745134324"><ele>432.66666666666663</ele><time>2026-04-26T07:23:58.001Z</time></trkpt><trkpt lat="36.987930787346706" lon="15.021182315071888"><ele>433.3333333333333</ele><time>2026-04-26T07:23:59.001Z</time></trkpt><trkpt lat="36.9879306990323" lon="15.02106888827921"><ele>434.0</ele><time>2026-04-26T07:24:00.001Z</time></trkpt><trkpt lat="36.98794343262352" lon="15.020943609853935"><ele>435.0</ele><time>2026-04-26T07:24:01.001Z</time></trkpt><trkpt lat="36.987934850362855" lon="15.02079732444932"><ele>436.0</ele><time>2026-04-26T07:24:02.001Z</time></trkpt><trkpt lat="36.98792424517277" lon="15.020641810430366"><ele>437.0</ele><time>2026-04-26T07:24:03.001Z</time></trkpt><trkpt lat="36.98791373934187" lon="15.020487752954494"><ele>438.0</ele><time>2026-04-26T07:24:04.001Z</time></trkpt><trkpt lat="36.98790862557162" lon="15.020354379575313"><ele>438.0</ele><time>2026-04-26T07:24:05.001Z</time></trkpt><trkpt lat="36.987907187202346" lon="15.020234716359452"><ele>437.99999999999994</ele><time>2026-04-26T07:24:06.001Z</time></trkpt><trkpt lat="36.98790795254146" lon="15.020108812167617"><ele>437.99999999999994</ele><time>2026-04-26T07:24:07.001Z</time></trkpt><trkpt lat="36.9879093309344" lon="15.019975100889988"><ele>438.0</ele><time>2026-04-26T07:24:08.001Z</time></trkpt><trkpt lat="36.98791082089434" lon="15.01984079655958"><ele>438.0</ele><time>2026-04-26T07:24:09.001Z</time></trkpt><trkpt lat="36.98791227349301" lon="15.019709859885353"><ele>438.4</ele><time>2026-04-26T07:24:10.001Z</time></trkpt><trkpt lat="36.98791289039269" lon="15.019575975378721"><ele>438.79999999999995</ele><time>2026-04-26T07:24:11.001Z</time></trkpt><trkpt lat="36.98789761860278" lon="15.019439358906247"><ele>439.2</ele><time>2026-04-26T07:24:12.001Z</time></trkpt><trkpt lat="36.98791324767112" lon="15.019303456052825"><ele>439.6</ele><time>2026-04-26T07:24:13Z</time></trkpt><trkpt lat="36.98791276787131" lon="15.019175916494008"><ele>440.0</ele><time>2026-04-26T07:24:14Z</time></trkpt><trkpt lat="36.9879123297425" lon="15.019059972522674"><ele>440.16666666666663</ele><time>2026-04-26T07:24:15Z</time></trkpt><trkpt lat="36.98791195948414" lon="15.018962930874984"><ele>440.3333333333333</ele><time>2026-04-26T07:24:16Z</time></trkpt><trkpt lat="36.98791145833706" lon="15.018831585071611"><ele>440.5</ele><time>2026-04-26T07:24:18Z</time></trkpt><trkpt lat="36.987909974513904" lon="15.018745560538598"><ele>440.66666666666663</ele><time>2026-04-26T07:24:19Z</time></trkpt><trkpt lat="36.987906664568904" lon="15.018662289246143"><ele>440.8333333333333</ele><time>2026-04-26T07:24:20Z</time></trkpt><trkpt lat="36.98789027368992" lon="15.018519007489513"><ele>441.0</ele><time>2026-04-26T07:24:22Z</time></trkpt><trkpt lat="36.98786179884306" lon="15.01838794335692"><ele>440.6</ele><time>2026-04-26T07:24:24Z</time></trkpt><trkpt lat="36.98783524666795" lon="15.018292379280524"><ele>440.20000000000005</ele><time>2026-04-26T07:24:25Z</time></trkpt><trkpt lat="36.9877998041404" lon="15.018190231613051"><ele>439.79999999999995</ele><time>2026-04-26T07:24:25.999Z</time></trkpt><trkpt lat="36.9877605923907" lon="15.018078411937454"><ele>439.4</ele><time>2026-04-26T07:24:27Z</time></trkpt><trkpt lat="36.98771434568548" lon="15.017954386465854"><ele>439.0</ele><time>2026-04-26T07:24:28Z</time></trkpt><trkpt lat="36.98765970206476" lon="15.017824019756475"><ele>439.0</ele><time>2026-04-26T07:24:29Z</time></trkpt><trkpt lat="36.9876047467065" lon="15.017696715511734"><ele>439.0</ele><time>2026-04-26T07:24:30Z</time></trkpt><trkpt lat="36.98755399707011" lon="15.017568630606304"><ele>439.0</ele><time>2026-04-26T07:24:31Z</time></trkpt><trkpt lat="36.987505511652756" lon="15.01744517235369"><ele>439.0</ele><time>2026-04-26T07:24:32Z</time></trkpt><trkpt lat="36.98745539720561" lon="15.01731756623355"><ele>439.2</ele><time>2026-04-26T07:24:33Z</time></trkpt><trkpt lat="36.98740647189066" lon="15.017198407289303"><ele>439.4</ele><time>2026-04-26T07:24:34Z</time></trkpt><trkpt lat="36.987354394526974" lon="15.01707607356204"><ele>439.6</ele><time>2026-04-26T07:24:35Z</time></trkpt><trkpt lat="36.98731687166127" lon="15.016980526891706"><ele>439.8</ele><time>2026-04-26T07:24:36Z</time></trkpt><trkpt lat="36.98728593139704" lon="15.016882899117691"><ele>440.0</ele><time>2026-04-26T07:24:37Z</time></trkpt><trkpt lat="36.98725855172854" lon="15.016755378618289"><ele>440.2</ele><time>2026-04-26T07:24:38Z</time></trkpt><trkpt lat="36.98723550478344" lon="15.016612176910602"><ele>440.4</ele><time>2026-04-26T07:24:39Z</time></trkpt><trkpt lat="36.98722136135892" lon="15.016484042022872"><ele>440.6</ele><time>2026-04-26T07:24:40Z</time></trkpt><trkpt lat="36.987220462113534" lon="15.016353765185864"><ele>440.8</ele><time>2026-04-26T07:24:41Z</time></trkpt><trkpt lat="36.98723393077055" lon="15.01621211048762"><ele>441.0</ele><time>2026-04-26T07:24:42Z</time></trkpt><trkpt lat="36.987235280899824" lon="15.016057966541416"><ele>441.0</ele><time>2026-04-26T07:24:43Z</time></trkpt><trkpt lat="36.9872570862901" lon="15.015914361940233"><ele>441.0</ele><time>2026-04-26T07:24:44Z</time></trkpt><trkpt lat="36.98726959185545" lon="15.015788813127509"><ele>441.0</ele><time>2026-04-26T07:24:45Z</time></trkpt><trkpt lat="36.98728415850124" lon="15.015642539930962"><ele>441.0</ele><time>2026-04-26T07:24:46Z</time></trkpt><trkpt lat="36.98730141401672" lon="15.015504136307209"><ele>441.0</ele><time>2026-04-26T07:24:47Z</time></trkpt><trkpt lat="36.98733319515218" lon="15.0153733823409"><ele>441.4</ele><time>2026-04-26T07:24:48Z</time></trkpt><trkpt lat="36.9873481486048" lon="15.015255227710655"><ele>441.8</ele><time>2026-04-26T07:24:49.001Z</time></trkpt><trkpt lat="36.98736169750266" lon="15.015171032427196"><ele>442.19999999999993</ele><time>2026-04-26T07:24:50.001Z</time></trkpt><trkpt lat="36.9873866311866" lon="15.015060898968507"><ele>442.59999999999997</ele><time>2026-04-26T07:24:51.001Z</time></trkpt><trkpt lat="36.98747509184063" lon="15.014933320836498"><ele>443.0</ele><time>2026-04-26T07:24:53.001Z</time></trkpt><trkpt lat="36.98754434030051" lon="15.014830101860417"><ele>443.59999999999997</ele><time>2026-04-26T07:24:54.001Z</time></trkpt><trkpt lat="36.987597189113096" lon="15.014720398567206"><ele>444.19999999999993</ele><time>2026-04-26T07:24:55.001Z</time></trkpt><trkpt lat="36.987681611392155" lon="15.014625491224873"><ele>444.8</ele><time>2026-04-26T07:24:56.001Z</time></trkpt><trkpt lat="36.98772594958695" lon="15.014536247343445"><ele>445.4</ele><time>2026-04-26T07:24:57.001Z</time></trkpt><trkpt lat="36.987784748243854" lon="15.014450304837725"><ele>446.0</ele><time>2026-04-26T07:24:58.001Z</time></trkpt><trkpt lat="36.9878097564329" lon="15.014372637610595"><ele>446.0</ele><time>2026-04-26T07:24:59.001Z</time></trkpt><trkpt lat="36.98781820285514" lon="15.01427763010843"><ele>446.0</ele><time>2026-04-26T07:25:00.001Z</time></trkpt><trkpt lat="36.98781440625775" lon="15.014172908534965"><ele>446.0</ele><time>2026-04-26T07:25:01.001Z</time></trkpt><trkpt lat="36.98781971870361" lon="15.014028134019691"><ele>446.0</ele><time>2026-04-26T07:25:02.001Z</time></trkpt><trkpt lat="36.98782583390784" lon="15.0138781476897"><ele>446.0</ele><time>2026-04-26T07:25:03.001Z</time></trkpt><trkpt lat="36.98784515147863" lon="15.013721626064362"><ele>445.75</ele><time>2026-04-26T07:25:04.001Z</time></trkpt><trkpt lat="36.98785129789039" lon="15.01356925225396"><ele>445.5</ele><time>2026-04-26T07:25:05.001Z</time></trkpt><trkpt lat="36.98784132344125" lon="15.013400344248733"><ele>445.25</ele><time>2026-04-26T07:25:06.001Z</time></trkpt><trkpt lat="36.987844767391834" lon="15.013235096365767"><ele>445.0</ele><time>2026-04-26T07:25:07.001Z</time></trkpt><trkpt lat="36.987860062230624" lon="15.013077399844288"><ele>445.0</ele><time>2026-04-26T07:25:08.001Z</time></trkpt><trkpt lat="36.98786185016828" lon="15.012929755168082"><ele>445.0</ele><time>2026-04-26T07:25:09.001Z</time></trkpt><trkpt lat="36.987864687744676" lon="15.012780613311705"><ele>445.0</ele><time>2026-04-26T07:25:10.001Z</time></trkpt><trkpt lat="36.98785385403386" lon="15.012626089889288"><ele>445.0</ele><time>2026-04-26T07:25:11.001Z</time></trkpt><trkpt lat="36.98786504794559" lon="15.012476260949265"><ele>445.8</ele><time>2026-04-26T07:25:12.001Z</time></trkpt><trkpt lat="36.98786263334072" lon="15.012338211051546"><ele>446.6</ele><time>2026-04-26T07:25:13.001Z</time></trkpt><trkpt lat="36.9878330947938" lon="15.012215695066745"><ele>447.4</ele><time>2026-04-26T07:25:14.001Z</time></trkpt><trkpt lat="36.987774558645825" lon="15.012092607185016"><ele>448.2</ele><time>2026-04-26T07:25:15.001Z</time></trkpt><trkpt lat="36.98770001465294" lon="15.011977836983858"><ele>449.0</ele><time>2026-04-26T07:25:16.001Z</time></trkpt><trkpt lat="36.98763157520761" lon="15.011864169719574"><ele>449.0</ele><time>2026-04-26T07:25:17.001Z</time></trkpt><trkpt lat="36.987584675215324" lon="15.011744809146046"><ele>449.0</ele><time>2026-04-26T07:25:18.001Z</time></trkpt><trkpt lat="36.98753581116652" lon="15.011656954906188"><ele>449.0</ele><time>2026-04-26T07:25:19.001Z</time></trkpt><trkpt lat="36.98747838554719" lon="15.01155370731232"><ele>449.0</ele><time>2026-04-26T07:25:20.001Z</time></trkpt><trkpt lat="36.98741304347983" lon="15.011436226561974"><ele>449.0</ele><time>2026-04-26T07:25:21.001Z</time></trkpt><trkpt lat="36.98735074359793" lon="15.011324215368134"><ele>449.79999999999995</ele><time>2026-04-26T07:25:22.001Z</time></trkpt><trkpt lat="36.98728596991644" lon="15.011229212632426"><ele>450.59999999999997</ele><time>2026-04-26T07:25:23.001Z</time></trkpt><trkpt lat="36.98722572715337" lon="15.01112574817453"><ele>451.4</ele><time>2026-04-26T07:25:24.001Z</time></trkpt><trkpt lat="36.98717739910876" lon="15.011014921054416"><ele>452.2</ele><time>2026-04-26T07:25:25.001Z</time></trkpt><trkpt lat="36.98711860396639" lon="15.01091179670958"><ele>453.0</ele><time>2026-04-26T07:25:26.001Z</time></trkpt><trkpt lat="36.98705727426216" lon="15.010804226859161"><ele>453.4</ele><time>2026-04-26T07:25:27.001Z</time></trkpt><trkpt lat="36.98700706781063" lon="15.010716166777591"><ele>453.79999999999995</ele><time>2026-04-26T07:25:28.001Z</time></trkpt><trkpt lat="36.98693786785731" lon="15.010610918452866"><ele>454.2</ele><time>2026-04-26T07:25:29.001Z</time></trkpt><trkpt lat="36.98687799203404" lon="15.010508733214731"><ele>454.6</ele><time>2026-04-26T07:25:30.001Z</time></trkpt><trkpt lat="36.986826732238406" lon="15.01042769658941"><ele>455.0</ele><time>2026-04-26T07:25:31.001Z</time></trkpt><trkpt lat="36.986777111612106" lon="15.01031737439067"><ele>454.99999999999994</ele><time>2026-04-26T07:25:32.001Z</time></trkpt><trkpt lat="36.98670531461589" lon="15.010224465045658"><ele>455.0</ele><time>2026-04-26T07:25:33.001Z</time></trkpt><trkpt lat="36.98666196813422" lon="15.010147366738654"><ele>455.0</ele><time>2026-04-26T07:25:34.001Z</time></trkpt><trkpt lat="36.98662035768513" lon="15.01007833096431"><ele>455.0</ele><time>2026-04-26T07:25:35.001Z</time></trkpt><trkpt lat="36.98658051742905" lon="15.010010836419665"><ele>454.99999999999994</ele><time>2026-04-26T07:25:36.001Z</time></trkpt><trkpt lat="36.986536143291644" lon="15.00989444530541"><ele>455.0</ele><time>2026-04-26T07:25:38.001Z</time></trkpt><trkpt lat="36.98646501856273" lon="15.00968013661676"><ele>455.6</ele><time>2026-04-26T07:25:40.001Z</time></trkpt><trkpt lat="36.98653700483522" lon="15.009566419089948"><ele>456.2</ele><time>2026-04-26T07:25:41.001Z</time></trkpt><trkpt lat="36.98658651727599" lon="15.009472058912149"><ele>456.79999999999995</ele><time>2026-04-26T07:25:42.001Z</time></trkpt><trkpt lat="36.98663893037744" lon="15.009372170003276"><ele>457.4</ele><time>2026-04-26T07:25:43.001Z</time></trkpt><trkpt lat="36.98670236488285" lon="15.00925856069572"><ele>458.0</ele><time>2026-04-26T07:25:44.001Z</time></trkpt><trkpt lat="36.986754170251515" lon="15.009180135460312"><ele>457.99999999999994</ele><time>2026-04-26T07:25:45.001Z</time></trkpt><trkpt lat="36.98678222112456" lon="15.009080859246206"><ele>458.0</ele><time>2026-04-26T07:25:46.001Z</time></trkpt><trkpt lat="36.98678978543038" lon="15.008996344492319"><ele>458.0</ele><time>2026-04-26T07:25:47.001Z</time></trkpt><trkpt lat="36.98674357415421" lon="15.008856143968975"><ele>458.0</ele><time>2026-04-26T07:25:49.001Z</time></trkpt><trkpt lat="36.986702892105875" lon="15.008781659342283"><ele>457.99999999999994</ele><time>2026-04-26T07:25:52.001Z</time></trkpt><trkpt lat="36.98674984021184" lon="15.008840099456748"><ele>458.0</ele><time>2026-04-26T07:26:14.001Z</time></trkpt><trkpt lat="36.98669562265224" lon="15.008681970015711"><ele>458.0</ele><time>2026-04-26T07:26:18.001Z</time></trkpt><trkpt lat="36.98666615888646" lon="15.00858807013532"><ele>458.0</ele><time>2026-04-26T07:26:20Z</time></trkpt><trkpt lat="36.986950344144354" lon="15.008432051277246"><ele>458.0</ele><time>2026-04-26T07:26:22Z</time></trkpt><trkpt lat="36.98706119290595" lon="15.008351247592783"><ele>458.79999999999995</ele><time>2026-04-26T07:26:24Z</time></trkpt><trkpt lat="36.9871555352251" lon="15.008257453580333"><ele>459.59999999999997</ele><time>2026-04-26T07:26:26Z</time></trkpt><trkpt lat="36.987227492135965" lon="15.008170277808206"><ele>460.40000000000003</ele><time>2026-04-26T07:26:28Z</time></trkpt><trkpt lat="36.98731196719976" lon="15.008108604623589"><ele>461.20000000000005</ele><time>2026-04-26T07:26:31Z</time></trkpt><trkpt lat="36.98740987513718" lon="15.008030427333647"><ele>462.0</ele><time>2026-04-26T07:26:33Z</time></trkpt><trkpt lat="36.98748129444585" lon="15.007942999338093"><ele>461.6666666666667</ele><time>2026-04-26T07:26:34Z</time></trkpt><trkpt lat="36.9875666895531" lon="15.007885569915883"><ele>461.33333333333337</ele><time>2026-04-26T07:26:35Z</time></trkpt><trkpt lat="36.987622570073626" lon="15.00782194116901"><ele>461.0</ele><time>2026-04-26T07:26:36Z</time></trkpt><trkpt lat="36.987673475878104" lon="15.007773700629162"><ele>460.6666666666667</ele><time>2026-04-26T07:26:37Z</time></trkpt><trkpt lat="36.98772504851615" lon="15.007723020904898"><ele>460.33333333333337</ele><time>2026-04-26T07:26:38Z</time></trkpt><trkpt lat="36.9877764746246" lon="15.007666257865731"><ele>460.0</ele><time>2026-04-26T07:26:39Z</time></trkpt><trkpt lat="36.98784275720322" lon="15.007598767984915"><ele>460.00000000000006</ele><time>2026-04-26T07:26:40Z</time></trkpt><trkpt lat="36.98792754312839" lon="15.007519301283462"><ele>460.0</ele><time>2026-04-26T07:26:41Z</time></trkpt><trkpt lat="36.98798880926017" lon="15.007469136027568"><ele>460.0</ele><time>2026-04-26T07:26:42Z</time></trkpt><trkpt lat="36.98806461361174" lon="15.00737290760287"><ele>460.0</ele><time>2026-04-26T07:26:44Z</time></trkpt><trkpt lat="36.9880816506531" lon="15.007264318245284"><ele>460.00000000000006</ele><time>2026-04-26T07:26:46.001Z</time></trkpt><trkpt lat="36.98808595246629" lon="15.007180770264906"><ele>460.0</ele><time>2026-04-26T07:26:48.001Z</time></trkpt><trkpt lat="36.988087677880614" lon="15.00709603114362"><ele>458.8571428571428</ele><time>2026-04-26T07:26:50.001Z</time></trkpt><trkpt lat="36.988067761324785" lon="15.007005595491695"><ele>457.71428571428567</ele><time>2026-04-26T07:26:53.001Z</time></trkpt><trkpt lat="36.98801816400749" lon="15.00695580821507"><ele>456.57142857142856</ele><time>2026-04-26T07:28:53.001Z</time></trkpt><trkpt lat="36.988035406278456" lon="15.007035388626676"><ele>455.4285714285714</ele><time>2026-04-26T07:28:58.001Z</time></trkpt><trkpt lat="36.98808717991663" lon="15.00710665673999"><ele>454.2857142857142</ele><time>2026-04-26T07:29:02.001Z</time></trkpt><trkpt lat="36.988076854897486" lon="15.007215307789698"><ele>453.14285714285717</ele><time>2026-04-26T07:29:05.001Z</time></trkpt><trkpt lat="36.98806353007235" lon="15.007300701117526"><ele>452.0</ele><time>2026-04-26T07:30:01.001Z</time></trkpt><trkpt lat="36.9880469039411" lon="15.007387218095923"><ele>452.0</ele><time>2026-04-26T07:30:03.001Z</time></trkpt><trkpt lat="36.98800120864418" lon="15.007485395345128"><ele>452.00000000000006</ele><time>2026-04-26T07:30:05.001Z</time></trkpt><trkpt lat="36.98788891050185" lon="15.007552178489139"><ele>452.00000000000006</ele><time>2026-04-26T07:30:07.001Z</time></trkpt><trkpt lat="36.987822546911595" lon="15.007612357787856"><ele>452.0</ele><time>2026-04-26T07:30:08.001Z</time></trkpt><trkpt lat="36.987764203624046" lon="15.007672366285588"><ele>452.0</ele><time>2026-04-26T07:30:09.001Z</time></trkpt><trkpt lat="36.98770621788285" lon="15.007742227604238"><ele>453.3333333333333</ele><time>2026-04-26T07:30:10.001Z</time></trkpt><trkpt lat="36.98764743232101" lon="15.007801946617045"><ele>454.66666666666663</ele><time>2026-04-26T07:30:11.001Z</time></trkpt><trkpt lat="36.9875795414088" lon="15.007872065260685"><ele>456.0</ele><time>2026-04-26T07:30:12.001Z</time></trkpt><trkpt lat="36.98749517550143" lon="15.007940437163677"><ele>457.33333333333337</ele><time>2026-04-26T07:30:13.001Z</time></trkpt><trkpt lat="36.98741957622835" lon="15.008004728533091"><ele>458.6666666666667</ele><time>2026-04-26T07:30:14.001Z</time></trkpt><trkpt lat="36.987360076617165" lon="15.00806448753197"><ele>460.0</ele><time>2026-04-26T07:30:15.001Z</time></trkpt><trkpt lat="36.98729732784014" lon="15.00812584459344"><ele>460.33333333333337</ele><time>2026-04-26T07:30:16.001Z</time></trkpt><trkpt lat="36.9872266732379" lon="15.00817632154371"><ele>460.6666666666667</ele><time>2026-04-26T07:30:17.001Z</time></trkpt><trkpt lat="36.9871718493503" lon="15.008221278899299"><ele>461.0</ele><time>2026-04-26T07:30:18.001Z</time></trkpt><trkpt lat="36.987096613896185" lon="15.008324037344702"><ele>461.33333333333337</ele><time>2026-04-26T07:30:20.001Z</time></trkpt><trkpt lat="36.98703695966016" lon="15.008382723970328"><ele>461.6666666666667</ele><time>2026-04-26T07:30:21.001Z</time></trkpt><trkpt lat="36.98696771890396" lon="15.00842543946639"><ele>462.0</ele><time>2026-04-26T07:30:22.001Z</time></trkpt><trkpt lat="36.98690628593069" lon="15.0084786621617"><ele>461.20000000000005</ele><time>2026-04-26T07:30:23.001Z</time></trkpt><trkpt lat="36.98684810597174" lon="15.008548856017601"><ele>460.40000000000003</ele><time>2026-04-26T07:30:24.001Z</time></trkpt><trkpt lat="36.9868126650537" lon="15.008664325045197"><ele>459.59999999999997</ele><time>2026-04-26T07:30:26.001Z</time></trkpt><trkpt lat="36.98681332125828" lon="15.008757742755988"><ele>458.79999999999995</ele><time>2026-04-26T07:30:27.001Z</time></trkpt><trkpt lat="36.98676867252991" lon="15.00887814119262"><ele>458.0</ele><time>2026-04-26T07:30:29.001Z</time></trkpt><trkpt lat="36.98668175640689" lon="15.00881965389075"><ele>458.66666666666663</ele><time>2026-04-26T07:30:33Z</time></trkpt><trkpt lat="36.98663640013919" lon="15.008763928782352"><ele>459.3333333333333</ele><time>2026-04-26T07:30:34Z</time></trkpt><trkpt lat="36.98654910934853" lon="15.008799755366615"><ele>460.0</ele><time>2026-04-26T07:30:38Z</time></trkpt><trkpt lat="36.986459498535154" lon="15.008864364004598"><ele>460.66666666666663</ele><time>2026-04-26T07:30:40Z</time></trkpt><trkpt lat="36.98639376290646" lon="15.008916689276184"><ele>461.3333333333333</ele><time>2026-04-26T07:30:41Z</time></trkpt><trkpt lat="36.986319065629964" lon="15.008980060980875"><ele>462.0</ele><time>2026-04-26T07:30:42Z</time></trkpt><trkpt lat="36.98623224861339" lon="15.009046977773325"><ele>462.0</ele><time>2026-04-26T07:30:43Z</time></trkpt><trkpt lat="36.98613309608261" lon="15.009118234507739"><ele>462.0</ele><time>2026-04-26T07:30:44Z</time></trkpt><trkpt lat="36.98603654570236" lon="15.009185836164383"><ele>462.0</ele><time>2026-04-26T07:30:45Z</time></trkpt><trkpt lat="36.98591288233309" lon="15.009257899090265"><ele>462.0</ele><time>2026-04-26T07:30:46Z</time></trkpt><trkpt lat="36.985801498533235" lon="15.009351941701228"><ele>461.8</ele><time>2026-04-26T07:30:47Z</time></trkpt><trkpt lat="36.985727122191534" lon="15.009411609055203"><ele>461.6</ele><time>2026-04-26T07:30:48Z</time></trkpt><trkpt lat="36.98562842176459" lon="15.009459022448608"><ele>461.40000000000003</ele><time>2026-04-26T07:30:49Z</time></trkpt><trkpt lat="36.985531529328284" lon="15.009496804742236"><ele>461.20000000000005</ele><time>2026-04-26T07:30:50Z</time></trkpt><trkpt lat="36.985438069512384" lon="15.00952526766402"><ele>461.0</ele><time>2026-04-26T07:30:51Z</time></trkpt><trkpt lat="36.98530772251711" lon="15.009561480883681"><ele>461.0</ele><time>2026-04-26T07:30:52Z</time></trkpt><trkpt lat="36.98516153489547" lon="15.00962057388936"><ele>461.0</ele><time>2026-04-26T07:30:53Z</time></trkpt><trkpt lat="36.98501264440419" lon="15.009661061903836"><ele>461.0</ele><time>2026-04-26T07:30:54Z</time></trkpt><trkpt lat="36.98486951431363" lon="15.009702794644198"><ele>461.0</ele><time>2026-04-26T07:30:55Z</time></trkpt><trkpt lat="36.98471521334876" lon="15.009745504425446"><ele>461.0</ele><time>2026-04-26T07:30:56Z</time></trkpt><trkpt lat="36.98456015584382" lon="15.009791924722371"><ele>461.0</ele><time>2026-04-26T07:30:57Z</time></trkpt><trkpt lat="36.98441909270228" lon="15.009830438246684"><ele>461.0</ele><time>2026-04-26T07:30:58Z</time></trkpt><trkpt lat="36.984289677232745" lon="15.009873026418978"><ele>461.0</ele><time>2026-04-26T07:30:59.001Z</time></trkpt><trkpt lat="36.98416194630365" lon="15.00991226954873"><ele>461.0</ele><time>2026-04-26T07:31:00.001Z</time></trkpt><trkpt lat="36.984014493567344" lon="15.009953916164667"><ele>461.0</ele><time>2026-04-26T07:31:01.001Z</time></trkpt><trkpt lat="36.98384719682042" lon="15.010005620663286"><ele>463.3333333333333</ele><time>2026-04-26T07:31:02.001Z</time></trkpt><trkpt lat="36.98370522456645" lon="15.010050004654326"><ele>465.66666666666663</ele><time>2026-04-26T07:31:03.001Z</time></trkpt><trkpt lat="36.98358057639606" lon="15.010100199689944"><ele>468.0</ele><time>2026-04-26T07:31:04.001Z</time></trkpt><trkpt lat="36.983415323481886" lon="15.01018541895757"><ele>467.33333333333337</ele><time>2026-04-26T07:31:05.001Z</time></trkpt><trkpt lat="36.98322715268316" lon="15.010277851540874"><ele>466.6666666666667</ele><time>2026-04-26T07:31:06.001Z</time></trkpt><trkpt lat="36.983007267835916" lon="15.010384792348077"><ele>466.0</ele><time>2026-04-26T07:31:07.001Z</time></trkpt><trkpt lat="36.98282484260043" lon="15.010471569041332"><ele>466.0</ele><time>2026-04-26T07:31:08.001Z</time></trkpt><trkpt lat="36.982677432226815" lon="15.01055102298359"><ele>466.0</ele><time>2026-04-26T07:31:09.001Z</time></trkpt><trkpt lat="36.982554779612045" lon="15.010615267533886"><ele>466.0</ele><time>2026-04-26T07:31:10.001Z</time></trkpt><trkpt lat="36.982431825732526" lon="15.010672170409082"><ele>466.0</ele><time>2026-04-26T07:31:11.001Z</time></trkpt><trkpt lat="36.98232316399114" lon="15.010727917586133"><ele>465.50000000000006</ele><time>2026-04-26T07:31:12.001Z</time></trkpt><trkpt lat="36.98222311498612" lon="15.010778853811802"><ele>465.0</ele><time>2026-04-26T07:31:13.001Z</time></trkpt><trkpt lat="36.982127787079556" lon="15.010793961745996"><ele>464.5</ele><time>2026-04-26T07:31:14.001Z</time></trkpt><trkpt lat="36.98204832232023" lon="15.010788021417389"><ele>464.0</ele><time>2026-04-26T07:31:16.001Z</time></trkpt><trkpt lat="36.98209772591771" lon="15.010702782724014"><ele>463.50000000000006</ele><time>2026-04-26T07:31:18.001Z</time></trkpt><trkpt lat="36.98210052018835" lon="15.010614203393093"><ele>463.0</ele><time>2026-04-26T07:31:19.001Z</time></trkpt><trkpt lat="36.98210124670797" lon="15.010475107721318"><ele>463.0</ele><time>2026-04-26T07:31:20.001Z</time></trkpt><trkpt lat="36.98208569510074" lon="15.010289686716934"><ele>463.0</ele><time>2026-04-26T07:31:21.001Z</time></trkpt><trkpt lat="36.98208459280145" lon="15.010075906569911"><ele>463.0</ele><time>2026-04-26T07:31:22.001Z</time></trkpt><trkpt lat="36.98208254861167" lon="15.009896270891332"><ele>464.59999999999997</ele><time>2026-04-26T07:31:23.001Z</time></trkpt><trkpt lat="36.98207893364273" lon="15.00976086889715"><ele>466.19999999999993</ele><time>2026-04-26T07:31:24.001Z</time></trkpt><trkpt lat="36.98207735261819" lon="15.009641329061555"><ele>467.8</ele><time>2026-04-26T07:31:25.001Z</time></trkpt><trkpt lat="36.98209036054523" lon="15.009542517462362"><ele>469.4</ele><time>2026-04-26T07:31:26.001Z</time></trkpt><trkpt lat="36.98207277427334" lon="15.009421103595992"><ele>471.0</ele><time>2026-04-26T07:31:27.001Z</time></trkpt><trkpt lat="36.982078675305225" lon="15.00928923822919"><ele>471.0</ele><time>2026-04-26T07:31:28.001Z</time></trkpt><trkpt lat="36.982070072158194" lon="15.009200557579403"><ele>471.0</ele><time>2026-04-26T07:31:30.001Z</time></trkpt><trkpt lat="36.9820698465951" lon="15.0090761703021"><ele>471.0</ele><time>2026-04-26T07:31:31.001Z</time></trkpt><trkpt lat="36.98208368423272" lon="15.008976118159943"><ele>471.0</ele><time>2026-04-26T07:31:32.001Z</time></trkpt><trkpt lat="36.98206569140894" lon="15.00879319653294"><ele>471.0</ele><time>2026-04-26T07:31:34.001Z</time></trkpt><trkpt lat="36.98206335202116" lon="15.008601190941112"><ele>473.20000000000005</ele><time>2026-04-26T07:31:35.001Z</time></trkpt><trkpt lat="36.982076095179515" lon="15.008394897844619"><ele>475.40000000000003</ele><time>2026-04-26T07:31:36.001Z</time></trkpt><trkpt lat="36.982077668815656" lon="15.008245680450068"><ele>477.6</ele><time>2026-04-26T07:31:37.001Z</time></trkpt><trkpt lat="36.98208532765132" lon="15.008134806593594"><ele>479.8</ele><time>2026-04-26T07:31:38.001Z</time></trkpt><trkpt lat="36.98209087775131" lon="15.00804516975177"><ele>482.0</ele><time>2026-04-26T07:31:39.001Z</time></trkpt><trkpt lat="36.98209852287235" lon="15.00792169679589"><ele>482.0</ele><time>2026-04-26T07:31:40.001Z</time></trkpt><trkpt lat="36.982089355299074" lon="15.007802309899196"><ele>482.0</ele><time>2026-04-26T07:31:41.001Z</time></trkpt><trkpt lat="36.9821021722309" lon="15.007650064466699"><ele>482.0</ele><time>2026-04-26T07:31:42.001Z</time></trkpt><trkpt lat="36.98211463459716" lon="15.007477601035147"><ele>482.0</ele><time>2026-04-26T07:31:43.001Z</time></trkpt><trkpt lat="36.98212194527993" lon="15.007348177340031"><ele>484.5</ele><time>2026-04-26T07:31:44.001Z</time></trkpt><trkpt lat="36.98213066970397" lon="15.007228151416518"><ele>487.0</ele><time>2026-04-26T07:31:45.001Z</time></trkpt><trkpt lat="36.98213368468303" lon="15.007120927601013"><ele>489.5</ele><time>2026-04-26T07:31:46.001Z</time></trkpt><trkpt lat="36.982157840033466" lon="15.006972550720192"><ele>492.0</ele><time>2026-04-26T07:31:47.001Z</time></trkpt><trkpt lat="36.98215456502081" lon="15.006776143574431"><ele>495.33333333333337</ele><time>2026-04-26T07:31:48.001Z</time></trkpt><trkpt lat="36.98217004760193" lon="15.006572085242736"><ele>498.6666666666667</ele><time>2026-04-26T07:31:49.001Z</time></trkpt><trkpt lat="36.98217841706537" lon="15.006350980334815"><ele>502.0</ele><time>2026-04-26T07:31:50.001Z</time></trkpt><trkpt lat="36.98220493764857" lon="15.00618847586317"><ele>502.0</ele><time>2026-04-26T07:31:51.001Z</time></trkpt><trkpt lat="36.98220272510575" lon="15.006071697986869"><ele>502.00000000000006</ele><time>2026-04-26T07:31:52.001Z</time></trkpt><trkpt lat="36.98220835175932" lon="15.00598309583685"><ele>502.00000000000006</ele><time>2026-04-26T07:31:53.001Z</time></trkpt><trkpt lat="36.98219590582836" lon="15.005899193422142"><ele>502.0</ele><time>2026-04-26T07:31:54.001Z</time></trkpt><trkpt lat="36.98214773132907" lon="15.005782314314196"><ele>502.0</ele><time>2026-04-26T07:31:55.001Z</time></trkpt><trkpt lat="36.98210009521207" lon="15.005641232583747"><ele>502.5</ele><time>2026-04-26T07:31:56.001Z</time></trkpt><trkpt lat="36.98207284717262" lon="15.005495796126114"><ele>503.0</ele><time>2026-04-26T07:31:57.001Z</time></trkpt><trkpt lat="36.98201496875615" lon="15.005356784366294"><ele>503.5</ele><time>2026-04-26T07:31:58.001Z</time></trkpt><trkpt lat="36.98196879256293" lon="15.005191766546911"><ele>504.0</ele><time>2026-04-26T07:31:59.001Z</time></trkpt><trkpt lat="36.98192476071974" lon="15.005032053326758"><ele>503.75</ele><time>2026-04-26T07:32:00.001Z</time></trkpt><trkpt lat="36.9818814884163" lon="15.004835413309614"><ele>503.5</ele><time>2026-04-26T07:32:01.001Z</time></trkpt><trkpt lat="36.98182086852736" lon="15.004681603407004"><ele>503.25</ele><time>2026-04-26T07:32:02.001Z</time></trkpt><trkpt lat="36.981773305779924" lon="15.004514333206"><ele>503.0</ele><time>2026-04-26T07:32:03.001Z</time></trkpt><trkpt lat="36.981722246597286" lon="15.004349511041909"><ele>503.0</ele><time>2026-04-26T07:32:04.001Z</time></trkpt><trkpt lat="36.981686222488875" lon="15.004244514341936"><ele>502.99999999999994</ele><time>2026-04-26T07:32:05.001Z</time></trkpt><trkpt lat="36.981651927191834" lon="15.004129878788515"><ele>502.99999999999994</ele><time>2026-04-26T07:32:06.001Z</time></trkpt><trkpt lat="36.981617889266765" lon="15.004002153311665"><ele>503.0</ele><time>2026-04-26T07:32:07.001Z</time></trkpt><trkpt lat="36.9815802492767" lon="15.003870653391493"><ele>503.0</ele><time>2026-04-26T07:32:08.001Z</time></trkpt><trkpt lat="36.98156583037847" lon="15.003761117800062"><ele>503.79999999999995</ele><time>2026-04-26T07:32:09.001Z</time></trkpt><trkpt lat="36.98152164697988" lon="15.003661721926456"><ele>504.59999999999997</ele><time>2026-04-26T07:32:10.001Z</time></trkpt><trkpt lat="36.98148555513483" lon="15.003543311708153"><ele>505.40000000000003</ele><time>2026-04-26T07:32:11.001Z</time></trkpt><trkpt lat="36.981444244374586" lon="15.00346528914014"><ele>506.20000000000005</ele><time>2026-04-26T07:32:12.001Z</time></trkpt><trkpt lat="36.98135157580113" lon="15.003384892642767"><ele>507.0</ele><time>2026-04-26T07:32:13.001Z</time></trkpt><trkpt lat="36.981223385570814" lon="15.003270053511795"><ele>507.0</ele><time>2026-04-26T07:32:14.001Z</time></trkpt><trkpt lat="36.9811310469656" lon="15.003167853694336"><ele>507.00000000000006</ele><time>2026-04-26T07:32:15.001Z</time></trkpt><trkpt lat="36.98106104597711" lon="15.003092152398919"><ele>507.00000000000006</ele><time>2026-04-26T07:32:16.001Z</time></trkpt><trkpt lat="36.981007880919194" lon="15.003034010266953"><ele>507.0</ele><time>2026-04-26T07:32:17.001Z</time></trkpt><trkpt lat="36.98095183774252" lon="15.002975178692534"><ele>507.0</ele><time>2026-04-26T07:32:18.001Z</time></trkpt><trkpt lat="36.98088425536456" lon="15.00287404345697"><ele>511.0</ele><time>2026-04-26T07:32:19.001Z</time></trkpt><trkpt lat="36.98077880207467" lon="15.002757037746017"><ele>515.0</ele><time>2026-04-26T07:32:20.001Z</time></trkpt><trkpt lat="36.98065979532452" lon="15.00262499375434"><ele>519.0</ele><time>2026-04-26T07:32:21.001Z</time></trkpt><trkpt lat="36.98051170661781" lon="15.002457646258044"><ele>521.3333333333334</ele><time>2026-04-26T07:32:22.001Z</time></trkpt><trkpt lat="36.98035843561559" lon="15.00227914426185"><ele>523.6666666666667</ele><time>2026-04-26T07:32:23.001Z</time></trkpt><trkpt lat="36.98025712731162" lon="15.002153670270916"><ele>526.0</ele><time>2026-04-26T07:32:24.001Z</time></trkpt><trkpt lat="36.98017511361568" lon="15.00203426259103"><ele>526.0</ele><time>2026-04-26T07:32:25.001Z</time></trkpt><trkpt lat="36.98011176950234" lon="15.001920845316643"><ele>526.0</ele><time>2026-04-26T07:32:26.001Z</time></trkpt><trkpt lat="36.98007411675862" lon="15.001821814978221"><ele>526.0</ele><time>2026-04-26T07:32:27.001Z</time></trkpt><trkpt lat="36.9800429757577" lon="15.001722804508843"><ele>526.0</ele><time>2026-04-26T07:32:28.001Z</time></trkpt><trkpt lat="36.980014389730734" lon="15.001629373577194"><ele>526.0</ele><time>2026-04-26T07:32:29.001Z</time></trkpt><trkpt lat="36.979971340309675" lon="15.001535859023015"><ele>526.0</ele><time>2026-04-26T07:32:31.001Z</time></trkpt><trkpt lat="36.97996985941574" lon="15.001449118019908"><ele>526.0</ele><time>2026-04-26T07:32:41Z</time></trkpt><trkpt lat="36.98000548309488" lon="15.001599395381513"><ele>526.0</ele><time>2026-04-26T07:32:49Z</time></trkpt><trkpt lat="36.98003566942013" lon="15.001756345302987"><ele>526.0</ele><time>2026-04-26T07:32:51Z</time></trkpt><trkpt lat="36.98009179937868" lon="15.001868740901633"><ele>526.0</ele><time>2026-04-26T07:32:53Z</time></trkpt><trkpt lat="36.980130858459276" lon="15.001958033456429"><ele>526.0</ele><time>2026-04-26T07:32:55Z</time></trkpt><trkpt lat="36.9801769042885" lon="15.00203692645891"><ele>526.0</ele><time>2026-04-26T07:32:57Z</time></trkpt><trkpt lat="36.980232999291985" lon="15.00212025311128"><ele>526.0</ele><time>2026-04-26T07:32:59Z</time></trkpt><trkpt lat="36.98029764773036" lon="15.002209790914875"><ele>526.0</ele><time>2026-04-26T07:33:01Z</time></trkpt><trkpt lat="36.98035052165651" lon="15.002269927683628"><ele>526.0</ele><time>2026-04-26T07:33:03Z</time></trkpt><trkpt lat="36.980406490280465" lon="15.002335109541782"><ele>526.0</ele><time>2026-04-26T07:33:05.001Z</time></trkpt><trkpt lat="36.980486471509515" lon="15.002428256585382"><ele>526.0</ele><time>2026-04-26T07:33:07.001Z</time></trkpt><trkpt lat="36.980561541121645" lon="15.002543229807515"><ele>524.8333333333334</ele><time>2026-04-26T07:33:09.001Z</time></trkpt><trkpt lat="36.980623123790245" lon="15.002584303575562"><ele>523.6666666666667</ele><time>2026-04-26T07:33:10.001Z</time></trkpt><trkpt lat="36.980674626006646" lon="15.002642171838254"><ele>522.5</ele><time>2026-04-26T07:33:11.001Z</time></trkpt><trkpt lat="36.980711073917064" lon="15.002716003509443"><ele>521.3333333333334</ele><time>2026-04-26T07:33:12.001Z</time></trkpt><trkpt lat="36.98079876674473" lon="15.002807016876078"><ele>520.1666666666666</ele><time>2026-04-26T07:33:14.001Z</time></trkpt><trkpt lat="36.98086260845598" lon="15.00289027604739"><ele>519.0</ele><time>2026-04-26T07:33:16.001Z</time></trkpt><trkpt lat="36.98093484907223" lon="15.002958370303563"><ele>517.2</ele><time>2026-04-26T07:33:18.001Z</time></trkpt><trkpt lat="36.98098211188851" lon="15.003018130533524"><ele>515.4</ele><time>2026-04-26T07:33:20.001Z</time></trkpt><trkpt lat="36.981032382017226" lon="15.003072569979233"><ele>513.6</ele><time>2026-04-26T07:33:24.001Z</time></trkpt><trkpt lat="36.981079548831524" lon="15.003127173922895"><ele>511.8</ele><time>2026-04-26T07:33:28.001Z</time></trkpt><trkpt lat="36.981164112809694" lon="15.0032179187972"><ele>510.0</ele><time>2026-04-26T07:33:57.001Z</time></trkpt><trkpt lat="36.98127399569799" lon="15.003343813406426"><ele>510.0</ele><time>2026-04-26T07:33:59.001Z</time></trkpt><trkpt lat="36.981340085935926" lon="15.003430590611694"><ele>510.0</ele><time>2026-04-26T07:34:00.001Z</time></trkpt><trkpt lat="36.98141016498134" lon="15.003499274932963"><ele>510.0</ele><time>2026-04-26T07:34:01.001Z</time></trkpt><trkpt lat="36.981492487060294" lon="15.003610021442487"><ele>510.0</ele><time>2026-04-26T07:34:03.001Z</time></trkpt><trkpt lat="36.98152728190533" lon="15.003728486057888"><ele>510.0</ele><time>2026-04-26T07:34:05.001Z</time></trkpt><trkpt lat="36.98154657996074" lon="15.003834042098754"><ele>510.0</ele><time>2026-04-26T07:34:06.001Z</time></trkpt><trkpt lat="36.981588621582304" lon="15.003965929635674"><ele>510.0</ele><time>2026-04-26T07:34:07.001Z</time></trkpt><trkpt lat="36.98162877670954" lon="15.004070266071192"><ele>510.0</ele><time>2026-04-26T07:34:08.001Z</time></trkpt><trkpt lat="36.98165725708249" lon="15.004167398154094"><ele>510.0</ele><time>2026-04-26T07:34:09.001Z</time></trkpt><trkpt lat="36.98168394400486" lon="15.004246128615108"><ele>510.0</ele><time>2026-04-26T07:34:10.001Z</time></trkpt><trkpt lat="36.9817199298725" lon="15.004370795301815"><ele>508.25</ele><time>2026-04-26T07:34:11.001Z</time></trkpt><trkpt lat="36.98174310927189" lon="15.004497530729754"><ele>506.5</ele><time>2026-04-26T07:34:12.001Z</time></trkpt><trkpt lat="36.981795461015444" lon="15.004613718419176"><ele>504.75</ele><time>2026-04-26T07:34:13.001Z</time></trkpt><trkpt lat="36.981843504615206" lon="15.004770886707076"><ele>503.0</ele><time>2026-04-26T07:34:14.001Z</time></trkpt><trkpt lat="36.98188552448927" lon="15.00494150942236"><ele>503.25</ele><time>2026-04-26T07:34:15.001Z</time></trkpt><trkpt lat="36.981935272336194" lon="15.005100614902963"><ele>503.5</ele><time>2026-04-26T07:34:16.001Z</time></trkpt><trkpt lat="36.981974314703685" lon="15.005250980659694"><ele>503.75</ele><time>2026-04-26T07:34:17.001Z</time></trkpt><trkpt lat="36.982015016108285" lon="15.005379758400718"><ele>504.0</ele><time>2026-04-26T07:34:18.001Z</time></trkpt><trkpt lat="36.9820506168295" lon="15.005523687638542"><ele>504.0</ele><time>2026-04-26T07:34:19.001Z</time></trkpt><trkpt lat="36.982084843997335" lon="15.005669823803315"><ele>504.0</ele><time>2026-04-26T07:34:20.001Z</time></trkpt><trkpt lat="36.982133214310586" lon="15.005803546918374"><ele>504.0</ele><time>2026-04-26T07:34:21.001Z</time></trkpt><trkpt lat="36.982155459952814" lon="15.005908566056021"><ele>504.0</ele><time>2026-04-26T07:34:22.001Z</time></trkpt><trkpt lat="36.982186461971914" lon="15.006009266489265"><ele>504.0</ele><time>2026-04-26T07:34:23.001Z</time></trkpt><trkpt lat="36.982195746517164" lon="15.006101395707745"><ele>503.5</ele><time>2026-04-26T07:34:24.001Z</time></trkpt><trkpt lat="36.982167243752194" lon="15.006242335800263"><ele>503.0</ele><time>2026-04-26T07:34:25.001Z</time></trkpt><trkpt lat="36.982164714277246" lon="15.006438775904495"><ele>502.5</ele><time>2026-04-26T07:34:26.001Z</time></trkpt><trkpt lat="36.98215537293944" lon="15.006637839691946"><ele>502.0</ele><time>2026-04-26T07:34:27.001Z</time></trkpt><trkpt lat="36.98214625774138" lon="15.006820408886242"><ele>499.5</ele><time>2026-04-26T07:34:28.001Z</time></trkpt><trkpt lat="36.98212265335904" lon="15.007000154761949"><ele>497.0</ele><time>2026-04-26T07:34:29.001Z</time></trkpt><trkpt lat="36.98211153631497" lon="15.007175951029692"><ele>494.5</ele><time>2026-04-26T07:34:30.001Z</time></trkpt><trkpt lat="36.98210126625864" lon="15.007337368387178"><ele>492.0</ele><time>2026-04-26T07:34:32.001Z</time></trkpt><trkpt lat="36.98209537806627" lon="15.00743246573984"><ele>490.0</ele><time>2026-04-26T07:34:33.001Z</time></trkpt><trkpt lat="36.982101548928654" lon="15.007565104505755"><ele>488.00000000000006</ele><time>2026-04-26T07:34:34.001Z</time></trkpt><trkpt lat="36.98209091355787" lon="15.007703266253566"><ele>486.00000000000006</ele><time>2026-04-26T07:34:35.001Z</time></trkpt><trkpt lat="36.98208712837836" lon="15.007824971874888"><ele>484.0</ele><time>2026-04-26T07:34:36.001Z</time></trkpt><trkpt lat="36.982077353310906" lon="15.007973821678032"><ele>482.0</ele><time>2026-04-26T07:34:37.001Z</time></trkpt><trkpt lat="36.982066482607515" lon="15.008097497613193"><ele>482.0</ele><time>2026-04-26T07:34:38.001Z</time></trkpt><trkpt lat="36.98205809446232" lon="15.008225374370083"><ele>482.00000000000006</ele><time>2026-04-26T07:34:39.001Z</time></trkpt><trkpt lat="36.98205513209494" lon="15.008354265753232"><ele>482.00000000000006</ele><time>2026-04-26T07:34:40.001Z</time></trkpt><trkpt lat="36.982054119470924" lon="15.008464926529461"><ele>482.0</ele><time>2026-04-26T07:34:41.001Z</time></trkpt><trkpt lat="36.98205527789707" lon="15.008607026496497"><ele>482.0</ele><time>2026-04-26T07:34:42.001Z</time></trkpt><trkpt lat="36.98206145781585" lon="15.008788333235174"><ele>482.20000000000005</ele><time>2026-04-26T07:34:43.001Z</time></trkpt><trkpt lat="36.98205007755302" lon="15.008941070601587"><ele>482.40000000000003</ele><time>2026-04-26T07:34:44.001Z</time></trkpt><trkpt lat="36.98206327274196" lon="15.009085171386342"><ele>482.59999999999997</ele><time>2026-04-26T07:34:45.001Z</time></trkpt><trkpt lat="36.98205299140418" lon="15.00920080640528"><ele>482.79999999999995</ele><time>2026-04-26T07:34:46.001Z</time></trkpt><trkpt lat="36.98205439058084" lon="15.00931950886131"><ele>483.0</ele><time>2026-04-26T07:34:47.001Z</time></trkpt><trkpt lat="36.98206553826255" lon="15.009450136624345"><ele>480.0</ele><time>2026-04-26T07:34:48.001Z</time></trkpt><trkpt lat="36.98206636751164" lon="15.00959735638368"><ele>477.0</ele><time>2026-04-26T07:34:49.001Z</time></trkpt><trkpt lat="36.982073781479706" lon="15.009774633807867"><ele>474.0</ele><time>2026-04-26T07:34:50.001Z</time></trkpt><trkpt lat="36.98206186094714" lon="15.009954068336244"><ele>471.0</ele><time>2026-04-26T07:34:51.001Z</time></trkpt><trkpt lat="36.98206400934645" lon="15.010137007457283"><ele>469.4</ele><time>2026-04-26T07:34:52.001Z</time></trkpt><trkpt lat="36.9820658595892" lon="15.010294557820567"><ele>467.8</ele><time>2026-04-26T07:34:53.001Z</time></trkpt><trkpt lat="36.982082328725035" lon="15.010441076727128"><ele>466.19999999999993</ele><time>2026-04-26T07:34:54.001Z</time></trkpt><trkpt lat="36.98207918147145" lon="15.010574338272827"><ele>464.59999999999997</ele><time>2026-04-26T07:34:55.001Z</time></trkpt><trkpt lat="36.98207721588247" lon="15.010692337552271"><ele>463.0</ele><time>2026-04-26T07:34:56Z</time></trkpt><trkpt lat="36.98208223618568" lon="15.010782016813565"><ele>463.0</ele><time>2026-04-26T07:34:57Z</time></trkpt><trkpt lat="36.98211166276543" lon="15.010873432868953"><ele>462.99999999999994</ele><time>2026-04-26T07:34:59Z</time></trkpt><trkpt lat="36.98218159303179" lon="15.010830548790482"><ele>462.99999999999994</ele><time>2026-04-26T07:35:01Z</time></trkpt><trkpt lat="36.98226251711296" lon="15.01076358160959"><ele>463.0</ele><time>2026-04-26T07:35:02Z</time></trkpt><trkpt lat="36.982397675536966" lon="15.010718789468166"><ele>463.0</ele><time>2026-04-26T07:35:03.001Z</time></trkpt><trkpt lat="36.9825667679104" lon="15.010635426369369"><ele>463.75</ele><time>2026-04-26T07:35:04.001Z</time></trkpt><trkpt lat="36.98270527235535" lon="15.010544846701679"><ele>464.5</ele><time>2026-04-26T07:35:05.001Z</time></trkpt><trkpt lat="36.98284288696597" lon="15.010480823052818"><ele>465.25</ele><time>2026-04-26T07:35:06.001Z</time></trkpt><trkpt lat="36.982975069097456" lon="15.010418312570325"><ele>466.0</ele><time>2026-04-26T07:35:07.001Z</time></trkpt><trkpt lat="36.983138209420765" lon="15.010355378085153"><ele>466.0</ele><time>2026-04-26T07:35:08.001Z</time></trkpt><trkpt lat="36.98331376644583" lon="15.010270273516358"><ele>466.0</ele><time>2026-04-26T07:35:09.001Z</time></trkpt><trkpt lat="36.9834703261144" lon="15.010194378255042"><ele>466.0</ele><time>2026-04-26T07:35:10.001Z</time></trkpt><trkpt lat="36.98360656059651" lon="15.01012833610675"><ele>466.5</ele><time>2026-04-26T07:35:11.001Z</time></trkpt><trkpt lat="36.98373499288599" lon="15.01007235172903"><ele>467.0</ele><time>2026-04-26T07:35:12.001Z</time></trkpt><trkpt lat="36.98386431878159" lon="15.010026525740741"><ele>467.5</ele><time>2026-04-26T07:35:13.001Z</time></trkpt><trkpt lat="36.98401279811677" lon="15.009979756486752"><ele>468.0</ele><time>2026-04-26T07:35:14.001Z</time></trkpt><trkpt lat="36.984189974013255" lon="15.009925819221083"><ele>466.25</ele><time>2026-04-26T07:35:15.001Z</time></trkpt><trkpt lat="36.98434277253538" lon="15.009880846339566"><ele>464.5</ele><time>2026-04-26T07:35:16.001Z</time></trkpt><trkpt lat="36.984479632279076" lon="15.009840564690968"><ele>462.75</ele><time>2026-04-26T07:35:17.001Z</time></trkpt><trkpt lat="36.98459055823671" lon="15.009807916122652"><ele>461.0</ele><time>2026-04-26T07:35:18.001Z</time></trkpt><trkpt lat="36.98467865668018" lon="15.009781986244837"><ele>461.0</ele><time>2026-04-26T07:35:19.001Z</time></trkpt><trkpt lat="36.98477641872272" lon="15.009735146450437"><ele>461.0</ele><time>2026-04-26T07:35:20.001Z</time></trkpt><trkpt lat="36.98487383581518" lon="15.009705833053069"><ele>461.0</ele><time>2026-04-26T07:35:21.001Z</time></trkpt><trkpt lat="36.9849760591492" lon="15.009676369517242"><ele>461.0</ele><time>2026-04-26T07:35:22.001Z</time></trkpt><trkpt lat="36.98509140912848" lon="15.009664152907314"><ele>461.0</ele><time>2026-04-26T07:35:23.001Z</time></trkpt><trkpt lat="36.98521109299445" lon="15.00963090213785"><ele>461.0</ele><time>2026-04-26T07:35:24.001Z</time></trkpt><trkpt lat="36.98532736446071" lon="15.009577425123506"><ele>461.0</ele><time>2026-04-26T07:35:25.001Z</time></trkpt><trkpt lat="36.98543593010649" lon="15.00955146346284"><ele>461.0</ele><time>2026-04-26T07:35:26.001Z</time></trkpt><trkpt lat="36.98554821076184" lon="15.009520843954723"><ele>461.0</ele><time>2026-04-26T07:35:27.001Z</time></trkpt><trkpt lat="36.985662474670875" lon="15.009481485658894"><ele>461.0</ele><time>2026-04-26T07:35:28.001Z</time></trkpt><trkpt lat="36.985774811135194" lon="15.009413920768168"><ele>461.0</ele><time>2026-04-26T07:35:29.001Z</time></trkpt><trkpt lat="36.98587557909421" lon="15.009330693399637"><ele>461.0</ele><time>2026-04-26T07:35:30.001Z</time></trkpt><trkpt lat="36.98597306829325" lon="15.009244809098435"><ele>461.0</ele><time>2026-04-26T07:35:31.001Z</time></trkpt><trkpt lat="36.98611294286309" lon="15.009162404516633"><ele>461.25</ele><time>2026-04-26T07:35:32.001Z</time></trkpt><trkpt lat="36.98624844319797" lon="15.009065244042622"><ele>461.5</ele><time>2026-04-26T07:35:33.001Z</time></trkpt><trkpt lat="36.98635514059156" lon="15.008984659089913"><ele>461.75</ele><time>2026-04-26T07:35:34.001Z</time></trkpt><trkpt lat="36.98643470810037" lon="15.008899508057562"><ele>462.0</ele><time>2026-04-26T07:35:35.001Z</time></trkpt><trkpt lat="36.98650497318712" lon="15.008834227247403"><ele>462.0</ele><time>2026-04-26T07:35:36.001Z</time></trkpt><trkpt lat="36.98657716478804" lon="15.008805466927935"><ele>462.00000000000006</ele><time>2026-04-26T07:35:37.001Z</time></trkpt><trkpt lat="36.986652622546245" lon="15.00875279316366"><ele>462.00000000000006</ele><time>2026-04-26T07:35:39.001Z</time></trkpt><trkpt lat="36.98672405051734" lon="15.008801859841807"><ele>462.0</ele><time>2026-04-26T07:35:41.001Z</time></trkpt><trkpt lat="36.98674151558688" lon="15.008914864585334"><ele>462.0</ele><time>2026-04-26T07:35:43.001Z</time></trkpt><trkpt lat="36.986755920298" lon="15.009071980323807"><ele>462.0</ele><time>2026-04-26T07:35:45.001Z</time></trkpt><trkpt lat="36.98672076829207" lon="15.009217983357859"><ele>462.0</ele><time>2026-04-26T07:35:47.001Z</time></trkpt><trkpt lat="36.986656791085196" lon="15.009262210467812"><ele>462.0</ele><time>2026-04-26T07:35:48.001Z</time></trkpt><trkpt lat="36.98660927354448" lon="15.009352770734973"><ele>462.0</ele><time>2026-04-26T07:35:49.001Z</time></trkpt><trkpt lat="36.98656150107622" lon="15.009443815794988"><ele>462.0</ele><time>2026-04-26T07:35:50.001Z</time></trkpt><trkpt lat="36.98652530290911" lon="15.009512802344918"><ele>462.0</ele><time>2026-04-26T07:35:51.001Z</time></trkpt><trkpt lat="36.98648972743768" lon="15.009580604273653"><ele>462.0</ele><time>2026-04-26T07:35:52.001Z</time></trkpt><trkpt lat="36.98643074267624" lon="15.00967570589699"><ele>462.0</ele><time>2026-04-26T07:35:53.001Z</time></trkpt><trkpt lat="36.98639215350266" lon="15.009803810035146"><ele>462.0</ele><time>2026-04-26T07:35:55.001Z</time></trkpt><trkpt lat="36.98641166959249" lon="15.009940116501738"><ele>462.0</ele><time>2026-04-26T07:35:56.001Z</time></trkpt><trkpt lat="36.98656984547434" lon="15.01002268297107"><ele>461.0</ele><time>2026-04-26T07:35:57.001Z</time></trkpt><trkpt lat="36.98663942587399" lon="15.01013131811699"><ele>460.0</ele><time>2026-04-26T07:35:59.001Z</time></trkpt><trkpt lat="36.98671703955446" lon="15.010262256256814"><ele>459.0</ele><time>2026-04-26T07:36:00.001Z</time></trkpt><trkpt lat="36.98680129507302" lon="15.01040681340056"><ele>458.0</ele><time>2026-04-26T07:36:01.001Z</time></trkpt><trkpt lat="36.986893240360004" lon="15.010557245531416"><ele>457.25</ele><time>2026-04-26T07:36:02.001Z</time></trkpt><trkpt lat="36.98696585056145" lon="15.010715609052088"><ele>456.5</ele><time>2026-04-26T07:36:03.001Z</time></trkpt><trkpt lat="36.987052640143446" lon="15.010832079463729"><ele>455.75</ele><time>2026-04-26T07:36:04.001Z</time></trkpt><trkpt lat="36.98712271638438" lon="15.010966751195499"><ele>455.0</ele><time>2026-04-26T07:36:05.001Z</time></trkpt><trkpt lat="36.98719687077836" lon="15.011096760910238"><ele>454.5</ele><time>2026-04-26T07:36:06.001Z</time></trkpt><trkpt lat="36.9872715299339" lon="15.011254730713334"><ele>454.0</ele><time>2026-04-26T07:36:07.001Z</time></trkpt><trkpt lat="36.98734697544316" lon="15.011390376615314"><ele>453.5</ele><time>2026-04-26T07:36:08.001Z</time></trkpt><trkpt lat="36.987419084390204" lon="15.011520023997011"><ele>453.0</ele><time>2026-04-26T07:36:09.001Z</time></trkpt><trkpt lat="36.987500337931245" lon="15.011634562410118"><ele>452.2</ele><time>2026-04-26T07:36:10.001Z</time></trkpt><trkpt lat="36.98756990875454" lon="15.011765048731567"><ele>451.4</ele><time>2026-04-26T07:36:11.001Z</time></trkpt><trkpt lat="36.98763746515809" lon="15.01188756524617"><ele>450.59999999999997</ele><time>2026-04-26T07:36:12.001Z</time></trkpt><trkpt lat="36.98769810230872" lon="15.011992935417956"><ele>449.79999999999995</ele><time>2026-04-26T07:36:13.001Z</time></trkpt><trkpt lat="36.98775515871641" lon="15.012094484981253"><ele>449.0</ele><time>2026-04-26T07:36:14.001Z</time></trkpt><trkpt lat="36.98779572306168" lon="15.012211820764879"><ele>449.0</ele><time>2026-04-26T07:36:15.001Z</time></trkpt><trkpt lat="36.987827944159115" lon="15.01231794923351"><ele>449.0</ele><time>2026-04-26T07:36:16.001Z</time></trkpt><trkpt lat="36.987844182453415" lon="15.012443484042523"><ele>449.0</ele><time>2026-04-26T07:36:17.001Z</time></trkpt><trkpt lat="36.98783809517488" lon="15.012599466627691"><ele>449.0</ele><time>2026-04-26T07:36:18.001Z</time></trkpt><trkpt lat="36.98783103325487" lon="15.012788103621883"><ele>448.0</ele><time>2026-04-26T07:36:19.001Z</time></trkpt><trkpt lat="36.98782790993386" lon="15.012979189254246"><ele>447.0</ele><time>2026-04-26T07:36:20.001Z</time></trkpt><trkpt lat="36.98783604139033" lon="15.013151934933198"><ele>446.0</ele><time>2026-04-26T07:36:21.001Z</time></trkpt><trkpt lat="36.98783943317438" lon="15.013304865110499"><ele>445.0</ele><time>2026-04-26T07:36:22.001Z</time></trkpt><trkpt lat="36.987820467541944" lon="15.013480200101352"><ele>445.0</ele><time>2026-04-26T07:36:23.001Z</time></trkpt><trkpt lat="36.9878300959821" lon="15.013662398332878"><ele>445.0</ele><time>2026-04-26T07:36:24.001Z</time></trkpt><trkpt lat="36.987806819577585" lon="15.01383258650638"><ele>445.0</ele><time>2026-04-26T07:36:25.001Z</time></trkpt><trkpt lat="36.987799584410496" lon="15.013989092031935"><ele>445.0</ele><time>2026-04-26T07:36:26.001Z</time></trkpt><trkpt lat="36.98779177852224" lon="15.014141515769449"><ele>445.2</ele><time>2026-04-26T07:36:27.001Z</time></trkpt><trkpt lat="36.98778221236345" lon="15.014286484816967"><ele>445.4</ele><time>2026-04-26T07:36:28.001Z</time></trkpt><trkpt lat="36.98778908797802" lon="15.014398628518016"><ele>445.6</ele><time>2026-04-26T07:36:29.001Z</time></trkpt><trkpt lat="36.987751457285974" lon="15.014478202666455"><ele>445.8</ele><time>2026-04-26T07:36:30.001Z</time></trkpt><trkpt lat="36.9877217198892" lon="15.014551037104985"><ele>446.0</ele><time>2026-04-26T07:36:31.001Z</time></trkpt><trkpt lat="36.98763405368379" lon="15.014631599866759"><ele>446.0</ele><time>2026-04-26T07:36:32.001Z</time></trkpt><trkpt lat="36.98757822025351" lon="15.014737531054857"><ele>446.0</ele><time>2026-04-26T07:36:33.001Z</time></trkpt><trkpt lat="36.98749327930577" lon="15.014850948290011"><ele>446.0</ele><time>2026-04-26T07:36:34.001Z</time></trkpt><trkpt lat="36.987413402807746" lon="15.01496574646015"><ele>446.0</ele><time>2026-04-26T07:36:35.002Z</time></trkpt><trkpt lat="36.987354182502" lon="15.015063611565584"><ele>446.0</ele><time>2026-04-26T07:36:36.001Z</time></trkpt><trkpt lat="36.98732198749478" lon="15.015152380987585"><ele>445.25</ele><time>2026-04-26T07:36:37.001Z</time></trkpt><trkpt lat="36.987304524977766" lon="15.015256970105455"><ele>444.5</ele><time>2026-04-26T07:36:38.001Z</time></trkpt><trkpt lat="36.98728774819545" lon="15.01540416865422"><ele>443.75</ele><time>2026-04-26T07:36:39.001Z</time></trkpt><trkpt lat="36.98727356140415" lon="15.015577902454904"><ele>443.0</ele><time>2026-04-26T07:36:40.001Z</time></trkpt><trkpt lat="36.98725734452416" lon="15.015775570369058"><ele>442.5</ele><time>2026-04-26T07:36:41.001Z</time></trkpt><trkpt lat="36.987243535919575" lon="15.015957918274733"><ele>442.0</ele><time>2026-04-26T07:36:42.001Z</time></trkpt><trkpt lat="36.98722256318459" lon="15.01611848720525"><ele>441.5</ele><time>2026-04-26T07:36:43.001Z</time></trkpt><trkpt lat="36.9872062670653" lon="15.016244556113971"><ele>441.0</ele><time>2026-04-26T07:36:44.001Z</time></trkpt><trkpt lat="36.98719418442969" lon="15.016371846968203"><ele>441.0</ele><time>2026-04-26T07:36:45.001Z</time></trkpt><trkpt lat="36.98718669646237" lon="15.016524919750106"><ele>441.0</ele><time>2026-04-26T07:36:46.001Z</time></trkpt><trkpt lat="36.987212315774144" lon="15.016680426287033"><ele>441.0</ele><time>2026-04-26T07:36:47.001Z</time></trkpt><trkpt lat="36.9872528801946" lon="15.01684749764751"><ele>441.0</ele><time>2026-04-26T07:36:48.001Z</time></trkpt><trkpt lat="36.987296400410024" lon="15.016980701142465"><ele>440.75</ele><time>2026-04-26T07:36:49.001Z</time></trkpt><trkpt lat="36.987330613271475" lon="15.017107588117412"><ele>440.5</ele><time>2026-04-26T07:36:50.001Z</time></trkpt><trkpt lat="36.987389630634446" lon="15.017249213823046"><ele>440.25</ele><time>2026-04-26T07:36:51.001Z</time></trkpt><trkpt lat="36.987481124580675" lon="15.017441555845533"><ele>440.0</ele><time>2026-04-26T07:36:52.001Z</time></trkpt><trkpt lat="36.98756175322671" lon="15.01766617654314"><ele>439.75</ele><time>2026-04-26T07:36:53.001Z</time></trkpt><trkpt lat="36.98763400176189" lon="15.017841074109734"><ele>439.5</ele><time>2026-04-26T07:36:54.001Z</time></trkpt><trkpt lat="36.98769756160431" lon="15.017996979209357"><ele>439.25</ele><time>2026-04-26T07:36:55.001Z</time></trkpt><trkpt lat="36.98774812626551" lon="15.018137048383062"><ele>439.0</ele><time>2026-04-26T07:36:56.001Z</time></trkpt><trkpt lat="36.98779433557757" lon="15.018261609368064"><ele>439.5</ele><time>2026-04-26T07:36:57.001Z</time></trkpt><trkpt lat="36.987838018536564" lon="15.018401569211669"><ele>440.0</ele><time>2026-04-26T07:36:58.001Z</time></trkpt><trkpt lat="36.987862474075776" lon="15.01856078938477"><ele>440.5</ele><time>2026-04-26T07:36:59.001Z</time></trkpt><trkpt lat="36.98788326891544" lon="15.018734349283918"><ele>441.0</ele><time>2026-04-26T07:37:00.001Z</time></trkpt><trkpt lat="36.98788493312806" lon="15.01892444188371"><ele>441.0</ele><time>2026-04-26T07:37:01.001Z</time></trkpt><trkpt lat="36.98788713347579" lon="15.019143174212612"><ele>441.0</ele><time>2026-04-26T07:37:02.001Z</time></trkpt><trkpt lat="36.98788924118568" lon="15.019342342867494"><ele>441.0</ele><time>2026-04-26T07:37:03.001Z</time></trkpt><trkpt lat="36.987887724857835" lon="15.019557241768787"><ele>440.66666666666663</ele><time>2026-04-26T07:37:04.001Z</time></trkpt><trkpt lat="36.98788448471511" lon="15.019767577738955"><ele>440.3333333333333</ele><time>2026-04-26T07:37:05.001Z</time></trkpt><trkpt lat="36.98787834344941" lon="15.019964960640701"><ele>440.0</ele><time>2026-04-26T07:37:06.001Z</time></trkpt><trkpt lat="36.98787517722414" lon="15.020139718305403"><ele>439.5</ele><time>2026-04-26T07:37:07.001Z</time></trkpt><trkpt lat="36.98788315078251" lon="15.02029910604065"><ele>439.0</ele><time>2026-04-26T07:37:08.001Z</time></trkpt><trkpt lat="36.98788476327772" lon="15.020450104212454"><ele>438.5</ele><time>2026-04-26T07:37:09.001Z</time></trkpt><trkpt lat="36.98789391705872" lon="15.020596294291634"><ele>438.0</ele><time>2026-04-26T07:37:10.001Z</time></trkpt><trkpt lat="36.98790002611249" lon="15.020735095628908"><ele>437.2</ele><time>2026-04-26T07:37:11.001Z</time></trkpt><trkpt lat="36.98790691167404" lon="15.020876308712472"><ele>436.4</ele><time>2026-04-26T07:37:12.001Z</time></trkpt><trkpt lat="36.987904338504904" lon="15.021008119315333"><ele>435.59999999999997</ele><time>2026-04-26T07:37:13.001Z</time></trkpt><trkpt lat="36.98791041281421" lon="15.021143570233342"><ele>434.79999999999995</ele><time>2026-04-26T07:37:14.001Z</time></trkpt><trkpt lat="36.98790629336754" lon="15.02129060690638"><ele>434.0</ele><time>2026-04-26T07:37:15.001Z</time></trkpt><trkpt lat="36.98787389495434" lon="15.021424097822397"><ele>434.0</ele><time>2026-04-26T07:37:16.001Z</time></trkpt><trkpt lat="36.98780577280227" lon="15.021538151583272"><ele>434.0</ele><time>2026-04-26T07:37:17.001Z</time></trkpt><trkpt lat="36.987727075126394" lon="15.021637726903057"><ele>434.0</ele><time>2026-04-26T07:37:18.001Z</time></trkpt><trkpt lat="36.98762609150715" lon="15.021678687743991"><ele>434.0</ele><time>2026-04-26T07:37:19.001Z</time></trkpt><trkpt lat="36.98750866727408" lon="15.021704648069989"><ele>432.66666666666663</ele><time>2026-04-26T07:37:20.001Z</time></trkpt><trkpt lat="36.98733246668876" lon="15.02174975747153"><ele>431.33333333333337</ele><time>2026-04-26T07:37:21.001Z</time></trkpt><trkpt lat="36.98717211315678" lon="15.021811047710367"><ele>430.0</ele><time>2026-04-26T07:37:22.001Z</time></trkpt><trkpt lat="36.98706717608777" lon="15.02183862169348"><ele>430.0</ele><time>2026-04-26T07:37:23.001Z</time></trkpt><trkpt lat="36.986967301124366" lon="15.021869499820054"><ele>430.0</ele><time>2026-04-26T07:37:24.001Z</time></trkpt><trkpt lat="36.98687989572817" lon="15.021931127099434"><ele>430.0</ele><time>2026-04-26T07:37:25.001Z</time></trkpt><trkpt lat="36.986793925645934" lon="15.022021772173373"><ele>430.0</ele><time>2026-04-26T07:37:26.001Z</time></trkpt><trkpt lat="36.98671656282772" lon="15.022115791473945"><ele>430.0</ele><time>2026-04-26T07:37:27.001Z</time></trkpt><trkpt lat="36.9866620795158" lon="15.022204781444119"><ele>427.5</ele><time>2026-04-26T07:37:28.001Z</time></trkpt><trkpt lat="36.986626751287545" lon="15.02233649953483"><ele>425.0</ele><time>2026-04-26T07:37:29.001Z</time></trkpt><trkpt lat="36.98662835186726" lon="15.022527778265099"><ele>422.5</ele><time>2026-04-26T07:37:30.001Z</time></trkpt><trkpt lat="36.986651542334286" lon="15.022717238798933"><ele>420.0</ele><time>2026-04-26T07:37:31.001Z</time></trkpt><trkpt lat="36.986673730799495" lon="15.022883449892047"><ele>419.5</ele><time>2026-04-26T07:37:32.001Z</time></trkpt><trkpt lat="36.9867061529969" lon="15.02304830645446"><ele>419.0</ele><time>2026-04-26T07:37:33.001Z</time></trkpt><trkpt lat="36.986742690390294" lon="15.023209385590459"><ele>418.5</ele><time>2026-04-26T07:37:34.001Z</time></trkpt><trkpt lat="36.986784375421855" lon="15.023364738225686"><ele>418.0</ele><time>2026-04-26T07:37:35.001Z</time></trkpt><trkpt lat="36.98683750663551" lon="15.023524307825635"><ele>418.0</ele><time>2026-04-26T07:37:36.001Z</time></trkpt><trkpt lat="36.98690140449787" lon="15.023665005902792"><ele>418.0</ele><time>2026-04-26T07:37:37.001Z</time></trkpt><trkpt lat="36.98695541757115" lon="15.023779124557363"><ele>418.0</ele><time>2026-04-26T07:37:38.001Z</time></trkpt><trkpt lat="36.9869863196299" lon="15.023872670590123"><ele>418.0</ele><time>2026-04-26T07:37:39.001Z</time></trkpt><trkpt lat="36.986997787052765" lon="15.023973347272484"><ele>418.0</ele><time>2026-04-26T07:37:40.001Z</time></trkpt><trkpt lat="36.98693068176549" lon="15.02406008956297"><ele>416.6666666666667</ele><time>2026-04-26T07:37:41.001Z</time></trkpt><trkpt lat="36.98691840156323" lon="15.024169683199169"><ele>415.33333333333337</ele><time>2026-04-26T07:37:42.001Z</time></trkpt><trkpt lat="36.98688678622928" lon="15.02428428185416"><ele>414.0</ele><time>2026-04-26T07:37:43.001Z</time></trkpt><trkpt lat="36.98689384941849" lon="15.024402890363545"><ele>412.66666666666663</ele><time>2026-04-26T07:37:44.001Z</time></trkpt><trkpt lat="36.98685856682474" lon="15.024486901197365"><ele>411.3333333333333</ele><time>2026-04-26T07:37:45.001Z</time></trkpt><trkpt lat="36.986828881593226" lon="15.02456480019193"><ele>410.0</ele><time>2026-04-26T07:37:48.001Z</time></trkpt><trkpt lat="36.986775078060575" lon="15.024687244809325"><ele>409.99999999999994</ele><time>2026-04-26T07:37:50.001Z</time></trkpt><trkpt lat="36.98673131782634" lon="15.024781772215057"><ele>410.0</ele><time>2026-04-26T07:37:51.001Z</time></trkpt><trkpt lat="36.98668927699441" lon="15.024878418102722"><ele>410.0</ele><time>2026-04-26T07:37:52.001Z</time></trkpt><trkpt lat="36.98665075736437" lon="15.024984373923404"><ele>410.0</ele><time>2026-04-26T07:37:53.001Z</time></trkpt><trkpt lat="36.98662552085087" lon="15.025068350045277"><ele>409.99999999999994</ele><time>2026-04-26T07:37:54.001Z</time></trkpt><trkpt lat="36.98660110706032" lon="15.025167489537699"><ele>410.0</ele><time>2026-04-26T07:37:55.001Z</time></trkpt><trkpt lat="36.9865805360509" lon="15.025258549908866"><ele>411.4</ele><time>2026-04-26T07:37:56.001Z</time></trkpt><trkpt lat="36.98656203908471" lon="15.025354721767792"><ele>412.8</ele><time>2026-04-26T07:37:57.001Z</time></trkpt><trkpt lat="36.986544154204715" lon="15.025474835884237"><ele>414.20000000000005</ele><time>2026-04-26T07:37:58.001Z</time></trkpt><trkpt lat="36.98653765307772" lon="15.025595299754016"><ele>415.6</ele><time>2026-04-26T07:37:59.001Z</time></trkpt><trkpt lat="36.98654258041198" lon="15.025699678048847"><ele>417.0</ele><time>2026-04-26T07:38:00.001Z</time></trkpt><trkpt lat="36.986600921823836" lon="15.025827071188996"><ele>417.1666666666667</ele><time>2026-04-26T07:38:02.001Z</time></trkpt><trkpt lat="36.98663926847861" lon="15.0258910668319"><ele>417.33333333333337</ele><time>2026-04-26T07:38:03.001Z</time></trkpt><trkpt lat="36.98666944688876" lon="15.025962315429194"><ele>417.5</ele><time>2026-04-26T07:38:04.001Z</time></trkpt><trkpt lat="36.98665056421511" lon="15.026065225012575"><ele>417.6666666666667</ele><time>2026-04-26T07:38:05.001Z</time></trkpt><trkpt lat="36.98661745413337" lon="15.026202221278814"><ele>417.83333333333337</ele><time>2026-04-26T07:38:06.001Z</time></trkpt><trkpt lat="36.986576482245496" lon="15.026326889376483"><ele>418.0</ele><time>2026-04-26T07:38:07.001Z</time></trkpt><trkpt lat="36.98654415444805" lon="15.02639890280953"><ele>418.00000000000006</ele><time>2026-04-26T07:38:08.001Z</time></trkpt><trkpt lat="36.9865136108599" lon="15.026471011897266"><ele>418.0</ele><time>2026-04-26T07:38:20.001Z</time></trkpt><trkpt lat="36.98660015803191" lon="15.026336829785572"><ele>418.0</ele><time>2026-04-26T07:38:26.001Z</time></trkpt><trkpt lat="36.98662582863701" lon="15.026255158541668"><ele>418.0</ele><time>2026-04-26T07:38:27.001Z</time></trkpt><trkpt lat="36.986644896052944" lon="15.026157803533238"><ele>418.00000000000006</ele><time>2026-04-26T07:38:28.001Z</time></trkpt><trkpt lat="36.98666290633089" lon="15.026063004295999"><ele>418.0</ele><time>2026-04-26T07:38:29.001Z</time></trkpt><trkpt lat="36.98667056428081" lon="15.025973401831576"><ele>418.0</ele><time>2026-04-26T07:38:30.001Z</time></trkpt><trkpt lat="36.98664123280706" lon="15.025825197069501"><ele>418.0</ele><time>2026-04-26T07:38:32.001Z</time></trkpt><trkpt lat="36.986549616945375" lon="15.02571345906413"><ele>418.0</ele><time>2026-04-26T07:38:34.001Z</time></trkpt><trkpt lat="36.98654120074963" lon="15.025556453756655"><ele>418.0</ele><time>2026-04-26T07:38:36.001Z</time></trkpt><trkpt lat="36.98656214006245" lon="15.025465759218386"><ele>417.83333333333337</ele><time>2026-04-26T07:38:37.001Z</time></trkpt><trkpt lat="36.986582779600354" lon="15.025373286846602"><ele>417.6666666666667</ele><time>2026-04-26T07:38:38.001Z</time></trkpt><trkpt lat="36.986602672308884" lon="15.02527610681622"><ele>417.5</ele><time>2026-04-26T07:38:39.001Z</time></trkpt><trkpt lat="36.98662705836005" lon="15.025176557251596"><ele>417.33333333333337</ele><time>2026-04-26T07:38:40.001Z</time></trkpt><trkpt lat="36.98665970832808" lon="15.02506934053828"><ele>417.1666666666667</ele><time>2026-04-26T07:38:41.001Z</time></trkpt><trkpt lat="36.98668948788329" lon="15.024953250789201"><ele>417.0</ele><time>2026-04-26T07:38:42.001Z</time></trkpt><trkpt lat="36.986718487142355" lon="15.024857008810073"><ele>415.6</ele><time>2026-04-26T07:38:43.001Z</time></trkpt><trkpt lat="36.98675483757025" lon="15.024768456879425"><ele>414.20000000000005</ele><time>2026-04-26T07:38:44.001Z</time></trkpt><trkpt lat="36.98678736049679" lon="15.024695987366112"><ele>412.8</ele><time>2026-04-26T07:38:45.001Z</time></trkpt><trkpt lat="36.98684869580757" lon="15.024608439763089"><ele>411.4</ele><time>2026-04-26T07:38:47.001Z</time></trkpt><trkpt lat="36.986881574739655" lon="15.024523019525803"><ele>410.0</ele><time>2026-04-26T07:38:50.001Z</time></trkpt><trkpt lat="36.986921540989016" lon="15.024809618134642"><ele>409.99999999999994</ele><time>2026-04-26T07:38:59.001Z</time></trkpt><trkpt lat="36.98689167080817" lon="15.024911864505412"><ele>410.0</ele><time>2026-04-26T07:39:01.001Z</time></trkpt><trkpt lat="36.986862916863316" lon="15.024983120080446"><ele>410.0</ele><time>2026-04-26T07:39:04.001Z</time></trkpt><trkpt lat="36.98687700507574" lon="15.025077190813729"><ele>410.0</ele><time>2026-04-26T07:39:06.001Z</time></trkpt><trkpt lat="36.98688637875597" lon="15.025177597702692"><ele>409.99999999999994</ele><time>2026-04-26T07:39:08.001Z</time></trkpt><trkpt lat="36.98689260125116" lon="15.025289987175482"><ele>410.0</ele><time>2026-04-26T07:39:11.001Z</time></trkpt><trkpt lat="36.986898362785375" lon="15.025372195181603"><ele>409.99999999999994</ele><time>2026-04-26T07:39:13.001Z</time></trkpt><trkpt lat="36.986955007413115" lon="15.02546473140969"><ele>410.0</ele><time>2026-04-26T07:57:51Z</time></trkpt><trkpt lat="36.986914901552375" lon="15.025398676128102"><ele>410.0</ele><time>2026-04-26T07:58:01Z</time></trkpt><trkpt lat="36.98690258584482" lon="15.025274753885085"><ele>410.0</ele><time>2026-04-26T07:58:03Z</time></trkpt><trkpt lat="36.98689056875218" lon="15.02513898252643"><ele>409.99999999999994</ele><time>2026-04-26T07:58:06Z</time></trkpt><trkpt lat="36.98689262220862" lon="15.025041564961597"><ele>410.0</ele><time>2026-04-26T07:58:07Z</time></trkpt><trkpt lat="36.98691814759429" lon="15.024890604582303"><ele>409.99999999999994</ele><time>2026-04-26T07:58:09Z</time></trkpt><trkpt lat="36.98695932769371" lon="15.024798016104937"><ele>410.0</ele><time>2026-04-26T07:58:11Z</time></trkpt><trkpt lat="36.98698177443974" lon="15.024710654609576"><ele>410.0</ele><time>2026-04-26T07:58:14Z</time></trkpt><trkpt lat="36.986984349309495" lon="15.024622155252871"><ele>410.0</ele><time>2026-04-26T07:58:16Z</time></trkpt><trkpt lat="36.98692961128412" lon="15.02455277442884"><ele>409.99999999999994</ele><time>2026-04-26T07:58:19Z</time></trkpt><trkpt lat="36.9868520505698" lon="15.024585632211855"><ele>410.0</ele><time>2026-04-26T07:58:24Z</time></trkpt><trkpt lat="36.98681021642996" lon="15.024667930624108"><ele>410.0</ele><time>2026-04-26T07:58:25Z</time></trkpt><trkpt lat="36.98676287709516" lon="15.024781660579"><ele>410.0</ele><time>2026-04-26T07:58:26Z</time></trkpt><trkpt lat="36.98667985884061" lon="15.024901541564853"><ele>410.0</ele><time>2026-04-26T07:58:27Z</time></trkpt><trkpt lat="36.986635650142944" lon="15.025034644365"><ele>410.0</ele><time>2026-04-26T07:58:28Z</time></trkpt><trkpt lat="36.98659716832837" lon="15.025184925290272"><ele>411.4</ele><time>2026-04-26T07:58:29Z</time></trkpt><trkpt lat="36.9865647732391" lon="15.025340575888189"><ele>412.8</ele><time>2026-04-26T07:58:30Z</time></trkpt><trkpt lat="36.98654508290321" lon="15.025468092440818"><ele>414.20000000000005</ele><time>2026-04-26T07:58:31Z</time></trkpt><trkpt lat="36.986538757819375" lon="15.025572732613357"><ele>415.6</ele><time>2026-04-26T07:58:32Z</time></trkpt><trkpt lat="36.98655671195295" lon="15.025665195611504"><ele>417.0</ele><time>2026-04-26T07:58:33Z</time></trkpt><trkpt lat="36.98656361870246" lon="15.025759314972063"><ele>417.20000000000005</ele><time>2026-04-26T07:58:34Z</time></trkpt><trkpt lat="36.98661310073946" lon="15.025847396897577"><ele>417.4</ele><time>2026-04-26T07:58:35Z</time></trkpt><trkpt lat="36.98665397840232" lon="15.02592902010989"><ele>417.6</ele><time>2026-04-26T07:58:36Z</time></trkpt><trkpt lat="36.98663965408464" lon="15.026103633124398"><ele>417.79999999999995</ele><time>2026-04-26T07:58:38Z</time></trkpt><trkpt lat="36.98661464964255" lon="15.026205793052252"><ele>418.0</ele><time>2026-04-26T07:58:39Z</time></trkpt><trkpt lat="36.986582976509354" lon="15.026307248208713"><ele>418.0</ele><time>2026-04-26T07:58:40Z</time></trkpt><trkpt lat="36.98655291353876" lon="15.026378223780357"><ele>418.0</ele><time>2026-04-26T07:58:41Z</time></trkpt><trkpt lat="36.98651954228336" lon="15.026457008699694"><ele>418.0</ele><time>2026-04-26T07:58:43Z</time></trkpt><trkpt lat="36.986595540740154" lon="15.026651982470224"><ele>418.0</ele><time>2026-04-26T07:58:46Z</time></trkpt><trkpt lat="36.9866567229218" lon="15.026788332467312"><ele>418.0</ele><time>2026-04-26T07:58:47Z</time></trkpt><trkpt lat="36.98670144964715" lon="15.026940953894295"><ele>418.25</ele><time>2026-04-26T07:58:48Z</time></trkpt><trkpt lat="36.98670173852433" lon="15.027127728920656"><ele>418.5</ele><time>2026-04-26T07:58:49Z</time></trkpt><trkpt lat="36.986695999138384" lon="15.027299908262329"><ele>418.75</ele><time>2026-04-26T07:58:50Z</time></trkpt><trkpt lat="36.98667846428161" lon="15.027450944149708"><ele>419.0</ele><time>2026-04-26T07:58:51Z</time></trkpt><trkpt lat="36.986662319963315" lon="15.027598535251812"><ele>419.0</ele><time>2026-04-26T07:58:52Z</time></trkpt><trkpt lat="36.986664066416296" lon="15.027739165716536"><ele>419.0</ele><time>2026-04-26T07:58:53Z</time></trkpt><trkpt lat="36.98666009341381" lon="15.027858356911612"><ele>419.0</ele><time>2026-04-26T07:58:54Z</time></trkpt><trkpt lat="36.986689372421786" lon="15.027938465749266"><ele>419.0</ele><time>2026-04-26T07:58:55Z</time></trkpt><trkpt lat="36.98685471773629" lon="15.027955165415385"><ele>419.0</ele><time>2026-04-26T07:58:57Z</time></trkpt><trkpt lat="36.98696893609733" lon="15.0279036006901"><ele>417.75</ele><time>2026-04-26T07:58:58Z</time></trkpt><trkpt lat="36.987109609877095" lon="15.027824844251962"><ele>416.5</ele><time>2026-04-26T07:58:59Z</time></trkpt><trkpt lat="36.987242469009495" lon="15.027765849118852"><ele>415.25</ele><time>2026-04-26T07:59:00Z</time></trkpt><trkpt lat="36.987360780231086" lon="15.027716124113553"><ele>414.0</ele><time>2026-04-26T07:59:01Z</time></trkpt><trkpt lat="36.98747168774891" lon="15.027662978343637"><ele>411.75</ele><time>2026-04-26T07:59:02Z</time></trkpt><trkpt lat="36.987577180878446" lon="15.027612396379663"><ele>409.5</ele><time>2026-04-26T07:59:03Z</time></trkpt><trkpt lat="36.98767447792034" lon="15.027540919727748"><ele>407.25</ele><time>2026-04-26T07:59:04Z</time></trkpt><trkpt lat="36.987761956814666" lon="15.027448617478546"><ele>405.0</ele><time>2026-04-26T07:59:05Z</time></trkpt><trkpt lat="36.987846542425565" lon="15.027304520096484"><ele>405.0</ele><time>2026-04-26T07:59:06Z</time></trkpt><trkpt lat="36.987932055770905" lon="15.027114307094708"><ele>405.0</ele><time>2026-04-26T07:59:07Z</time></trkpt><trkpt lat="36.988013324252755" lon="15.026898819449096"><ele>405.0</ele><time>2026-04-26T07:59:08Z</time></trkpt><trkpt lat="36.98809731355773" lon="15.026673067678804"><ele>406.33333333333337</ele><time>2026-04-26T07:59:09Z</time></trkpt><trkpt lat="36.988177730344454" lon="15.026450400935154"><ele>407.6666666666667</ele><time>2026-04-26T07:59:10Z</time></trkpt><trkpt lat="36.988260563522374" lon="15.026239763242339"><ele>409.0</ele><time>2026-04-26T07:59:11Z</time></trkpt><trkpt lat="36.98833948724206" lon="15.026034742443137"><ele>412.33333333333337</ele><time>2026-04-26T07:59:12Z</time></trkpt><trkpt lat="36.98840512072079" lon="15.025840587367856"><ele>415.66666666666663</ele><time>2026-04-26T07:59:13Z</time></trkpt><trkpt lat="36.988445297373815" lon="15.025647594175833"><ele>419.0</ele><time>2026-04-26T07:59:14Z</time></trkpt><trkpt lat="36.98846815971713" lon="15.025440481005857"><ele>419.0</ele><time>2026-04-26T07:59:15Z</time></trkpt><trkpt lat="36.988485508376414" lon="15.025234383841381"><ele>419.0</ele><time>2026-04-26T07:59:16Z</time></trkpt><trkpt lat="36.98851013894659" lon="15.025038605863875"><ele>419.0</ele><time>2026-04-26T07:59:17Z</time></trkpt><trkpt lat="36.98854060863011" lon="15.02484946830883"><ele>418.0</ele><time>2026-04-26T07:59:18Z</time></trkpt><trkpt lat="36.98858689846993" lon="15.024687752415389"><ele>417.0</ele><time>2026-04-26T07:59:19Z</time></trkpt><trkpt lat="36.988654510247294" lon="15.024572327698742"><ele>416.0</ele><time>2026-04-26T07:59:20Z</time></trkpt><trkpt lat="36.988748762048125" lon="15.024501550769061"><ele>415.0</ele><time>2026-04-26T07:59:21Z</time></trkpt><trkpt lat="36.98888644805428" lon="15.024450601242666"><ele>415.0</ele><time>2026-04-26T07:59:22Z</time></trkpt><trkpt lat="36.989037080705025" lon="15.024397488321595"><ele>415.0</ele><time>2026-04-26T07:59:23Z</time></trkpt><trkpt lat="36.989165126630965" lon="15.024346333764035"><ele>415.0</ele><time>2026-04-26T07:59:24Z</time></trkpt><trkpt lat="36.98926956162708" lon="15.024313678484871"><ele>415.0</ele><time>2026-04-26T07:59:25Z</time></trkpt><trkpt lat="36.98934209177961" lon="15.024333810570804"><ele>414.0</ele><time>2026-04-26T07:59:26Z</time></trkpt><trkpt lat="36.989396870153776" lon="15.024411064288737"><ele>413.0</ele><time>2026-04-26T07:59:27Z</time></trkpt><trkpt lat="36.98943981263453" lon="15.024533648813295"><ele>412.0</ele><time>2026-04-26T07:59:28Z</time></trkpt><trkpt lat="36.98944682737739" lon="15.024689745764437"><ele>411.0</ele><time>2026-04-26T07:59:29Z</time></trkpt><trkpt lat="36.98941205661087" lon="15.024854302259389"><ele>412.25</ele><time>2026-04-26T07:59:30Z</time></trkpt><trkpt lat="36.989399888409245" lon="15.02504265445973"><ele>413.5</ele><time>2026-04-26T07:59:31Z</time></trkpt><trkpt lat="36.98938669383728" lon="15.025227569844603"><ele>414.75</ele><time>2026-04-26T07:59:32Z</time></trkpt><trkpt lat="36.9894207446099" lon="15.025400267655945"><ele>416.0</ele><time>2026-04-26T07:59:33.001Z</time></trkpt><trkpt lat="36.98949870897952" lon="15.025570022094444"><ele>416.0</ele><time>2026-04-26T07:59:34.001Z</time></trkpt><trkpt lat="36.989606131645125" lon="15.025747274173405"><ele>416.0</ele><time>2026-04-26T07:59:35.001Z</time></trkpt><trkpt lat="36.98972384076989" lon="15.025913799161643"><ele>416.0</ele><time>2026-04-26T07:59:36.001Z</time></trkpt><trkpt lat="36.98985440133781" lon="15.026071733706274"><ele>419.0</ele><time>2026-04-26T07:59:37.001Z</time></trkpt><trkpt lat="36.99000131766152" lon="15.026200927987096"><ele>422.0</ele><time>2026-04-26T07:59:38.001Z</time></trkpt><trkpt lat="36.9901382845954" lon="15.026290877194326"><ele>425.0</ele><time>2026-04-26T07:59:39.001Z</time></trkpt><trkpt lat="36.9902574772665" lon="15.026328042545192"><ele>426.3333333333333</ele><time>2026-04-26T07:59:40.001Z</time></trkpt><trkpt lat="36.99038593046629" lon="15.02631475737907"><ele>427.66666666666663</ele><time>2026-04-26T07:59:41.001Z</time></trkpt><trkpt lat="36.99053974854817" lon="15.026265914790576"><ele>429.0</ele><time>2026-04-26T07:59:42.001Z</time></trkpt><trkpt lat="36.99070246515115" lon="15.026203701553793"><ele>431.33333333333337</ele><time>2026-04-26T07:59:43.001Z</time></trkpt><trkpt lat="36.99086548008428" lon="15.026150126413054"><ele>433.6666666666667</ele><time>2026-04-26T07:59:44.001Z</time></trkpt><trkpt lat="36.991027567763" lon="15.026102488538337"><ele>436.0</ele><time>2026-04-26T07:59:45.001Z</time></trkpt><trkpt lat="36.991180357892276" lon="15.026056998973118"><ele>436.0</ele><time>2026-04-26T07:59:46.001Z</time></trkpt><trkpt lat="36.99131519974547" lon="15.026007251692842"><ele>436.0</ele><time>2026-04-26T07:59:47.001Z</time></trkpt><trkpt lat="36.99144041267615" lon="15.02596593785886"><ele>436.0</ele><time>2026-04-26T07:59:48.001Z</time></trkpt><trkpt lat="36.991576110450936" lon="15.025925471992842"><ele>436.0</ele><time>2026-04-26T07:59:49.001Z</time></trkpt><trkpt lat="36.99171939047828" lon="15.025886881155785"><ele>436.5</ele><time>2026-04-26T07:59:50.001Z</time></trkpt><trkpt lat="36.99186176752518" lon="15.025846649680869"><ele>437.0</ele><time>2026-04-26T07:59:51.001Z</time></trkpt><trkpt lat="36.99200813638463" lon="15.025802375124686"><ele>437.5</ele><time>2026-04-26T07:59:51.999Z</time></trkpt><trkpt lat="36.99215769044084" lon="15.025763330054899"><ele>438.0</ele><time>2026-04-26T07:59:52.999Z</time></trkpt><trkpt lat="36.99232051173417" lon="15.025719420611589"><ele>438.0</ele><time>2026-04-26T07:59:53.999Z</time></trkpt><trkpt lat="36.99249462054595" lon="15.025671048598092"><ele>438.0</ele><time>2026-04-26T07:59:54.999Z</time></trkpt><trkpt lat="36.99268225615813" lon="15.02561638722992"><ele>438.0</ele><time>2026-04-26T07:59:55.999Z</time></trkpt><trkpt lat="36.99288407111543" lon="15.025560689824498"><ele>438.0</ele><time>2026-04-26T07:59:56.999Z</time></trkpt><trkpt lat="36.993101648299366" lon="15.025501591278992"><ele>438.0</ele><time>2026-04-26T07:59:57.999Z</time></trkpt><trkpt lat="36.99331736304017" lon="15.025438108606387"><ele>438.0</ele><time>2026-04-26T07:59:58.999Z</time></trkpt><trkpt lat="36.993535123319326" lon="15.025375096553484"><ele>439.5</ele><time>2026-04-26T07:59:59.999Z</time></trkpt><trkpt lat="36.993761452223744" lon="15.02530616292034"><ele>441.0</ele><time>2026-04-26T08:00:00.999Z</time></trkpt><trkpt lat="36.99398440317486" lon="15.02523508520903"><ele>441.33333333333337</ele><time>2026-04-26T08:00:01.999Z</time></trkpt><trkpt lat="36.99419481654279" lon="15.025179873068028"><ele>441.6666666666667</ele><time>2026-04-26T08:00:02.999Z</time></trkpt><trkpt lat="36.994385011870854" lon="15.025127129788885"><ele>442.0</ele><time>2026-04-26T08:00:03.999Z</time></trkpt><trkpt lat="36.99455886070991" lon="15.025082016161646"><ele>442.0</ele><time>2026-04-26T08:00:04.999Z</time></trkpt><trkpt lat="36.99472882216099" lon="15.025028251379236"><ele>442.0</ele><time>2026-04-26T08:00:05.999Z</time></trkpt><trkpt lat="36.99489794049949" lon="15.0249711305032"><ele>442.0</ele><time>2026-04-26T08:00:06.999Z</time></trkpt><trkpt lat="36.99506852620478" lon="15.024879087498814"><ele>442.0</ele><time>2026-04-26T08:00:07.999Z</time></trkpt><trkpt lat="36.99523481369533" lon="15.024751760110254"><ele>442.0</ele><time>2026-04-26T08:00:08.999Z</time></trkpt><trkpt lat="36.99539935444341" lon="15.024596095552246"><ele>442.0</ele><time>2026-04-26T08:00:09.999Z</time></trkpt><trkpt lat="36.99555924691599" lon="15.024438811990917"><ele>442.0</ele><time>2026-04-26T08:00:11Z</time></trkpt><trkpt lat="36.99571388035748" lon="15.024279239445736"><ele>442.0</ele><time>2026-04-26T08:00:12Z</time></trkpt><trkpt lat="36.99586930438525" lon="15.024126493617073"><ele>442.0</ele><time>2026-04-26T08:00:13Z</time></trkpt><trkpt lat="36.99602921420441" lon="15.023972694449625"><ele>441.6666666666667</ele><time>2026-04-26T08:00:14Z</time></trkpt><trkpt lat="36.996185748119814" lon="15.023820088345355"><ele>441.33333333333337</ele><time>2026-04-26T08:00:15Z</time></trkpt><trkpt lat="36.99634274368558" lon="15.023666810236804"><ele>441.0</ele><time>2026-04-26T08:00:16Z</time></trkpt><trkpt lat="36.996501842314274" lon="15.023513346331956"><ele>441.0</ele><time>2026-04-26T08:00:17Z</time></trkpt><trkpt lat="36.996659782812785" lon="15.023359198996767"><ele>441.0</ele><time>2026-04-26T08:00:18Z</time></trkpt><trkpt lat="36.99681578759978" lon="15.023207698071644"><ele>441.0</ele><time>2026-04-26T08:00:19Z</time></trkpt><trkpt lat="36.99696949852964" lon="15.02305890607329"><ele>441.66666666666663</ele><time>2026-04-26T08:00:20Z</time></trkpt><trkpt lat="36.99711929123063" lon="15.022913883588028"><ele>442.3333333333333</ele><time>2026-04-26T08:00:21Z</time></trkpt><trkpt lat="36.99726438840146" lon="15.022773995035749"><ele>443.0</ele><time>2026-04-26T08:00:22Z</time></trkpt><trkpt lat="36.99740607839719" lon="15.022639795912195"><ele>443.0</ele><time>2026-04-26T08:00:23Z</time></trkpt><trkpt lat="36.99754479383462" lon="15.022509214796564"><ele>443.0</ele><time>2026-04-26T08:00:24Z</time></trkpt><trkpt lat="36.9977440542908" lon="15.022309033541267"><ele>443.0</ele><time>2026-04-26T08:00:25Z</time></trkpt><trkpt lat="36.99790473522857" lon="15.022154471256073"><ele>443.0</ele><time>2026-04-26T08:00:26Z</time></trkpt><trkpt lat="36.99806621028732" lon="15.02199990038967"><ele>443.0</ele><time>2026-04-26T08:00:27Z</time></trkpt><trkpt lat="36.99822887201767" lon="15.021842742790023"><ele>443.0</ele><time>2026-04-26T08:00:28Z</time></trkpt><trkpt lat="36.998398450371525" lon="15.02168191174416"><ele>443.3333333333333</ele><time>2026-04-26T08:00:29Z</time></trkpt><trkpt lat="36.99856571740179" lon="15.021517172250773"><ele>443.66666666666663</ele><time>2026-04-26T08:00:30Z</time></trkpt><trkpt lat="36.99873368115789" lon="15.021351632590545"><ele>444.0</ele><time>2026-04-26T08:00:31Z</time></trkpt><trkpt lat="36.99891099318957" lon="15.021193096673441"><ele>444.0</ele><time>2026-04-26T08:00:32Z</time></trkpt><trkpt lat="36.9990823266216" lon="15.021024751622624"><ele>444.0</ele><time>2026-04-26T08:00:33Z</time></trkpt><trkpt lat="36.999255242599055" lon="15.02085488123611"><ele>444.0</ele><time>2026-04-26T08:00:34Z</time></trkpt><trkpt lat="36.9994238381602" lon="15.020693012401665"><ele>444.0</ele><time>2026-04-26T08:00:35Z</time></trkpt><trkpt lat="36.99959282507227" lon="15.020536606605601"><ele>444.0</ele><time>2026-04-26T08:00:36Z</time></trkpt><trkpt lat="36.999767965474305" lon="15.020396939083536"><ele>444.0</ele><time>2026-04-26T08:00:37Z</time></trkpt><trkpt lat="36.999957124871386" lon="15.020304470741207"><ele>444.0</ele><time>2026-04-26T08:00:38Z</time></trkpt><trkpt lat="37.00014138316602" lon="15.020200094728537"><ele>444.0</ele><time>2026-04-26T08:00:39Z</time></trkpt><trkpt lat="37.0003334449535" lon="15.020108294101615"><ele>444.0</ele><time>2026-04-26T08:00:40Z</time></trkpt><trkpt lat="37.00052993712609" lon="15.020010123576993"><ele>444.0</ele><time>2026-04-26T08:00:41Z</time></trkpt><trkpt lat="37.000727890739455" lon="15.0199064624118"><ele>444.0</ele><time>2026-04-26T08:00:42Z</time></trkpt><trkpt lat="37.000930666786076" lon="15.019803105685343"><ele>444.0</ele><time>2026-04-26T08:00:43Z</time></trkpt><trkpt lat="37.00113559946444" lon="15.019708767904996"><ele>444.0</ele><time>2026-04-26T08:00:44Z</time></trkpt><trkpt lat="37.00134308923901" lon="15.019607577062846"><ele>444.0</ele><time>2026-04-26T08:00:45Z</time></trkpt><trkpt lat="37.00155840793813" lon="15.019498344200986"><ele>444.5</ele><time>2026-04-26T08:00:46Z</time></trkpt><trkpt lat="37.00179991099854" lon="15.019378968174244"><ele>445.0</ele><time>2026-04-26T08:00:47Z</time></trkpt><trkpt lat="37.002050612071486" lon="15.019266814875735"><ele>445.5</ele><time>2026-04-26T08:00:48Z</time></trkpt><trkpt lat="37.002288500710705" lon="15.01911553302687"><ele>446.0</ele><time>2026-04-26T08:00:49Z</time></trkpt><trkpt lat="37.002524643164215" lon="15.019012589866616"><ele>446.66666666666663</ele><time>2026-04-26T08:00:50Z</time></trkpt><trkpt lat="37.00274147502009" lon="15.018921233724816"><ele>447.33333333333337</ele><time>2026-04-26T08:00:51Z</time></trkpt><trkpt lat="37.002940821277875" lon="15.018827797875309"><ele>448.0</ele><time>2026-04-26T08:00:52Z</time></trkpt><trkpt lat="37.00313238620483" lon="15.018734645322429"><ele>448.0</ele><time>2026-04-26T08:00:53Z</time></trkpt><trkpt lat="37.0033248816662" lon="15.018639090916055"><ele>448.0</ele><time>2026-04-26T08:00:54Z</time></trkpt><trkpt lat="37.00352259141386" lon="15.018539446891918"><ele>448.0</ele><time>2026-04-26T08:00:55Z</time></trkpt><trkpt lat="37.0037306874492" lon="15.018428314206794"><ele>452.5</ele><time>2026-04-26T08:00:56Z</time></trkpt><trkpt lat="37.00394449721796" lon="15.018297600131952"><ele>457.0</ele><time>2026-04-26T08:00:57Z</time></trkpt><trkpt lat="37.00415182018574" lon="15.018155572808375"><ele>456.5</ele><time>2026-04-26T08:00:58Z</time></trkpt><trkpt lat="37.004354666992796" lon="15.018008874813397"><ele>456.0</ele><time>2026-04-26T08:00:59Z</time></trkpt><trkpt lat="37.004557749525674" lon="15.017866372711033"><ele>456.0</ele><time>2026-04-26T08:01:00Z</time></trkpt><trkpt lat="37.00475202706039" lon="15.017739103896671"><ele>456.0</ele><time>2026-04-26T08:01:01Z</time></trkpt><trkpt lat="37.004938058370875" lon="15.017621031912118"><ele>456.0</ele><time>2026-04-26T08:01:02Z</time></trkpt><trkpt lat="37.00512367332252" lon="15.017491642159321"><ele>455.0</ele><time>2026-04-26T08:01:03Z</time></trkpt><trkpt lat="37.00530920419868" lon="15.017327630346701"><ele>454.0</ele><time>2026-04-26T08:01:04Z</time></trkpt><trkpt lat="37.00549236452054" lon="15.017131325236091"><ele>454.0</ele><time>2026-04-26T08:01:05Z</time></trkpt><trkpt lat="37.00567903572294" lon="15.01691787116812"><ele>454.0</ele><time>2026-04-26T08:01:06Z</time></trkpt><trkpt lat="37.0058670400654" lon="15.016711673248913"><ele>453.5</ele><time>2026-04-26T08:01:07Z</time></trkpt><trkpt lat="37.006048718053115" lon="15.016521229514494"><ele>453.0</ele><time>2026-04-26T08:01:08Z</time></trkpt><trkpt lat="37.00621713451105" lon="15.016349828718313"><ele>453.0</ele><time>2026-04-26T08:01:09Z</time></trkpt><trkpt lat="37.00637123157913" lon="15.016191059058388"><ele>453.0</ele><time>2026-04-26T08:01:10Z</time></trkpt><trkpt lat="37.006514586587166" lon="15.016042812025145"><ele>453.0</ele><time>2026-04-26T08:01:11Z</time></trkpt><trkpt lat="37.00665285957839" lon="15.0159006754608"><ele>453.66666666666663</ele><time>2026-04-26T08:01:12Z</time></trkpt><trkpt lat="37.00678187485034" lon="15.01576534804372"><ele>454.3333333333333</ele><time>2026-04-26T08:01:13Z</time></trkpt><trkpt lat="37.00691890730508" lon="15.01562617127042"><ele>455.0</ele><time>2026-04-26T08:01:14Z</time></trkpt><trkpt lat="37.00707301096918" lon="15.015520757797686"><ele>455.0</ele><time>2026-04-26T08:01:15Z</time></trkpt><trkpt lat="37.00723276681719" lon="15.015399865823975"><ele>455.0</ele><time>2026-04-26T08:01:16Z</time></trkpt><trkpt lat="37.00740566951701" lon="15.015260147611567"><ele>455.0</ele><time>2026-04-26T08:01:17Z</time></trkpt><trkpt lat="37.00759585826675" lon="15.015138757843324"><ele>455.0</ele><time>2026-04-26T08:01:18Z</time></trkpt><trkpt lat="37.0077909409124" lon="15.01501609389271"><ele>455.0</ele><time>2026-04-26T08:01:19Z</time></trkpt><trkpt lat="37.00797904292439" lon="15.014891329602932"><ele>455.0</ele><time>2026-04-26T08:01:20Z</time></trkpt><trkpt lat="37.00815960454547" lon="15.01476401884078"><ele>455.3333333333333</ele><time>2026-04-26T08:01:21Z</time></trkpt><trkpt lat="37.00832837830738" lon="15.01462348901259"><ele>455.66666666666663</ele><time>2026-04-26T08:01:22Z</time></trkpt><trkpt lat="37.008490345591426" lon="15.014460003520432"><ele>456.0</ele><time>2026-04-26T08:01:23Z</time></trkpt><trkpt lat="37.00862989935144" lon="15.014274142884542"><ele>455.0</ele><time>2026-04-26T08:01:24Z</time></trkpt><trkpt lat="37.00874458530887" lon="15.014089311798244"><ele>454.0</ele><time>2026-04-26T08:01:25Z</time></trkpt><trkpt lat="37.00884228873831" lon="15.013916387152175"><ele>453.0</ele><time>2026-04-26T08:01:26Z</time></trkpt><trkpt lat="37.00895646086074" lon="15.013757552964726"><ele>453.0</ele><time>2026-04-26T08:01:27Z</time></trkpt><trkpt lat="37.009061995320074" lon="15.013591016774637"><ele>453.0</ele><time>2026-04-26T08:01:28Z</time></trkpt><trkpt lat="37.00916785071875" lon="15.013424557506326"><ele>453.0</ele><time>2026-04-26T08:01:29Z</time></trkpt><trkpt lat="37.009274512814585" lon="15.013263574450999"><ele>454.66666666666663</ele><time>2026-04-26T08:01:30Z</time></trkpt><trkpt lat="37.00938147227092" lon="15.013109311109675"><ele>456.3333333333333</ele><time>2026-04-26T08:01:31Z</time></trkpt><trkpt lat="37.009501661666754" lon="15.012973202596932"><ele>458.0</ele><time>2026-04-26T08:01:32Z</time></trkpt><trkpt lat="37.00962241205624" lon="15.012847232923177"><ele>458.0</ele><time>2026-04-26T08:01:33Z</time></trkpt><trkpt lat="37.00974809748579" lon="15.012776202412287"><ele>458.0</ele><time>2026-04-26T08:01:34Z</time></trkpt><trkpt lat="37.009865547806065" lon="15.012750607033666"><ele>458.0</ele><time>2026-04-26T08:01:35Z</time></trkpt><trkpt lat="37.00995438398195" lon="15.012706532360625"><ele>458.0</ele><time>2026-04-26T08:01:36Z</time></trkpt><trkpt lat="37.01013940563379" lon="15.012848032721324"><ele>459.3333333333333</ele><time>2026-04-26T08:01:37Z</time></trkpt><trkpt lat="37.01031500335513" lon="15.012933020583388"><ele>460.66666666666663</ele><time>2026-04-26T08:01:38Z</time></trkpt><trkpt lat="37.0105169904832" lon="15.01301495877311"><ele>462.0</ele><time>2026-04-26T08:01:39Z</time></trkpt><trkpt lat="37.01072644234024" lon="15.01309923336167"><ele>461.33333333333337</ele><time>2026-04-26T08:01:40Z</time></trkpt><trkpt lat="37.01093832555076" lon="15.013183909858169"><ele>460.6666666666667</ele><time>2026-04-26T08:01:41Z</time></trkpt><trkpt lat="37.01115359547767" lon="15.013270450130793"><ele>460.0</ele><time>2026-04-26T08:01:42Z</time></trkpt><trkpt lat="37.01136593725434" lon="15.013351976950458"><ele>460.0</ele><time>2026-04-26T08:01:43Z</time></trkpt><trkpt lat="37.01156716495922" lon="15.01342414683468"><ele>460.0</ele><time>2026-04-26T08:01:44Z</time></trkpt><trkpt lat="37.011768517817536" lon="15.013485009461268"><ele>460.0</ele><time>2026-04-26T08:01:45Z</time></trkpt><trkpt lat="37.01198254640003" lon="15.013533075541707"><ele>459.0</ele><time>2026-04-26T08:01:46Z</time></trkpt><trkpt lat="37.012204138280325" lon="15.013573931722268"><ele>458.0</ele><time>2026-04-26T08:01:47Z</time></trkpt><trkpt lat="37.01243011859881" lon="15.013604622111943"><ele>456.0</ele><time>2026-04-26T08:01:48Z</time></trkpt><trkpt lat="37.01265858866997" lon="15.013627520292985"><ele>454.0</ele><time>2026-04-26T08:01:49Z</time></trkpt><trkpt lat="37.012888082675246" lon="15.013640324649469"><ele>454.0</ele><time>2026-04-26T08:01:50Z</time></trkpt><trkpt lat="37.01312331892391" lon="15.013654859292824"><ele>454.0</ele><time>2026-04-26T08:01:51Z</time></trkpt><trkpt lat="37.01336765781286" lon="15.013674740470043"><ele>452.5</ele><time>2026-04-26T08:01:52Z</time></trkpt><trkpt lat="37.01361292239064" lon="15.013694116434365"><ele>451.0</ele><time>2026-04-26T08:01:53Z</time></trkpt><trkpt lat="37.01385115771137" lon="15.013709197043134"><ele>451.0</ele><time>2026-04-26T08:01:54Z</time></trkpt><trkpt lat="37.01408688808849" lon="15.013725125366191"><ele>451.0</ele><time>2026-04-26T08:01:55Z</time></trkpt><trkpt lat="37.01431718588638" lon="15.013743521164146"><ele>451.33333333333337</ele><time>2026-04-26T08:01:56Z</time></trkpt><trkpt lat="37.01453580209164" lon="15.013760875100948"><ele>451.66666666666663</ele><time>2026-04-26T08:01:57Z</time></trkpt><trkpt lat="37.01474943171094" lon="15.013774140023061"><ele>452.0</ele><time>2026-04-26T08:01:57.999Z</time></trkpt><trkpt lat="37.01496088118752" lon="15.013778240051895"><ele>452.66666666666663</ele><time>2026-04-26T08:01:58.999Z</time></trkpt><trkpt lat="37.01516963252713" lon="15.013771900520668"><ele>453.33333333333337</ele><time>2026-04-26T08:01:59.999Z</time></trkpt><trkpt lat="37.01538640178085" lon="15.013753151370034"><ele>454.0</ele><time>2026-04-26T08:02:00.999Z</time></trkpt><trkpt lat="37.01560994320787" lon="15.013720738146546"><ele>454.5</ele><time>2026-04-26T08:02:01.999Z</time></trkpt><trkpt lat="37.01583488857617" lon="15.013672804766234"><ele>455.0</ele><time>2026-04-26T08:02:02.999Z</time></trkpt><trkpt lat="37.016058266889615" lon="15.013610248249593"><ele>455.0</ele><time>2026-04-26T08:02:03.999Z</time></trkpt><trkpt lat="37.01627346561322" lon="15.013525347870747"><ele>455.0</ele><time>2026-04-26T08:02:04.999Z</time></trkpt><trkpt lat="37.01647845088376" lon="15.01342431175782"><ele>455.0</ele><time>2026-04-26T08:02:05.999Z</time></trkpt><trkpt lat="37.01666709615826" lon="15.013315451129518"><ele>455.0</ele><time>2026-04-26T08:02:06.999Z</time></trkpt><trkpt lat="37.01684381415449" lon="15.013195203622258"><ele>455.0</ele><time>2026-04-26T08:02:07.999Z</time></trkpt><trkpt lat="37.01702683522808" lon="15.013058723601212"><ele>455.0</ele><time>2026-04-26T08:02:08.999Z</time></trkpt><trkpt lat="37.01721661921942" lon="15.012911600579924"><ele>455.0</ele><time>2026-04-26T08:02:09.999Z</time></trkpt><trkpt lat="37.01740286765953" lon="15.012754131751807"><ele>455.0</ele><time>2026-04-26T08:02:10.999Z</time></trkpt><trkpt lat="37.01756535392999" lon="15.012604421551448"><ele>455.0</ele><time>2026-04-26T08:02:11.999Z</time></trkpt><trkpt lat="37.01769840842433" lon="15.012472493128065"><ele>454.75</ele><time>2026-04-26T08:02:12.999Z</time></trkpt><trkpt lat="37.017829228598174" lon="15.012343615656695"><ele>454.5</ele><time>2026-04-26T08:02:13.999Z</time></trkpt><trkpt lat="37.017943066747804" lon="15.012228516709133"><ele>454.25</ele><time>2026-04-26T08:02:14.999Z</time></trkpt><trkpt lat="37.01803710997589" lon="15.012133067752094"><ele>454.0</ele><time>2026-04-26T08:02:16Z</time></trkpt><trkpt lat="37.01811729337572" lon="15.01205038154926"><ele>454.0</ele><time>2026-04-26T08:02:17Z</time></trkpt><trkpt lat="37.01818054507646" lon="15.011983214933881"><ele>454.0</ele><time>2026-04-26T08:02:18Z</time></trkpt><trkpt lat="37.018234768134384" lon="15.01192818976489"><ele>454.0</ele><time>2026-04-26T08:02:19Z</time></trkpt><trkpt lat="37.01829330239734" lon="15.011825064791859"><ele>454.0</ele><time>2026-04-26T08:02:21Z</time></trkpt><trkpt lat="37.018248608858784" lon="15.011730692960613"><ele>454.0</ele><time>2026-04-26T08:02:23Z</time></trkpt><trkpt lat="37.01815124842245" lon="15.011611231586437"><ele>453.6666666666667</ele><time>2026-04-26T08:02:25Z</time></trkpt><trkpt lat="37.018095575789985" lon="15.011535185207464"><ele>453.33333333333337</ele><time>2026-04-26T08:02:26Z</time></trkpt><trkpt lat="37.01804351334822" lon="15.01144198299276"><ele>453.0</ele><time>2026-04-26T08:02:27Z</time></trkpt><trkpt lat="37.01798741909666" lon="15.011384164548334"><ele>452.66666666666663</ele><time>2026-04-26T08:02:28Z</time></trkpt><trkpt lat="37.01792470253814" lon="15.011352026861868"><ele>452.3333333333333</ele><time>2026-04-26T08:02:29Z</time></trkpt><trkpt lat="37.01781048195847" lon="15.011346430370748"><ele>452.0</ele><time>2026-04-26T08:02:31Z</time></trkpt><trkpt lat="37.017752901587535" lon="15.011289003399927"><ele>452.0</ele><time>2026-04-26T08:02:33Z</time></trkpt><trkpt lat="37.017726346879" lon="15.01114527879112"><ele>452.00000000000006</ele><time>2026-04-26T08:02:35Z</time></trkpt><trkpt lat="37.017727034651834" lon="15.011064982716523"><ele>452.00000000000006</ele><time>2026-04-26T08:02:36Z</time></trkpt><trkpt lat="37.017714515652074" lon="15.010965239206529"><ele>452.0</ele><time>2026-04-26T08:02:37Z</time></trkpt><trkpt lat="37.01769357217254" lon="15.010822287817273"><ele>452.0</ele><time>2026-04-26T08:02:38Z</time></trkpt><trkpt lat="37.01767285177339" lon="15.010693452305418"><ele>451.8</ele><time>2026-04-26T08:02:39Z</time></trkpt><trkpt lat="37.01765481237866" lon="15.010561144070465"><ele>451.6</ele><time>2026-04-26T08:02:40Z</time></trkpt><trkpt lat="37.01762934143244" lon="15.01046092665307"><ele>451.40000000000003</ele><time>2026-04-26T08:02:41Z</time></trkpt><trkpt lat="37.01760846417577" lon="15.01036182617125"><ele>451.20000000000005</ele><time>2026-04-26T08:02:42Z</time></trkpt><trkpt lat="37.017600763201756" lon="15.010248881824397"><ele>451.0</ele><time>2026-04-26T08:02:43Z</time></trkpt><trkpt lat="37.01753999220154" lon="15.010163826369972"><ele>451.0</ele><time>2026-04-26T08:02:44Z</time></trkpt><trkpt lat="37.01749271317886" lon="15.010088038509284"><ele>451.0</ele><time>2026-04-26T08:02:45Z</time></trkpt><trkpt lat="37.0174175556629" lon="15.009953610897318"><ele>451.0</ele><time>2026-04-26T08:02:47Z</time></trkpt><trkpt lat="37.01736749929946" lon="15.009903200373405"><ele>451.0</ele><time>2026-04-26T08:02:48Z</time></trkpt><trkpt lat="37.01730091855415" lon="15.009793639451557"><ele>451.0</ele><time>2026-04-26T08:02:49Z</time></trkpt><trkpt lat="37.01726138464198" lon="15.009698474675316"><ele>450.4</ele><time>2026-04-26T08:02:50Z</time></trkpt><trkpt lat="37.01722138934117" lon="15.009618508165499"><ele>449.8</ele><time>2026-04-26T08:02:51Z</time></trkpt><trkpt lat="37.017171309181606" lon="15.009503468571776"><ele>449.19999999999993</ele><time>2026-04-26T08:02:53Z</time></trkpt><trkpt lat="37.01712793793537" lon="15.00936612555476"><ele>448.59999999999997</ele><time>2026-04-26T08:02:55Z</time></trkpt><trkpt lat="37.01709781052023" lon="15.009286737820284"><ele>448.0</ele><time>2026-04-26T08:02:56Z</time></trkpt><trkpt lat="37.01701931848792" lon="15.009209254886272"><ele>448.0</ele><time>2026-04-26T08:02:58Z</time></trkpt><trkpt lat="37.016916987142125" lon="15.009191055477409"><ele>447.99999999999994</ele><time>2026-04-26T08:03:00Z</time></trkpt><trkpt lat="37.01680474608836" lon="15.009129272134196"><ele>447.99999999999994</ele><time>2026-04-26T08:03:02Z</time></trkpt><trkpt lat="37.01673081971287" lon="15.009107779932416"><ele>448.0</ele><time>2026-04-26T08:03:05Z</time></trkpt><trkpt lat="37.01666057662113" lon="15.009174110560958"><ele>448.0</ele><time>2026-04-26T08:03:08Z</time></trkpt><trkpt lat="37.01662179894491" lon="15.009243167897568"><ele>447.75</ele><time>2026-04-26T08:03:15Z</time></trkpt><trkpt lat="37.01657500111711" lon="15.009324401847115"><ele>447.5</ele><time>2026-04-26T08:03:18Z</time></trkpt><trkpt lat="37.01650379164993" lon="15.009367285586135"><ele>447.25</ele><time>2026-04-26T08:03:24Z</time></trkpt><trkpt lat="37.016329600464836" lon="15.009468759579933"><ele>447.0</ele><time>2026-04-26T08:03:27Z</time></trkpt><trkpt lat="37.0164153266308" lon="15.009299684793612"><ele>447.0</ele><time>2026-04-26T08:03:29Z</time></trkpt><trkpt lat="37.016469403097815" lon="15.009176804115524"><ele>447.0</ele><time>2026-04-26T08:03:33Z</time></trkpt><trkpt lat="37.01651371742355" lon="15.009076570317985"><ele>447.0</ele><time>2026-04-26T08:03:36Z</time></trkpt><trkpt lat="37.016522272715434" lon="15.008994943592404"><ele>447.0</ele><time>2026-04-26T08:03:38Z</time></trkpt><trkpt lat="37.01645369918269" lon="15.008968369599751"><ele>447.0</ele><time>2026-04-26T08:03:40Z</time></trkpt><trkpt lat="37.01637810528367" lon="15.008965430130388"><ele>447.0</ele><time>2026-04-26T08:03:42Z</time></trkpt><trkpt lat="37.01629069111396" lon="15.009021215226348"><ele>447.5</ele><time>2026-04-26T08:03:44.001Z</time></trkpt><trkpt lat="37.01620025223527" lon="15.00902266316803"><ele>448.0</ele><time>2026-04-26T08:03:47.001Z</time></trkpt><trkpt lat="37.0161367450969" lon="15.00901272162599"><ele>448.5</ele><time>2026-04-26T08:03:49.001Z</time></trkpt><trkpt lat="37.01604985955426" lon="15.00896521536496"><ele>449.0</ele><time>2026-04-26T08:03:52.001Z</time></trkpt><trkpt lat="37.0160128782082" lon="15.008897972540375"><ele>449.5</ele><time>2026-04-26T08:03:54.001Z</time></trkpt><trkpt lat="37.015961940054865" lon="15.008786157920985"><ele>450.0</ele><time>2026-04-26T08:03:56.001Z</time></trkpt><trkpt lat="37.0159491533951" lon="15.008641500204051"><ele>450.0</ele><time>2026-04-26T08:03:58.001Z</time></trkpt><trkpt lat="37.01595432043421" lon="15.00850241828273"><ele>450.0</ele><time>2026-04-26T08:04:00.001Z</time></trkpt><trkpt lat="37.015962471461556" lon="15.00841352112725"><ele>450.0</ele><time>2026-04-26T08:04:01.001Z</time></trkpt><trkpt lat="37.01597331803946" lon="15.008314162198204"><ele>450.0</ele><time>2026-04-26T08:04:02.001Z</time></trkpt><trkpt lat="37.0159876428895" lon="15.008181164814484"><ele>450.0</ele><time>2026-04-26T08:04:03.001Z</time></trkpt><trkpt lat="37.01600343159074" lon="15.00803457648524"><ele>450.3333333333333</ele><time>2026-04-26T08:04:04Z</time></trkpt><trkpt lat="37.016017247123074" lon="15.007919000967236"><ele>450.66666666666663</ele><time>2026-04-26T08:04:05Z</time></trkpt><trkpt lat="37.0160305082625" lon="15.007809087468713"><ele>451.0</ele><time>2026-04-26T08:04:06Z</time></trkpt><trkpt lat="37.01604088008206" lon="15.007686033317814"><ele>451.3333333333333</ele><time>2026-04-26T08:04:07Z</time></trkpt><trkpt lat="37.01604262902787" lon="15.007579805581559"><ele>451.66666666666663</ele><time>2026-04-26T08:04:08Z</time></trkpt><trkpt lat="37.01602458879642" lon="15.007494046083337"><ele>452.0</ele><time>2026-04-26T08:04:09Z</time></trkpt><trkpt lat="37.01597208948491" lon="15.007393066198546"><ele>452.0</ele><time>2026-04-26T08:04:11Z</time></trkpt><trkpt lat="37.015859528627615" lon="15.007354489127575"><ele>452.00000000000006</ele><time>2026-04-26T08:04:13Z</time></trkpt><trkpt lat="37.0157828309743" lon="15.007310007267861"><ele>452.00000000000006</ele><time>2026-04-26T08:04:14Z</time></trkpt><trkpt lat="37.01572816248812" lon="15.007242357911602"><ele>452.0</ele><time>2026-04-26T08:04:15Z</time></trkpt><trkpt lat="37.01573614766976" lon="15.007146018428783"><ele>452.0</ele><time>2026-04-26T08:04:16Z</time></trkpt><trkpt lat="37.01568509511257" lon="15.007003519049574"><ele>451.99999999999994</ele><time>2026-04-26T08:04:18Z</time></trkpt><trkpt lat="37.015652177000746" lon="15.006899425597569"><ele>452.0</ele><time>2026-04-26T08:04:19Z</time></trkpt><trkpt lat="37.01562295104535" lon="15.006802685186782"><ele>452.0</ele><time>2026-04-26T08:04:20Z</time></trkpt><trkpt lat="37.015590308140645" lon="15.00669463437389"><ele>452.0</ele><time>2026-04-26T08:04:21Z</time></trkpt><trkpt lat="37.015562437484895" lon="15.0065938151265"><ele>451.99999999999994</ele><time>2026-04-26T08:04:22Z</time></trkpt><trkpt lat="37.01554393862951" lon="15.006499108554587"><ele>452.0</ele><time>2026-04-26T08:04:23Z</time></trkpt><trkpt lat="37.0155331814376" lon="15.006370370102267"><ele>451.8333333333333</ele><time>2026-04-26T08:04:24Z</time></trkpt><trkpt lat="37.01552839913452" lon="15.006248490355487"><ele>451.66666666666663</ele><time>2026-04-26T08:04:25Z</time></trkpt><trkpt lat="37.01552825366211" lon="15.006143370525086"><ele>451.5</ele><time>2026-04-26T08:04:26Z</time></trkpt><trkpt lat="37.0155246982551" lon="15.006027267030966"><ele>451.33333333333337</ele><time>2026-04-26T08:04:27Z</time></trkpt><trkpt lat="37.01551837784824" lon="15.00593109724085"><ele>451.1666666666667</ele><time>2026-04-26T08:04:28Z</time></trkpt><trkpt lat="37.01550464501543" lon="15.005828309064215"><ele>451.0</ele><time>2026-04-26T08:04:29Z</time></trkpt><trkpt lat="37.01549555152709" lon="15.00573850201473"><ele>451.4</ele><time>2026-04-26T08:04:30Z</time></trkpt><trkpt lat="37.015482577486985" lon="15.005623291624556"><ele>451.8</ele><time>2026-04-26T08:04:31Z</time></trkpt><trkpt lat="37.015462401541434" lon="15.005510388281047"><ele>452.19999999999993</ele><time>2026-04-26T08:04:32Z</time></trkpt><trkpt lat="37.01543573648786" lon="15.005412929125223"><ele>452.59999999999997</ele><time>2026-04-26T08:04:33Z</time></trkpt><trkpt lat="37.01536564517088" lon="15.005335981931143"><ele>453.0</ele><time>2026-04-26T08:04:35Z</time></trkpt><trkpt lat="37.01529537828183" lon="15.005238738363616"><ele>453.0</ele><time>2026-04-26T08:04:37Z</time></trkpt><trkpt lat="37.01522313954961" lon="15.0051749621324"><ele>453.0</ele><time>2026-04-26T08:04:38Z</time></trkpt><trkpt lat="37.01515865679455" lon="15.005121134255168"><ele>453.0</ele><time>2026-04-26T08:04:39Z</time></trkpt><trkpt lat="37.01509889526492" lon="15.005069483176245"><ele>453.0</ele><time>2026-04-26T08:04:40Z</time></trkpt><trkpt lat="37.01502548878084" lon="15.005005323266527"><ele>453.0</ele><time>2026-04-26T08:04:42Z</time></trkpt><trkpt lat="37.01497556530644" lon="15.004956617806512"><ele>453.0</ele><time>2026-04-26T08:04:43Z</time></trkpt><trkpt lat="37.01488700404895" lon="15.00486614885176"><ele>453.0</ele><time>2026-04-26T08:04:44Z</time></trkpt><trkpt lat="37.01481826776802" lon="15.004777358124016"><ele>453.0</ele><time>2026-04-26T08:04:45Z</time></trkpt><trkpt lat="37.01476752610305" lon="15.00470536259602"><ele>453.0</ele><time>2026-04-26T08:04:46Z</time></trkpt><trkpt lat="37.01471771912151" lon="15.004617435983114"><ele>453.0</ele><time>2026-04-26T08:04:47Z</time></trkpt><trkpt lat="37.014683390018526" lon="15.004509223342826"><ele>453.0</ele><time>2026-04-26T08:04:48Z</time></trkpt><trkpt lat="37.014648878548556" lon="15.004401293566646"><ele>453.0</ele><time>2026-04-26T08:04:49Z</time></trkpt><trkpt lat="37.01461557570109" lon="15.004293225058118"><ele>453.0</ele><time>2026-04-26T08:04:50Z</time></trkpt><trkpt lat="37.014583259038474" lon="15.004183237667954"><ele>453.0</ele><time>2026-04-26T08:04:51Z</time></trkpt><trkpt lat="37.014545610201" lon="15.004035695296908"><ele>453.0</ele><time>2026-04-26T08:04:52Z</time></trkpt><trkpt lat="37.014512072586314" lon="15.003865365352448"><ele>453.0</ele><time>2026-04-26T08:04:53Z</time></trkpt><trkpt lat="37.0144801044298" lon="15.003692712429272"><ele>452.79999999999995</ele><time>2026-04-26T08:04:54Z</time></trkpt><trkpt lat="37.01445218841881" lon="15.00354325662944"><ele>452.59999999999997</ele><time>2026-04-26T08:04:55Z</time></trkpt><trkpt lat="37.01442262820623" lon="15.003402608839751"><ele>452.40000000000003</ele><time>2026-04-26T08:04:56Z</time></trkpt><trkpt lat="37.01439227997842" lon="15.003281070333191"><ele>452.20000000000005</ele><time>2026-04-26T08:04:57Z</time></trkpt><trkpt lat="37.01436664118115" lon="15.003179975195405"><ele>452.0</ele><time>2026-04-26T08:04:58Z</time></trkpt><trkpt lat="37.014344687719706" lon="15.003093411511035"><ele>451.6</ele><time>2026-04-26T08:04:59Z</time></trkpt><trkpt lat="37.01432517452009" lon="15.003011619107568"><ele>451.20000000000005</ele><time>2026-04-26T08:05:00Z</time></trkpt><trkpt lat="37.014302780796044" lon="15.002922504098596"><ele>450.8</ele><time>2026-04-26T08:05:01Z</time></trkpt><trkpt lat="37.01426374946142" lon="15.002785076362796"><ele>450.4</ele><time>2026-04-26T08:05:02Z</time></trkpt><trkpt lat="37.01421284780283" lon="15.002612506263528"><ele>450.0</ele><time>2026-04-26T08:05:03Z</time></trkpt><trkpt lat="37.01416876317062" lon="15.002444849934378"><ele>449.6</ele><time>2026-04-26T08:05:04Z</time></trkpt><trkpt lat="37.01413417664954" lon="15.002321902293144"><ele>449.2</ele><time>2026-04-26T08:05:05Z</time></trkpt><trkpt lat="37.014091183715415" lon="15.002226354864186"><ele>448.79999999999995</ele><time>2026-04-26T08:05:06Z</time></trkpt><trkpt lat="37.014068658427504" lon="15.002105215086786"><ele>448.4</ele><time>2026-04-26T08:05:08Z</time></trkpt><trkpt lat="37.0140427400828" lon="15.0020253001856"><ele>448.0</ele><time>2026-04-26T08:05:10Z</time></trkpt><trkpt lat="37.01402981575227" lon="15.00189948886848"><ele>448.00000000000006</ele><time>2026-04-26T08:05:12Z</time></trkpt><trkpt lat="37.01403552754344" lon="15.001804072242344"><ele>448.0</ele><time>2026-04-26T08:05:13Z</time></trkpt><trkpt lat="37.014055103872316" lon="15.001701351332322"><ele>448.0</ele><time>2026-04-26T08:05:14Z</time></trkpt><trkpt lat="37.01407026258426" lon="15.001604721163327"><ele>448.0</ele><time>2026-04-26T08:05:15Z</time></trkpt><trkpt lat="37.01408468581118" lon="15.001507199815975"><ele>448.00000000000006</ele><time>2026-04-26T08:05:16Z</time></trkpt><trkpt lat="37.014101553971535" lon="15.001393147333241"><ele>448.0</ele><time>2026-04-26T08:05:17Z</time></trkpt><trkpt lat="37.01412073793186" lon="15.001266239281033"><ele>447.83333333333337</ele><time>2026-04-26T08:05:18Z</time></trkpt><trkpt lat="37.01414892526654" lon="15.001084076862403"><ele>447.6666666666667</ele><time>2026-04-26T08:05:20.001Z</time></trkpt><trkpt lat="37.01416051068466" lon="15.000985263338686"><ele>447.5</ele><time>2026-04-26T08:05:21.001Z</time></trkpt><trkpt lat="37.01416882887478" lon="15.000906699719115"><ele>447.33333333333337</ele><time>2026-04-26T08:05:22.001Z</time></trkpt><trkpt lat="37.01418187820513" lon="15.000822038210234"><ele>447.1666666666667</ele><time>2026-04-26T08:05:23.001Z</time></trkpt><trkpt lat="37.01419477497951" lon="15.000736250804042"><ele>447.0</ele><time>2026-04-26T08:05:24.001Z</time></trkpt><trkpt lat="37.014205164864336" lon="15.000598112333966"><ele>447.40000000000003</ele><time>2026-04-26T08:05:25.001Z</time></trkpt><trkpt lat="37.014197255183575" lon="15.000470903344306"><ele>447.80000000000007</ele><time>2026-04-26T08:05:26.001Z</time></trkpt><trkpt lat="37.01418849637058" lon="15.000376544030578"><ele>448.2</ele><time>2026-04-26T08:05:27.001Z</time></trkpt><trkpt lat="37.01408862699885" lon="15.000301679027855"><ele>448.6</ele><time>2026-04-26T08:05:29.001Z</time></trkpt><trkpt lat="37.01398100390928" lon="15.000284253466376"><ele>449.0</ele><time>2026-04-26T08:05:31.001Z</time></trkpt><trkpt lat="37.01388084654838" lon="15.00022431076266"><ele>449.0</ele><time>2026-04-26T08:05:33.001Z</time></trkpt><trkpt lat="37.01379826099642" lon="15.00018833439776"><ele>449.0</ele><time>2026-04-26T08:05:34.001Z</time></trkpt><trkpt lat="37.01372841110418" lon="15.000151863851901"><ele>449.0</ele><time>2026-04-26T08:05:35.001Z</time></trkpt><trkpt lat="37.01366238932224" lon="15.000105596663284"><ele>449.0</ele><time>2026-04-26T08:05:36.001Z</time></trkpt><trkpt lat="37.01360507023977" lon="15.000045127821947"><ele>449.0</ele><time>2026-04-26T08:05:37.001Z</time></trkpt><trkpt lat="37.01352419288123" lon="14.99990422254964"><ele>449.0</ele><time>2026-04-26T08:05:39.001Z</time></trkpt><trkpt lat="37.013462825526865" lon="14.999802034761208"><ele>449.0</ele><time>2026-04-26T08:05:40.001Z</time></trkpt><trkpt lat="37.0133966674131" lon="14.999673799655705"><ele>449.0</ele><time>2026-04-26T08:05:41.001Z</time></trkpt><trkpt lat="37.01335181256496" lon="14.999577943206594"><ele>449.0</ele><time>2026-04-26T08:05:42.001Z</time></trkpt><trkpt lat="37.0133231640722" lon="14.999497333724694"><ele>449.0</ele><time>2026-04-26T08:05:43.001Z</time></trkpt><trkpt lat="37.01330703458226" lon="14.999415778608977"><ele>449.75</ele><time>2026-04-26T08:05:44.001Z</time></trkpt><trkpt lat="37.01328181440686" lon="14.999280615950022"><ele>450.5</ele><time>2026-04-26T08:05:45.001Z</time></trkpt><trkpt lat="37.013267206129065" lon="14.999120177268207"><ele>451.25</ele><time>2026-04-26T08:05:46.001Z</time></trkpt><trkpt lat="37.01325090166146" lon="14.998954488039805"><ele>452.0</ele><time>2026-04-26T08:05:47.001Z</time></trkpt><trkpt lat="37.013240243543045" lon="14.998815232218073"><ele>452.0</ele><time>2026-04-26T08:05:48.001Z</time></trkpt><trkpt lat="37.01323101320804" lon="14.99867099533388"><ele>452.00000000000006</ele><time>2026-04-26T08:05:49.001Z</time></trkpt><trkpt lat="37.01322410270174" lon="14.998551005224229"><ele>452.00000000000006</ele><time>2026-04-26T08:05:50.001Z</time></trkpt><trkpt lat="37.01321554751875" lon="14.998438924081622"><ele>452.0</ele><time>2026-04-26T08:05:51.001Z</time></trkpt><trkpt lat="37.01318854236102" lon="14.998358963299248"><ele>452.0</ele><time>2026-04-26T08:05:52.001Z</time></trkpt><trkpt lat="37.013258657567064" lon="14.998266114596982"><ele>452.25</ele><time>2026-04-26T08:05:54.001Z</time></trkpt><trkpt lat="37.013295947261454" lon="14.998169280272935"><ele>452.5</ele><time>2026-04-26T08:05:55.001Z</time></trkpt><trkpt lat="37.01334563235737" lon="14.998027046017471"><ele>452.75</ele><time>2026-04-26T08:05:56.001Z</time></trkpt><trkpt lat="37.01340728955625" lon="14.997840941871793"><ele>453.0</ele><time>2026-04-26T08:05:57.001Z</time></trkpt><trkpt lat="37.01343499648272" lon="14.997704343312552"><ele>453.0</ele><time>2026-04-26T08:05:58.001Z</time></trkpt><trkpt lat="37.01346697058048" lon="14.997581331546339"><ele>453.0</ele><time>2026-04-26T08:05:59.001Z</time></trkpt><trkpt lat="37.01352163008807" lon="14.997446079601197"><ele>453.0</ele><time>2026-04-26T08:06:00.001Z</time></trkpt><trkpt lat="37.0135600880265" lon="14.997308920195742"><ele>453.0</ele><time>2026-04-26T08:06:01.001Z</time></trkpt><trkpt lat="37.01360249883302" lon="14.99715785094149"><ele>453.25</ele><time>2026-04-26T08:06:02.001Z</time></trkpt><trkpt lat="37.01364888415203" lon="14.997002598805716"><ele>453.5</ele><time>2026-04-26T08:06:03.001Z</time></trkpt><trkpt lat="37.01369664463202" lon="14.996857358538081"><ele>453.75</ele><time>2026-04-26T08:06:04.001Z</time></trkpt><trkpt lat="37.013740676085995" lon="14.99672380256649"><ele>454.0</ele><time>2026-04-26T08:06:05.001Z</time></trkpt><trkpt lat="37.0137563157495" lon="14.996623186989636"><ele>454.75</ele><time>2026-04-26T08:06:06.001Z</time></trkpt><trkpt lat="37.01380395358471" lon="14.996468328818706"><ele>455.5</ele><time>2026-04-26T08:06:07.001Z</time></trkpt><trkpt lat="37.01386397975456" lon="14.996301232910787"><ele>456.25</ele><time>2026-04-26T08:06:08.001Z</time></trkpt><trkpt lat="37.013913001109906" lon="14.99614372340651"><ele>457.0</ele><time>2026-04-26T08:06:09.001Z</time></trkpt><trkpt lat="37.01398320914991" lon="14.996014925976397"><ele>457.0</ele><time>2026-04-26T08:06:10Z</time></trkpt><trkpt lat="37.014046826720765" lon="14.995886427343962"><ele>457.0</ele><time>2026-04-26T08:06:11Z</time></trkpt><trkpt lat="37.01409676699027" lon="14.99574699152096"><ele>457.0</ele><time>2026-04-26T08:06:12Z</time></trkpt><trkpt lat="37.01417774208723" lon="14.995593865552337"><ele>457.0</ele><time>2026-04-26T08:06:13Z</time></trkpt><trkpt lat="37.01425599427366" lon="14.99544631520894"><ele>457.40000000000003</ele><time>2026-04-26T08:06:14Z</time></trkpt><trkpt lat="37.014315308113176" lon="14.995335331711692"><ele>457.80000000000007</ele><time>2026-04-26T08:06:15Z</time></trkpt><trkpt lat="37.014363099480214" lon="14.99522759480278"><ele>458.2</ele><time>2026-04-26T08:06:16Z</time></trkpt><trkpt lat="37.01440451458573" lon="14.995144289632355"><ele>458.6</ele><time>2026-04-26T08:06:17Z</time></trkpt><trkpt lat="37.014480580419786" lon="14.995077898276824"><ele>459.0</ele><time>2026-04-26T08:06:19Z</time></trkpt><trkpt lat="37.014553391869725" lon="14.995114625654788"><ele>459.0</ele><time>2026-04-26T08:06:21Z</time></trkpt><trkpt lat="37.01461340852366" lon="14.995171993409402"><ele>459.0</ele><time>2026-04-26T08:06:22Z</time></trkpt><trkpt lat="37.01469388461463" lon="14.995247781774587"><ele>459.0</ele><time>2026-04-26T08:06:23Z</time></trkpt><trkpt lat="37.0147953358267" lon="14.99536592334847"><ele>459.0</ele><time>2026-04-26T08:06:24Z</time></trkpt><trkpt lat="37.01488692430815" lon="14.995452709039359"><ele>459.0</ele><time>2026-04-26T08:06:25Z</time></trkpt><trkpt lat="37.0149599882384" lon="14.995504110833947"><ele>459.5</ele><time>2026-04-26T08:06:26Z</time></trkpt><trkpt lat="37.015021994076044" lon="14.995539690306954"><ele>460.0</ele><time>2026-04-26T08:06:27Z</time></trkpt><trkpt lat="37.01509245595721" lon="14.995580335318083"><ele>460.5</ele><time>2026-04-26T08:06:28Z</time></trkpt><trkpt lat="37.01516379594293" lon="14.995620001663392"><ele>461.0</ele><time>2026-04-26T08:06:29Z</time></trkpt><trkpt lat="37.01524544116221" lon="14.995614127833344"><ele>461.5</ele><time>2026-04-26T08:06:30Z</time></trkpt><trkpt lat="37.015377462748596" lon="14.995596735832837"><ele>462.0</ele><time>2026-04-26T08:06:32Z</time></trkpt><trkpt lat="37.01545561507785" lon="14.995547156528666"><ele>462.0</ele><time>2026-04-26T08:06:34Z</time></trkpt><trkpt lat="37.01555093794513" lon="14.995519382476"><ele>462.0</ele><time>2026-04-26T08:06:36Z</time></trkpt><trkpt lat="37.0156546889512" lon="14.99571182069081"><ele>462.0</ele><time>2026-04-26T08:06:37Z</time></trkpt><trkpt lat="37.01574905445689" lon="14.99573644550425"><ele>462.0</ele><time>2026-04-26T08:06:39Z</time></trkpt><trkpt lat="37.01582772216833" lon="14.995707922140124"><ele>462.1666666666667</ele><time>2026-04-26T08:06:41Z</time></trkpt><trkpt lat="37.015888818832295" lon="14.995623513898712"><ele>462.33333333333337</ele><time>2026-04-26T08:06:43Z</time></trkpt><trkpt lat="37.01594481679625" lon="14.995495835517394"><ele>462.5</ele><time>2026-04-26T08:06:45Z</time></trkpt><trkpt lat="37.015983660065224" lon="14.995433617287018"><ele>462.6666666666667</ele><time>2026-04-26T08:06:46Z</time></trkpt><trkpt lat="37.01602755709933" lon="14.995371587828695"><ele>462.83333333333337</ele><time>2026-04-26T08:06:47Z</time></trkpt><trkpt lat="37.01607394333635" lon="14.995294145107534"><ele>463.0</ele><time>2026-04-26T08:06:48Z</time></trkpt><trkpt lat="37.01611285269238" lon="14.995224623824225"><ele>463.00000000000006</ele><time>2026-04-26T08:06:49Z</time></trkpt><trkpt lat="37.01618022744666" lon="14.995098389358125"><ele>463.0</ele><time>2026-04-26T08:06:51Z</time></trkpt><trkpt lat="37.01621950042671" lon="14.995017579592101"><ele>463.0</ele><time>2026-04-26T08:06:53Z</time></trkpt><trkpt lat="37.01627431059402" lon="14.99492356412248"><ele>463.0</ele><time>2026-04-26T08:06:56Z</time></trkpt><trkpt lat="37.01631484231528" lon="14.994854486041191"><ele>463.00000000000006</ele><time>2026-04-26T08:06:57Z</time></trkpt><trkpt lat="37.016359688561074" lon="14.994767455580575"><ele>463.0</ele><time>2026-04-26T08:06:58Z</time></trkpt><trkpt lat="37.01641923883933" lon="14.994672012178512"><ele>463.4</ele><time>2026-04-26T08:06:59Z</time></trkpt><trkpt lat="37.016485466842155" lon="14.994571240258168"><ele>463.79999999999995</ele><time>2026-04-26T08:07:01Z</time></trkpt><trkpt lat="37.01651282234445" lon="14.994495030216681"><ele>464.2</ele><time>2026-04-26T08:07:02Z</time></trkpt><trkpt lat="37.01659435742372" lon="14.994371819148517"><ele>464.6</ele><time>2026-04-26T08:07:04Z</time></trkpt><trkpt lat="37.01667440841936" lon="14.994284413614485"><ele>465.0</ele><time>2026-04-26T08:07:06Z</time></trkpt><trkpt lat="37.016757001516986" lon="14.994207187815425"><ele>466.6</ele><time>2026-04-26T08:07:08.001Z</time></trkpt><trkpt lat="37.01683420268498" lon="14.994079116255115"><ele>468.2</ele><time>2026-04-26T08:07:10.001Z</time></trkpt><trkpt lat="37.016914744331345" lon="14.993978907615368"><ele>469.79999999999995</ele><time>2026-04-26T08:07:12.001Z</time></trkpt><trkpt lat="37.0169556470367" lon="14.993903629018888"><ele>471.4</ele><time>2026-04-26T08:07:13.001Z</time></trkpt><trkpt lat="37.01699945917834" lon="14.993826154526976"><ele>473.0</ele><time>2026-04-26T08:07:14.001Z</time></trkpt><trkpt lat="37.017065826141256" lon="14.99372195877023"><ele>472.99999999999994</ele><time>2026-04-26T08:07:16.001Z</time></trkpt><trkpt lat="37.01713784998701" lon="14.993612961465887"><ele>473.0</ele><time>2026-04-26T08:07:18.001Z</time></trkpt><trkpt lat="37.01717970336628" lon="14.993544533658511"><ele>473.0</ele><time>2026-04-26T08:07:19.001Z</time></trkpt><trkpt lat="37.01723056241618" lon="14.9934613249246"><ele>473.0</ele><time>2026-04-26T08:07:20.001Z</time></trkpt><trkpt lat="37.01730844411697" lon="14.993361860266244"><ele>472.99999999999994</ele><time>2026-04-26T08:07:22.001Z</time></trkpt><trkpt lat="37.01735336078902" lon="14.993298068101064"><ele>473.0</ele><time>2026-04-26T08:07:23.001Z</time></trkpt><trkpt lat="37.01739546045037" lon="14.993235670279821"><ele>472.99999999999994</ele><time>2026-04-26T08:07:24.001Z</time></trkpt><trkpt lat="37.017480739490786" lon="14.993136745680417"><ele>473.0</ele><time>2026-04-26T08:07:26.001Z</time></trkpt><trkpt lat="37.01753042342251" lon="14.993068514749812"><ele>473.0</ele><time>2026-04-26T08:07:27.001Z</time></trkpt><trkpt lat="37.01758317975573" lon="14.99301907632455"><ele>473.0</ele><time>2026-04-26T08:07:28.001Z</time></trkpt><trkpt lat="37.01766378048551" lon="14.99292580252902"><ele>472.99999999999994</ele><time>2026-04-26T08:07:30.001Z</time></trkpt><trkpt lat="37.017727091699854" lon="14.992875015876331"><ele>473.0</ele><time>2026-04-26T08:07:31.001Z</time></trkpt><trkpt lat="37.01777746939916" lon="14.992827443973002"><ele>472.99999999999994</ele><time>2026-04-26T08:07:32.001Z</time></trkpt><trkpt lat="37.017836335744065" lon="14.992764931422693"><ele>473.0</ele><time>2026-04-26T08:07:33.001Z</time></trkpt><trkpt lat="37.01790184727848" lon="14.99269241576181"><ele>473.0</ele><time>2026-04-26T08:07:34.001Z</time></trkpt><trkpt lat="37.01800796539906" lon="14.992586062880173"><ele>473.0</ele><time>2026-04-26T08:07:36.001Z</time></trkpt><trkpt lat="37.018059247562235" lon="14.99253759750521"><ele>472.99999999999994</ele><time>2026-04-26T08:07:37.001Z</time></trkpt><trkpt lat="37.01812648180766" lon="14.992500813371699"><ele>473.0</ele><time>2026-04-26T08:07:39.001Z</time></trkpt><trkpt lat="37.01822474889924" lon="14.992452121068997"><ele>473.4</ele><time>2026-04-26T08:07:42.001Z</time></trkpt><trkpt lat="37.018291992552705" lon="14.992413415049494"><ele>473.79999999999995</ele><time>2026-04-26T08:07:43.001Z</time></trkpt><trkpt lat="37.018354477811286" lon="14.992311313986336"><ele>474.2</ele><time>2026-04-26T08:07:46.001Z</time></trkpt><trkpt lat="37.01843592338338" lon="14.992213372045988"><ele>474.6</ele><time>2026-04-26T08:07:48.001Z</time></trkpt><trkpt lat="37.018483385746" lon="14.992144566160848"><ele>475.0</ele><time>2026-04-26T08:07:49.001Z</time></trkpt><trkpt lat="37.018541067120154" lon="14.992052866973097"><ele>475.2</ele><time>2026-04-26T08:07:51.001Z</time></trkpt><trkpt lat="37.01858496134346" lon="14.991977243706"><ele>475.4</ele><time>2026-04-26T08:07:53.001Z</time></trkpt><trkpt lat="37.01863361490911" lon="14.991881485977446"><ele>475.6</ele><time>2026-04-26T08:07:55.001Z</time></trkpt><trkpt lat="37.01869905157417" lon="14.991760329702796"><ele>475.8</ele><time>2026-04-26T08:07:57.001Z</time></trkpt><trkpt lat="37.01877039381461" lon="14.99165942408882"><ele>476.0</ele><time>2026-04-26T08:07:59.001Z</time></trkpt><trkpt lat="37.01883444712068" lon="14.991576387320567"><ele>477.20000000000005</ele><time>2026-04-26T08:08:01.001Z</time></trkpt><trkpt lat="37.018909568269656" lon="14.991467137194723"><ele>478.40000000000003</ele><time>2026-04-26T08:08:03.001Z</time></trkpt><trkpt lat="37.01894795462737" lon="14.991397152952418"><ele>479.6</ele><time>2026-04-26T08:08:05.001Z</time></trkpt><trkpt lat="37.019043422046" lon="14.991314370548231"><ele>480.8</ele><time>2026-04-26T08:08:06.001Z</time></trkpt><trkpt lat="37.01912935559083" lon="14.991213946370397"><ele>482.0</ele><time>2026-04-26T08:08:08.001Z</time></trkpt><trkpt lat="37.019211873572026" lon="14.9911038729386"><ele>482.40000000000003</ele><time>2026-04-26T08:08:10.001Z</time></trkpt><trkpt lat="37.019260446925294" lon="14.991042181368845"><ele>482.80000000000007</ele><time>2026-04-26T08:08:11.001Z</time></trkpt><trkpt lat="37.019311534573255" lon="14.990976160998526"><ele>483.2</ele><time>2026-04-26T08:08:12.001Z</time></trkpt><trkpt lat="37.019352908606365" lon="14.990914032280333"><ele>483.6</ele><time>2026-04-26T08:08:13.001Z</time></trkpt><trkpt lat="37.019435040106664" lon="14.990799975978293"><ele>484.0</ele><time>2026-04-26T08:08:15.001Z</time></trkpt><trkpt lat="37.019508563519004" lon="14.990669586663993"><ele>484.79999999999995</ele><time>2026-04-26T08:08:17Z</time></trkpt><trkpt lat="37.01959592516438" lon="14.990547126285463"><ele>485.59999999999997</ele><time>2026-04-26T08:08:19Z</time></trkpt><trkpt lat="37.01965682297947" lon="14.990472812741764"><ele>486.4</ele><time>2026-04-26T08:08:20Z</time></trkpt><trkpt lat="37.01970198614453" lon="14.990416185944225"><ele>487.2</ele><time>2026-04-26T08:08:21Z</time></trkpt><trkpt lat="37.01976627111883" lon="14.990323978208849"><ele>488.0</ele><time>2026-04-26T08:08:23Z</time></trkpt><trkpt lat="37.01985434629118" lon="14.990244853670836"><ele>487.99999999999994</ele><time>2026-04-26T08:08:25Z</time></trkpt><trkpt lat="37.01992308179919" lon="14.990156694799447"><ele>488.0</ele><time>2026-04-26T08:08:27Z</time></trkpt><trkpt lat="37.01998115755373" lon="14.990077664178251"><ele>488.0</ele><time>2026-04-26T08:08:29Z</time></trkpt><trkpt lat="37.02002536554083" lon="14.99000339497838"><ele>488.0</ele><time>2026-04-26T08:08:31Z</time></trkpt><trkpt lat="37.0200787589568" lon="14.98993455429185"><ele>487.99999999999994</ele><time>2026-04-26T08:08:33Z</time></trkpt><trkpt lat="37.020122312083835" lon="14.989871241662465"><ele>488.0</ele><time>2026-04-26T08:08:34Z</time></trkpt><trkpt lat="37.02020637083542" lon="14.989753213513271"><ele>489.3333333333333</ele><time>2026-04-26T08:08:36Z</time></trkpt><trkpt lat="37.02025137983196" lon="14.98968812696259"><ele>490.66666666666663</ele><time>2026-04-26T08:08:37Z</time></trkpt><trkpt lat="37.020311166789355" lon="14.989575601805802"><ele>492.0</ele><time>2026-04-26T08:08:39Z</time></trkpt><trkpt lat="37.02034150513285" lon="14.989464183660695"><ele>493.33333333333337</ele><time>2026-04-26T08:08:41Z</time></trkpt><trkpt lat="37.02042078632928" lon="14.989393499936662"><ele>494.6666666666667</ele><time>2026-04-26T08:08:43Z</time></trkpt><trkpt lat="37.020474074685794" lon="14.989344799056262"><ele>496.0</ele><time>2026-04-26T08:08:44Z</time></trkpt><trkpt lat="37.020510797611514" lon="14.989278780704964"><ele>497.00000000000006</ele><time>2026-04-26T08:08:45Z</time></trkpt><trkpt lat="37.02054666586729" lon="14.989172879232553"><ele>498.0</ele><time>2026-04-26T08:08:47Z</time></trkpt><trkpt lat="37.0205789945967" lon="14.989077826391854"><ele>499.0</ele><time>2026-04-26T08:08:49Z</time></trkpt><trkpt lat="37.020619098544394" lon="14.988993653396351"><ele>500.0</ele><time>2026-04-26T08:08:51Z</time></trkpt><trkpt lat="37.020643864589246" lon="14.988904160150382"><ele>501.00000000000006</ele><time>2026-04-26T08:08:53Z</time></trkpt><trkpt lat="37.020653687500555" lon="14.988760241929219"><ele>502.0</ele><time>2026-04-26T08:08:55Z</time></trkpt><trkpt lat="37.020668168632824" lon="14.988664174191607"><ele>502.0</ele><time>2026-04-26T08:08:56Z</time></trkpt><trkpt lat="37.020707759409625" lon="14.988585769276922"><ele>502.00000000000006</ele><time>2026-04-26T08:08:57Z</time></trkpt><trkpt lat="37.020765324686366" lon="14.988513340189357"><ele>502.00000000000006</ele><time>2026-04-26T08:08:58Z</time></trkpt><trkpt lat="37.02082334014219" lon="14.988446490102204"><ele>502.0</ele><time>2026-04-26T08:08:59Z</time></trkpt><trkpt lat="37.02090631948311" lon="14.988349927574474"><ele>502.0</ele><time>2026-04-26T08:09:00Z</time></trkpt><trkpt lat="37.020998403509246" lon="14.988242769986694"><ele>502.8</ele><time>2026-04-26T08:09:01Z</time></trkpt><trkpt lat="37.02107314873139" lon="14.988155789463892"><ele>503.6</ele><time>2026-04-26T08:09:02Z</time></trkpt><trkpt lat="37.021142029453365" lon="14.988050215109142"><ele>504.40000000000003</ele><time>2026-04-26T08:09:03Z</time></trkpt><trkpt lat="37.02121905745454" lon="14.987974914218848"><ele>505.20000000000005</ele><time>2026-04-26T08:09:04Z</time></trkpt><trkpt lat="37.021275247024725" lon="14.987874555582565"><ele>506.0</ele><time>2026-04-26T08:09:05Z</time></trkpt><trkpt lat="37.021348391695895" lon="14.987806694921225"><ele>506.0</ele><time>2026-04-26T08:09:06Z</time></trkpt><trkpt lat="37.0214127158666" lon="14.987712144715585"><ele>506.0</ele><time>2026-04-26T08:09:07Z</time></trkpt><trkpt lat="37.02149721019566" lon="14.987644888578888"><ele>506.0</ele><time>2026-04-26T08:09:08Z</time></trkpt><trkpt lat="37.0215704841179" lon="14.987565277958586"><ele>506.0</ele><time>2026-04-26T08:09:09Z</time></trkpt><trkpt lat="37.02165053257762" lon="14.987482153296407"><ele>506.0</ele><time>2026-04-26T08:09:10Z</time></trkpt><trkpt lat="37.021750631390006" lon="14.987354261404581"><ele>508.6</ele><time>2026-04-26T08:09:11Z</time></trkpt><trkpt lat="37.02185497630336" lon="14.987249905266632"><ele>511.20000000000005</ele><time>2026-04-26T08:09:12Z</time></trkpt><trkpt lat="37.02194020251797" lon="14.987145110288163"><ele>513.8</ele><time>2026-04-26T08:09:13Z</time></trkpt><trkpt lat="37.022011105303164" lon="14.987050815290319"><ele>516.4</ele><time>2026-04-26T08:09:14Z</time></trkpt><trkpt lat="37.02208628537926" lon="14.986988870977683"><ele>519.0</ele><time>2026-04-26T08:09:15.001Z</time></trkpt><trkpt lat="37.02214478304354" lon="14.986905962943544"><ele>519.0</ele><time>2026-04-26T08:09:16.001Z</time></trkpt><trkpt lat="37.022239240140024" lon="14.986827186510174"><ele>519.0</ele><time>2026-04-26T08:09:17.001Z</time></trkpt><trkpt lat="37.022329199532095" lon="14.986742538442375"><ele>519.0</ele><time>2026-04-26T08:09:18.001Z</time></trkpt><trkpt lat="37.02241665862447" lon="14.986654420126811"><ele>519.0</ele><time>2026-04-26T08:09:19.001Z</time></trkpt><trkpt lat="37.02249224477876" lon="14.986567570919872"><ele>519.0</ele><time>2026-04-26T08:09:20.001Z</time></trkpt><trkpt lat="37.02253408590204" lon="14.986495395680832"><ele>520.8</ele><time>2026-04-26T08:09:21.001Z</time></trkpt><trkpt lat="37.02256157326486" lon="14.986417306614621"><ele>522.5999999999999</ele><time>2026-04-26T08:09:22.001Z</time></trkpt><trkpt lat="37.02259355778204" lon="14.986280570858446"><ele>524.4</ele><time>2026-04-26T08:09:23.001Z</time></trkpt><trkpt lat="37.02263067283877" lon="14.986146654945156"><ele>526.1999999999999</ele><time>2026-04-26T08:09:24.001Z</time></trkpt><trkpt lat="37.022696244353284" lon="14.985978786267857"><ele>528.0</ele><time>2026-04-26T08:09:25.001Z</time></trkpt><trkpt lat="37.02272276808964" lon="14.98583926504097"><ele>528.3333333333334</ele><time>2026-04-26T08:09:26.001Z</time></trkpt><trkpt lat="37.022773001186266" lon="14.985751638662476"><ele>528.6666666666666</ele><time>2026-04-26T08:09:27.001Z</time></trkpt><trkpt lat="37.022815105078664" lon="14.985678583254579"><ele>529.0</ele><time>2026-04-26T08:09:28.001Z</time></trkpt><trkpt lat="37.02286985042413" lon="14.985611544507833"><ele>529.3333333333333</ele><time>2026-04-26T08:09:29.001Z</time></trkpt><trkpt lat="37.022931236590544" lon="14.985553109717548"><ele>529.6666666666666</ele><time>2026-04-26T08:09:30.001Z</time></trkpt><trkpt lat="37.0230024820376" lon="14.98551893059992"><ele>530.0</ele><time>2026-04-26T08:09:31.001Z</time></trkpt><trkpt lat="37.02309174093841" lon="14.985470255383271"><ele>530.0</ele><time>2026-04-26T08:09:32.001Z</time></trkpt><trkpt lat="37.023180013248584" lon="14.985429505610988"><ele>530.0</ele><time>2026-04-26T08:09:33.001Z</time></trkpt><trkpt lat="37.02327606130052" lon="14.985367178467717"><ele>530.0</ele><time>2026-04-26T08:09:34.001Z</time></trkpt><trkpt lat="37.02340281781" lon="14.985337580382899"><ele>530.0</ele><time>2026-04-26T08:09:35.001Z</time></trkpt><trkpt lat="37.02352411229772" lon="14.985291926241358"><ele>529.8</ele><time>2026-04-26T08:09:36.001Z</time></trkpt><trkpt lat="37.02361514810908" lon="14.985258917222021"><ele>529.6</ele><time>2026-04-26T08:09:37.001Z</time></trkpt><trkpt lat="37.02369728741547" lon="14.985227656602177"><ele>529.4</ele><time>2026-04-26T08:09:38.001Z</time></trkpt><trkpt lat="37.02381647165926" lon="14.98516473195067"><ele>529.2</ele><time>2026-04-26T08:09:39.001Z</time></trkpt><trkpt lat="37.02390592416618" lon="14.985095704675635"><ele>529.0</ele><time>2026-04-26T08:09:40.001Z</time></trkpt><trkpt lat="37.02399336169" lon="14.985018477699871"><ele>529.5</ele><time>2026-04-26T08:09:41.001Z</time></trkpt><trkpt lat="37.02409619291803" lon="14.984911368864651"><ele>530.0</ele><time>2026-04-26T08:09:42.001Z</time></trkpt><trkpt lat="37.02419823991298" lon="14.984774787438292"><ele>530.5</ele><time>2026-04-26T08:09:43.001Z</time></trkpt><trkpt lat="37.024319227605496" lon="14.984672881140707"><ele>531.0</ele><time>2026-04-26T08:09:44.001Z</time></trkpt><trkpt lat="37.02442624932372" lon="14.984562348328753"><ele>531.0</ele><time>2026-04-26T08:09:45.001Z</time></trkpt><trkpt lat="37.02452423442928" lon="14.984450655980458"><ele>531.0</ele><time>2026-04-26T08:09:46.001Z</time></trkpt><trkpt lat="37.02459789083703" lon="14.984339037300302"><ele>531.0</ele><time>2026-04-26T08:09:47.001Z</time></trkpt><trkpt lat="37.02468686494253" lon="14.984236190865833"><ele>531.0</ele><time>2026-04-26T08:09:48.001Z</time></trkpt><trkpt lat="37.02475796945193" lon="14.984115282152581"><ele>531.5</ele><time>2026-04-26T08:09:49.001Z</time></trkpt><trkpt lat="37.02483532796977" lon="14.983970945935326"><ele>532.0</ele><time>2026-04-26T08:09:50.001Z</time></trkpt><trkpt lat="37.02489131341134" lon="14.98385856013212"><ele>532.5</ele><time>2026-04-26T08:09:51.001Z</time></trkpt><trkpt lat="37.0249382824924" lon="14.983756288666658"><ele>533.0</ele><time>2026-04-26T08:09:52.001Z</time></trkpt><trkpt lat="37.02500080819916" lon="14.983620405634488"><ele>533.0</ele><time>2026-04-26T08:09:53.001Z</time></trkpt><trkpt lat="37.025054411895006" lon="14.983492040076632"><ele>533.0</ele><time>2026-04-26T08:09:54.001Z</time></trkpt><trkpt lat="37.02509486657159" lon="14.983370447467683"><ele>533.0</ele><time>2026-04-26T08:09:55.001Z</time></trkpt><trkpt lat="37.0251366952273" lon="14.983221316533637"><ele>533.0</ele><time>2026-04-26T08:09:56.001Z</time></trkpt><trkpt lat="37.02517168530274" lon="14.983075431993777"><ele>533.8</ele><time>2026-04-26T08:09:57.001Z</time></trkpt><trkpt lat="37.02519757290888" lon="14.982944802193547"><ele>534.5999999999999</ele><time>2026-04-26T08:09:58.001Z</time></trkpt><trkpt lat="37.02521973613526" lon="14.982820216630792"><ele>535.4000000000001</ele><time>2026-04-26T08:09:59.001Z</time></trkpt><trkpt lat="37.02524411621562" lon="14.98267723075846"><ele>536.2</ele><time>2026-04-26T08:10:00.001Z</time></trkpt><trkpt lat="37.025262452375806" lon="14.982541198386109"><ele>537.0</ele><time>2026-04-26T08:10:01.001Z</time></trkpt><trkpt lat="37.02526299923911" lon="14.982413852583441"><ele>537.0</ele><time>2026-04-26T08:10:02.001Z</time></trkpt><trkpt lat="37.02529730998181" lon="14.982299343668748"><ele>537.0</ele><time>2026-04-26T08:10:03.001Z</time></trkpt><trkpt lat="37.02531880173185" lon="14.982176661003848"><ele>537.0</ele><time>2026-04-26T08:10:04.001Z</time></trkpt><trkpt lat="37.025346716483476" lon="14.982064325575088"><ele>537.0</ele><time>2026-04-26T08:10:05.001Z</time></trkpt><trkpt lat="37.025371220825605" lon="14.981978714542542"><ele>537.0</ele><time>2026-04-26T08:10:06.001Z</time></trkpt><trkpt lat="37.02542023833078" lon="14.981902007481468"><ele>537.0</ele><time>2026-04-26T08:10:08.001Z</time></trkpt><trkpt lat="37.02554853393969" lon="14.981976327216017"><ele>537.0</ele><time>2026-04-26T08:10:10.001Z</time></trkpt><trkpt lat="37.02564886041455" lon="14.98200645558588"><ele>537.0</ele><time>2026-04-26T08:10:11.001Z</time></trkpt><trkpt lat="37.025726709972105" lon="14.982033662823836"><ele>537.0</ele><time>2026-04-26T08:10:12.001Z</time></trkpt><trkpt lat="37.02580865536188" lon="14.982063581928095"><ele>537.0</ele><time>2026-04-26T08:10:13.001Z</time></trkpt><trkpt lat="37.02591788450926" lon="14.98210998595921"><ele>537.0</ele><time>2026-04-26T08:10:14.001Z</time></trkpt><trkpt lat="37.026038035117814" lon="14.982157876298954"><ele>535.0</ele><time>2026-04-26T08:10:15.001Z</time></trkpt><trkpt lat="37.026143116371095" lon="14.982187048816295"><ele>533.0</ele><time>2026-04-26T08:10:16.001Z</time></trkpt><trkpt lat="37.02624552085084" lon="14.982188605808645"><ele>531.0</ele><time>2026-04-26T08:10:17.001Z</time></trkpt><trkpt lat="37.02634642777038" lon="14.982215246003058"><ele>529.0</ele><time>2026-04-26T08:10:18.001Z</time></trkpt><trkpt lat="37.0264567820737" lon="14.98223581885124"><ele>527.0</ele><time>2026-04-26T08:10:19.001Z</time></trkpt><trkpt lat="37.02656975246746" lon="14.982268013224608"><ele>525.5</ele><time>2026-04-26T08:10:20.001Z</time></trkpt><trkpt lat="37.0266734855106" lon="14.982287050734255"><ele>524.0</ele><time>2026-04-26T08:10:21.001Z</time></trkpt><trkpt lat="37.026769760509644" lon="14.9823058040324"><ele>522.5</ele><time>2026-04-26T08:10:22Z</time></trkpt><trkpt lat="37.02685382456358" lon="14.98231022121966"><ele>521.0</ele><time>2026-04-26T08:10:23Z</time></trkpt><trkpt lat="37.026931923236226" lon="14.9823316883936"><ele>519.5</ele><time>2026-04-26T08:10:24Z</time></trkpt><trkpt lat="37.02700400995864" lon="14.98230952671452"><ele>518.0</ele><time>2026-04-26T08:10:25Z</time></trkpt><trkpt lat="37.02707060637504" lon="14.982288424764135"><ele>518.0</ele><time>2026-04-26T08:10:26Z</time></trkpt><trkpt lat="37.027144951420134" lon="14.982274228325469"><ele>518.0</ele><time>2026-04-26T08:10:27Z</time></trkpt><trkpt lat="37.027201557096056" lon="14.982171272377133"><ele>518.0</ele><time>2026-04-26T08:10:28Z</time></trkpt><trkpt lat="37.02727572307291" lon="14.982094245199308"><ele>518.0</ele><time>2026-04-26T08:10:29Z</time></trkpt><trkpt lat="37.027362329150876" lon="14.981997318730842"><ele>518.0</ele><time>2026-04-26T08:10:30Z</time></trkpt><trkpt lat="37.02747916186981" lon="14.981885944825276"><ele>515.75</ele><time>2026-04-26T08:10:31Z</time></trkpt><trkpt lat="37.02758919104995" lon="14.981770579052005"><ele>513.5</ele><time>2026-04-26T08:10:32Z</time></trkpt><trkpt lat="37.02768250564829" lon="14.981681344855057"><ele>511.25</ele><time>2026-04-26T08:10:33Z</time></trkpt><trkpt lat="37.02775949687424" lon="14.981577868917583"><ele>509.0</ele><time>2026-04-26T08:10:34Z</time></trkpt><trkpt lat="37.02783446207432" lon="14.981494046333145"><ele>509.0</ele><time>2026-04-26T08:10:35Z</time></trkpt><trkpt lat="37.02788347560993" lon="14.98139845571233"><ele>509.0</ele><time>2026-04-26T08:10:36Z</time></trkpt><trkpt lat="37.02792830225929" lon="14.98130540282589"><ele>509.0</ele><time>2026-04-26T08:10:37Z</time></trkpt><trkpt lat="37.02797847945662" lon="14.981190429721208"><ele>509.0</ele><time>2026-04-26T08:10:38Z</time></trkpt><trkpt lat="37.02804043435967" lon="14.981044601979244"><ele>509.0</ele><time>2026-04-26T08:10:39Z</time></trkpt><trkpt lat="37.028111768586335" lon="14.980883784933335"><ele>510.0</ele><time>2026-04-26T08:10:40Z</time></trkpt><trkpt lat="37.028180304359246" lon="14.980731965921814"><ele>511.0</ele><time>2026-04-26T08:10:41Z</time></trkpt><trkpt lat="37.02822731450192" lon="14.980568905033524"><ele>512.0</ele><time>2026-04-26T08:10:42Z</time></trkpt><trkpt lat="37.02828956483625" lon="14.98042652827573"><ele>513.0</ele><time>2026-04-26T08:10:43Z</time></trkpt><trkpt lat="37.028333342731315" lon="14.980275488044542"><ele>510.4</ele><time>2026-04-26T08:10:44Z</time></trkpt><trkpt lat="37.028356787492285" lon="14.980138077795663"><ele>507.79999999999995</ele><time>2026-04-26T08:10:45Z</time></trkpt><trkpt lat="37.028367373487335" lon="14.980015882757614"><ele>505.2</ele><time>2026-04-26T08:10:46Z</time></trkpt><trkpt lat="37.028380668653" lon="14.979890383616153"><ele>502.6</ele><time>2026-04-26T08:10:47Z</time></trkpt><trkpt lat="37.02836956329997" lon="14.979748938933271"><ele>500.0</ele><time>2026-04-26T08:10:48Z</time></trkpt><trkpt lat="37.0283562797685" lon="14.979626957098223"><ele>499.66666666666663</ele><time>2026-04-26T08:10:49Z</time></trkpt><trkpt lat="37.02834583918293" lon="14.979511691988794"><ele>499.3333333333333</ele><time>2026-04-26T08:10:50Z</time></trkpt><trkpt lat="37.02834006854835" lon="14.97941693487152"><ele>499.0</ele><time>2026-04-26T08:10:51Z</time></trkpt><trkpt lat="37.02833701653641" lon="14.979326982281753"><ele>498.66666666666663</ele><time>2026-04-26T08:10:52Z</time></trkpt><trkpt lat="37.028335578609116" lon="14.979235160852136"><ele>498.3333333333333</ele><time>2026-04-26T08:10:53Z</time></trkpt><trkpt lat="37.02834164224766" lon="14.979151893032823"><ele>498.0</ele><time>2026-04-26T08:10:54Z</time></trkpt><trkpt lat="37.0283314342861" lon="14.97906065341036"><ele>497.0</ele><time>2026-04-26T08:10:55Z</time></trkpt><trkpt lat="37.02832742349088" lon="14.978949371570602"><ele>495.99999999999994</ele><time>2026-04-26T08:10:56Z</time></trkpt><trkpt lat="37.02830368054761" lon="14.97882639523987"><ele>494.99999999999994</ele><time>2026-04-26T08:10:57Z</time></trkpt><trkpt lat="37.028265535041584" lon="14.978710851336524"><ele>494.0</ele><time>2026-04-26T08:10:58Z</time></trkpt><trkpt lat="37.02821371312678" lon="14.978603573028977"><ele>493.0</ele><time>2026-04-26T08:10:59Z</time></trkpt><trkpt lat="37.02814391372495" lon="14.978501558885833"><ele>496.0</ele><time>2026-04-26T08:11:00Z</time></trkpt><trkpt lat="37.028076613947874" lon="14.978404086241214"><ele>498.99999999999994</ele><time>2026-04-26T08:11:01Z</time></trkpt><trkpt lat="37.02802044892991" lon="14.978319275241692"><ele>501.99999999999994</ele><time>2026-04-26T08:11:02Z</time></trkpt><trkpt lat="37.027982332139885" lon="14.978232438853817"><ele>505.0</ele><time>2026-04-26T08:11:03Z</time></trkpt><trkpt lat="37.027932491556534" lon="14.978132079049152"><ele>508.0</ele><time>2026-04-26T08:11:04Z</time></trkpt><trkpt lat="37.02788619363545" lon="14.978031512529212"><ele>508.0</ele><time>2026-04-26T08:11:05Z</time></trkpt><trkpt lat="37.02785860318797" lon="14.977944893434948"><ele>507.99999999999994</ele><time>2026-04-26T08:11:06Z</time></trkpt><trkpt lat="37.02787172944186" lon="14.977795428039135"><ele>507.99999999999994</ele><time>2026-04-26T08:11:08Z</time></trkpt><trkpt lat="37.027976627946984" lon="14.977775127203316"><ele>508.0</ele><time>2026-04-26T08:11:10Z</time></trkpt><trkpt lat="37.028035970171096" lon="14.977739238088539"><ele>508.0</ele><time>2026-04-26T08:11:12Z</time></trkpt><trkpt lat="37.02811936697867" lon="14.977666836643499"><ele>508.00000000000006</ele><time>2026-04-26T08:11:35.001Z</time></trkpt><trkpt lat="37.028182402516386" lon="14.977581559847863"><ele>508.0</ele><time>2026-04-26T08:11:37.001Z</time></trkpt><trkpt lat="37.02824383987098" lon="14.977544929382185"><ele>508.0</ele><time>2026-04-26T08:11:38.001Z</time></trkpt><trkpt lat="37.02832813544938" lon="14.977497051655195"><ele>508.0</ele><time>2026-04-26T08:11:39.001Z</time></trkpt><trkpt lat="37.02839734708049" lon="14.977452580088991"><ele>508.00000000000006</ele><time>2026-04-26T08:11:40.001Z</time></trkpt><trkpt lat="37.02850285591511" lon="14.977426888664636"><ele>508.0</ele><time>2026-04-26T08:11:42.001Z</time></trkpt><trkpt lat="37.02857303722681" lon="14.97741033281192"><ele>504.6666666666667</ele><time>2026-04-26T08:11:43.001Z</time></trkpt><trkpt lat="37.02864730744773" lon="14.977415928537964"><ele>501.33333333333337</ele><time>2026-04-26T08:11:44.001Z</time></trkpt><trkpt lat="37.02872436313321" lon="14.977439875902796"><ele>498.0</ele><time>2026-04-26T08:11:45.001Z</time></trkpt><trkpt lat="37.02880012379879" lon="14.9774832153166"><ele>494.66666666666663</ele><time>2026-04-26T08:11:46.001Z</time></trkpt><trkpt lat="37.02887814264942" lon="14.977464017799868"><ele>491.3333333333333</ele><time>2026-04-26T08:11:48.001Z</time></trkpt><trkpt lat="37.0289197305426" lon="14.977400278575422"><ele>488.0</ele><time>2026-04-26T08:11:49.001Z</time></trkpt><trkpt lat="37.028914489761505" lon="14.977261290211157"><ele>488.0</ele><time>2026-04-26T08:11:51.001Z</time></trkpt><trkpt lat="37.028929916833285" lon="14.977180434554466"><ele>487.99999999999994</ele><time>2026-04-26T08:11:52.001Z</time></trkpt><trkpt lat="37.02895466997131" lon="14.977070212340108"><ele>487.99999999999994</ele><time>2026-04-26T08:11:53.001Z</time></trkpt><trkpt lat="37.02898785789157" lon="14.976935757764878"><ele>488.0</ele><time>2026-04-26T08:11:54.001Z</time></trkpt><trkpt lat="37.02902802644886" lon="14.97678791429646"><ele>488.0</ele><time>2026-04-26T08:11:55.001Z</time></trkpt><trkpt lat="37.02906706313628" lon="14.976669060139033"><ele>487.79999999999995</ele><time>2026-04-26T08:11:56.001Z</time></trkpt><trkpt lat="37.029121236290635" lon="14.97655607311002"><ele>487.59999999999997</ele><time>2026-04-26T08:11:57.001Z</time></trkpt><trkpt lat="37.02918182971065" lon="14.976443811746387"><ele>487.40000000000003</ele><time>2026-04-26T08:11:58.001Z</time></trkpt><trkpt lat="37.029245773558664" lon="14.976333326495707"><ele>487.20000000000005</ele><time>2026-04-26T08:11:59.001Z</time></trkpt><trkpt lat="37.02927157540419" lon="14.976213659614583"><ele>487.0</ele><time>2026-04-26T08:12:00.001Z</time></trkpt><trkpt lat="37.029286675900785" lon="14.976094948635227"><ele>488.5</ele><time>2026-04-26T08:12:01.001Z</time></trkpt><trkpt lat="37.029323629487976" lon="14.975973301223426"><ele>490.0</ele><time>2026-04-26T08:12:02.001Z</time></trkpt><trkpt lat="37.029371191007876" lon="14.97585052117471"><ele>491.5</ele><time>2026-04-26T08:12:03.001Z</time></trkpt><trkpt lat="37.02944075176919" lon="14.975675565290436"><ele>493.0</ele><time>2026-04-26T08:12:04.001Z</time></trkpt><trkpt lat="37.02951773087002" lon="14.975473448952618"><ele>493.6666666666667</ele><time>2026-04-26T08:12:05.001Z</time></trkpt><trkpt lat="37.02958267958252" lon="14.975297005337564"><ele>494.33333333333337</ele><time>2026-04-26T08:12:06.001Z</time></trkpt><trkpt lat="37.029633662635455" lon="14.97510408481223"><ele>495.0</ele><time>2026-04-26T08:12:07.001Z</time></trkpt><trkpt lat="37.02969514077487" lon="14.974935486773623"><ele>495.0</ele><time>2026-04-26T08:12:08.001Z</time></trkpt><trkpt lat="37.029770688392226" lon="14.974768370356163"><ele>495.0</ele><time>2026-04-26T08:12:09.001Z</time></trkpt><trkpt lat="37.029814873291244" lon="14.974595670127806"><ele>495.0</ele><time>2026-04-26T08:12:10.001Z</time></trkpt><trkpt lat="37.0298717455552" lon="14.974440448334573"><ele>495.0</ele><time>2026-04-26T08:12:11.001Z</time></trkpt><trkpt lat="37.02992655107429" lon="14.974279330915868"><ele>494.6</ele><time>2026-04-26T08:12:12.001Z</time></trkpt><trkpt lat="37.02993705527062" lon="14.974150232908165"><ele>494.2</ele><time>2026-04-26T08:12:13.001Z</time></trkpt><trkpt lat="37.02995275331205" lon="14.974000056384714"><ele>493.79999999999995</ele><time>2026-04-26T08:12:14.001Z</time></trkpt><trkpt lat="37.02998678462342" lon="14.973876965827651"><ele>493.4</ele><time>2026-04-26T08:12:15.001Z</time></trkpt><trkpt lat="37.03001940034604" lon="14.973757473403285"><ele>493.0</ele><time>2026-04-26T08:12:16.001Z</time></trkpt><trkpt lat="37.03005806392239" lon="14.973661472065471"><ele>493.5</ele><time>2026-04-26T08:12:17.001Z</time></trkpt><trkpt lat="37.030118949922084" lon="14.973588612441539"><ele>494.0</ele><time>2026-04-26T08:12:18.001Z</time></trkpt><trkpt lat="37.03020416530854" lon="14.97349365147732"><ele>494.5</ele><time>2026-04-26T08:12:19.001Z</time></trkpt><trkpt lat="37.03033310566068" lon="14.973354907998626"><ele>495.0</ele><time>2026-04-26T08:12:20.001Z</time></trkpt><trkpt lat="37.030467728902345" lon="14.973224564246685"><ele>495.0</ele><time>2026-04-26T08:12:21.001Z</time></trkpt><trkpt lat="37.03058886328345" lon="14.973129024040869"><ele>495.0</ele><time>2026-04-26T08:12:22.001Z</time></trkpt><trkpt lat="37.03073114120593" lon="14.973024480600836"><ele>495.0</ele><time>2026-04-26T08:12:23.001Z</time></trkpt><trkpt lat="37.03085234482791" lon="14.97292800879723"><ele>495.75</ele><time>2026-04-26T08:12:24.001Z</time></trkpt><trkpt lat="37.030951423411466" lon="14.972827655378552"><ele>496.5</ele><time>2026-04-26T08:12:25.001Z</time></trkpt><trkpt lat="37.031011158551095" lon="14.97269072819111"><ele>497.25</ele><time>2026-04-26T08:12:26.001Z</time></trkpt><trkpt lat="37.03107799380254" lon="14.97256135223357"><ele>498.0</ele><time>2026-04-26T08:12:27.001Z</time></trkpt><trkpt lat="37.03116243057273" lon="14.972476645757137"><ele>498.0</ele><time>2026-04-26T08:12:28Z</time></trkpt><trkpt lat="37.031248417331526" lon="14.972426248268329"><ele>498.0</ele><time>2026-04-26T08:12:29Z</time></trkpt><trkpt lat="37.03137831019292" lon="14.972343098201"><ele>498.0</ele><time>2026-04-26T08:12:30Z</time></trkpt><trkpt lat="37.03149323952849" lon="14.972271713120401"><ele>498.0</ele><time>2026-04-26T08:12:31Z</time></trkpt><trkpt lat="37.031597682395066" lon="14.972206978196064"><ele>498.8333333333333</ele><time>2026-04-26T08:12:32Z</time></trkpt><trkpt lat="37.03167623982089" lon="14.97215463341769"><ele>499.66666666666663</ele><time>2026-04-26T08:12:33Z</time></trkpt><trkpt lat="37.03174102615287" lon="14.972111458614526"><ele>500.5</ele><time>2026-04-26T08:12:34Z</time></trkpt><trkpt lat="37.031803745464195" lon="14.972069661486128"><ele>501.3333333333333</ele><time>2026-04-26T08:12:35Z</time></trkpt><trkpt lat="37.03186952384996" lon="14.972025825537933"><ele>502.16666666666663</ele><time>2026-04-26T08:12:36Z</time></trkpt><trkpt lat="37.031964262936654" lon="14.971962689743924"><ele>503.0</ele><time>2026-04-26T08:12:37Z</time></trkpt><trkpt lat="37.032106424685466" lon="14.971867950616005"><ele>503.0</ele><time>2026-04-26T08:12:38Z</time></trkpt><trkpt lat="37.03227736175954" lon="14.971754035231601"><ele>503.0</ele><time>2026-04-26T08:12:39Z</time></trkpt><trkpt lat="37.03247704479801" lon="14.9716218501605"><ele>503.0</ele><time>2026-04-26T08:12:40Z</time></trkpt><trkpt lat="37.032654642324005" lon="14.971505570855916"><ele>503.66666666666663</ele><time>2026-04-26T08:12:41Z</time></trkpt><trkpt lat="37.03282762800802" lon="14.971394603114101"><ele>504.33333333333337</ele><time>2026-04-26T08:12:42Z</time></trkpt><trkpt lat="37.03299488522107" lon="14.971288305416328"><ele>505.0</ele><time>2026-04-26T08:12:43Z</time></trkpt><trkpt lat="37.03311664071353" lon="14.971210925745696"><ele>505.0</ele><time>2026-04-26T08:12:44Z</time></trkpt><trkpt lat="37.03323528857333" lon="14.971135263280386"><ele>505.0</ele><time>2026-04-26T08:12:45Z</time></trkpt><trkpt lat="37.03336369085151" lon="14.971050678606613"><ele>505.0</ele><time>2026-04-26T08:12:46Z</time></trkpt><trkpt lat="37.033482109589215" lon="14.970970066635733"><ele>505.0</ele><time>2026-04-26T08:12:47Z</time></trkpt><trkpt lat="37.033604763128565" lon="14.970886998209776"><ele>506.33333333333337</ele><time>2026-04-26T08:12:48Z</time></trkpt><trkpt lat="37.03374713354213" lon="14.97079225292688"><ele>507.66666666666663</ele><time>2026-04-26T08:12:49Z</time></trkpt><trkpt lat="37.033921631416646" lon="14.97068017290561"><ele>509.0</ele><time>2026-04-26T08:12:50Z</time></trkpt><trkpt lat="37.0340633360588" lon="14.970566884051735"><ele>509.3333333333333</ele><time>2026-04-26T08:12:51Z</time></trkpt><trkpt lat="37.03421233806177" lon="14.970470407292764"><ele>509.66666666666663</ele><time>2026-04-26T08:12:52Z</time></trkpt><trkpt lat="37.03439378068514" lon="14.970373362881583"><ele>510.0</ele><time>2026-04-26T08:12:53Z</time></trkpt><trkpt lat="37.034586484100295" lon="14.970245563012051"><ele>510.0</ele><time>2026-04-26T08:12:54Z</time></trkpt><trkpt lat="37.0347404502947" lon="14.97014374639142"><ele>510.0</ele><time>2026-04-26T08:12:55Z</time></trkpt><trkpt lat="37.03487977761098" lon="14.970052684021585"><ele>510.0</ele><time>2026-04-26T08:12:56Z</time></trkpt><trkpt lat="37.03500554629799" lon="14.96997302685288"><ele>510.0</ele><time>2026-04-26T08:12:57Z</time></trkpt><trkpt lat="37.03513870522802" lon="14.969896342853813"><ele>510.0</ele><time>2026-04-26T08:12:58Z</time></trkpt><trkpt lat="37.03528832612727" lon="14.969828621994733"><ele>510.0</ele><time>2026-04-26T08:12:59Z</time></trkpt><trkpt lat="37.03546941835652" lon="14.969755818223286"><ele>510.0</ele><time>2026-04-26T08:13:00Z</time></trkpt><trkpt lat="37.03562124894987" lon="14.969673927964148"><ele>510.0</ele><time>2026-04-26T08:13:01Z</time></trkpt><trkpt lat="37.035769761373906" lon="14.969635072433762"><ele>510.0</ele><time>2026-04-26T08:13:02Z</time></trkpt><trkpt lat="37.03590165024097" lon="14.969582049707705"><ele>510.0</ele><time>2026-04-26T08:13:03Z</time></trkpt><trkpt lat="37.036023220404125" lon="14.969533201066817"><ele>510.0</ele><time>2026-04-26T08:13:04Z</time></trkpt><trkpt lat="37.03613304781023" lon="14.969489091248642"><ele>510.0</ele><time>2026-04-26T08:13:05Z</time></trkpt><trkpt lat="37.03624271004127" lon="14.969434568999727"><ele>510.0</ele><time>2026-04-26T08:13:06Z</time></trkpt><trkpt lat="37.036351747772166" lon="14.969389582469427"><ele>510.0</ele><time>2026-04-26T08:13:07Z</time></trkpt><trkpt lat="37.03645731940573" lon="14.969342676894302"><ele>510.0</ele><time>2026-04-26T08:13:08Z</time></trkpt><trkpt lat="37.03655389396619" lon="14.969304815574068"><ele>510.0</ele><time>2026-04-26T08:13:09Z</time></trkpt><trkpt lat="37.036635356072665" lon="14.969287349899565"><ele>510.0</ele><time>2026-04-26T08:13:10Z</time></trkpt><trkpt lat="37.0366996722589" lon="14.969261518681192"><ele>510.0</ele><time>2026-04-26T08:13:11Z</time></trkpt><trkpt lat="37.03681235045418" lon="14.969216968545187"><ele>510.4</ele><time>2026-04-26T08:13:13Z</time></trkpt><trkpt lat="37.0368701764671" lon="14.96918011765052"><ele>510.8</ele><time>2026-04-26T08:13:14Z</time></trkpt><trkpt lat="37.036951625141356" lon="14.969168511149704"><ele>511.20000000000005</ele><time>2026-04-26T08:13:16.001Z</time></trkpt><trkpt lat="37.037042825454165" lon="14.969159278002548"><ele>511.6</ele><time>2026-04-26T08:13:32.001Z</time></trkpt><trkpt lat="37.03712217723988" lon="14.96899890415477"><ele>512.0</ele><time>2026-04-26T08:13:34.001Z</time></trkpt><trkpt lat="37.03715187834666" lon="14.9688797494188"><ele>512.0</ele><time>2026-04-26T08:13:35.001Z</time></trkpt><trkpt lat="37.03718893622597" lon="14.96875329178976"><ele>512.0</ele><time>2026-04-26T08:13:36.001Z</time></trkpt><trkpt lat="37.0372545903609" lon="14.968560889089247"><ele>512.0</ele><time>2026-04-26T08:13:37.001Z</time></trkpt><trkpt lat="37.03733542171252" lon="14.968300868892808"><ele>512.5</ele><time>2026-04-26T08:13:38.001Z</time></trkpt><trkpt lat="37.037427145723974" lon="14.967998833458335"><ele>513.0</ele><time>2026-04-26T08:13:39.001Z</time></trkpt><trkpt lat="37.03752831144207" lon="14.967675846243953"><ele>513.0</ele><time>2026-04-26T08:13:40.001Z</time></trkpt><trkpt lat="37.03763970586365" lon="14.967341017314194"><ele>513.0</ele><time>2026-04-26T08:13:41.001Z</time></trkpt><trkpt lat="37.03774383938332" lon="14.967000293099684"><ele>512.5</ele><time>2026-04-26T08:13:42.001Z</time></trkpt><trkpt lat="37.03785898820042" lon="14.966644642034204"><ele>512.0</ele><time>2026-04-26T08:13:43.001Z</time></trkpt><trkpt lat="37.03796912656449" lon="14.96630639364286"><ele>512.0</ele><time>2026-04-26T08:13:44.001Z</time></trkpt><trkpt lat="37.03806443176595" lon="14.96601481615141"><ele>512.0</ele><time>2026-04-26T08:13:45.001Z</time></trkpt><trkpt lat="37.03816082942752" lon="14.96576458072184"><ele>512.3333333333333</ele><time>2026-04-26T08:13:46.001Z</time></trkpt><trkpt lat="37.0382193822519" lon="14.96552895369371"><ele>512.6666666666666</ele><time>2026-04-26T08:13:47.001Z</time></trkpt><trkpt lat="37.038293799714324" lon="14.965306407124668"><ele>513.0</ele><time>2026-04-26T08:13:48.001Z</time></trkpt><trkpt lat="37.03837012986057" lon="14.965075411700926"><ele>514.0</ele><time>2026-04-26T08:13:49.001Z</time></trkpt><trkpt lat="37.038446840806394" lon="14.964840149887165"><ele>515.0</ele><time>2026-04-26T08:13:50.001Z</time></trkpt><trkpt lat="37.038526668760134" lon="14.964590912891083"><ele>516.0</ele><time>2026-04-26T08:13:51.001Z</time></trkpt><trkpt lat="37.03860803852359" lon="14.964336563171491"><ele>515.6666666666666</ele><time>2026-04-26T08:13:52.001Z</time></trkpt><trkpt lat="37.038691266302386" lon="14.964080350928116"><ele>515.3333333333333</ele><time>2026-04-26T08:13:53.001Z</time></trkpt><trkpt lat="37.03877736407102" lon="14.963819338628733"><ele>515.0</ele><time>2026-04-26T08:13:54.001Z</time></trkpt><trkpt lat="37.038865017700225" lon="14.963558343516933"><ele>515.5</ele><time>2026-04-26T08:13:55.001Z</time></trkpt><trkpt lat="37.038951501662176" lon="14.963296997740693"><ele>516.0</ele><time>2026-04-26T08:13:56.001Z</time></trkpt><trkpt lat="37.03903378066102" lon="14.963031391992574"><ele>516.0</ele><time>2026-04-26T08:13:57.001Z</time></trkpt><trkpt lat="37.039116864920565" lon="14.962753295454972"><ele>516.0</ele><time>2026-04-26T08:13:58.001Z</time></trkpt><trkpt lat="37.03920495895366" lon="14.962468193738815"><ele>519.0</ele><time>2026-04-26T08:13:59.001Z</time></trkpt><trkpt lat="37.039297174787286" lon="14.962182361116298"><ele>522.0</ele><time>2026-04-26T08:14:00.001Z</time></trkpt><trkpt lat="37.03938728501056" lon="14.961913138167489"><ele>521.0</ele><time>2026-04-26T08:14:01.001Z</time></trkpt><trkpt lat="37.039476197459386" lon="14.961644476383105"><ele>520.0</ele><time>2026-04-26T08:14:02.001Z</time></trkpt><trkpt lat="37.03956430039075" lon="14.961381400664244"><ele>520.0</ele><time>2026-04-26T08:14:03.001Z</time></trkpt><trkpt lat="37.03964671708862" lon="14.961121926033561"><ele>520.0</ele><time>2026-04-26T08:14:04.001Z</time></trkpt><trkpt lat="37.03972818140452" lon="14.960859759748761"><ele>520.0</ele><time>2026-04-26T08:14:05.001Z</time></trkpt><trkpt lat="37.03980786916985" lon="14.96060459276943"><ele>520.6666666666667</ele><time>2026-04-26T08:14:06.001Z</time></trkpt><trkpt lat="37.039892313374736" lon="14.960342316881826"><ele>521.3333333333334</ele><time>2026-04-26T08:14:07.001Z</time></trkpt><trkpt lat="37.03997674331283" lon="14.960084205100596"><ele>522.0</ele><time>2026-04-26T08:14:08.001Z</time></trkpt><trkpt lat="37.04005885219379" lon="14.959827015849681"><ele>523.0</ele><time>2026-04-26T08:14:09.001Z</time></trkpt><trkpt lat="37.04014288530658" lon="14.959562492476568"><ele>524.0</ele><time>2026-04-26T08:14:10.001Z</time></trkpt><trkpt lat="37.04022938907762" lon="14.959296205405154"><ele>526.5</ele><time>2026-04-26T08:14:11.001Z</time></trkpt><trkpt lat="37.04031630321412" lon="14.959029519457358"><ele>529.0</ele><time>2026-04-26T08:14:12.001Z</time></trkpt><trkpt lat="37.04040993577243" lon="14.958745255626345"><ele>529.0</ele><time>2026-04-26T08:14:13.001Z</time></trkpt><trkpt lat="37.040507641911894" lon="14.958446360939442"><ele>529.0</ele><time>2026-04-26T08:14:14.001Z</time></trkpt><trkpt lat="37.04060836710571" lon="14.958134615361622"><ele>530.0</ele><time>2026-04-26T08:14:15.001Z</time></trkpt><trkpt lat="37.04070728742754" lon="14.957829934220241"><ele>531.0</ele><time>2026-04-26T08:14:16.001Z</time></trkpt><trkpt lat="37.04080191243908" lon="14.957542443346847"><ele>532.0</ele><time>2026-04-26T08:14:17.001Z</time></trkpt><trkpt lat="37.04089415339399" lon="14.957267264347506"><ele>533.0</ele><time>2026-04-26T08:14:18.001Z</time></trkpt><trkpt lat="37.04098338696717" lon="14.956991328872476"><ele>533.0</ele><time>2026-04-26T08:14:19.001Z</time></trkpt><trkpt lat="37.0410731268247" lon="14.956710673490281"><ele>533.0</ele><time>2026-04-26T08:14:20.001Z</time></trkpt><trkpt lat="37.04116328227097" lon="14.956430999709566"><ele>533.5</ele><time>2026-04-26T08:14:21.001Z</time></trkpt><trkpt lat="37.041253685520665" lon="14.95614774114612"><ele>534.0</ele><time>2026-04-26T08:14:22.001Z</time></trkpt><trkpt lat="37.0413438328148" lon="14.955866389829795"><ele>535.0</ele><time>2026-04-26T08:14:23.001Z</time></trkpt><trkpt lat="37.04143552135518" lon="14.955581472453055"><ele>536.0</ele><time>2026-04-26T08:14:24.001Z</time></trkpt><trkpt lat="37.04152715957902" lon="14.955295058289451"><ele>537.0</ele><time>2026-04-26T08:14:25.001Z</time></trkpt><trkpt lat="37.04161984233504" lon="14.955008134445944"><ele>538.0</ele><time>2026-04-26T08:14:26.001Z</time></trkpt><trkpt lat="37.04171316292666" lon="14.95471572037016"><ele>538.0</ele><time>2026-04-26T08:14:27.001Z</time></trkpt><trkpt lat="37.04180675747454" lon="14.954420557194057"><ele>538.0</ele><time>2026-04-26T08:14:28.001Z</time></trkpt><trkpt lat="37.04190292979019" lon="14.954127760867209"><ele>539.5</ele><time>2026-04-26T08:14:29.001Z</time></trkpt><trkpt lat="37.04199812095689" lon="14.953837899705078"><ele>541.0</ele><time>2026-04-26T08:14:30.001Z</time></trkpt><trkpt lat="37.042097629096645" lon="14.953538797161452"><ele>542.5</ele><time>2026-04-26T08:14:31.001Z</time></trkpt><trkpt lat="37.04220121478837" lon="14.95324028808442"><ele>544.0</ele><time>2026-04-26T08:14:32.001Z</time></trkpt><trkpt lat="37.04230474215273" lon="14.952935740222635"><ele>544.0</ele><time>2026-04-26T08:14:33.001Z</time></trkpt><trkpt lat="37.042399227884154" lon="14.95263613675769"><ele>544.0</ele><time>2026-04-26T08:14:34Z</time></trkpt><trkpt lat="37.042489662152036" lon="14.9523409055094"><ele>545.0</ele><time>2026-04-26T08:14:35Z</time></trkpt><trkpt lat="37.042574939593244" lon="14.95206340362642"><ele>546.0</ele><time>2026-04-26T08:14:36Z</time></trkpt><trkpt lat="37.04265200088349" lon="14.95181514385928"><ele>546.3333333333334</ele><time>2026-04-26T08:14:37Z</time></trkpt><trkpt lat="37.0427257481841" lon="14.95158095811546"><ele>546.6666666666667</ele><time>2026-04-26T08:14:38Z</time></trkpt><trkpt lat="37.04279821183108" lon="14.951350591730163"><ele>547.0</ele><time>2026-04-26T08:14:39Z</time></trkpt><trkpt lat="37.042874695268225" lon="14.951113892105276"><ele>547.0</ele><time>2026-04-26T08:14:40Z</time></trkpt><trkpt lat="37.04295819006452" lon="14.950863064551836"><ele>547.0</ele><time>2026-04-26T08:14:41Z</time></trkpt><trkpt lat="37.043044166569345" lon="14.950605995681837"><ele>547.0</ele><time>2026-04-26T08:14:42Z</time></trkpt><trkpt lat="37.04313086125291" lon="14.950344708397818"><ele>547.0</ele><time>2026-04-26T08:14:43Z</time></trkpt><trkpt lat="37.04321660361514" lon="14.950077573907341"><ele>547.0</ele><time>2026-04-26T08:14:44Z</time></trkpt><trkpt lat="37.043303070072945" lon="14.949803576347048"><ele>548.0</ele><time>2026-04-26T08:14:45Z</time></trkpt><trkpt lat="37.04338761963774" lon="14.949526743679561"><ele>549.0</ele><time>2026-04-26T08:14:46Z</time></trkpt><trkpt lat="37.043470000115484" lon="14.949251149702295"><ele>549.5</ele><time>2026-04-26T08:14:47Z</time></trkpt><trkpt lat="37.04355116448799" lon="14.948976892609318"><ele>550.0</ele><time>2026-04-26T08:14:48Z</time></trkpt><trkpt lat="37.04363579413667" lon="14.948698870327846"><ele>550.0</ele><time>2026-04-26T08:14:49Z</time></trkpt><trkpt lat="37.043727298440885" lon="14.948406153844521"><ele>550.0</ele><time>2026-04-26T08:14:50Z</time></trkpt><trkpt lat="37.043826819892026" lon="14.948098543681771"><ele>550.5</ele><time>2026-04-26T08:14:51Z</time></trkpt><trkpt lat="37.04393470344715" lon="14.947784058142279"><ele>551.0</ele><time>2026-04-26T08:14:52Z</time></trkpt><trkpt lat="37.04405296767633" lon="14.947456050292361"><ele>552.0</ele><time>2026-04-26T08:14:53Z</time></trkpt><trkpt lat="37.04418041992152" lon="14.947128918890282"><ele>553.0</ele><time>2026-04-26T08:14:54Z</time></trkpt><trkpt lat="37.04431517139332" lon="14.946819642163778"><ele>553.5</ele><time>2026-04-26T08:14:55Z</time></trkpt><trkpt lat="37.044459373617386" lon="14.94652621506039"><ele>554.0</ele><time>2026-04-26T08:14:56Z</time></trkpt><trkpt lat="37.044607906243805" lon="14.946248758690071"><ele>554.0</ele><time>2026-04-26T08:14:57Z</time></trkpt><trkpt lat="37.044763739802555" lon="14.945980521867616"><ele>554.0</ele><time>2026-04-26T08:14:58Z</time></trkpt><trkpt lat="37.044925122660935" lon="14.945721057927306"><ele>554.5</ele><time>2026-04-26T08:14:59Z</time></trkpt><trkpt lat="37.04508857798397" lon="14.945470963695236"><ele>555.0</ele><time>2026-04-26T08:15:00Z</time></trkpt><trkpt lat="37.04525230655987" lon="14.945226575943758"><ele>555.0</ele><time>2026-04-26T08:15:01Z</time></trkpt><trkpt lat="37.045406180229385" lon="14.945002707039325"><ele>555.0</ele><time>2026-04-26T08:15:02Z</time></trkpt><trkpt lat="37.0455477195955" lon="14.944795891036318"><ele>555.0</ele><time>2026-04-26T08:15:03Z</time></trkpt><trkpt lat="37.04567856724107" lon="14.944598089513963"><ele>555.0</ele><time>2026-04-26T08:15:04Z</time></trkpt><trkpt lat="37.04580837983143" lon="14.944400554500259"><ele>555.0</ele><time>2026-04-26T08:15:05Z</time></trkpt><trkpt lat="37.045938187755276" lon="14.94420436308775"><ele>556.0</ele><time>2026-04-26T08:15:06Z</time></trkpt><trkpt lat="37.04606842555568" lon="14.944012475961172"><ele>557.0</ele><time>2026-04-26T08:15:07Z</time></trkpt><trkpt lat="37.046200370877344" lon="14.943822913494722"><ele>558.0</ele><time>2026-04-26T08:15:08Z</time></trkpt><trkpt lat="37.046331462701254" lon="14.943635572552807"><ele>558.0</ele><time>2026-04-26T08:15:09Z</time></trkpt><trkpt lat="37.04646170291307" lon="14.943444883645064"><ele>558.0</ele><time>2026-04-26T08:15:10Z</time></trkpt><trkpt lat="37.046600278914745" lon="14.943242547063223"><ele>558.0</ele><time>2026-04-26T08:15:11Z</time></trkpt><trkpt lat="37.04673896030132" lon="14.943034318891797"><ele>559.0</ele><time>2026-04-26T08:15:12Z</time></trkpt><trkpt lat="37.04688022881043" lon="14.942816833829875"><ele>560.0</ele><time>2026-04-26T08:15:13Z</time></trkpt><trkpt lat="37.04702054945355" lon="14.942594475919035"><ele>559.5</ele><time>2026-04-26T08:15:14Z</time></trkpt><trkpt lat="37.04716189825027" lon="14.942363001099064"><ele>559.0</ele><time>2026-04-26T08:15:15Z</time></trkpt><trkpt lat="37.04730414764793" lon="14.94211722560158"><ele>559.0</ele><time>2026-04-26T08:15:16Z</time></trkpt><trkpt lat="37.04745030298188" lon="14.941856775387674"><ele>559.0</ele><time>2026-04-26T08:15:17Z</time></trkpt><trkpt lat="37.04759882089558" lon="14.94157140295851"><ele>563.5</ele><time>2026-04-26T08:15:18Z</time></trkpt><trkpt lat="37.04773993543981" lon="14.941270603280495"><ele>568.0</ele><time>2026-04-26T08:15:19Z</time></trkpt><trkpt lat="37.047859341035526" lon="14.940989759884364"><ele>568.0</ele><time>2026-04-26T08:15:20Z</time></trkpt><trkpt lat="37.0479626647707" lon="14.940734321890433"><ele>568.0</ele><time>2026-04-26T08:15:21Z</time></trkpt><trkpt lat="37.04805143183718" lon="14.940498466851064"><ele>568.0</ele><time>2026-04-26T08:15:22.001Z</time></trkpt><trkpt lat="37.048127881012014" lon="14.940279050764069"><ele>568.0</ele><time>2026-04-26T08:15:23.001Z</time></trkpt><trkpt lat="37.04819809315978" lon="14.940072598650573"><ele>568.0</ele><time>2026-04-26T08:15:24.001Z</time></trkpt><trkpt lat="37.04826073425124" lon="14.939896348679415"><ele>568.0</ele><time>2026-04-26T08:15:25.001Z</time></trkpt><trkpt lat="37.04832366849941" lon="14.93975687226263"><ele>569.1666666666667</ele><time>2026-04-26T08:15:26.001Z</time></trkpt><trkpt lat="37.04839011840202" lon="14.939669266328035"><ele>570.3333333333334</ele><time>2026-04-26T08:15:27.001Z</time></trkpt><trkpt lat="37.04844602761325" lon="14.939623850602398"><ele>571.5</ele><time>2026-04-26T08:15:28.001Z</time></trkpt><trkpt lat="37.0484951205327" lon="14.939558855694155"><ele>572.6666666666666</ele><time>2026-04-26T08:15:30.001Z</time></trkpt><trkpt lat="37.04843144734736" lon="14.939489985444661"><ele>573.8333333333333</ele><time>2026-04-26T08:15:32.001Z</time></trkpt><trkpt lat="37.04836310168088" lon="14.939509425537194"><ele>575.0</ele><time>2026-04-26T08:15:34.001Z</time></trkpt><trkpt lat="37.04830566663164" lon="14.939574751716835"><ele>572.6666666666666</ele><time>2026-04-26T08:15:35.001Z</time></trkpt><trkpt lat="37.048243702240384" lon="14.939713780356804"><ele>570.3333333333334</ele><time>2026-04-26T08:15:36.001Z</time></trkpt><trkpt lat="37.04819375816461" lon="14.939898118336306"><ele>568.0</ele><time>2026-04-26T08:15:37.001Z</time></trkpt><trkpt lat="37.04813948224875" lon="14.940111872495415"><ele>568.0</ele><time>2026-04-26T08:15:38.001Z</time></trkpt><trkpt lat="37.04806144990726" lon="14.940345998467128"><ele>568.0</ele><time>2026-04-26T08:15:39.001Z</time></trkpt><trkpt lat="37.04796923737596" lon="14.940592195814439"><ele>568.0</ele><time>2026-04-26T08:15:40.001Z</time></trkpt><trkpt lat="37.047868565678" lon="14.940851761479337"><ele>568.0</ele><time>2026-04-26T08:15:41.001Z</time></trkpt><trkpt lat="37.04775867275729" lon="14.941121882315144"><ele>568.0</ele><time>2026-04-26T08:15:42.001Z</time></trkpt><trkpt lat="37.04764422865616" lon="14.941374718974869"><ele>568.0</ele><time>2026-04-26T08:15:43.001Z</time></trkpt><trkpt lat="37.047525143903364" lon="14.941629825077406"><ele>568.0</ele><time>2026-04-26T08:15:44.001Z</time></trkpt><trkpt lat="37.04739802883175" lon="14.941879656087949"><ele>563.5</ele><time>2026-04-26T08:15:45.001Z</time></trkpt><trkpt lat="37.04726237213717" lon="14.942130010197083"><ele>559.0</ele><time>2026-04-26T08:15:46.001Z</time></trkpt><trkpt lat="37.04711841780836" lon="14.942379982259634"><ele>559.5</ele><time>2026-04-26T08:15:47.001Z</time></trkpt><trkpt lat="37.04696808243444" lon="14.94262324967013"><ele>560.0</ele><time>2026-04-26T08:15:48.001Z</time></trkpt><trkpt lat="37.046808611713075" lon="14.942863535796842"><ele>560.0</ele><time>2026-04-26T08:15:49.001Z</time></trkpt><trkpt lat="37.04664332396533" lon="14.943104778418592"><ele>560.0</ele><time>2026-04-26T08:15:50.001Z</time></trkpt><trkpt lat="37.04648092700544" lon="14.943345011881052"><ele>559.0</ele><time>2026-04-26T08:15:51.001Z</time></trkpt><trkpt lat="37.046319965129086" lon="14.943583470429973"><ele>558.0</ele><time>2026-04-26T08:15:52.001Z</time></trkpt><trkpt lat="37.046157132116164" lon="14.943821519866376"><ele>558.0</ele><time>2026-04-26T08:15:53.001Z</time></trkpt><trkpt lat="37.04599624278154" lon="14.944056854574667"><ele>558.0</ele><time>2026-04-26T08:15:54.001Z</time></trkpt><trkpt lat="37.0458400592057" lon="14.94429440769511"><ele>556.5</ele><time>2026-04-26T08:15:55.001Z</time></trkpt><trkpt lat="37.04568434602925" lon="14.944526021402718"><ele>555.0</ele><time>2026-04-26T08:15:56.001Z</time></trkpt><trkpt lat="37.04552706779263" lon="14.944756978320445"><ele>555.0</ele><time>2026-04-26T08:15:57.001Z</time></trkpt><trkpt lat="37.045370340298625" lon="14.944980832495684"><ele>555.0</ele><time>2026-04-26T08:15:58.001Z</time></trkpt><trkpt lat="37.0452119658409" lon="14.94520476888755"><ele>555.0</ele><time>2026-04-26T08:15:59.001Z</time></trkpt><trkpt lat="37.04505776277408" lon="14.945432192061709"><ele>555.0</ele><time>2026-04-26T08:16:00.001Z</time></trkpt><trkpt lat="37.04490665943538" lon="14.945662915502805"><ele>554.5</ele><time>2026-04-26T08:16:01.001Z</time></trkpt><trkpt lat="37.04476245146982" lon="14.945899777326595"><ele>554.0</ele><time>2026-04-26T08:16:02.001Z</time></trkpt><trkpt lat="37.044624362482026" lon="14.946141692288874"><ele>554.0</ele><time>2026-04-26T08:16:03.001Z</time></trkpt><trkpt lat="37.044491544430116" lon="14.946384356938017"><ele>554.0</ele><time>2026-04-26T08:16:04.001Z</time></trkpt><trkpt lat="37.044362810669234" lon="14.946635186231775"><ele>553.5</ele><time>2026-04-26T08:16:05.001Z</time></trkpt><trkpt lat="37.04423834941517" lon="14.946890377677807"><ele>553.0</ele><time>2026-04-26T08:16:06.001Z</time></trkpt><trkpt lat="37.044117820747296" lon="14.947151005243777"><ele>552.5</ele><time>2026-04-26T08:16:07.001Z</time></trkpt><trkpt lat="37.044008395800546" lon="14.947421146798083"><ele>552.0</ele><time>2026-04-26T08:16:08.001Z</time></trkpt><trkpt lat="37.04390710040679" lon="14.947701624023596"><ele>551.5</ele><time>2026-04-26T08:16:09.001Z</time></trkpt><trkpt lat="37.04381453642036" lon="14.947984587785259"><ele>551.0</ele><time>2026-04-26T08:16:10.001Z</time></trkpt><trkpt lat="37.04372379303107" lon="14.948266458345898"><ele>550.5</ele><time>2026-04-26T08:16:11.001Z</time></trkpt><trkpt lat="37.04363542833292" lon="14.948548836433599"><ele>550.0</ele><time>2026-04-26T08:16:12.001Z</time></trkpt><trkpt lat="37.04354940325185" lon="14.948839025985272"><ele>550.0</ele><time>2026-04-26T08:16:13.001Z</time></trkpt><trkpt lat="37.043462885617224" lon="14.949134553022034"><ele>550.0</ele><time>2026-04-26T08:16:14.001Z</time></trkpt><trkpt lat="37.04337404319831" lon="14.949430704231888"><ele>547.0</ele><time>2026-04-26T08:16:15.001Z</time></trkpt><trkpt lat="37.04328401371881" lon="14.949728104224638"><ele>544.0</ele><time>2026-04-26T08:16:16.001Z</time></trkpt><trkpt lat="37.043190810760635" lon="14.950023180467358"><ele>545.5</ele><time>2026-04-26T08:16:17.001Z</time></trkpt><trkpt lat="37.04309587577923" lon="14.95031257931806"><ele>547.0</ele><time>2026-04-26T08:16:18.001Z</time></trkpt><trkpt lat="37.04300322955156" lon="14.950599581778116"><ele>547.0</ele><time>2026-04-26T08:16:19.001Z</time></trkpt><trkpt lat="37.04291249233104" lon="14.95088154678237"><ele>547.0</ele><time>2026-04-26T08:16:20.001Z</time></trkpt><trkpt lat="37.0428213585694" lon="14.951164966604086"><ele>547.0</ele><time>2026-04-26T08:16:21.001Z</time></trkpt><trkpt lat="37.04272852448167" lon="14.951450684953748"><ele>547.0</ele><time>2026-04-26T08:16:22.001Z</time></trkpt><trkpt lat="37.04263714489285" lon="14.95173927986926"><ele>546.5</ele><time>2026-04-26T08:16:23.001Z</time></trkpt><trkpt lat="37.04254304813787" lon="14.9520373310615"><ele>546.0</ele><time>2026-04-26T08:16:24.001Z</time></trkpt><trkpt lat="37.04244589808734" lon="14.95233289217627"><ele>545.0</ele><time>2026-04-26T08:16:25.001Z</time></trkpt><trkpt lat="37.04234298598265" lon="14.95263369478648"><ele>544.0</ele><time>2026-04-26T08:16:26.001Z</time></trkpt><trkpt lat="37.042243131490736" lon="14.95293494034695"><ele>544.0</ele><time>2026-04-26T08:16:27.001Z</time></trkpt><trkpt lat="37.04214698762708" lon="14.953235468069032"><ele>544.0</ele><time>2026-04-26T08:16:28.001Z</time></trkpt><trkpt lat="37.0420504928108" lon="14.953545802356974"><ele>542.5</ele><time>2026-04-26T08:16:29.001Z</time></trkpt><trkpt lat="37.04195524134586" lon="14.953853157851936"><ele>541.0</ele><time>2026-04-26T08:16:30.001Z</time></trkpt><trkpt lat="37.04186048267016" lon="14.954157086961684"><ele>539.5</ele><time>2026-04-26T08:16:31.001Z</time></trkpt><trkpt lat="37.04175979240718" lon="14.954465795020978"><ele>538.0</ele><time>2026-04-26T08:16:32.001Z</time></trkpt><trkpt lat="37.04166077405009" lon="14.954762626084634"><ele>537.0</ele><time>2026-04-26T08:16:33.001Z</time></trkpt><trkpt lat="37.04156547960963" lon="14.955050733905177"><ele>536.0</ele><time>2026-04-26T08:16:34.001Z</time></trkpt><trkpt lat="37.04146988765255" lon="14.955340901471942"><ele>536.0</ele><time>2026-04-26T08:16:35.001Z</time></trkpt><trkpt lat="37.04137390464536" lon="14.955631511711937"><ele>536.0</ele><time>2026-04-26T08:16:36.001Z</time></trkpt><trkpt lat="37.041278453294034" lon="14.955919353575"><ele>535.0</ele><time>2026-04-26T08:16:37.001Z</time></trkpt><trkpt lat="37.041184752006146" lon="14.956204674431174"><ele>534.0</ele><time>2026-04-26T08:16:38.001Z</time></trkpt><trkpt lat="37.041088446836376" lon="14.956499382464655"><ele>533.5</ele><time>2026-04-26T08:16:39.001Z</time></trkpt><trkpt lat="37.040990364300434" lon="14.95679942427648"><ele>533.0</ele><time>2026-04-26T08:16:40Z</time></trkpt><trkpt lat="37.040893023294984" lon="14.95710052383749"><ele>532.5</ele><time>2026-04-26T08:16:41Z</time></trkpt><trkpt lat="37.04079347236212" lon="14.957409566263317"><ele>532.0</ele><time>2026-04-26T08:16:42Z</time></trkpt><trkpt lat="37.04069268086176" lon="14.957718899700243"><ele>531.5</ele><time>2026-04-26T08:16:43Z</time></trkpt><trkpt lat="37.04059225722639" lon="14.958028321570836"><ele>531.0</ele><time>2026-04-26T08:16:44Z</time></trkpt><trkpt lat="37.04049195863007" lon="14.95834405658791"><ele>530.0</ele><time>2026-04-26T08:16:45Z</time></trkpt><trkpt lat="37.04039114147977" lon="14.958662243721122"><ele>529.0</ele><time>2026-04-26T08:16:46Z</time></trkpt><trkpt lat="37.04029113009621" lon="14.95897971536119"><ele>526.5</ele><time>2026-04-26T08:16:47Z</time></trkpt><trkpt lat="37.04018685685003" lon="14.959298071372018"><ele>524.0</ele><time>2026-04-26T08:16:48Z</time></trkpt><trkpt lat="37.04008266531724" lon="14.959618029108308"><ele>524.0</ele><time>2026-04-26T08:16:49Z</time></trkpt><trkpt lat="37.0399807382278" lon="14.959936062180827"><ele>524.0</ele><time>2026-04-26T08:16:50Z</time></trkpt><trkpt lat="37.039880416135006" lon="14.960255774520961"><ele>523.0</ele><time>2026-04-26T08:16:51Z</time></trkpt><trkpt lat="37.039776701259925" lon="14.960576012442694"><ele>522.0</ele><time>2026-04-26T08:16:52Z</time></trkpt><trkpt lat="37.03967371776665" lon="14.960897746257148"><ele>521.0</ele><time>2026-04-26T08:16:53Z</time></trkpt><trkpt lat="37.03957014762407" lon="14.961215259624238"><ele>520.0</ele><time>2026-04-26T08:16:54Z</time></trkpt><trkpt lat="37.03946905955986" lon="14.961527675640777"><ele>521.0</ele><time>2026-04-26T08:16:55Z</time></trkpt><trkpt lat="37.03937147947621" lon="14.961848131357486"><ele>522.0</ele><time>2026-04-26T08:16:56Z</time></trkpt><trkpt lat="37.03927071878513" lon="14.962162061460063"><ele>522.0</ele><time>2026-04-26T08:16:57Z</time></trkpt><trkpt lat="37.03916890864335" lon="14.962477964843067"><ele>522.0</ele><time>2026-04-26T08:16:58Z</time></trkpt><trkpt lat="37.03906890491388" lon="14.962794202625307"><ele>519.0</ele><time>2026-04-26T08:16:59Z</time></trkpt><trkpt lat="37.038967823109886" lon="14.963106181964589"><ele>516.0</ele><time>2026-04-26T08:17:00Z</time></trkpt><trkpt lat="37.03886712526868" lon="14.963420195524211"><ele>515.5</ele><time>2026-04-26T08:17:01Z</time></trkpt><trkpt lat="37.03876820086216" lon="14.963734647634901"><ele>515.0</ele><time>2026-04-26T08:17:02Z</time></trkpt><trkpt lat="37.03866986543788" lon="14.964048889681383"><ele>515.5</ele><time>2026-04-26T08:17:03Z</time></trkpt><trkpt lat="37.038569276505214" lon="14.96435957133791"><ele>516.0</ele><time>2026-04-26T08:17:04Z</time></trkpt><trkpt lat="37.03846722536819" lon="14.964668961208279"><ele>516.0</ele><time>2026-04-26T08:17:05Z</time></trkpt><trkpt lat="37.03836447893103" lon="14.964974502136133"><ele>516.0</ele><time>2026-04-26T08:17:06Z</time></trkpt><trkpt lat="37.03826430763775" lon="14.96528399414871"><ele>514.5</ele><time>2026-04-26T08:17:07Z</time></trkpt><trkpt lat="37.03816536833535" lon="14.965587741789248"><ele>513.0</ele><time>2026-04-26T08:17:08Z</time></trkpt><trkpt lat="37.03807068052242" lon="14.965892418334214"><ele>512.5</ele><time>2026-04-26T08:17:09Z</time></trkpt><trkpt lat="37.03797790866035" lon="14.96618980382131"><ele>512.0</ele><time>2026-04-26T08:17:10Z</time></trkpt><trkpt lat="37.037887194040295" lon="14.966480129569106"><ele>512.5</ele><time>2026-04-26T08:17:11Z</time></trkpt><trkpt lat="37.037797134272225" lon="14.966766557000636"><ele>513.0</ele><time>2026-04-26T08:17:12Z</time></trkpt><trkpt lat="37.03770695184747" lon="14.967055732996425"><ele>513.0</ele><time>2026-04-26T08:17:13Z</time></trkpt><trkpt lat="37.037617242462375" lon="14.967342191506184"><ele>513.0</ele><time>2026-04-26T08:17:14Z</time></trkpt><trkpt lat="37.037521282957485" lon="14.967625905682597"><ele>513.0</ele><time>2026-04-26T08:17:15Z</time></trkpt><trkpt lat="37.03742381462887" lon="14.96790684422635"><ele>513.0</ele><time>2026-04-26T08:17:16Z</time></trkpt><trkpt lat="37.037329692846136" lon="14.968184387757997"><ele>512.5</ele><time>2026-04-26T08:17:17Z</time></trkpt><trkpt lat="37.03724054215971" lon="14.968461757194007"><ele>512.0</ele><time>2026-04-26T08:17:18Z</time></trkpt><trkpt lat="37.037153129458474" lon="14.968743118978189"><ele>512.0</ele><time>2026-04-26T08:17:19Z</time></trkpt><trkpt lat="37.03706638336888" lon="14.969020335325826"><ele>512.0</ele><time>2026-04-26T08:17:20Z</time></trkpt><trkpt lat="37.036975592945964" lon="14.969303491685539"><ele>511.5</ele><time>2026-04-26T08:17:21Z</time></trkpt><trkpt lat="37.03688324370647" lon="14.969578578170978"><ele>511.0</ele><time>2026-04-26T08:17:22.001Z</time></trkpt><trkpt lat="37.03678383392685" lon="14.969864666483065"><ele>511.0</ele><time>2026-04-26T08:17:23.001Z</time></trkpt><trkpt lat="37.03668786308414" lon="14.970153793338739"><ele>511.0</ele><time>2026-04-26T08:17:24.001Z</time></trkpt><trkpt lat="37.03659667681781" lon="14.970448298434162"><ele>511.0</ele><time>2026-04-26T08:17:25.001Z</time></trkpt><trkpt lat="37.0365073330976" lon="14.970745049948961"><ele>511.0</ele><time>2026-04-26T08:17:26.001Z</time></trkpt><trkpt lat="37.03642172956044" lon="14.971046070815886"><ele>510.0</ele><time>2026-04-26T08:17:27.001Z</time></trkpt><trkpt lat="37.03634251034783" lon="14.971352271737757"><ele>509.0</ele><time>2026-04-26T08:17:28.001Z</time></trkpt><trkpt lat="37.03626969800282" lon="14.971666298299759"><ele>509.0</ele><time>2026-04-26T08:17:29.001Z</time></trkpt><trkpt lat="37.036203326636304" lon="14.971980094269764"><ele>509.0</ele><time>2026-04-26T08:17:30.001Z</time></trkpt><trkpt lat="37.03614342061316" lon="14.97229957817833"><ele>508.0</ele><time>2026-04-26T08:17:31.001Z</time></trkpt><trkpt lat="37.03609310658513" lon="14.972623043216458"><ele>507.0</ele><time>2026-04-26T08:17:32.001Z</time></trkpt><trkpt lat="37.036051231928354" lon="14.972949781133131"><ele>507.0</ele><time>2026-04-26T08:17:33.001Z</time></trkpt><trkpt lat="37.03600972840237" lon="14.973275905006442"><ele>507.0</ele><time>2026-04-26T08:17:34.001Z</time></trkpt><trkpt lat="37.03596351424605" lon="14.973603319381512"><ele>507.0</ele><time>2026-04-26T08:17:35.001Z</time></trkpt><trkpt lat="37.03591553479362" lon="14.973928676886143"><ele>507.0</ele><time>2026-04-26T08:17:36.001Z</time></trkpt><trkpt lat="37.035867515195115" lon="14.974255996093433"><ele>507.0</ele><time>2026-04-26T08:17:37.001Z</time></trkpt><trkpt lat="37.03582114365922" lon="14.974586251354362"><ele>507.0</ele><time>2026-04-26T08:17:38.001Z</time></trkpt><trkpt lat="37.035774528729554" lon="14.974914530030551"><ele>505.5</ele><time>2026-04-26T08:17:39.001Z</time></trkpt><trkpt lat="37.03572763046814" lon="14.975238314751072"><ele>504.0</ele><time>2026-04-26T08:17:40.001Z</time></trkpt><trkpt lat="37.035680487304155" lon="14.97556984828321"><ele>503.5</ele><time>2026-04-26T08:17:41.001Z</time></trkpt><trkpt lat="37.035634409607" lon="14.97590036748755"><ele>503.0</ele><time>2026-04-26T08:17:42.001Z</time></trkpt><trkpt lat="37.03559168599008" lon="14.976228678772463"><ele>503.0</ele><time>2026-04-26T08:17:43.001Z</time></trkpt><trkpt lat="37.03555216066219" lon="14.976553136418788"><ele>503.0</ele><time>2026-04-26T08:17:44.001Z</time></trkpt><trkpt lat="37.0355110423471" lon="14.976865063011841"><ele>502.0</ele><time>2026-04-26T08:17:45.001Z</time></trkpt><trkpt lat="37.035467750676915" lon="14.97717464237342"><ele>501.0</ele><time>2026-04-26T08:17:46.001Z</time></trkpt><trkpt lat="37.035425477936904" lon="14.977477941329232"><ele>501.5</ele><time>2026-04-26T08:17:47.001Z</time></trkpt><trkpt lat="37.03538363599935" lon="14.977779601285894"><ele>502.0</ele><time>2026-04-26T08:17:48.001Z</time></trkpt><trkpt lat="37.035344549695424" lon="14.978078631068179"><ele>502.5</ele><time>2026-04-26T08:17:49.001Z</time></trkpt><trkpt lat="37.035305842116856" lon="14.978374138130725"><ele>503.0</ele><time>2026-04-26T08:17:50.001Z</time></trkpt><trkpt lat="37.035265231764164" lon="14.978678058419499"><ele>503.0</ele><time>2026-04-26T08:17:51.001Z</time></trkpt><trkpt lat="37.03522249585481" lon="14.978990808241141"><ele>503.0</ele><time>2026-04-26T08:17:52.001Z</time></trkpt><trkpt lat="37.035177926131595" lon="14.979309842526769"><ele>503.0</ele><time>2026-04-26T08:17:53.001Z</time></trkpt><trkpt lat="37.035130340824786" lon="14.979636580113752"><ele>503.0</ele><time>2026-04-26T08:17:54.001Z</time></trkpt><trkpt lat="37.03507830516194" lon="14.979966139466537"><ele>503.0</ele><time>2026-04-26T08:17:55.001Z</time></trkpt><trkpt lat="37.03502055954398" lon="14.980303674320357"><ele>503.0</ele><time>2026-04-26T08:17:56.001Z</time></trkpt><trkpt lat="37.034957009749235" lon="14.98064001948444"><ele>505.0</ele><time>2026-04-26T08:17:57.001Z</time></trkpt><trkpt lat="37.034883637097174" lon="14.980982738346714"><ele>507.0</ele><time>2026-04-26T08:17:58.001Z</time></trkpt><trkpt lat="37.03480356180083" lon="14.981321128613436"><ele>507.0</ele><time>2026-04-26T08:17:59.001Z</time></trkpt><trkpt lat="37.0347181726522" lon="14.981662818325475"><ele>507.0</ele><time>2026-04-26T08:18:00.001Z</time></trkpt><trkpt lat="37.034626841930354" lon="14.982016808799052"><ele>505.5</ele><time>2026-04-26T08:18:01.001Z</time></trkpt><trkpt lat="37.034531910360855" lon="14.9823735718547"><ele>504.0</ele><time>2026-04-26T08:18:02.001Z</time></trkpt><trkpt lat="37.034433822250406" lon="14.98273482567147"><ele>501.0</ele><time>2026-04-26T08:18:03.001Z</time></trkpt><trkpt lat="37.034336136828735" lon="14.983099489535588"><ele>498.0</ele><time>2026-04-26T08:18:04.001Z</time></trkpt><trkpt lat="37.03424077482577" lon="14.983466543850602"><ele>497.5</ele><time>2026-04-26T08:18:05.001Z</time></trkpt><trkpt lat="37.03415116512038" lon="14.983819146778648"><ele>497.0</ele><time>2026-04-26T08:18:06.001Z</time></trkpt><trkpt lat="37.03406624459368" lon="14.984147035625238"><ele>497.5</ele><time>2026-04-26T08:18:07.001Z</time></trkpt><trkpt lat="37.033983224686516" lon="14.98446229123733"><ele>498.0</ele><time>2026-04-26T08:18:08.001Z</time></trkpt><trkpt lat="37.03389658401234" lon="14.984780893970537"><ele>497.5</ele><time>2026-04-26T08:18:09.001Z</time></trkpt><trkpt lat="37.03381114672433" lon="14.98510071535954"><ele>497.0</ele><time>2026-04-26T08:18:10.001Z</time></trkpt><trkpt lat="37.033728596357996" lon="14.985413840000867"><ele>497.0</ele><time>2026-04-26T08:18:11.001Z</time></trkpt><trkpt lat="37.033649651552565" lon="14.985712617229959"><ele>497.0</ele><time>2026-04-26T08:18:12.001Z</time></trkpt><trkpt lat="37.033577694572955" lon="14.985981869080563"><ele>497.66666666666663</ele><time>2026-04-26T08:18:13.001Z</time></trkpt><trkpt lat="37.03350790151661" lon="14.986239016502045"><ele>498.33333333333337</ele><time>2026-04-26T08:18:14.001Z</time></trkpt><trkpt lat="37.033433788684576" lon="14.98650436041076"><ele>499.0</ele><time>2026-04-26T08:18:15.001Z</time></trkpt><trkpt lat="37.033355409233465" lon="14.986770913735246"><ele>498.0</ele><time>2026-04-26T08:18:16.001Z</time></trkpt><trkpt lat="37.0332634110738" lon="14.987043348451058"><ele>497.0</ele><time>2026-04-26T08:18:17.001Z</time></trkpt><trkpt lat="37.03315483213948" lon="14.987317925406186"><ele>497.0</ele><time>2026-04-26T08:18:18.001Z</time></trkpt><trkpt lat="37.03303039976172" lon="14.987595259951556"><ele>497.0</ele><time>2026-04-26T08:18:19.001Z</time></trkpt><trkpt lat="37.03289525767796" lon="14.987879122445621"><ele>497.0</ele><time>2026-04-26T08:18:20.001Z</time></trkpt><trkpt lat="37.032757280185095" lon="14.988166837542494"><ele>497.0</ele><time>2026-04-26T08:18:21.001Z</time></trkpt><trkpt lat="37.03262102511071" lon="14.988457049356533"><ele>498.0</ele><time>2026-04-26T08:18:22.001Z</time></trkpt><trkpt lat="37.03249198908401" lon="14.988750598507785"><ele>499.0</ele><time>2026-04-26T08:18:23.001Z</time></trkpt><trkpt lat="37.03237977173907" lon="14.989052684200132"><ele>495.0</ele><time>2026-04-26T08:18:24.001Z</time></trkpt><trkpt lat="37.032285188119985" lon="14.989365476218834"><ele>491.0</ele><time>2026-04-26T08:18:25.001Z</time></trkpt><trkpt lat="37.03221267635685" lon="14.989677236312573"><ele>491.0</ele><time>2026-04-26T08:18:26.001Z</time></trkpt><trkpt lat="37.03215767524046" lon="14.989993935635912"><ele>491.0</ele><time>2026-04-26T08:18:27.001Z</time></trkpt><trkpt lat="37.032128789857445" lon="14.990309228568968"><ele>491.0</ele><time>2026-04-26T08:18:28.001Z</time></trkpt><trkpt lat="37.032120033010074" lon="14.990630034843386"><ele>491.0</ele><time>2026-04-26T08:18:29.001Z</time></trkpt><trkpt lat="37.032126031711115" lon="14.990946617512241"><ele>491.5</ele><time>2026-04-26T08:18:30.001Z</time></trkpt><trkpt lat="37.03213626202004" lon="14.991263054616622"><ele>492.0</ele><time>2026-04-26T08:18:31.001Z</time></trkpt><trkpt lat="37.032150233845066" lon="14.991574153090498"><ele>493.0</ele><time>2026-04-26T08:18:32.001Z</time></trkpt><trkpt lat="37.0321672172654" lon="14.99186850330631"><ele>494.0</ele><time>2026-04-26T08:18:33.001Z</time></trkpt><trkpt lat="37.03218443671327" lon="14.992145620642418"><ele>494.0</ele><time>2026-04-26T08:18:34.001Z</time></trkpt><trkpt lat="37.032200391675204" lon="14.992406290715286"><ele>494.0</ele><time>2026-04-26T08:18:35.001Z</time></trkpt><trkpt lat="37.03221644838195" lon="14.992643317235698"><ele>494.0</ele><time>2026-04-26T08:18:36.001Z</time></trkpt><trkpt lat="37.03223352780386" lon="14.992856564986836"><ele>494.5</ele><time>2026-04-26T08:18:37.001Z</time></trkpt><trkpt lat="37.03224659138862" lon="14.993045307906513"><ele>495.0</ele><time>2026-04-26T08:18:38.001Z</time></trkpt><trkpt lat="37.032254932447906" lon="14.993217349874786"><ele>495.5</ele><time>2026-04-26T08:18:39.001Z</time></trkpt><trkpt lat="37.03226319000636" lon="14.993380593189093"><ele>496.0</ele><time>2026-04-26T08:18:40.001Z</time></trkpt><trkpt lat="37.03227773347945" lon="14.993528442998324"><ele>496.20000000000005</ele><time>2026-04-26T08:18:41.001Z</time></trkpt><trkpt lat="37.03228954604738" lon="14.993659227467596"><ele>496.40000000000003</ele><time>2026-04-26T08:18:42.001Z</time></trkpt><trkpt lat="37.03229528026617" lon="14.993776288407528"><ele>496.6</ele><time>2026-04-26T08:18:43.001Z</time></trkpt><trkpt lat="37.032303669137725" lon="14.993860492542606"><ele>496.8</ele><time>2026-04-26T08:18:44.001Z</time></trkpt><trkpt lat="37.03243538963454" lon="14.993917431128976"><ele>497.0</ele><time>2026-04-26T08:18:47.001Z</time></trkpt><trkpt lat="37.032496288941786" lon="14.993870203581501"><ele>496.6</ele><time>2026-04-26T08:18:48.001Z</time></trkpt><trkpt lat="37.032572205913" lon="14.993830110245712"><ele>496.20000000000005</ele><time>2026-04-26T08:18:49.001Z</time></trkpt><trkpt lat="37.03265393018415" lon="14.993770966609398"><ele>495.8</ele><time>2026-04-26T08:18:50.001Z</time></trkpt><trkpt lat="37.03275718603328" lon="14.993699117635863"><ele>495.4</ele><time>2026-04-26T08:18:51.001Z</time></trkpt><trkpt lat="37.03285265568561" lon="14.993632538544603"><ele>495.0</ele><time>2026-04-26T08:18:52.001Z</time></trkpt><trkpt lat="37.03295418095669" lon="14.993538466152403"><ele>495.0</ele><time>2026-04-26T08:18:53.001Z</time></trkpt><trkpt lat="37.03307367427788" lon="14.993477430203006"><ele>495.0</ele><time>2026-04-26T08:18:54.001Z</time></trkpt><trkpt lat="37.03319638944394" lon="14.993389280619947"><ele>495.0</ele><time>2026-04-26T08:18:55.001Z</time></trkpt><trkpt lat="37.03331975472564" lon="14.99329090359798"><ele>495.0</ele><time>2026-04-26T08:18:56.001Z</time></trkpt><trkpt lat="37.03345037286004" lon="14.99319824771922"><ele>495.66666666666663</ele><time>2026-04-26T08:18:57.001Z</time></trkpt><trkpt lat="37.033585933788544" lon="14.993107231838188"><ele>496.3333333333333</ele><time>2026-04-26T08:18:58.001Z</time></trkpt><trkpt lat="37.03371658283895" lon="14.992999088942087"><ele>497.0</ele><time>2026-04-26T08:18:59.001Z</time></trkpt><trkpt lat="37.03385711134874" lon="14.992906562075554"><ele>497.0</ele><time>2026-04-26T08:19:00.001Z</time></trkpt><trkpt lat="37.033987651584866" lon="14.99280642199653"><ele>497.0</ele><time>2026-04-26T08:19:01.001Z</time></trkpt><trkpt lat="37.034110589193745" lon="14.992686969645648"><ele>497.0</ele><time>2026-04-26T08:19:02.001Z</time></trkpt><trkpt lat="37.034228829639595" lon="14.992552633882584"><ele>500.0</ele><time>2026-04-26T08:19:03.001Z</time></trkpt><trkpt lat="37.034357522283464" lon="14.99243593279889"><ele>503.0</ele><time>2026-04-26T08:19:04.001Z</time></trkpt><trkpt lat="37.0344849551803" lon="14.992307065773431"><ele>506.0</ele><time>2026-04-26T08:19:05.001Z</time></trkpt><trkpt lat="37.03461487824992" lon="14.992173423111216"><ele>506.0</ele><time>2026-04-26T08:19:06.001Z</time></trkpt><trkpt lat="37.034735809550284" lon="14.992022044180683"><ele>506.0</ele><time>2026-04-26T08:19:07.001Z</time></trkpt><trkpt lat="37.034868607083894" lon="14.991888325113072"><ele>506.0</ele><time>2026-04-26T08:19:08.001Z</time></trkpt><trkpt lat="37.0349957437228" lon="14.99175562499135"><ele>507.0</ele><time>2026-04-26T08:19:09.001Z</time></trkpt><trkpt lat="37.03513333132956" lon="14.991644108161488"><ele>508.0</ele><time>2026-04-26T08:19:10.001Z</time></trkpt><trkpt lat="37.0352660831256" lon="14.991523696983654"><ele>509.0</ele><time>2026-04-26T08:19:11.001Z</time></trkpt><trkpt lat="37.03540740673967" lon="14.991429483919399"><ele>509.0</ele><time>2026-04-26T08:19:12.001Z</time></trkpt><trkpt lat="37.035546193362336" lon="14.99134031409105"><ele>509.0</ele><time>2026-04-26T08:19:13.001Z</time></trkpt><trkpt lat="37.0356617619118" lon="14.991244962787137"><ele>509.0</ele><time>2026-04-26T08:19:14.001Z</time></trkpt><trkpt lat="37.035789375863615" lon="14.99115892898957"><ele>509.0</ele><time>2026-04-26T08:19:15.001Z</time></trkpt><trkpt lat="37.035924354997405" lon="14.991070546506442"><ele>509.3333333333333</ele><time>2026-04-26T08:19:16.001Z</time></trkpt><trkpt lat="37.0360618177151" lon="14.990976862073692"><ele>509.66666666666663</ele><time>2026-04-26T08:19:17.001Z</time></trkpt><trkpt lat="37.036202051595986" lon="14.99087854176914"><ele>510.0</ele><time>2026-04-26T08:19:18.001Z</time></trkpt><trkpt lat="37.03633191917753" lon="14.990790253166924"><ele>509.0</ele><time>2026-04-26T08:19:19.001Z</time></trkpt><trkpt lat="37.03646970412292" lon="14.99069668897333"><ele>508.0</ele><time>2026-04-26T08:19:20.001Z</time></trkpt><trkpt lat="37.03659891145202" lon="14.990613831119967"><ele>507.0</ele><time>2026-04-26T08:19:21.001Z</time></trkpt><trkpt lat="37.03672611063188" lon="14.990532169728349"><ele>506.0</ele><time>2026-04-26T08:19:22.001Z</time></trkpt><trkpt lat="37.03686062043687" lon="14.990447490010267"><ele>506.0</ele><time>2026-04-26T08:19:23.001Z</time></trkpt><trkpt lat="37.037009385828085" lon="14.99038724192064"><ele>506.0</ele><time>2026-04-26T08:19:24.001Z</time></trkpt><trkpt lat="37.03715411889061" lon="14.990308810893625"><ele>506.0</ele><time>2026-04-26T08:19:25.001Z</time></trkpt><trkpt lat="37.03730003265645" lon="14.990211764526498"><ele>506.0</ele><time>2026-04-26T08:19:26.001Z</time></trkpt><trkpt lat="37.037457043152244" lon="14.990127206283573"><ele>506.0</ele><time>2026-04-26T08:19:27.001Z</time></trkpt><trkpt lat="37.03761444095366" lon="14.990057243387037"><ele>506.0</ele><time>2026-04-26T08:19:28.001Z</time></trkpt><trkpt lat="37.03775930270222" lon="14.989975180628312"><ele>503.66666666666663</ele><time>2026-04-26T08:19:29.001Z</time></trkpt><trkpt lat="37.03789072185799" lon="14.98987799460106"><ele>501.33333333333337</ele><time>2026-04-26T08:19:30.001Z</time></trkpt><trkpt lat="37.03802800710808" lon="14.989803426442757"><ele>499.0</ele><time>2026-04-26T08:19:31.001Z</time></trkpt><trkpt lat="37.038164485421404" lon="14.989719672421934"><ele>498.0</ele><time>2026-04-26T08:19:32.001Z</time></trkpt><trkpt lat="37.038302991174746" lon="14.98962766032818"><ele>497.0</ele><time>2026-04-26T08:19:33.001Z</time></trkpt><trkpt lat="37.038449059529896" lon="14.989522620335899"><ele>496.0</ele><time>2026-04-26T08:19:34.001Z</time></trkpt><trkpt lat="37.03859592395101" lon="14.9894205407445"><ele>496.0</ele><time>2026-04-26T08:19:35.001Z</time></trkpt><trkpt lat="37.03874483246992" lon="14.989319745408011"><ele>496.0</ele><time>2026-04-26T08:19:36.001Z</time></trkpt><trkpt lat="37.038897860783614" lon="14.989217950291364"><ele>496.0</ele><time>2026-04-26T08:19:37.001Z</time></trkpt><trkpt lat="37.03903575740055" lon="14.989127980306774"><ele>493.5</ele><time>2026-04-26T08:19:38.001Z</time></trkpt><trkpt lat="37.039170039146654" lon="14.98903492069728"><ele>491.0</ele><time>2026-04-26T08:19:39.001Z</time></trkpt><trkpt lat="37.03930510058696" lon="14.988951152518306"><ele>488.5</ele><time>2026-04-26T08:19:40.001Z</time></trkpt><trkpt lat="37.039421973858296" lon="14.988854399026234"><ele>486.0</ele><time>2026-04-26T08:19:41.001Z</time></trkpt><trkpt lat="37.039516066279816" lon="14.988748704427715"><ele>486.0</ele><time>2026-04-26T08:19:42.001Z</time></trkpt><trkpt lat="37.03960531713531" lon="14.98868616252403"><ele>486.0</ele><time>2026-04-26T08:19:43.001Z</time></trkpt><trkpt lat="37.03966957897735" lon="14.98862483359643"><ele>486.0</ele><time>2026-04-26T08:19:44.001Z</time></trkpt><trkpt lat="37.03972876530918" lon="14.988584268242828"><ele>486.0</ele><time>2026-04-26T08:19:45.001Z</time></trkpt><trkpt lat="37.03983916614658" lon="14.988556756581154"><ele>486.0</ele><time>2026-04-26T08:19:47.001Z</time></trkpt><trkpt lat="37.039910963511105" lon="14.988564707898297"><ele>486.0</ele><time>2026-04-26T08:19:48.001Z</time></trkpt><trkpt lat="37.03997460024153" lon="14.98859221182931"><ele>486.0</ele><time>2026-04-26T08:19:49.001Z</time></trkpt><trkpt lat="37.04002121982997" lon="14.98865828888717"><ele>486.0</ele><time>2026-04-26T08:19:50.001Z</time></trkpt><trkpt lat="37.040054744313316" lon="14.988749615434687"><ele>486.0</ele><time>2026-04-26T08:19:51.001Z</time></trkpt><trkpt lat="37.040087117407815" lon="14.988847524365076"><ele>486.0</ele><time>2026-04-26T08:19:52.001Z</time></trkpt><trkpt lat="37.040129920643736" lon="14.988948278347404"><ele>486.0</ele><time>2026-04-26T08:19:53.001Z</time></trkpt><trkpt lat="37.04017346853325" lon="14.98906741897337"><ele>486.0</ele><time>2026-04-26T08:19:54.001Z</time></trkpt><trkpt lat="37.04021212543322" lon="14.98919706487787"><ele>486.0</ele><time>2026-04-26T08:19:55.001Z</time></trkpt><trkpt lat="37.04025150510618" lon="14.989333659908812"><ele>486.0</ele><time>2026-04-26T08:19:56.001Z</time></trkpt><trkpt lat="37.04028645265323" lon="14.989466334790913"><ele>486.0</ele><time>2026-04-26T08:19:57.001Z</time></trkpt><trkpt lat="37.04030703969401" lon="14.989591031288132"><ele>486.0</ele><time>2026-04-26T08:19:58.001Z</time></trkpt><trkpt lat="37.04031340240665" lon="14.98972461117953"><ele>486.0</ele><time>2026-04-26T08:19:59.001Z</time></trkpt><trkpt lat="37.04031015129992" lon="14.98984902420732"><ele>486.0</ele><time>2026-04-26T08:20:00.001Z</time></trkpt><trkpt lat="37.04029509415551" lon="14.989967022651292"><ele>486.0</ele><time>2026-04-26T08:20:01.001Z</time></trkpt><trkpt lat="37.040253593674485" lon="14.990062864639851"><ele>486.0</ele><time>2026-04-26T08:20:02.001Z</time></trkpt><trkpt lat="37.04016321366709" lon="14.990105141009954"><ele>486.0</ele><time>2026-04-26T08:20:03.001Z</time></trkpt><trkpt lat="37.04009713009252" lon="14.990196185495831"><ele>486.0</ele><time>2026-04-26T08:20:04.001Z</time></trkpt><trkpt lat="37.04003901407644" lon="14.990295540561986"><ele>485.6</ele><time>2026-04-26T08:20:05.001Z</time></trkpt><trkpt lat="37.04001981390424" lon="14.990423698852974"><ele>485.20000000000005</ele><time>2026-04-26T08:20:06.001Z</time></trkpt><trkpt lat="37.0400230258221" lon="14.990550309372466"><ele>484.79999999999995</ele><time>2026-04-26T08:20:07.001Z</time></trkpt><trkpt lat="37.040036214279134" lon="14.990670734456552"><ele>484.4</ele><time>2026-04-26T08:20:08.001Z</time></trkpt><trkpt lat="37.040056973760215" lon="14.990789005890834"><ele>484.0</ele><time>2026-04-26T08:20:09.001Z</time></trkpt><trkpt lat="37.0400849935354" lon="14.990893265681494"><ele>485.00000000000006</ele><time>2026-04-26T08:20:10.001Z</time></trkpt><trkpt lat="37.04012436901804" lon="14.990983757673218"><ele>486.0</ele><time>2026-04-26T08:20:11.001Z</time></trkpt><trkpt lat="37.040174004207124" lon="14.991060440784631"><ele>487.0</ele><time>2026-04-26T08:20:12.001Z</time></trkpt><trkpt lat="37.04023215829689" lon="14.991128951624344"><ele>488.0</ele><time>2026-04-26T08:20:13.001Z</time></trkpt><trkpt lat="37.04030047047948" lon="14.991210343282273"><ele>489.00000000000006</ele><time>2026-04-26T08:20:14.001Z</time></trkpt><trkpt lat="37.04036914405879" lon="14.991301884960206"><ele>490.0</ele><time>2026-04-26T08:20:15.001Z</time></trkpt><trkpt lat="37.040435983987614" lon="14.991401904433227"><ele>490.0</ele><time>2026-04-26T08:20:16.001Z</time></trkpt><trkpt lat="37.04049923683364" lon="14.991514432861406"><ele>490.0</ele><time>2026-04-26T08:20:17.001Z</time></trkpt><trkpt lat="37.040542099504165" lon="14.991643348768301"><ele>490.0</ele><time>2026-04-26T08:20:18.001Z</time></trkpt><trkpt lat="37.04056491424707" lon="14.991767113923943"><ele>490.0</ele><time>2026-04-26T08:20:19.001Z</time></trkpt><trkpt lat="37.04058969423454" lon="14.991879695492782"><ele>490.0</ele><time>2026-04-26T08:20:20.001Z</time></trkpt><trkpt lat="37.04062004058488" lon="14.991958080248791"><ele>490.0</ele><time>2026-04-26T08:20:21.001Z</time></trkpt><trkpt lat="37.040721425947716" lon="14.991969684951602"><ele>490.0</ele><time>2026-04-26T08:20:23.001Z</time></trkpt><trkpt lat="37.040750179607016" lon="14.991899193318371"><ele>490.0</ele><time>2026-04-26T08:20:24.001Z</time></trkpt><trkpt lat="37.04077669826406" lon="14.991810604767963"><ele>490.0</ele><time>2026-04-26T08:20:25.001Z</time></trkpt><trkpt lat="37.04069626388825" lon="14.99166776704064"><ele>490.0</ele><time>2026-04-26T08:20:26.001Z</time></trkpt><trkpt lat="37.04067920649226" lon="14.991503895350807"><ele>490.0</ele><time>2026-04-26T08:20:27.001Z</time></trkpt><trkpt lat="37.04068082501707" lon="14.99135295460612"><ele>490.0</ele><time>2026-04-26T08:20:28.001Z</time></trkpt><trkpt lat="37.040715097008864" lon="14.991182884104909"><ele>490.0</ele><time>2026-04-26T08:20:29.001Z</time></trkpt><trkpt lat="37.04074249534677" lon="14.990991716734094"><ele>490.0</ele><time>2026-04-26T08:20:30.001Z</time></trkpt><trkpt lat="37.04075847525082" lon="14.9908201927706"><ele>484.5</ele><time>2026-04-26T08:20:31.001Z</time></trkpt><trkpt lat="37.04080591920392" lon="14.990688672533715"><ele>479.0</ele><time>2026-04-26T08:20:32.001Z</time></trkpt><trkpt lat="37.04089591858725" lon="14.99057038918413"><ele>473.5</ele><time>2026-04-26T08:20:33.001Z</time></trkpt><trkpt lat="37.040976004755045" lon="14.990416898981723"><ele>468.0</ele><time>2026-04-26T08:20:34.001Z</time></trkpt><trkpt lat="37.04103820519779" lon="14.990268611298234"><ele>468.0</ele><time>2026-04-26T08:20:35.001Z</time></trkpt><trkpt lat="37.041068353982645" lon="14.990113409260161"><ele>468.0</ele><time>2026-04-26T08:20:36.001Z</time></trkpt><trkpt lat="37.0410856926593" lon="14.98995383671794"><ele>468.0</ele><time>2026-04-26T08:20:37.001Z</time></trkpt><trkpt lat="37.04109082346023" lon="14.98978062207645"><ele>468.0</ele><time>2026-04-26T08:20:38.001Z</time></trkpt><trkpt lat="37.041076871554694" lon="14.98960923049939"><ele>469.0</ele><time>2026-04-26T08:20:39.001Z</time></trkpt><trkpt lat="37.04107558919077" lon="14.989443235713082"><ele>469.99999999999994</ele><time>2026-04-26T08:20:40.001Z</time></trkpt><trkpt lat="37.04105862484909" lon="14.98930278916184"><ele>470.99999999999994</ele><time>2026-04-26T08:20:41.001Z</time></trkpt><trkpt lat="37.0410435793369" lon="14.989192455077113"><ele>472.0</ele><time>2026-04-26T08:20:42.001Z</time></trkpt><trkpt lat="37.04106972829328" lon="14.989062854492133"><ele>473.0</ele><time>2026-04-26T08:20:44.001Z</time></trkpt><trkpt lat="37.041135532368784" lon="14.989029358704677"><ele>473.75</ele><time>2026-04-26T08:20:45.001Z</time></trkpt><trkpt lat="37.041221585583344" lon="14.989058727937627"><ele>474.5</ele><time>2026-04-26T08:20:47.001Z</time></trkpt><trkpt lat="37.041287077347775" lon="14.989069618486884"><ele>475.25</ele><time>2026-04-26T08:20:57.001Z</time></trkpt><trkpt lat="37.04136032925526" lon="14.988730296705159"><ele>476.0</ele><time>2026-04-26T08:21:51.001Z</time></trkpt><trkpt lat="37.041408598298965" lon="14.988607130473131"><ele>476.0</ele><time>2026-04-26T08:21:53.001Z</time></trkpt><trkpt lat="37.04148011116741" lon="14.988450080670876"><ele>476.0</ele><time>2026-04-26T08:21:55.001Z</time></trkpt><trkpt lat="37.04151852137727" lon="14.988341468159744"><ele>476.0</ele><time>2026-04-26T08:21:56.001Z</time></trkpt><trkpt lat="37.04155253544264" lon="14.988247583559845"><ele>476.0</ele><time>2026-04-26T08:21:57.001Z</time></trkpt><trkpt lat="37.04159807491359" lon="14.988134828017508"><ele>476.0</ele><time>2026-04-26T08:21:58.001Z</time></trkpt><trkpt lat="37.04162877028384" lon="14.98802814628456"><ele>475.57142857142856</ele><time>2026-04-26T08:21:59.001Z</time></trkpt><trkpt lat="37.041656819621586" lon="14.987942399594072"><ele>475.1428571428571</ele><time>2026-04-26T08:22:00.001Z</time></trkpt><trkpt lat="37.04166979825876" lon="14.987860848913737"><ele>474.7142857142857</ele><time>2026-04-26T08:22:01.001Z</time></trkpt><trkpt lat="37.041675726772134" lon="14.98777824011708"><ele>474.2857142857143</ele><time>2026-04-26T08:22:02.001Z</time></trkpt><trkpt lat="37.04165211899553" lon="14.987685890473983"><ele>473.85714285714283</ele><time>2026-04-26T08:22:04.001Z</time></trkpt><trkpt lat="37.04161565669415" lon="14.987619532161208"><ele>473.42857142857144</ele><time>2026-04-26T08:22:19.001Z</time></trkpt><trkpt lat="37.04157379031232" lon="14.987548504755454"><ele>473.0</ele><time>2026-04-26T08:22:21.001Z</time></trkpt><trkpt lat="37.04153497654956" lon="14.987472044722992"><ele>472.49999999999994</ele><time>2026-04-26T08:22:24.001Z</time></trkpt><trkpt lat="37.04147977850671" lon="14.987370784535587"><ele>472.0</ele><time>2026-04-26T08:22:26.001Z</time></trkpt><trkpt lat="37.04144532785741" lon="14.987304294672661"><ele>471.5</ele><time>2026-04-26T08:22:28.001Z</time></trkpt><trkpt lat="37.04139581112877" lon="14.987253081675258"><ele>471.0</ele><time>2026-04-26T08:22:31.001Z</time></trkpt><trkpt lat="37.04133474092062" lon="14.987152944065993"><ele>470.49999999999994</ele><time>2026-04-26T08:22:33.001Z</time></trkpt><trkpt lat="37.041292544797344" lon="14.98708566080705"><ele>470.0</ele><time>2026-04-26T08:22:34.001Z</time></trkpt><trkpt lat="37.0412461921469" lon="14.986970378727097"><ele>469.99999999999994</ele><time>2026-04-26T08:22:36.001Z</time></trkpt><trkpt lat="37.04120207535854" lon="14.98686557595852"><ele>470.0</ele><time>2026-04-26T08:22:38.001Z</time></trkpt><trkpt lat="37.04114771643393" lon="14.986819671047938"><ele>470.0</ele><time>2026-04-26T08:22:41.001Z</time></trkpt><trkpt lat="37.04109257632722" lon="14.986763538075365"><ele>470.0</ele><time>2026-04-26T08:22:53.001Z</time></trkpt><trkpt lat="37.0410687670565" lon="14.986687310822118"><ele>469.99999999999994</ele><time>2026-04-26T08:23:00Z</time></trkpt><trkpt lat="37.040997950676974" lon="14.986706576936106"><ele>470.0</ele><time>2026-04-26T08:23:04Z</time></trkpt><trkpt lat="37.0409212180997" lon="14.986753073581093"><ele>469.99999999999994</ele><time>2026-04-26T08:25:22Z</time></trkpt><trkpt lat="37.04086265054535" lon="14.986793812036591"><ele>470.0</ele><time>2026-04-26T08:25:34Z</time></trkpt><trkpt lat="37.040842222559675" lon="14.986879800852536"><ele>470.0</ele><time>2026-04-26T08:25:39Z</time></trkpt><trkpt lat="37.040775175176535" lon="14.986927336984827"><ele>470.0</ele><time>2026-04-26T08:26:16Z</time></trkpt><trkpt lat="37.040698341266065" lon="14.986880290902615"><ele>469.99999999999994</ele><time>2026-04-26T08:26:19Z</time></trkpt><trkpt lat="37.04061590469395" lon="14.986797313953586"><ele>470.0</ele><time>2026-04-26T08:26:22.001Z</time></trkpt><trkpt lat="37.04052613202155" lon="14.986759312338181"><ele>470.16666666666663</ele><time>2026-04-26T08:26:25.001Z</time></trkpt><trkpt lat="37.04046886261998" lon="14.986704240140925"><ele>470.3333333333333</ele><time>2026-04-26T08:26:28.001Z</time></trkpt><trkpt lat="37.0404220330644" lon="14.986629076653273"><ele>470.5</ele><time>2026-04-26T08:26:31.001Z</time></trkpt><trkpt lat="37.040330577537006" lon="14.986626935481521"><ele>470.66666666666663</ele><time>2026-04-26T08:26:35.001Z</time></trkpt><trkpt lat="37.04036186489297" lon="14.986712184813646"><ele>470.8333333333333</ele><time>2026-04-26T08:26:39.001Z</time></trkpt><trkpt lat="37.040428434853965" lon="14.986701423565718"><ele>471.0</ele><time>2026-04-26T08:26:55.001Z</time></trkpt><trkpt lat="37.04049520559694" lon="14.986724587916761"><ele>470.8571428571429</ele><time>2026-04-26T08:26:58.001Z</time></trkpt><trkpt lat="37.04055929163543" lon="14.986771378334828"><ele>470.7142857142857</ele><time>2026-04-26T08:27:01.001Z</time></trkpt><trkpt lat="37.04062598073221" lon="14.986800816507728"><ele>470.57142857142856</ele><time>2026-04-26T08:27:04.001Z</time></trkpt><trkpt lat="37.0406910781204" lon="14.98683971158064"><ele>470.42857142857144</ele><time>2026-04-26T08:27:07.001Z</time></trkpt><trkpt lat="37.0407514799095" lon="14.986869695443959"><ele>470.2857142857142</ele><time>2026-04-26T08:27:10Z</time></trkpt><trkpt lat="37.040825882280444" lon="14.986890657357094"><ele>470.1428571428571</ele><time>2026-04-26T08:27:13Z</time></trkpt><trkpt lat="37.04085751778482" lon="14.98698807291295"><ele>470.0</ele><time>2026-04-26T08:27:17Z</time></trkpt><trkpt lat="37.040916543090766" lon="14.987018407818862"><ele>470.0</ele><time>2026-04-26T08:27:20Z</time></trkpt><trkpt lat="37.04097981640132" lon="14.987063452905156"><ele>469.99999999999994</ele><time>2026-04-26T08:27:22Z</time></trkpt><trkpt lat="37.04102752433135" lon="14.98713571865896"><ele>470.0</ele><time>2026-04-26T08:27:24Z</time></trkpt><trkpt lat="37.041069077709984" lon="14.987202111425203"><ele>470.0</ele><time>2026-04-26T08:27:26Z</time></trkpt><trkpt lat="37.04110084944931" lon="14.987289640255531"><ele>469.99999999999994</ele><time>2026-04-26T08:27:28Z</time></trkpt><trkpt lat="37.041079210077974" lon="14.987379412204401"><ele>470.0</ele><time>2026-04-26T08:27:31Z</time></trkpt><trkpt lat="37.04105283096293" lon="14.987461943425158"><ele>470.0</ele><time>2026-04-26T08:28:03Z</time></trkpt><trkpt lat="37.041050068489476" lon="14.987563516738772"><ele>470.0</ele><time>2026-04-26T08:28:07Z</time></trkpt><trkpt lat="37.04109769643265" lon="14.98762408205866"><ele>469.99999999999994</ele><time>2026-04-26T08:28:12Z</time></trkpt><trkpt lat="37.041116574646914" lon="14.987548524033881"><ele>470.0</ele><time>2026-04-26T08:28:16Z</time></trkpt><trkpt lat="37.04106519224002" lon="14.987498633620602"><ele>470.0</ele><time>2026-04-26T08:28:18Z</time></trkpt><trkpt lat="37.04108321057699" lon="14.987384599614881"><ele>469.99999999999994</ele><time>2026-04-26T08:28:23Z</time></trkpt><trkpt lat="37.041105519489115" lon="14.987307201200048"><ele>470.0</ele><time>2026-04-26T08:28:25Z</time></trkpt><trkpt lat="37.04108030715963" lon="14.987225699366864"><ele>470.0</ele><time>2026-04-26T08:28:27Z</time></trkpt><trkpt lat="37.041052664013215" lon="14.987139094063366"><ele>470.0</ele><time>2026-04-26T08:28:29Z</time></trkpt><trkpt lat="37.04099100813683" lon="14.987092355980293"><ele>469.99999999999994</ele><time>2026-04-26T08:28:31Z</time></trkpt><trkpt lat="37.040934171686956" lon="14.987042619272792"><ele>470.0</ele><time>2026-04-26T08:28:34Z</time></trkpt><trkpt lat="37.04087447586615" lon="14.986999488104598"><ele>470.0</ele><time>2026-04-26T08:28:37Z</time></trkpt><trkpt lat="37.04081685844649" lon="14.986949088515209"><ele>469.99999999999994</ele><time>2026-04-26T08:28:41Z</time></trkpt><trkpt lat="37.04084311587312" lon="14.986870395433519"><ele>470.0</ele><time>2026-04-26T08:28:46.001Z</time></trkpt><trkpt lat="37.04085101122883" lon="14.986791704593347"><ele>470.0</ele><time>2026-04-26T08:28:50.001Z</time></trkpt><trkpt lat="37.0409283974547" lon="14.98675756420927"><ele>469.99999999999994</ele><time>2026-04-26T08:28:53.001Z</time></trkpt><trkpt lat="37.04099466925408" lon="14.986717668485165"><ele>470.0</ele><time>2026-04-26T08:28:56.001Z</time></trkpt><trkpt lat="37.041078587479745" lon="14.986713587141413"><ele>470.0</ele><time>2026-04-26T08:29:00.001Z</time></trkpt><trkpt lat="37.04110298618733" lon="14.986796547512377"><ele>470.0</ele><time>2026-04-26T08:29:03.001Z</time></trkpt><trkpt lat="37.04119223618106" lon="14.986863907543729"><ele>469.99999999999994</ele><time>2026-04-26T08:29:05.001Z</time></trkpt><trkpt lat="37.041229832809904" lon="14.986947629429682"><ele>470.0</ele><time>2026-04-26T08:29:07.001Z</time></trkpt><trkpt lat="37.04126410702435" lon="14.987028763142465"><ele>469.99999999999994</ele><time>2026-04-26T08:29:09.001Z</time></trkpt><trkpt lat="37.04132762694656" lon="14.987149065088593"><ele>470.0</ele><time>2026-04-26T08:29:11.001Z</time></trkpt><trkpt lat="37.0413853173954" lon="14.987219086036967"><ele>470.0</ele><time>2026-04-26T08:29:13.001Z</time></trkpt><trkpt lat="37.041432579641864" lon="14.987275497790808"><ele>470.0</ele><time>2026-04-26T08:29:15.001Z</time></trkpt><trkpt lat="37.04147205248085" lon="14.987343876841381"><ele>469.99999999999994</ele><time>2026-04-26T08:29:17Z</time></trkpt><trkpt lat="37.041525964848695" lon="14.987450206693797"><ele>470.0</ele><time>2026-04-26T08:29:20Z</time></trkpt><trkpt lat="37.04157344300456" lon="14.987553004977398"><ele>470.0</ele><time>2026-04-26T08:29:22Z</time></trkpt><trkpt lat="37.041632682245904" lon="14.987638362238867"><ele>470.0</ele><time>2026-04-26T08:29:24Z</time></trkpt><trkpt lat="37.04166766498239" lon="14.987776505664936"><ele>470.0</ele><time>2026-04-26T08:29:26Z</time></trkpt><trkpt lat="37.04167137729598" lon="14.98785713736431"><ele>470.0</ele><time>2026-04-26T08:29:27Z</time></trkpt><trkpt lat="37.041662004481445" lon="14.987938587080484"><ele>470.0</ele><time>2026-04-26T08:29:28Z</time></trkpt><trkpt lat="37.04161965420468" lon="14.988078800735888"><ele>470.49999999999994</ele><time>2026-04-26T08:29:30Z</time></trkpt><trkpt lat="37.04155556457004" lon="14.988227381344268"><ele>471.0</ele><time>2026-04-26T08:29:32Z</time></trkpt><trkpt lat="37.041536333970164" lon="14.988309228987665"><ele>471.5</ele><time>2026-04-26T08:29:33Z</time></trkpt><trkpt lat="37.04150551617461" lon="14.988398505327645"><ele>472.0</ele><time>2026-04-26T08:29:34Z</time></trkpt><trkpt lat="37.04147470439433" lon="14.988487031256735"><ele>472.49999999999994</ele><time>2026-04-26T08:29:35Z</time></trkpt><trkpt lat="37.041445307575124" lon="14.988558921909085"><ele>473.0</ele><time>2026-04-26T08:29:36Z</time></trkpt><trkpt lat="37.04138576824068" lon="14.98868305922292"><ele>472.99999999999994</ele><time>2026-04-26T08:29:38Z</time></trkpt><trkpt lat="37.04134437554919" lon="14.988806806015125"><ele>473.0</ele><time>2026-04-26T08:29:40Z</time></trkpt><trkpt lat="37.04134254550488" lon="14.988906864239187"><ele>473.0</ele><time>2026-04-26T08:29:42Z</time></trkpt><trkpt lat="37.041340602514786" lon="14.988997565893815"><ele>473.0</ele><time>2026-04-26T08:29:45Z</time></trkpt><trkpt lat="37.04131536512108" lon="14.989085599182204"><ele>472.99999999999994</ele><time>2026-04-26T08:30:11Z</time></trkpt><trkpt lat="37.0413797604072" lon="14.989171974842952"><ele>473.0</ele><time>2026-04-26T08:30:13Z</time></trkpt><trkpt lat="37.04146492050026" lon="14.989235940779398"><ele>472.99999999999994</ele><time>2026-04-26T08:30:14Z</time></trkpt><trkpt lat="37.041536648279035" lon="14.989311582870148"><ele>473.0</ele><time>2026-04-26T08:30:15Z</time></trkpt><trkpt lat="37.041604401219054" lon="14.989377752345584"><ele>473.0</ele><time>2026-04-26T08:30:16Z</time></trkpt><trkpt lat="37.04167277514048" lon="14.98940938143296"><ele>473.0</ele><time>2026-04-26T08:30:17Z</time></trkpt><trkpt lat="37.04174603310359" lon="14.989407161029911"><ele>472.99999999999994</ele><time>2026-04-26T08:30:18Z</time></trkpt><trkpt lat="37.041820523994865" lon="14.989366695569164"><ele>473.0</ele><time>2026-04-26T08:30:19Z</time></trkpt><trkpt lat="37.04191387486956" lon="14.98929644189966"><ele>471.59999999999997</ele><time>2026-04-26T08:30:20Z</time></trkpt><trkpt lat="37.04202309556916" lon="14.989250705153516"><ele>470.19999999999993</ele><time>2026-04-26T08:30:21Z</time></trkpt><trkpt lat="37.04211587635036" lon="14.989201350262142"><ele>468.8</ele><time>2026-04-26T08:30:22Z</time></trkpt><trkpt lat="37.04219818397859" lon="14.98917602412743"><ele>467.4</ele><time>2026-04-26T08:30:23Z</time></trkpt><trkpt lat="37.04226313350908" lon="14.989181418005987"><ele>466.0</ele><time>2026-04-26T08:30:24Z</time></trkpt><trkpt lat="37.04231452559721" lon="14.989301499974548"><ele>466.0</ele><time>2026-04-26T08:30:26Z</time></trkpt><trkpt lat="37.04224524126347" lon="14.989435994998942"><ele>466.0</ele><time>2026-04-26T08:30:27Z</time></trkpt><trkpt lat="37.04217628106833" lon="14.989562976816194"><ele>466.0</ele><time>2026-04-26T08:30:28Z</time></trkpt><trkpt lat="37.042105106780845" lon="14.989692336603238"><ele>466.0</ele><time>2026-04-26T08:30:29Z</time></trkpt><trkpt lat="37.04203781280859" lon="14.989776478006961"><ele>466.0</ele><time>2026-04-26T08:30:30Z</time></trkpt><trkpt lat="37.041985774606985" lon="14.989854775032388"><ele>466.0</ele><time>2026-04-26T08:30:31Z</time></trkpt><trkpt lat="37.04194574223717" lon="14.989949140289532"><ele>466.0</ele><time>2026-04-26T08:30:32Z</time></trkpt><trkpt lat="37.04192845439267" lon="14.99005761668559"><ele>466.0</ele><time>2026-04-26T08:30:33Z</time></trkpt><trkpt lat="37.041944451219706" lon="14.990177269544048"><ele>466.0</ele><time>2026-04-26T08:30:34Z</time></trkpt><trkpt lat="37.041981383881854" lon="14.990299675051133"><ele>466.0</ele><time>2026-04-26T08:30:35Z</time></trkpt><trkpt lat="37.04202124051696" lon="14.990419349376918"><ele>466.0</ele><time>2026-04-26T08:30:36Z</time></trkpt><trkpt lat="37.04205976465677" lon="14.990540655296233"><ele>466.0</ele><time>2026-04-26T08:30:37Z</time></trkpt><trkpt lat="37.04208432889614" lon="14.990676196256963"><ele>466.0</ele><time>2026-04-26T08:30:38Z</time></trkpt><trkpt lat="37.042064771531344" lon="14.990813233052958"><ele>466.0</ele><time>2026-04-26T08:30:39Z</time></trkpt><trkpt lat="37.04201758106212" lon="14.990947094382788"><ele>466.25</ele><time>2026-04-26T08:30:40Z</time></trkpt><trkpt lat="37.04199473774763" lon="14.99108200425311"><ele>466.5</ele><time>2026-04-26T08:30:41Z</time></trkpt><trkpt lat="37.04201849601767" lon="14.991220180029966"><ele>466.75</ele><time>2026-04-26T08:30:42Z</time></trkpt><trkpt lat="37.042069241101935" lon="14.991353104203009"><ele>467.0</ele><time>2026-04-26T08:30:43Z</time></trkpt><trkpt lat="37.042128971247244" lon="14.991480404937938"><ele>467.0</ele><time>2026-04-26T08:30:44Z</time></trkpt><trkpt lat="37.04220369232917" lon="14.99159158097302"><ele>467.00000000000006</ele><time>2026-04-26T08:30:45Z</time></trkpt><trkpt lat="37.04229402932624" lon="14.991673220670247"><ele>467.00000000000006</ele><time>2026-04-26T08:30:46Z</time></trkpt><trkpt lat="37.04238993187389" lon="14.991721400573669"><ele>467.0</ele><time>2026-04-26T08:30:47Z</time></trkpt><trkpt lat="37.04249094038665" lon="14.991738237891628"><ele>467.0</ele><time>2026-04-26T08:30:48Z</time></trkpt><trkpt lat="37.042597360548484" lon="14.991739348866178"><ele>469.0</ele><time>2026-04-26T08:30:49Z</time></trkpt><trkpt lat="37.042703714402876" lon="14.99174549202813"><ele>471.00000000000006</ele><time>2026-04-26T08:30:50Z</time></trkpt><trkpt lat="37.04281296632426" lon="14.991772163696657"><ele>473.00000000000006</ele><time>2026-04-26T08:30:51Z</time></trkpt><trkpt lat="37.04291616092277" lon="14.99182127506766"><ele>475.0</ele><time>2026-04-26T08:30:52Z</time></trkpt><trkpt lat="37.04299967436889" lon="14.99187952407322"><ele>477.0</ele><time>2026-04-26T08:30:53Z</time></trkpt><trkpt lat="37.04307005750637" lon="14.991967508137973"><ele>477.0</ele><time>2026-04-26T08:30:54Z</time></trkpt><trkpt lat="37.043126273163104" lon="14.992080869538306"><ele>477.00000000000006</ele><time>2026-04-26T08:30:55Z</time></trkpt><trkpt lat="37.04316490436889" lon="14.992205130563818"><ele>477.00000000000006</ele><time>2026-04-26T08:30:56Z</time></trkpt><trkpt lat="37.04318488632963" lon="14.992327677497146"><ele>477.0</ele><time>2026-04-26T08:30:57Z</time></trkpt><trkpt lat="37.04317813781215" lon="14.992427315023777"><ele>477.0</ele><time>2026-04-26T08:30:59Z</time></trkpt><trkpt lat="37.043172606584335" lon="14.992506403889477"><ele>477.20000000000005</ele><time>2026-04-26T08:31:05Z</time></trkpt><trkpt lat="37.04316948328216" lon="14.992602182623745"><ele>477.40000000000003</ele><time>2026-04-26T08:31:08Z</time></trkpt><trkpt lat="37.04316633578513" lon="14.99269405600755"><ele>477.59999999999997</ele><time>2026-04-26T08:31:09Z</time></trkpt><trkpt lat="37.04314363201423" lon="14.992808890216917"><ele>477.79999999999995</ele><time>2026-04-26T08:31:10Z</time></trkpt><trkpt lat="37.043133297779754" lon="14.99293900745933"><ele>478.0</ele><time>2026-04-26T08:31:11Z</time></trkpt><trkpt lat="37.04312149616537" lon="14.993076127352017"><ele>478.0</ele><time>2026-04-26T08:31:12Z</time></trkpt><trkpt lat="37.04310254096139" lon="14.993226083295815"><ele>478.0</ele><time>2026-04-26T08:31:13Z</time></trkpt><trkpt lat="37.043086067829776" lon="14.993393772035207"><ele>478.0</ele><time>2026-04-26T08:31:14Z</time></trkpt><trkpt lat="37.04306911839518" lon="14.993574502743522"><ele>478.0</ele><time>2026-04-26T08:31:15Z</time></trkpt><trkpt lat="37.043050611036925" lon="14.993758835919598"><ele>479.25</ele><time>2026-04-26T08:31:16Z</time></trkpt><trkpt lat="37.04303225436993" lon="14.993944786348141"><ele>480.5</ele><time>2026-04-26T08:31:17Z</time></trkpt><trkpt lat="37.04301479771387" lon="14.994118606003562"><ele>481.75</ele><time>2026-04-26T08:31:18.001Z</time></trkpt><trkpt lat="37.04300625207986" lon="14.994276911736204"><ele>483.0</ele><time>2026-04-26T08:31:19.001Z</time></trkpt><trkpt lat="37.0430030860831" lon="14.994423076706822"><ele>483.59999999999997</ele><time>2026-04-26T08:31:20.001Z</time></trkpt><trkpt lat="37.04301111475193" lon="14.994559696697985"><ele>484.19999999999993</ele><time>2026-04-26T08:31:21.001Z</time></trkpt><trkpt lat="37.043030597870604" lon="14.994659520078121"><ele>484.8</ele><time>2026-04-26T08:31:21.999Z</time></trkpt><trkpt lat="37.04306747686069" lon="14.99473641024052"><ele>485.4</ele><time>2026-04-26T08:31:23.999Z</time></trkpt><trkpt lat="37.04310142860746" lon="14.994818732305657"><ele>486.0</ele><time>2026-04-26T08:32:48Z</time></trkpt><trkpt lat="37.04315503499964" lon="14.994960387954754"><ele>485.8333333333333</ele><time>2026-04-26T08:32:50Z</time></trkpt><trkpt lat="37.04318296637137" lon="14.995045646604545"><ele>485.66666666666663</ele><time>2026-04-26T08:32:51Z</time></trkpt><trkpt lat="37.043216921535574" lon="14.99512610986258"><ele>485.5</ele><time>2026-04-26T08:32:52Z</time></trkpt><trkpt lat="37.04326597800228" lon="14.995205102345137"><ele>485.3333333333333</ele><time>2026-04-26T08:32:53Z</time></trkpt><trkpt lat="37.04332770000361" lon="14.995285278166932"><ele>485.16666666666663</ele><time>2026-04-26T08:32:54Z</time></trkpt><trkpt lat="37.04340452023998" lon="14.995378385143642"><ele>485.0</ele><time>2026-04-26T08:32:55Z</time></trkpt><trkpt lat="37.04348177528925" lon="14.995484393142002"><ele>484.75</ele><time>2026-04-26T08:32:56Z</time></trkpt><trkpt lat="37.04356054707046" lon="14.995595498769587"><ele>484.5</ele><time>2026-04-26T08:32:57Z</time></trkpt><trkpt lat="37.04364308129484" lon="14.995712724851881"><ele>484.25</ele><time>2026-04-26T08:32:58Z</time></trkpt><trkpt lat="37.04372201433545" lon="14.995824875194765"><ele>484.0</ele><time>2026-04-26T08:32:59Z</time></trkpt><trkpt lat="37.043786850707114" lon="14.995915558460881"><ele>484.0</ele><time>2026-04-26T08:33:00Z</time></trkpt><trkpt lat="37.04384327061804" lon="14.996006595614645"><ele>484.0</ele><time>2026-04-26T08:33:01Z</time></trkpt><trkpt lat="37.04388264167742" lon="14.996104930397594"><ele>484.0</ele><time>2026-04-26T08:33:02Z</time></trkpt><trkpt lat="37.0438831520475" lon="14.99622766914336"><ele>484.0</ele><time>2026-04-26T08:33:03Z</time></trkpt><trkpt lat="37.04390486253464" lon="14.996380307374633"><ele>484.0</ele><time>2026-04-26T08:33:04Z</time></trkpt><trkpt lat="37.043907692290226" lon="14.996560407814137"><ele>483.75</ele><time>2026-04-26T08:33:05Z</time></trkpt><trkpt lat="37.043906221595954" lon="14.996747161731967"><ele>483.5</ele><time>2026-04-26T08:33:06Z</time></trkpt><trkpt lat="37.04390180252623" lon="14.996922595486701"><ele>483.25</ele><time>2026-04-26T08:33:07Z</time></trkpt><trkpt lat="37.043901842467285" lon="14.99707387116254"><ele>483.0</ele><time>2026-04-26T08:33:08Z</time></trkpt><trkpt lat="37.04391364849248" lon="14.997201841617947"><ele>483.0</ele><time>2026-04-26T08:33:09Z</time></trkpt><trkpt lat="37.043952172327465" lon="14.997326607522904"><ele>483.0</ele><time>2026-04-26T08:33:10Z</time></trkpt><trkpt lat="37.044015304834154" lon="14.997464865297893"><ele>483.0</ele><time>2026-04-26T08:33:11Z</time></trkpt><trkpt lat="37.04408150575333" lon="14.997616598828236"><ele>483.0</ele><time>2026-04-26T08:33:12Z</time></trkpt><trkpt lat="37.04414919846798" lon="14.997778814084501"><ele>483.75</ele><time>2026-04-26T08:33:13Z</time></trkpt><trkpt lat="37.04421313752082" lon="14.997947857602409"><ele>484.5</ele><time>2026-04-26T08:33:14Z</time></trkpt><trkpt lat="37.04427829156945" lon="14.998117969741722"><ele>485.25</ele><time>2026-04-26T08:33:15Z</time></trkpt><trkpt lat="37.04434389193971" lon="14.998280987678884"><ele>486.0</ele><time>2026-04-26T08:33:16Z</time></trkpt><trkpt lat="37.04439946259742" lon="14.99842882316005"><ele>486.0</ele><time>2026-04-26T08:33:17Z</time></trkpt><trkpt lat="37.044444230619206" lon="14.998559052114855"><ele>486.0</ele><time>2026-04-26T08:33:18Z</time></trkpt><trkpt lat="37.044478264560844" lon="14.99867312854796"><ele>486.0</ele><time>2026-04-26T08:33:19Z</time></trkpt><trkpt lat="37.0444807385647" lon="14.998806776144772"><ele>486.0</ele><time>2026-04-26T08:33:20Z</time></trkpt><trkpt lat="37.04450032838797" lon="14.998967726590715"><ele>486.0</ele><time>2026-04-26T08:33:21Z</time></trkpt><trkpt lat="37.04450243162377" lon="14.999136055457068"><ele>486.4</ele><time>2026-04-26T08:33:22Z</time></trkpt><trkpt lat="37.044507062298486" lon="14.9992838933453"><ele>486.8</ele><time>2026-04-26T08:33:23Z</time></trkpt><trkpt lat="37.044497809954215" lon="14.999408159594571"><ele>487.19999999999993</ele><time>2026-04-26T08:33:24.001Z</time></trkpt><trkpt lat="37.04446183341393" lon="14.9994890872313"><ele>487.59999999999997</ele><time>2026-04-26T08:33:25.001Z</time></trkpt><trkpt lat="37.044378348594925" lon="14.999533389885537"><ele>488.0</ele><time>2026-04-26T08:33:26.001Z</time></trkpt><trkpt lat="37.04429696542288" lon="14.999613766288315"><ele>488.0</ele><time>2026-04-26T08:33:27.001Z</time></trkpt><trkpt lat="37.04419246186697" lon="14.999695501221877"><ele>488.0</ele><time>2026-04-26T08:33:27.999Z</time></trkpt><trkpt lat="37.0440720116103" lon="14.999783444576714"><ele>488.0</ele><time>2026-04-26T08:33:28.999Z</time></trkpt><trkpt lat="37.043937127938335" lon="14.999875333820725"><ele>488.0</ele><time>2026-04-26T08:33:29.999Z</time></trkpt><trkpt lat="37.043796397204474" lon="14.999969783597395"><ele>486.3333333333333</ele><time>2026-04-26T08:33:30.999Z</time></trkpt><trkpt lat="37.043654751615456" lon="15.000076353352368"><ele>484.66666666666663</ele><time>2026-04-26T08:33:31.999Z</time></trkpt><trkpt lat="37.043518149591776" lon="15.000183177918322"><ele>483.0</ele><time>2026-04-26T08:33:32.999Z</time></trkpt><trkpt lat="37.04338467058505" lon="15.000278899132763"><ele>481.5</ele><time>2026-04-26T08:33:33.999Z</time></trkpt><trkpt lat="37.04326230652274" lon="15.000369492889087"><ele>480.0</ele><time>2026-04-26T08:33:34.999Z</time></trkpt><trkpt lat="37.04314577879725" lon="15.000451899666334"><ele>478.5</ele><time>2026-04-26T08:33:35.999Z</time></trkpt><trkpt lat="37.04304057986792" lon="15.000546059446082"><ele>477.0</ele><time>2026-04-26T08:33:36.999Z</time></trkpt><trkpt lat="37.042938179139625" lon="15.000672584469914"><ele>477.0</ele><time>2026-04-26T08:33:37.999Z</time></trkpt><trkpt lat="37.04283249460163" lon="15.000818001117123"><ele>477.0</ele><time>2026-04-26T08:33:38.999Z</time></trkpt><trkpt lat="37.042721447853914" lon="15.000974051272104"><ele>477.0</ele><time>2026-04-26T08:33:39.999Z</time></trkpt><trkpt lat="37.042598877908354" lon="15.001135517577184"><ele>477.0</ele><time>2026-04-26T08:33:40.999Z</time></trkpt><trkpt lat="37.04247193593628" lon="15.001298074293963"><ele>477.0</ele><time>2026-04-26T08:33:41.999Z</time></trkpt><trkpt lat="37.042338630847496" lon="15.001458932355243"><ele>477.0</ele><time>2026-04-26T08:33:42.999Z</time></trkpt><trkpt lat="37.04221332993914" lon="15.001603220071893"><ele>477.66666666666663</ele><time>2026-04-26T08:33:43.999Z</time></trkpt><trkpt lat="37.04210592848103" lon="15.0017359612888"><ele>478.3333333333333</ele><time>2026-04-26T08:33:44.999Z</time></trkpt><trkpt lat="37.041993722394274" lon="15.001890954515092"><ele>479.0</ele><time>2026-04-26T08:33:45.999Z</time></trkpt><trkpt lat="37.0418883909374" lon="15.002057036679453"><ele>479.0</ele><time>2026-04-26T08:33:46.999Z</time></trkpt><trkpt lat="37.04178045686278" lon="15.002229110733968"><ele>479.0</ele><time>2026-04-26T08:33:47.999Z</time></trkpt><trkpt lat="37.04167387555077" lon="15.002395363219476"><ele>479.0</ele><time>2026-04-26T08:33:48.999Z</time></trkpt><trkpt lat="37.041575919385245" lon="15.002541164572454"><ele>477.0</ele><time>2026-04-26T08:33:49.999Z</time></trkpt><trkpt lat="37.041496747851966" lon="15.002654669027102"><ele>475.0</ele><time>2026-04-26T08:33:50.999Z</time></trkpt><trkpt lat="37.04144530801349" lon="15.002748754901518"><ele>473.0</ele><time>2026-04-26T08:33:51.999Z</time></trkpt><trkpt lat="37.04140639098738" lon="15.002867796269882"><ele>471.0</ele><time>2026-04-26T08:33:52.999Z</time></trkpt><trkpt lat="37.04137143873798" lon="15.002996035280844"><ele>469.0</ele><time>2026-04-26T08:33:53.999Z</time></trkpt><trkpt lat="37.04134484327471" lon="15.003096652934392"><ele>469.00000000000006</ele><time>2026-04-26T08:33:54.999Z</time></trkpt><trkpt lat="37.04131500042568" lon="15.003185599771143"><ele>469.0</ele><time>2026-04-26T08:33:56Z</time></trkpt><trkpt lat="37.04128361663856" lon="15.003290980172698"><ele>469.0</ele><time>2026-04-26T08:33:57Z</time></trkpt><trkpt lat="37.04125124371739" lon="15.003392825451572"><ele>469.0</ele><time>2026-04-26T08:33:58Z</time></trkpt><trkpt lat="37.04122361721349" lon="15.003479933355626"><ele>469.00000000000006</ele><time>2026-04-26T08:33:59Z</time></trkpt><trkpt lat="37.04118481135262" lon="15.003599092961023"><ele>469.0</ele><time>2026-04-26T08:34:01Z</time></trkpt><trkpt lat="37.041154808109205" lon="15.003693417748469"><ele>470.0</ele><time>2026-04-26T08:34:04Z</time></trkpt><trkpt lat="37.04112868972855" lon="15.00376855666895"><ele>471.0</ele><time>2026-04-26T08:34:08Z</time></trkpt><trkpt lat="37.04117596206693" lon="15.003861081412571"><ele>472.0</ele><time>2026-04-26T08:37:29.001Z</time></trkpt><trkpt lat="37.0412404222231" lon="15.003924095735236"><ele>473.0</ele><time>2026-04-26T08:37:31.001Z</time></trkpt><trkpt lat="37.04136403784623" lon="15.004002984979808"><ele>474.0</ele><time>2026-04-26T08:37:33.001Z</time></trkpt><trkpt lat="37.041454226468105" lon="15.004052637787995"><ele>474.0</ele><time>2026-04-26T08:37:34.001Z</time></trkpt><trkpt lat="37.04154755660668" lon="15.004100110357887"><ele>474.0</ele><time>2026-04-26T08:37:35.001Z</time></trkpt><trkpt lat="37.0416081701379" lon="15.004143658998618"><ele>474.0</ele><time>2026-04-26T08:37:36.001Z</time></trkpt><trkpt lat="37.04168717752667" lon="15.004184262445277"><ele>474.0</ele><time>2026-04-26T08:37:37.001Z</time></trkpt><trkpt lat="37.04177693447182" lon="15.004246258526923"><ele>474.0</ele><time>2026-04-26T08:37:38.001Z</time></trkpt><trkpt lat="37.041850898486175" lon="15.004300885002664"><ele>474.0</ele><time>2026-04-26T08:37:39.001Z</time></trkpt><trkpt lat="37.041916005184405" lon="15.004338710618898"><ele>475.0</ele><time>2026-04-26T08:37:40Z</time></trkpt><trkpt lat="37.04198703944139" lon="15.004371468106948"><ele>476.0</ele><time>2026-04-26T08:37:41Z</time></trkpt><trkpt lat="37.04206835425462" lon="15.00440871187237"><ele>477.0</ele><time>2026-04-26T08:37:42Z</time></trkpt><trkpt lat="37.042146121186306" lon="15.0044507816933"><ele>478.0</ele><time>2026-04-26T08:37:43Z</time></trkpt><trkpt lat="37.042224560198726" lon="15.004491021236054"><ele>479.0</ele><time>2026-04-26T08:37:44Z</time></trkpt><trkpt lat="37.042287596056994" lon="15.004519626575986"><ele>480.0</ele><time>2026-04-26T08:37:45Z</time></trkpt><trkpt lat="37.04235260491281" lon="15.004548865580293"><ele>480.0</ele><time>2026-04-26T08:37:46Z</time></trkpt><trkpt lat="37.04246236836012" lon="15.004603743377176"><ele>480.0</ele><time>2026-04-26T08:37:48Z</time></trkpt><trkpt lat="37.042528544153676" lon="15.004632823464709"><ele>480.0</ele><time>2026-04-26T08:37:49Z</time></trkpt><trkpt lat="37.04262576602898" lon="15.00468004678165"><ele>480.0</ele><time>2026-04-26T08:37:50Z</time></trkpt><trkpt lat="37.04271573316889" lon="15.004726536411335"><ele>480.0</ele><time>2026-04-26T08:37:51Z</time></trkpt><trkpt lat="37.04278839165527" lon="15.004757750071688"><ele>480.2</ele><time>2026-04-26T08:37:52Z</time></trkpt><trkpt lat="37.04290279458534" lon="15.004798462794218"><ele>480.4</ele><time>2026-04-26T08:37:54Z</time></trkpt><trkpt lat="37.04301472626671" lon="15.004851118256799"><ele>480.6</ele><time>2026-04-26T08:37:56Z</time></trkpt><trkpt lat="37.04308422880997" lon="15.004874147100049"><ele>480.8</ele><time>2026-04-26T08:37:58Z</time></trkpt><trkpt lat="37.043167006012425" lon="15.004943770561264"><ele>481.0</ele><time>2026-04-26T08:38:00Z</time></trkpt><trkpt lat="37.043243830245586" lon="15.004946783918431"><ele>480.50000000000006</ele><time>2026-04-26T08:38:02Z</time></trkpt><trkpt lat="37.04331299821831" lon="15.004994103486357"><ele>480.0</ele><time>2026-04-26T08:38:04Z</time></trkpt><trkpt lat="37.04338314981263" lon="15.005001766882469"><ele>479.5</ele><time>2026-04-26T08:38:06Z</time></trkpt><trkpt lat="37.04345880675582" lon="15.005028515807558"><ele>479.0</ele><time>2026-04-26T08:38:08Z</time></trkpt><trkpt lat="37.04355867532587" lon="15.005065180143689"><ele>478.50000000000006</ele><time>2026-04-26T08:38:10Z</time></trkpt><trkpt lat="37.0436437818157" lon="15.00511473231047"><ele>478.0</ele><time>2026-04-26T08:38:12Z</time></trkpt><trkpt lat="37.04370617390438" lon="15.005131112682562"><ele>477.00000000000006</ele><time>2026-04-26T08:38:13Z</time></trkpt><trkpt lat="37.04377457978843" lon="15.005160306387625"><ele>476.0</ele><time>2026-04-26T08:38:14Z</time></trkpt><trkpt lat="37.04385849914695" lon="15.005202617509303"><ele>475.0</ele><time>2026-04-26T08:38:16Z</time></trkpt><trkpt lat="37.04394004523124" lon="15.00523055259596"><ele>474.0</ele><time>2026-04-26T08:38:18Z</time></trkpt><trkpt lat="37.04400176774384" lon="15.005269603003171"><ele>473.00000000000006</ele><time>2026-04-26T08:38:20Z</time></trkpt><trkpt lat="37.04407637404093" lon="15.00529321214513"><ele>472.0</ele><time>2026-04-26T08:38:22Z</time></trkpt><trkpt lat="37.04413868840334" lon="15.005327802379213"><ele>471.50000000000006</ele><time>2026-04-26T08:38:26Z</time></trkpt><trkpt lat="37.0442172289143" lon="15.005344265373683"><ele>471.0</ele><time>2026-04-26T08:38:42Z</time></trkpt><trkpt lat="37.0442773541914" lon="15.005318049749699"><ele>470.5</ele><time>2026-04-26T08:38:45Z</time></trkpt><trkpt lat="37.0443489883366" lon="15.00526535147966"><ele>470.0</ele><time>2026-04-26T08:38:48.001Z</time></trkpt><trkpt lat="37.044433526368266" lon="15.005235935424448"><ele>469.50000000000006</ele><time>2026-04-26T08:38:51.001Z</time></trkpt><trkpt lat="37.044497322581954" lon="15.005213648944094"><ele>469.0</ele><time>2026-04-26T08:38:54.001Z</time></trkpt><trkpt lat="37.04456022511547" lon="15.00516337029806"><ele>469.0</ele><time>2026-04-26T08:38:57.001Z</time></trkpt><trkpt lat="37.04463376409892" lon="15.005132972726264"><ele>469.0</ele><time>2026-04-26T08:39:00.001Z</time></trkpt><trkpt lat="37.04470097338627" lon="15.00507146513382"><ele>469.0</ele><time>2026-04-26T08:39:03.001Z</time></trkpt><trkpt lat="37.044752311913946" lon="15.005011089088113"><ele>469.0</ele><time>2026-04-26T08:39:05.001Z</time></trkpt><trkpt lat="37.04478844957416" lon="15.00492835867535"><ele>469.0</ele><time>2026-04-26T08:39:07.001Z</time></trkpt><trkpt lat="37.04484109564527" lon="15.004876235884192"><ele>469.0</ele><time>2026-04-26T08:39:09.001Z</time></trkpt><trkpt lat="37.0448884217043" lon="15.004822135253518"><ele>469.0</ele><time>2026-04-26T08:39:11.001Z</time></trkpt><trkpt lat="37.04495118826521" lon="15.004829080578926"><ele>469.0</ele><time>2026-04-26T08:39:15.001Z</time></trkpt><trkpt lat="37.04494942392813" lon="15.004938253617238"><ele>469.0</ele><time>2026-04-26T08:39:18.001Z</time></trkpt><trkpt lat="37.04490329730525" lon="15.005017633607759"><ele>469.0</ele><time>2026-04-26T08:39:20.001Z</time></trkpt><trkpt lat="37.044877062900916" lon="15.005140661638455"><ele>469.0</ele><time>2026-04-26T08:39:22.001Z</time></trkpt><trkpt lat="37.04484368633225" lon="15.005289186023212"><ele>469.0</ele><time>2026-04-26T08:39:24.001Z</time></trkpt><trkpt lat="37.04480831604749" lon="15.00541512863762"><ele>469.00000000000006</ele><time>2026-04-26T08:39:26.001Z</time></trkpt><trkpt lat="37.04477727530209" lon="15.005495840687486"><ele>469.0</ele><time>2026-04-26T08:39:28.001Z</time></trkpt><trkpt lat="37.04474830125642" lon="15.005589684632561"><ele>469.0</ele><time>2026-04-26T08:39:30.001Z</time></trkpt><trkpt lat="37.04471923231147" lon="15.005680728797655"><ele>469.0</ele><time>2026-04-26T08:39:32.001Z</time></trkpt><trkpt lat="37.04468847590539" lon="15.005766587314964"><ele>469.00000000000006</ele><time>2026-04-26T08:39:34.001Z</time></trkpt><trkpt lat="37.04464903551918" lon="15.005875545917032"><ele>469.0</ele><time>2026-04-26T08:39:36.001Z</time></trkpt><trkpt lat="37.044656434455995" lon="15.005976815908163"><ele>468.33333333333337</ele><time>2026-04-26T08:39:38.001Z</time></trkpt><trkpt lat="37.0446443296248" lon="15.00611917334966"><ele>467.6666666666667</ele><time>2026-04-26T08:39:40.001Z</time></trkpt><trkpt lat="37.044665474182274" lon="15.006217686615766"><ele>467.0</ele><time>2026-04-26T08:39:42.001Z</time></trkpt><trkpt lat="37.04467773833899" lon="15.006299140634553"><ele>466.33333333333337</ele><time>2026-04-26T08:39:45.001Z</time></trkpt><trkpt lat="37.04468584255937" lon="15.006387526037988"><ele>465.6666666666667</ele><time>2026-04-26T08:39:59Z</time></trkpt><trkpt lat="37.044729239622505" lon="15.006500337631348"><ele>465.0</ele><time>2026-04-26T08:40:11Z</time></trkpt><trkpt lat="37.044774559902436" lon="15.006595807970374"><ele>465.0</ele><time>2026-04-26T08:40:13Z</time></trkpt><trkpt lat="37.04483584573297" lon="15.00664081446724"><ele>465.0</ele><time>2026-04-26T08:40:15Z</time></trkpt><trkpt lat="37.04490416128382" lon="15.006665983703883"><ele>465.0</ele><time>2026-04-26T08:40:19Z</time></trkpt><trkpt lat="37.04497115542697" lon="15.006749512392956"><ele>465.0</ele><time>2026-04-26T08:40:21Z</time></trkpt><trkpt lat="37.04500808243459" lon="15.006849120349171"><ele>465.0</ele><time>2026-04-26T08:40:23Z</time></trkpt><trkpt lat="37.04500791244925" lon="15.006941581827677"><ele>465.0</ele><time>2026-04-26T08:40:25Z</time></trkpt><trkpt lat="37.04498259398432" lon="15.00704583596338"><ele>464.6666666666667</ele><time>2026-04-26T08:40:27Z</time></trkpt><trkpt lat="37.04494330186178" lon="15.007179614671465"><ele>464.33333333333337</ele><time>2026-04-26T08:40:29Z</time></trkpt><trkpt lat="37.04494526176778" lon="15.00726827078965"><ele>464.0</ele><time>2026-04-26T08:40:31Z</time></trkpt><trkpt lat="37.04501170473121" lon="15.007321953556332"><ele>463.6666666666667</ele><time>2026-04-26T08:40:34Z</time></trkpt><trkpt lat="37.04507479304462" lon="15.007359050425949"><ele>463.33333333333337</ele><time>2026-04-26T08:40:36Z</time></trkpt><trkpt lat="37.04512397555048" lon="15.007457648727653"><ele>463.0</ele><time>2026-04-26T08:41:09.001Z</time></trkpt><trkpt lat="37.04518745348933" lon="15.007561654857387"><ele>463.0</ele><time>2026-04-26T08:41:11.001Z</time></trkpt><trkpt lat="37.04524684423782" lon="15.007678206495003"><ele>462.99999999999994</ele><time>2026-04-26T08:41:13.001Z</time></trkpt><trkpt lat="37.04528157753958" lon="15.007813483187576"><ele>462.99999999999994</ele><time>2026-04-26T08:41:15.001Z</time></trkpt><trkpt lat="37.0453468557918" lon="15.007928676916984"><ele>463.0</ele><time>2026-04-26T08:41:17.001Z</time></trkpt><trkpt lat="37.04540823940665" lon="15.008009426703504"><ele>463.0</ele><time>2026-04-26T08:41:19.001Z</time></trkpt><trkpt lat="37.04547570641268" lon="15.008076071122243"><ele>463.0</ele><time>2026-04-26T08:41:21.001Z</time></trkpt><trkpt lat="37.04552690525231" lon="15.008141923292797"><ele>462.99999999999994</ele><time>2026-04-26T08:41:22.001Z</time></trkpt><trkpt lat="37.04556874694942" lon="15.00822282656215"><ele>462.99999999999994</ele><time>2026-04-26T08:41:23.001Z</time></trkpt><trkpt lat="37.045644284874506" lon="15.008329069503189"><ele>463.0</ele><time>2026-04-26T08:41:25.001Z</time></trkpt><trkpt lat="37.045740803675315" lon="15.00838573490043"><ele>463.0</ele><time>2026-04-26T08:41:27.001Z</time></trkpt><trkpt lat="37.045839592394856" lon="15.00841106642245"><ele>464.2</ele><time>2026-04-26T08:41:29.001Z</time></trkpt><trkpt lat="37.04594469550049" lon="15.008445327755512"><ele>465.4</ele><time>2026-04-26T08:41:31.001Z</time></trkpt><trkpt lat="37.04604716815575" lon="15.008445791929473"><ele>466.59999999999997</ele><time>2026-04-26T08:41:33.001Z</time></trkpt><trkpt lat="37.04613863964784" lon="15.008457475464112"><ele>467.79999999999995</ele><time>2026-04-26T08:41:35.001Z</time></trkpt><trkpt lat="37.046229825205515" lon="15.0084685139473"><ele>469.0</ele><time>2026-04-26T08:41:37.001Z</time></trkpt><trkpt lat="37.046320622068095" lon="15.008485015611791"><ele>469.0</ele><time>2026-04-26T08:41:39.001Z</time></trkpt><trkpt lat="37.046422745907186" lon="15.00848511810222"><ele>469.0</ele><time>2026-04-26T08:41:41.001Z</time></trkpt><trkpt lat="37.046522415107326" lon="15.008479481448871"><ele>469.0</ele><time>2026-04-26T08:41:43.001Z</time></trkpt><trkpt lat="37.046638385136006" lon="15.00847533838977"><ele>469.0</ele><time>2026-04-26T08:41:45.001Z</time></trkpt><trkpt lat="37.04670298470228" lon="15.008497156102173"><ele>469.0</ele><time>2026-04-26T08:41:46.001Z</time></trkpt><trkpt lat="37.0467936493851" lon="15.008539408746161"><ele>470.1666666666667</ele><time>2026-04-26T08:41:47.001Z</time></trkpt><trkpt lat="37.04685950394065" lon="15.00855841983192"><ele>471.33333333333337</ele><time>2026-04-26T08:41:48.001Z</time></trkpt><trkpt lat="37.04697686585727" lon="15.008554959141907"><ele>472.5</ele><time>2026-04-26T08:41:50.001Z</time></trkpt><trkpt lat="37.04706282141734" lon="15.00857477492286"><ele>473.66666666666663</ele><time>2026-04-26T08:41:52Z</time></trkpt><trkpt lat="37.04714374940519" lon="15.008585016751198"><ele>474.8333333333333</ele><time>2026-04-26T08:41:54Z</time></trkpt><trkpt lat="37.04720929626875" lon="15.008588948558327"><ele>476.0</ele><time>2026-04-26T08:41:57Z</time></trkpt><trkpt lat="37.04727259050615" lon="15.008598029352049"><ele>475.99999999999994</ele><time>2026-04-26T08:42:00Z</time></trkpt><trkpt lat="37.047334863310766" lon="15.008618795309165"><ele>476.0</ele><time>2026-04-26T08:42:04Z</time></trkpt><trkpt lat="37.04739975917303" lon="15.008644790368992"><ele>476.0</ele><time>2026-04-26T08:42:08Z</time></trkpt><trkpt lat="37.047478565190694" lon="15.008679791257538"><ele>476.0</ele><time>2026-04-26T08:42:11Z</time></trkpt><trkpt lat="37.04758425090986" lon="15.008737103793784"><ele>475.99999999999994</ele><time>2026-04-26T08:42:13Z</time></trkpt><trkpt lat="37.04765571731373" lon="15.008778590878421"><ele>476.0</ele><time>2026-04-26T08:42:15Z</time></trkpt><trkpt lat="37.04771984841856" lon="15.008872253357376"><ele>475.8</ele><time>2026-04-26T08:42:17Z</time></trkpt><trkpt lat="37.04772340273183" lon="15.009000004646476"><ele>475.6</ele><time>2026-04-26T08:42:19Z</time></trkpt><trkpt lat="37.04771233478693" lon="15.009088152216849"><ele>475.4</ele><time>2026-04-26T08:42:21Z</time></trkpt><trkpt lat="37.04772649800561" lon="15.009198619556768"><ele>475.2</ele><time>2026-04-26T08:42:23Z</time></trkpt><trkpt lat="37.047705248049574" lon="15.009299561650469"><ele>475.0</ele><time>2026-04-26T08:42:25Z</time></trkpt><trkpt lat="37.047655197477724" lon="15.009430901330006"><ele>473.83333333333337</ele><time>2026-04-26T08:42:27Z</time></trkpt><trkpt lat="37.047650444091786" lon="15.009510579101075"><ele>472.6666666666667</ele><time>2026-04-26T08:42:28Z</time></trkpt><trkpt lat="37.04764328420685" lon="15.00959855459301"><ele>471.5</ele><time>2026-04-26T08:42:29Z</time></trkpt><trkpt lat="37.04763700333578" lon="15.009719202321776"><ele>470.33333333333337</ele><time>2026-04-26T08:42:30Z</time></trkpt><trkpt lat="37.04762067084765" lon="15.009836164645142"><ele>469.1666666666667</ele><time>2026-04-26T08:42:31Z</time></trkpt><trkpt lat="37.04760621061294" lon="15.009924303402656"><ele>468.0</ele><time>2026-04-26T08:42:32Z</time></trkpt><trkpt lat="37.04758762969397" lon="15.010009102041487"><ele>467.3333333333333</ele><time>2026-04-26T08:42:33Z</time></trkpt><trkpt lat="37.04762463283242" lon="15.010114646167583"><ele>466.66666666666663</ele><time>2026-04-26T08:42:34Z</time></trkpt><trkpt lat="37.047623484543635" lon="15.010237531445336"><ele>466.0</ele><time>2026-04-26T08:42:35Z</time></trkpt><trkpt lat="37.047635949081496" lon="15.010361236431752"><ele>465.3333333333333</ele><time>2026-04-26T08:42:36Z</time></trkpt><trkpt lat="37.047590061281994" lon="15.010306378827446"><ele>464.66666666666663</ele><time>2026-04-26T08:42:37Z</time></trkpt><trkpt lat="37.04758102637262" lon="15.010411939230226"><ele>464.0</ele><time>2026-04-26T08:42:39Z</time></trkpt><trkpt lat="37.047571950166045" lon="15.01049888883986"><ele>463.99999999999994</ele><time>2026-04-26T08:42:42Z</time></trkpt><trkpt lat="37.04754557077442" lon="15.010642991445621"><ele>464.0</ele><time>2026-04-26T08:42:46Z</time></trkpt><trkpt lat="37.04753619153407" lon="15.010750892728568"><ele>464.0</ele><time>2026-04-26T08:42:48Z</time></trkpt><trkpt lat="37.04753096005199" lon="15.010842418586485"><ele>464.0</ele><time>2026-04-26T08:42:51Z</time></trkpt><trkpt lat="37.0475322884226" lon="15.010927771610351"><ele>463.99999999999994</ele><time>2026-04-26T08:42:54Z</time></trkpt><trkpt lat="37.04752136027231" lon="15.011027225259275"><ele>464.0</ele><time>2026-04-26T08:42:57Z</time></trkpt><trkpt lat="37.047501664063574" lon="15.011128302531224"><ele>463.66666666666663</ele><time>2026-04-26T08:42:59Z</time></trkpt><trkpt lat="37.0474897275728" lon="15.011236963213308"><ele>463.3333333333333</ele><time>2026-04-26T08:43:02.001Z</time></trkpt><trkpt lat="37.04748660281492" lon="15.01132178328312"><ele>463.0</ele><time>2026-04-26T08:43:04.001Z</time></trkpt><trkpt lat="37.04746893661613" lon="15.011452610181854"><ele>462.66666666666663</ele><time>2026-04-26T08:43:06.001Z</time></trkpt><trkpt lat="37.04745805824415" lon="15.011532122185066"><ele>462.3333333333333</ele><time>2026-04-26T08:43:07.001Z</time></trkpt><trkpt lat="37.047449488570265" lon="15.011616055083035"><ele>462.0</ele><time>2026-04-26T08:43:08.001Z</time></trkpt><trkpt lat="37.04743123936442" lon="15.011739462627792"><ele>460.1666666666667</ele><time>2026-04-26T08:43:10.001Z</time></trkpt><trkpt lat="37.04739125344529" lon="15.011820370334027"><ele>458.33333333333337</ele><time>2026-04-26T08:43:12.001Z</time></trkpt><trkpt lat="37.0473737745385" lon="15.011901402782865"><ele>456.5</ele><time>2026-04-26T08:43:14.001Z</time></trkpt><trkpt lat="37.047302993726554" lon="15.011966820208638"><ele>454.6666666666667</ele><time>2026-04-26T08:43:17.001Z</time></trkpt><trkpt lat="37.04726779147252" lon="15.01205658290334"><ele>452.83333333333337</ele><time>2026-04-26T08:43:19.001Z</time></trkpt><trkpt lat="37.047270281627625" lon="15.012181672604703"><ele>451.0</ele><time>2026-04-26T08:43:21.001Z</time></trkpt><trkpt lat="37.047279323946995" lon="15.012306169917585"><ele>451.0</ele><time>2026-04-26T08:43:22.001Z</time></trkpt><trkpt lat="37.047280107118176" lon="15.012446737660197"><ele>451.0</ele><time>2026-04-26T08:43:23.001Z</time></trkpt><trkpt lat="37.047280750993934" lon="15.012584631120518"><ele>451.0</ele><time>2026-04-26T08:43:24.001Z</time></trkpt><trkpt lat="37.04727974792845" lon="15.012717358451786"><ele>451.0</ele><time>2026-04-26T08:43:25.001Z</time></trkpt><trkpt lat="37.047269846772934" lon="15.012847020725776"><ele>451.0</ele><time>2026-04-26T08:43:26.001Z</time></trkpt><trkpt lat="37.047243473035984" lon="15.01296109602116"><ele>450.83333333333337</ele><time>2026-04-26T08:43:27.001Z</time></trkpt><trkpt lat="37.04721187546541" lon="15.01306417405734"><ele>450.6666666666667</ele><time>2026-04-26T08:43:28.001Z</time></trkpt><trkpt lat="37.047176079124704" lon="15.013157823643784"><ele>450.5</ele><time>2026-04-26T08:43:29.001Z</time></trkpt><trkpt lat="37.04715865672992" lon="15.013241677664682"><ele>450.33333333333337</ele><time>2026-04-26T08:43:30.001Z</time></trkpt><trkpt lat="37.047158892258224" lon="15.01332372948378"><ele>450.1666666666667</ele><time>2026-04-26T08:43:31.001Z</time></trkpt><trkpt lat="37.04716595753837" lon="15.013426359515789"><ele>450.0</ele><time>2026-04-26T08:43:32.001Z</time></trkpt><trkpt lat="37.04720612174592" lon="15.013532119646483"><ele>449.6666666666667</ele><time>2026-04-26T08:43:34.001Z</time></trkpt><trkpt lat="37.047278173279246" lon="15.013615331543972"><ele>449.33333333333337</ele><time>2026-04-26T08:43:37.001Z</time></trkpt><trkpt lat="37.04727907361206" lon="15.013700739777281"><ele>449.0</ele><time>2026-04-26T08:43:39.001Z</time></trkpt><trkpt lat="37.0472686193587" lon="15.013823401604336"><ele>448.6666666666667</ele><time>2026-04-26T08:43:41.001Z</time></trkpt><trkpt lat="37.04726909001578" lon="15.013923578540604"><ele>448.33333333333337</ele><time>2026-04-26T08:43:43.001Z</time></trkpt><trkpt lat="37.04726304941928" lon="15.014029741473607"><ele>448.0</ele><time>2026-04-26T08:43:45.001Z</time></trkpt><trkpt lat="37.04724570442332" lon="15.014116333787447"><ele>447.1666666666667</ele><time>2026-04-26T08:43:47.001Z</time></trkpt><trkpt lat="37.04722682615126" lon="15.014201145539475"><ele>446.33333333333337</ele><time>2026-04-26T08:43:49.001Z</time></trkpt><trkpt lat="37.047188830294125" lon="15.014299407222712"><ele>445.5</ele><time>2026-04-26T08:43:52.001Z</time></trkpt><trkpt lat="37.04719442082509" lon="15.014425210703155"><ele>444.66666666666663</ele><time>2026-04-26T08:43:54.001Z</time></trkpt><trkpt lat="37.04721021483012" lon="15.014509006040614"><ele>443.8333333333333</ele><time>2026-04-26T08:43:57.001Z</time></trkpt><trkpt lat="37.047165126674706" lon="15.014585032101358"><ele>443.0</ele><time>2026-04-26T08:47:23.001Z</time></trkpt><trkpt lat="37.04709778079795" lon="15.014598365291045"><ele>442.99999999999994</ele><time>2026-04-26T08:47:29.001Z</time></trkpt><trkpt lat="37.04705930312412" lon="15.014668321524956"><ele>443.0</ele><time>2026-04-26T08:47:33.001Z</time></trkpt><trkpt lat="37.04706000258234" lon="15.01475427251682"><ele>443.0</ele><time>2026-04-26T08:47:35.001Z</time></trkpt><trkpt lat="37.04705875900906" lon="15.014840457831525"><ele>443.0</ele><time>2026-04-26T08:47:37.001Z</time></trkpt><trkpt lat="37.047053941097545" lon="15.014953411339134"><ele>442.99999999999994</ele><time>2026-04-26T08:47:40.001Z</time></trkpt><trkpt lat="37.04703742972067" lon="15.015062962527521"><ele>443.0</ele><time>2026-04-26T08:57:05Z</time></trkpt><trkpt lat="37.04703875041298" lon="15.01514741471297"><ele>442.49999999999994</ele><time>2026-04-26T08:57:07Z</time></trkpt><trkpt lat="37.04700853136539" lon="15.015253325530445"><ele>442.0</ele><time>2026-04-26T08:57:08Z</time></trkpt><trkpt lat="37.046990017115576" lon="15.015348577204534"><ele>441.5</ele><time>2026-04-26T08:57:09Z</time></trkpt><trkpt lat="37.04697717259908" lon="15.015442320707109"><ele>441.0</ele><time>2026-04-26T08:57:10Z</time></trkpt><trkpt lat="37.04696922970912" lon="15.015525669272602"><ele>440.49999999999994</ele><time>2026-04-26T08:57:11Z</time></trkpt><trkpt lat="37.046979108524276" lon="15.015615260968067"><ele>440.0</ele><time>2026-04-26T08:57:12Z</time></trkpt><trkpt lat="37.046984487287475" lon="15.015704923114129"><ele>439.99999999999994</ele><time>2026-04-26T08:57:13Z</time></trkpt><trkpt lat="37.046983939484136" lon="15.015805860168435"><ele>440.0</ele><time>2026-04-26T08:57:14Z</time></trkpt><trkpt lat="37.04697446837488" lon="15.015895099422838"><ele>440.0</ele><time>2026-04-26T08:57:15Z</time></trkpt><trkpt lat="37.04695587227108" lon="15.01604518299243"><ele>440.0</ele><time>2026-04-26T08:57:17Z</time></trkpt><trkpt lat="37.046942411876586" lon="15.016137284674596"><ele>439.99999999999994</ele><time>2026-04-26T08:57:18Z</time></trkpt><trkpt lat="37.04693375218089" lon="15.016219370180986"><ele>440.0</ele><time>2026-04-26T08:57:19Z</time></trkpt><trkpt lat="37.04693040543632" lon="15.016371197150974"><ele>440.6</ele><time>2026-04-26T08:57:21Z</time></trkpt><trkpt lat="37.04694058528444" lon="15.016455280458748"><ele>441.2</ele><time>2026-04-26T08:57:22Z</time></trkpt><trkpt lat="37.046963350345685" lon="15.016602685235446"><ele>441.79999999999995</ele><time>2026-04-26T08:57:24Z</time></trkpt><trkpt lat="37.04695692074431" lon="15.016747107431193"><ele>442.4</ele><time>2026-04-26T08:57:26Z</time></trkpt><trkpt lat="37.04692290584647" lon="15.01686533981148"><ele>443.0</ele><time>2026-04-26T08:57:28Z</time></trkpt><trkpt lat="37.04690579392402" lon="15.017006497531714"><ele>443.79999999999995</ele><time>2026-04-26T08:57:30Z</time></trkpt><trkpt lat="37.04690885342394" lon="15.017113604445855"><ele>444.59999999999997</ele><time>2026-04-26T08:57:32Z</time></trkpt><trkpt lat="37.046932349884905" lon="15.017210218442193"><ele>445.40000000000003</ele><time>2026-04-26T08:57:34Z</time></trkpt><trkpt lat="37.04696402285965" lon="15.017291449682057"><ele>446.20000000000005</ele><time>2026-04-26T08:57:36Z</time></trkpt><trkpt lat="37.04695809839714" lon="15.017414134512542"><ele>447.0</ele><time>2026-04-26T08:57:39Z</time></trkpt><trkpt lat="37.04693930981367" lon="15.017577719769426"><ele>447.1666666666667</ele><time>2026-04-26T08:57:41Z</time></trkpt><trkpt lat="37.04693685727357" lon="15.017669396674135"><ele>447.33333333333337</ele><time>2026-04-26T08:57:42Z</time></trkpt><trkpt lat="37.046933756255854" lon="15.017752008439045"><ele>447.5</ele><time>2026-04-26T08:57:43Z</time></trkpt><trkpt lat="37.04692713541851" lon="15.017846825185536"><ele>447.6666666666667</ele><time>2026-04-26T08:57:44Z</time></trkpt><trkpt lat="37.046912872241194" lon="15.017957224834118"><ele>447.83333333333337</ele><time>2026-04-26T08:57:45Z</time></trkpt><trkpt lat="37.04689991947924" lon="15.018060921403585"><ele>448.0</ele><time>2026-04-26T08:57:46Z</time></trkpt><trkpt lat="37.04689194284717" lon="15.018148841135657"><ele>448.0</ele><time>2026-04-26T08:57:47Z</time></trkpt><trkpt lat="37.04688817193389" lon="15.018229102187354"><ele>447.99999999999994</ele><time>2026-04-26T08:57:48Z</time></trkpt><trkpt lat="37.04688544802924" lon="15.01835333938135"><ele>447.99999999999994</ele><time>2026-04-26T08:57:50Z</time></trkpt><trkpt lat="37.04686986001591" lon="15.018551354890702"><ele>448.0</ele><time>2026-04-26T08:57:52Z</time></trkpt><trkpt lat="37.046863284283184" lon="15.01866897000654"><ele>448.0</ele><time>2026-04-26T08:57:53Z</time></trkpt><trkpt lat="37.046841637213184" lon="15.01875143600114"><ele>447.59999999999997</ele><time>2026-04-26T08:57:55Z</time></trkpt><trkpt lat="37.04683476583872" lon="15.018863113304137"><ele>447.19999999999993</ele><time>2026-04-26T08:57:58Z</time></trkpt><trkpt lat="37.04681058603033" lon="15.01897158376233"><ele>446.8</ele><time>2026-04-26T08:58:00Z</time></trkpt><trkpt lat="37.04680753974024" lon="15.019055789867691"><ele>446.4</ele><time>2026-04-26T08:58:02Z</time></trkpt><trkpt lat="37.046790697252376" lon="15.019179972424686"><ele>446.0</ele><time>2026-04-26T08:58:04Z</time></trkpt><trkpt lat="37.04679105135513" lon="15.019317961401988"><ele>445.99999999999994</ele><time>2026-04-26T08:58:07.001Z</time></trkpt><trkpt lat="37.046770107372" lon="15.019441003270886"><ele>446.0</ele><time>2026-04-26T08:58:09.001Z</time></trkpt><trkpt lat="37.046761783118875" lon="15.01952741942341"><ele>446.0</ele><time>2026-04-26T08:58:10.001Z</time></trkpt><trkpt lat="37.046759155081816" lon="15.019607589705908"><ele>446.0</ele><time>2026-04-26T08:58:11.001Z</time></trkpt><trkpt lat="37.04673800765057" lon="15.019743114085664"><ele>445.99999999999994</ele><time>2026-04-26T08:58:13.001Z</time></trkpt><trkpt lat="37.04672493571522" lon="15.019872631154936"><ele>446.0</ele><time>2026-04-26T08:58:15.001Z</time></trkpt><trkpt lat="37.04671670509861" lon="15.020003311260709"><ele>445.99999999999994</ele><time>2026-04-26T08:58:17.001Z</time></trkpt><trkpt lat="37.046708233505804" lon="15.020152044846801"><ele>446.0</ele><time>2026-04-26T08:58:19.001Z</time></trkpt><trkpt lat="37.046703359853765" lon="15.020297379097311"><ele>446.0</ele><time>2026-04-26T08:58:21.001Z</time></trkpt><trkpt lat="37.04670355032638" lon="15.020378673925048"><ele>446.0</ele><time>2026-04-26T08:58:22.001Z</time></trkpt><trkpt lat="37.04670423477556" lon="15.020462482368474"><ele>445.99999999999994</ele><time>2026-04-26T08:58:23.001Z</time></trkpt><trkpt lat="37.0467112274554" lon="15.020542510681185"><ele>446.0</ele><time>2026-04-26T08:58:24.001Z</time></trkpt><trkpt lat="37.046711644285864" lon="15.020679574238342"><ele>445.99999999999994</ele><time>2026-04-26T08:58:26.001Z</time></trkpt><trkpt lat="37.04670373310274" lon="15.020789757142037"><ele>446.0</ele><time>2026-04-26T08:58:28.001Z</time></trkpt><trkpt lat="37.04671260086887" lon="15.02090520271806"><ele>446.0</ele><time>2026-04-26T08:58:30.001Z</time></trkpt><trkpt lat="37.046724770999866" lon="15.02102084977581"><ele>446.0</ele><time>2026-04-26T08:58:32.001Z</time></trkpt><trkpt lat="37.0467224851904" lon="15.021107230192259"><ele>445.99999999999994</ele><time>2026-04-26T08:58:34.001Z</time></trkpt><trkpt lat="37.04672313237357" lon="15.021210564619473"><ele>446.0</ele><time>2026-04-26T08:58:36.001Z</time></trkpt><trkpt lat="37.046727884401015" lon="15.021335099329884"><ele>445.8</ele><time>2026-04-26T08:58:38.001Z</time></trkpt><trkpt lat="37.04672580030677" lon="15.021461393641664"><ele>445.6</ele><time>2026-04-26T08:58:39.999Z</time></trkpt><trkpt lat="37.04673327666512" lon="15.021569552627437"><ele>445.4</ele><time>2026-04-26T08:58:41.999Z</time></trkpt><trkpt lat="37.04673812184985" lon="15.021706678208208"><ele>445.2</ele><time>2026-04-26T08:58:43.999Z</time></trkpt><trkpt lat="37.04674544392654" lon="15.021851549122944"><ele>445.0</ele><time>2026-04-26T08:58:45.999Z</time></trkpt><trkpt lat="37.046751305511144" lon="15.021949944480594"><ele>444.50000000000006</ele><time>2026-04-26T08:58:47.999Z</time></trkpt><trkpt lat="37.04675653497428" lon="15.02207258484004"><ele>444.0</ele><time>2026-04-26T08:58:49.999Z</time></trkpt><trkpt lat="37.04675812502903" lon="15.022170260019523"><ele>443.5</ele><time>2026-04-26T08:58:51.999Z</time></trkpt><trkpt lat="37.04675959772177" lon="15.022277153676397"><ele>443.0</ele><time>2026-04-26T08:58:54Z</time></trkpt><trkpt lat="37.04676500913254" lon="15.022397592568176"><ele>442.50000000000006</ele><time>2026-04-26T08:58:56Z</time></trkpt><trkpt lat="37.04676346704807" lon="15.022487108358025"><ele>442.0</ele><time>2026-04-26T08:58:58Z</time></trkpt><trkpt lat="37.04677880252703" lon="15.022604118541848"><ele>441.00000000000006</ele><time>2026-04-26T08:59:00Z</time></trkpt><trkpt lat="37.046788442321315" lon="15.022698640476293"><ele>440.0</ele><time>2026-04-26T08:59:01Z</time></trkpt><trkpt lat="37.04677415454878" lon="15.022799282798418"><ele>439.0</ele><time>2026-04-26T08:59:03Z</time></trkpt><trkpt lat="37.046772322089126" lon="15.022916471983645"><ele>438.0</ele><time>2026-04-26T08:59:05Z</time></trkpt><trkpt lat="37.046783374376204" lon="15.02302232853554"><ele>437.00000000000006</ele><time>2026-04-26T08:59:07Z</time></trkpt><trkpt lat="37.04678404091976" lon="15.023144318855937"><ele>436.0</ele><time>2026-04-26T08:59:09Z</time></trkpt><trkpt lat="37.0467845732851" lon="15.023233892740222"><ele>435.42857142857144</ele><time>2026-04-26T08:59:11Z</time></trkpt><trkpt lat="37.04678853705752" lon="15.023316289958828"><ele>434.8571428571429</ele><time>2026-04-26T08:59:13Z</time></trkpt><trkpt lat="37.04678593267002" lon="15.02340440157899"><ele>434.2857142857143</ele><time>2026-04-26T08:59:16Z</time></trkpt><trkpt lat="37.04678892681464" lon="15.023484794604268"><ele>433.7142857142857</ele><time>2026-04-26T08:59:18Z</time></trkpt><trkpt lat="37.046781077487566" lon="15.02356540648723"><ele>433.1428571428571</ele><time>2026-04-26T08:59:20Z</time></trkpt><trkpt lat="37.04676954627288" lon="15.023647074847084"><ele>432.57142857142856</ele><time>2026-04-26T08:59:22Z</time></trkpt><trkpt lat="37.04677690788121" lon="15.023731376578894"><ele>432.0</ele><time>2026-04-26T08:59:24Z</time></trkpt><trkpt lat="37.04675340755768" lon="15.023827529955257"><ele>432.0</ele><time>2026-04-26T08:59:28Z</time></trkpt><trkpt lat="37.046759650797455" lon="15.023926634363143"><ele>432.0</ele><time>2026-04-26T08:59:59Z</time></trkpt><trkpt lat="37.04674041214495" lon="15.024023193215903"><ele>432.0</ele><time>2026-04-26T09:00:02Z</time></trkpt><trkpt lat="37.046710234580175" lon="15.02409509011186"><ele>432.0</ele><time>2026-04-26T09:00:04Z</time></trkpt><trkpt lat="37.04670551311581" lon="15.024188658793399"><ele>432.0</ele><time>2026-04-26T09:00:07Z</time></trkpt><trkpt lat="37.04668808574531" lon="15.024269659485203"><ele>432.0</ele><time>2026-04-26T09:00:10Z</time></trkpt><trkpt lat="37.046673934680335" lon="15.024367859415257"><ele>432.0</ele><time>2026-04-26T09:00:13Z</time></trkpt><trkpt lat="37.04666930153645" lon="15.024459972488154"><ele>430.8</ele><time>2026-04-26T09:00:16Z</time></trkpt><trkpt lat="37.04662914514522" lon="15.024588148056665"><ele>429.6</ele><time>2026-04-26T09:00:20Z</time></trkpt><trkpt lat="37.046613254939274" lon="15.02471384407382"><ele>428.40000000000003</ele><time>2026-04-26T09:00:22Z</time></trkpt><trkpt lat="37.04660333735859" lon="15.024821926356402"><ele>427.20000000000005</ele><time>2026-04-26T09:00:24Z</time></trkpt><trkpt lat="37.04657237298522" lon="15.02493693941811"><ele>426.0</ele><time>2026-04-26T09:00:26Z</time></trkpt><trkpt lat="37.04654337719051" lon="15.02506546405823"><ele>425.0</ele><time>2026-04-26T09:00:28Z</time></trkpt><trkpt lat="37.046508528205074" lon="15.025176568819521"><ele>424.0</ele><time>2026-04-26T09:00:30Z</time></trkpt><trkpt lat="37.0464921182869" lon="15.025274331385125"><ele>423.0</ele><time>2026-04-26T09:00:32.001Z</time></trkpt><trkpt lat="37.04647660826189" lon="15.025377266445117"><ele>422.0</ele><time>2026-04-26T09:00:34.001Z</time></trkpt><trkpt lat="37.046462194167226" lon="15.025472928121038"><ele>421.0</ele><time>2026-04-26T09:00:37.001Z</time></trkpt><trkpt lat="37.046463723366244" lon="15.025554794602645"><ele>420.0</ele><time>2026-04-26T09:00:40.001Z</time></trkpt><trkpt lat="37.04643603069588" lon="15.025646231323083"><ele>420.0</ele><time>2026-04-26T09:00:44.001Z</time></trkpt><trkpt lat="37.046434042738845" lon="15.025733432213784"><ele>420.0</ele><time>2026-04-26T09:00:45.999Z</time></trkpt><trkpt lat="37.04642256486929" lon="15.025824030663536"><ele>420.0</ele><time>2026-04-26T09:00:48.999Z</time></trkpt><trkpt lat="37.046394960481166" lon="15.025913276994409"><ele>420.0</ele><time>2026-04-26T09:00:51.999Z</time></trkpt><trkpt lat="37.04638088691108" lon="15.025997424454657"><ele>420.0</ele><time>2026-04-26T09:00:57.999Z</time></trkpt><trkpt lat="37.046364132896926" lon="15.026095797219373"><ele>420.0</ele><time>2026-04-26T09:01:00.999Z</time></trkpt><trkpt lat="37.04635648495792" lon="15.026178609882946"><ele>420.0</ele><time>2026-04-26T09:01:03.999Z</time></trkpt><trkpt lat="37.046345190447674" lon="15.026257816401415"><ele>419.6666666666667</ele><time>2026-04-26T09:01:06.999Z</time></trkpt><trkpt lat="37.046322820792525" lon="15.026364804371132"><ele>419.33333333333337</ele><time>2026-04-26T09:01:10.999Z</time></trkpt><trkpt lat="37.046310724961494" lon="15.026467761315812"><ele>419.0</ele><time>2026-04-26T09:01:13.999Z</time></trkpt><trkpt lat="37.04629428197936" lon="15.026566181387249"><ele>418.6666666666667</ele><time>2026-04-26T09:01:15.999Z</time></trkpt><trkpt lat="37.04627422152584" lon="15.026666233129903"><ele>418.33333333333337</ele><time>2026-04-26T09:01:18Z</time></trkpt><trkpt lat="37.04626165454319" lon="15.026747735098951"><ele>418.0</ele><time>2026-04-26T09:01:20Z</time></trkpt><trkpt lat="37.04625575896052" lon="15.026841172601946"><ele>417.79999999999995</ele><time>2026-04-26T09:01:23Z</time></trkpt><trkpt lat="37.046241931050595" lon="15.026920404523084"><ele>417.6</ele><time>2026-04-26T09:03:02.999Z</time></trkpt><trkpt lat="37.04622130407713" lon="15.027071394185771"><ele>417.4</ele><time>2026-04-26T09:03:04.999Z</time></trkpt><trkpt lat="37.04619473464545" lon="15.02721078144007"><ele>417.20000000000005</ele><time>2026-04-26T09:03:06.999Z</time></trkpt><trkpt lat="37.046164220825325" lon="15.027358379794432"><ele>417.0</ele><time>2026-04-26T09:03:07.999Z</time></trkpt><trkpt lat="37.04613692192918" lon="15.027499482783728"><ele>416.75</ele><time>2026-04-26T09:03:08.999Z</time></trkpt><trkpt lat="37.046105637630355" lon="15.027643833653721"><ele>416.5</ele><time>2026-04-26T09:03:09.999Z</time></trkpt><trkpt lat="37.04608182983164" lon="15.027776285774515"><ele>416.25</ele><time>2026-04-26T09:03:10.999Z</time></trkpt><trkpt lat="37.04605918307998" lon="15.027903425395195"><ele>416.0</ele><time>2026-04-26T09:03:11.999Z</time></trkpt><trkpt lat="37.04603186689933" lon="15.028052071333908"><ele>416.0</ele><time>2026-04-26T09:03:12.999Z</time></trkpt><trkpt lat="37.045998785778345" lon="15.02821401614835"><ele>416.0</ele><time>2026-04-26T09:03:13.999Z</time></trkpt><trkpt lat="37.04597417139843" lon="15.028360948366279"><ele>416.0</ele><time>2026-04-26T09:03:14.999Z</time></trkpt><trkpt lat="37.04595441729096" lon="15.028478295045828"><ele>416.0</ele><time>2026-04-26T09:03:15.999Z</time></trkpt><trkpt lat="37.04592590045563" lon="15.028624724985177"><ele>415.5</ele><time>2026-04-26T09:03:17Z</time></trkpt><trkpt lat="37.045890472949075" lon="15.028785585249212"><ele>415.0</ele><time>2026-04-26T09:03:18Z</time></trkpt><trkpt lat="37.04586385528306" lon="15.028948641988592"><ele>414.5</ele><time>2026-04-26T09:03:19Z</time></trkpt><trkpt lat="37.04582801991416" lon="15.02907678439979"><ele>414.0</ele><time>2026-04-26T09:03:20Z</time></trkpt><trkpt lat="37.04581056265611" lon="15.029213569201733"><ele>413.6</ele><time>2026-04-26T09:03:21Z</time></trkpt><trkpt lat="37.04578225420065" lon="15.029344367610461"><ele>413.2</ele><time>2026-04-26T09:03:22Z</time></trkpt><trkpt lat="37.04576504766987" lon="15.029448557465512"><ele>412.8</ele><time>2026-04-26T09:03:23Z</time></trkpt><trkpt lat="37.045769693696755" lon="15.029547521151494"><ele>412.40000000000003</ele><time>2026-04-26T09:03:24Z</time></trkpt><trkpt lat="37.04578415559449" lon="15.029691366095644"><ele>412.0</ele><time>2026-04-26T09:03:25Z</time></trkpt><trkpt lat="37.04581752392391" lon="15.029852351715336"><ele>411.5</ele><time>2026-04-26T09:03:26Z</time></trkpt><trkpt lat="37.045850120857516" lon="15.030009548440427"><ele>411.0</ele><time>2026-04-26T09:03:27Z</time></trkpt><trkpt lat="37.045872531629456" lon="15.030155694588242"><ele>410.5</ele><time>2026-04-26T09:03:28Z</time></trkpt><trkpt lat="37.04589396406474" lon="15.03027811310377"><ele>410.0</ele><time>2026-04-26T09:03:29Z</time></trkpt><trkpt lat="37.045906128060686" lon="15.030406453093198"><ele>410.0</ele><time>2026-04-26T09:03:30Z</time></trkpt><trkpt lat="37.04594162308408" lon="15.030524567685893"><ele>410.0</ele><time>2026-04-26T09:03:31Z</time></trkpt><trkpt lat="37.04594918669061" lon="15.030644616745372"><ele>410.0</ele><time>2026-04-26T09:03:32Z</time></trkpt><trkpt lat="37.04598038050715" lon="15.030750248295584"><ele>410.0</ele><time>2026-04-26T09:03:33Z</time></trkpt><trkpt lat="37.04596770536242" lon="15.0308906497571"><ele>410.0</ele><time>2026-04-26T09:03:34Z</time></trkpt><trkpt lat="37.04596871341589" lon="15.031019188037584"><ele>409.49999999999994</ele><time>2026-04-26T09:03:35Z</time></trkpt><trkpt lat="37.04598621413209" lon="15.031133419480438"><ele>409.0</ele><time>2026-04-26T09:03:36Z</time></trkpt><trkpt lat="37.04598816330919" lon="15.031232365791901"><ele>408.5</ele><time>2026-04-26T09:03:37Z</time></trkpt><trkpt lat="37.04598719413985" lon="15.031320694593678"><ele>408.0</ele><time>2026-04-26T09:03:38Z</time></trkpt><trkpt lat="37.04599920325518" lon="15.031423528424922"><ele>407.49999999999994</ele><time>2026-04-26T09:03:39Z</time></trkpt><trkpt lat="37.04600049803138" lon="15.031507179321675"><ele>407.0</ele><time>2026-04-26T09:03:40Z</time></trkpt><trkpt lat="37.046012796002884" lon="15.031635851831023"><ele>406.40000000000003</ele><time>2026-04-26T09:03:42Z</time></trkpt><trkpt lat="37.04602111185533" lon="15.031757431757587"><ele>405.8</ele><time>2026-04-26T09:06:45.001Z</time></trkpt><trkpt lat="37.04603746550513" lon="15.031916169471566"><ele>405.2</ele><time>2026-04-26T09:06:47.001Z</time></trkpt><trkpt lat="37.0460466084414" lon="15.032019591778326"><ele>404.6</ele><time>2026-04-26T09:06:48.001Z</time></trkpt><trkpt lat="37.046039852773035" lon="15.032152439522878"><ele>404.0</ele><time>2026-04-26T09:06:49.001Z</time></trkpt><trkpt lat="37.04604833686336" lon="15.032274878774896"><ele>403.99999999999994</ele><time>2026-04-26T09:06:50.001Z</time></trkpt><trkpt lat="37.04606371818864" lon="15.03240728903965"><ele>404.0</ele><time>2026-04-26T09:06:51.001Z</time></trkpt><trkpt lat="37.04608653556353" lon="15.032512030511105"><ele>404.0</ele><time>2026-04-26T09:06:52.001Z</time></trkpt><trkpt lat="37.04610802265588" lon="15.032603506665192"><ele>404.0</ele><time>2026-04-26T09:06:53.001Z</time></trkpt><trkpt lat="37.04612570419461" lon="15.032682145290817"><ele>403.99999999999994</ele><time>2026-04-26T09:06:54.001Z</time></trkpt><trkpt lat="37.046153017496614" lon="15.032809970058498"><ele>404.0</ele><time>2026-04-26T09:06:55.001Z</time></trkpt><trkpt lat="37.046176463611694" lon="15.032919696586251"><ele>403.3333333333333</ele><time>2026-04-26T09:06:56.001Z</time></trkpt><trkpt lat="37.046193872697195" lon="15.033000392724363"><ele>402.66666666666663</ele><time>2026-04-26T09:06:57.001Z</time></trkpt><trkpt lat="37.04621363120464" lon="15.033088277978209"><ele>402.0</ele><time>2026-04-26T09:06:58.001Z</time></trkpt><trkpt lat="37.04623573625694" lon="15.033186600655943"><ele>401.33333333333337</ele><time>2026-04-26T09:06:59.001Z</time></trkpt><trkpt lat="37.046259814343294" lon="15.03330067088366"><ele>400.6666666666667</ele><time>2026-04-26T09:07:00.001Z</time></trkpt><trkpt lat="37.04628093555649" lon="15.033406277060738"><ele>400.0</ele><time>2026-04-26T09:07:01.001Z</time></trkpt><trkpt lat="37.0462796678078" lon="15.033563941815563"><ele>400.0</ele><time>2026-04-26T09:07:03Z</time></trkpt><trkpt lat="37.04625179384242" lon="15.033664842143965"><ele>400.0</ele><time>2026-04-26T09:07:04Z</time></trkpt><trkpt lat="37.04623173027507" lon="15.033819141205072"><ele>400.0</ele><time>2026-04-26T09:07:05Z</time></trkpt><trkpt lat="37.04619577766288" lon="15.033976438553672"><ele>400.0</ele><time>2026-04-26T09:07:06Z</time></trkpt><trkpt lat="37.04617195239326" lon="15.034108900580597"><ele>400.0</ele><time>2026-04-26T09:07:07Z</time></trkpt><trkpt lat="37.04614610026911" lon="15.034233557411941"><ele>399.6666666666667</ele><time>2026-04-26T09:07:08Z</time></trkpt><trkpt lat="37.046119029594536" lon="15.034357927590614"><ele>399.33333333333337</ele><time>2026-04-26T09:07:09Z</time></trkpt><trkpt lat="37.04609898579644" lon="15.034468799891977"><ele>399.0</ele><time>2026-04-26T09:07:10Z</time></trkpt><trkpt lat="37.046073110853406" lon="15.034566331554792"><ele>398.66666666666663</ele><time>2026-04-26T09:07:11Z</time></trkpt><trkpt lat="37.04605352129694" lon="15.0346512657021"><ele>398.3333333333333</ele><time>2026-04-26T09:07:12Z</time></trkpt><trkpt lat="37.04601746502732" lon="15.034738053972887"><ele>398.0</ele><time>2026-04-26T09:07:13Z</time></trkpt><trkpt lat="37.04595594288485" lon="15.03485075877897"><ele>398.0</ele><time>2026-04-26T09:07:14Z</time></trkpt><trkpt lat="37.04589749973162" lon="15.034941583213152"><ele>398.0</ele><time>2026-04-26T09:07:15Z</time></trkpt><trkpt lat="37.045831601004785" lon="15.035041799902316"><ele>398.0</ele><time>2026-04-26T09:07:16Z</time></trkpt><trkpt lat="37.04575515806009" lon="15.03516029916284"><ele>398.0</ele><time>2026-04-26T09:07:17Z</time></trkpt><trkpt lat="37.04570132326318" lon="15.035250595313265"><ele>398.0</ele><time>2026-04-26T09:07:18Z</time></trkpt><trkpt lat="37.045649805069466" lon="15.035334371458388"><ele>396.66666666666663</ele><time>2026-04-26T09:07:19Z</time></trkpt><trkpt lat="37.04559213786839" lon="15.035426198406661"><ele>395.3333333333333</ele><time>2026-04-26T09:07:20Z</time></trkpt><trkpt lat="37.04553202578282" lon="15.035524311863169"><ele>394.0</ele><time>2026-04-26T09:07:21Z</time></trkpt><trkpt lat="37.045485070956474" lon="15.035595334464821"><ele>392.66666666666663</ele><time>2026-04-26T09:07:22Z</time></trkpt><trkpt lat="37.045436339149774" lon="15.035679451907658"><ele>391.3333333333333</ele><time>2026-04-26T09:07:23Z</time></trkpt><trkpt lat="37.0453726578172" lon="15.035774147089812"><ele>390.0</ele><time>2026-04-26T09:07:24Z</time></trkpt><trkpt lat="37.045306259709754" lon="15.035880714529663"><ele>389.8</ele><time>2026-04-26T09:07:25Z</time></trkpt><trkpt lat="37.04523746464818" lon="15.035947053417262"><ele>389.6</ele><time>2026-04-26T09:07:26Z</time></trkpt><trkpt lat="37.04518072070531" lon="15.036046264485256"><ele>389.4</ele><time>2026-04-26T09:07:27Z</time></trkpt><trkpt lat="37.045114572528114" lon="15.036138822167684"><ele>389.2</ele><time>2026-04-26T09:07:28Z</time></trkpt><trkpt lat="37.045040402534795" lon="15.036238051764107"><ele>389.0</ele><time>2026-04-26T09:07:29Z</time></trkpt><trkpt lat="37.04496702108703" lon="15.036333803651356"><ele>387.79999999999995</ele><time>2026-04-26T09:07:30Z</time></trkpt><trkpt lat="37.04489600998895" lon="15.036438140641932"><ele>386.59999999999997</ele><time>2026-04-26T09:07:31Z</time></trkpt><trkpt lat="37.0448243894573" lon="15.036530521876388"><ele>385.4</ele><time>2026-04-26T09:07:32Z</time></trkpt><trkpt lat="37.044781670247936" lon="15.036611897835854"><ele>384.2</ele><time>2026-04-26T09:07:33Z</time></trkpt><trkpt lat="37.044733306344085" lon="15.03671823372285"><ele>383.0</ele><time>2026-04-26T09:07:34Z</time></trkpt><trkpt lat="37.04470245210363" lon="15.036815517171881"><ele>383.0</ele><time>2026-04-26T09:07:35Z</time></trkpt><trkpt lat="37.044679003677466" lon="15.036910993894326"><ele>383.0</ele><time>2026-04-26T09:07:36Z</time></trkpt><trkpt lat="37.04467991498512" lon="15.036994755025534"><ele>383.0</ele><time>2026-04-26T09:07:37Z</time></trkpt><trkpt lat="37.04468318895911" lon="15.03708271129075"><ele>383.0</ele><time>2026-04-26T09:07:38Z</time></trkpt><trkpt lat="37.04469878747611" lon="15.037189441054233"><ele>383.0</ele><time>2026-04-26T09:07:39Z</time></trkpt><trkpt lat="37.044678984473755" lon="15.037281410486191"><ele>383.0</ele><time>2026-04-26T09:07:40Z</time></trkpt><trkpt lat="37.04466184545292" lon="15.037361369197102"><ele>383.0</ele><time>2026-04-26T09:07:41Z</time></trkpt><trkpt lat="37.04461596581492" lon="15.037441981781349"><ele>382.59999999999997</ele><time>2026-04-26T09:07:42Z</time></trkpt><trkpt lat="37.04456956752953" lon="15.037552275078655"><ele>382.2</ele><time>2026-04-26T09:07:43Z</time></trkpt><trkpt lat="37.04452094665108" lon="15.037670584223939"><ele>381.8</ele><time>2026-04-26T09:07:44Z</time></trkpt><trkpt lat="37.04447644786809" lon="15.03778177722602"><ele>381.4</ele><time>2026-04-26T09:07:45Z</time></trkpt><trkpt lat="37.04443391087311" lon="15.037888068095969"><ele>381.0</ele><time>2026-04-26T09:07:46Z</time></trkpt><trkpt lat="37.044390599988105" lon="15.037996292750226"><ele>381.0</ele><time>2026-04-26T09:07:47Z</time></trkpt><trkpt lat="37.044341956621466" lon="15.038112094143482"><ele>381.0</ele><time>2026-04-26T09:07:48Z</time></trkpt><trkpt lat="37.04430777276519" lon="15.038227229883768"><ele>381.0</ele><time>2026-04-26T09:07:49Z</time></trkpt><trkpt lat="37.044269297538264" lon="15.038324347244192"><ele>381.0</ele><time>2026-04-26T09:07:50Z</time></trkpt><trkpt lat="37.044218869114964" lon="15.038400188545078"><ele>381.0</ele><time>2026-04-26T09:07:51Z</time></trkpt><trkpt lat="37.04417863258129" lon="15.038494364828457"><ele>380.25</ele><time>2026-04-26T09:07:52Z</time></trkpt><trkpt lat="37.04411411491829" lon="15.038648702002199"><ele>379.5</ele><time>2026-04-26T09:07:53Z</time></trkpt><trkpt lat="37.04405505485905" lon="15.03883170586867"><ele>378.75</ele><time>2026-04-26T09:07:54Z</time></trkpt><trkpt lat="37.043993349755254" lon="15.038968362876362"><ele>378.0</ele><time>2026-04-26T09:07:55Z</time></trkpt><trkpt lat="37.043933406854464" lon="15.039110431104714"><ele>377.79999999999995</ele><time>2026-04-26T09:07:56Z</time></trkpt><trkpt lat="37.04388367499541" lon="15.039232036475212"><ele>377.6</ele><time>2026-04-26T09:07:57Z</time></trkpt><trkpt lat="37.04382858106877" lon="15.039335453557594"><ele>377.4</ele><time>2026-04-26T09:07:58Z</time></trkpt><trkpt lat="37.043787472875096" lon="15.039435525718169"><ele>377.20000000000005</ele><time>2026-04-26T09:07:59Z</time></trkpt><trkpt lat="37.043750116842446" lon="15.039526463802666"><ele>377.0</ele><time>2026-04-26T09:08:00Z</time></trkpt><trkpt lat="37.04370845258834" lon="15.03962788964913"><ele>377.0</ele><time>2026-04-26T09:08:01Z</time></trkpt><trkpt lat="37.04366311207996" lon="15.039738264833646"><ele>377.0</ele><time>2026-04-26T09:08:02Z</time></trkpt><trkpt lat="37.04363275574019" lon="15.039855210078718"><ele>377.0</ele><time>2026-04-26T09:08:03Z</time></trkpt><trkpt lat="37.04358232601889" lon="15.039962364460273"><ele>377.0</ele><time>2026-04-26T09:08:04Z</time></trkpt><trkpt lat="37.04353424983529" lon="15.040065840539182"><ele>377.0</ele><time>2026-04-26T09:08:05Z</time></trkpt><trkpt lat="37.04346914415492" lon="15.040173908984233"><ele>376.6</ele><time>2026-04-26T09:08:06Z</time></trkpt><trkpt lat="37.04342439254818" lon="15.040271261322465"><ele>376.20000000000005</ele><time>2026-04-26T09:08:07Z</time></trkpt><trkpt lat="37.043382475464504" lon="15.040389426718331"><ele>375.8</ele><time>2026-04-26T09:08:08Z</time></trkpt><trkpt lat="37.04332416435285" lon="15.040512165887762"><ele>375.4</ele><time>2026-04-26T09:08:09Z</time></trkpt><trkpt lat="37.04326764824261" lon="15.040631062479374"><ele>375.0</ele><time>2026-04-26T09:08:10Z</time></trkpt><trkpt lat="37.043209546954834" lon="15.0407566828117"><ele>374.6</ele><time>2026-04-26T09:08:11Z</time></trkpt><trkpt lat="37.04314970906219" lon="15.040877563471202"><ele>374.2</ele><time>2026-04-26T09:08:12Z</time></trkpt><trkpt lat="37.04310129227405" lon="15.040983866970283"><ele>373.79999999999995</ele><time>2026-04-26T09:08:13Z</time></trkpt><trkpt lat="37.04305002009506" lon="15.041092318974643"><ele>373.4</ele><time>2026-04-26T09:08:14Z</time></trkpt><trkpt lat="37.043000511896324" lon="15.041209026994977"><ele>373.0</ele><time>2026-04-26T09:08:15Z</time></trkpt><trkpt lat="37.04294861055267" lon="15.041316788134631"><ele>373.0</ele><time>2026-04-26T09:08:16Z</time></trkpt><trkpt lat="37.04290001378275" lon="15.041422728696345"><ele>373.0</ele><time>2026-04-26T09:08:17Z</time></trkpt><trkpt lat="37.042848862331184" lon="15.041535152788533"><ele>373.0</ele><time>2026-04-26T09:08:18Z</time></trkpt><trkpt lat="37.04279709038351" lon="15.04164335891255"><ele>373.0</ele><time>2026-04-26T09:08:19Z</time></trkpt><trkpt lat="37.04274085812551" lon="15.041743105038986"><ele>373.0</ele><time>2026-04-26T09:08:20Z</time></trkpt><trkpt lat="37.04271388998681" lon="15.041867204428161"><ele>373.0</ele><time>2026-04-26T09:08:21Z</time></trkpt><trkpt lat="37.042654757590235" lon="15.041987134440003"><ele>373.0</ele><time>2026-04-26T09:08:22Z</time></trkpt><trkpt lat="37.0426162015118" lon="15.04210192214368"><ele>373.0</ele><time>2026-04-26T09:08:23Z</time></trkpt><trkpt lat="37.042577710548606" lon="15.042215992171965"><ele>373.0</ele><time>2026-04-26T09:08:24Z</time></trkpt><trkpt lat="37.04254227029689" lon="15.04232102125686"><ele>373.0</ele><time>2026-04-26T09:08:25Z</time></trkpt><trkpt lat="37.04251155689449" lon="15.042412042069842"><ele>372.5</ele><time>2026-04-26T09:08:26Z</time></trkpt><trkpt lat="37.042480542396554" lon="15.042504356606047"><ele>372.0</ele><time>2026-04-26T09:08:27Z</time></trkpt><trkpt lat="37.04245430726351" lon="15.042584521639986"><ele>371.5</ele><time>2026-04-26T09:08:28Z</time></trkpt><trkpt lat="37.0424279748146" lon="15.042664984017597"><ele>371.0</ele><time>2026-04-26T09:08:29.001Z</time></trkpt><trkpt lat="37.0423915868788" lon="15.042776172357753"><ele>370.5</ele><time>2026-04-26T09:08:30.001Z</time></trkpt><trkpt lat="37.042357490641145" lon="15.042880358068944"><ele>370.0</ele><time>2026-04-26T09:08:31.001Z</time></trkpt><trkpt lat="37.042327440867076" lon="15.042972179252995"><ele>369.2</ele><time>2026-04-26T09:08:32.001Z</time></trkpt><trkpt lat="37.04230532113907" lon="15.043077823634365"><ele>368.4</ele><time>2026-04-26T09:08:33.001Z</time></trkpt><trkpt lat="37.04226395293613" lon="15.043200829407557"><ele>367.6</ele><time>2026-04-26T09:08:34.001Z</time></trkpt><trkpt lat="37.04221753059201" lon="15.043345376067657"><ele>366.8</ele><time>2026-04-26T09:08:35.001Z</time></trkpt><trkpt lat="37.042188536094976" lon="15.043435591590763"><ele>366.0</ele><time>2026-04-26T09:08:36.001Z</time></trkpt><trkpt lat="37.042161107012475" lon="15.043518990147419"><ele>364.6</ele><time>2026-04-26T09:08:37.001Z</time></trkpt><trkpt lat="37.04211111962259" lon="15.043667756844384"><ele>363.20000000000005</ele><time>2026-04-26T09:08:39.001Z</time></trkpt><trkpt lat="37.04208391494921" lon="15.043754070548417"><ele>361.79999999999995</ele><time>2026-04-26T09:08:40.001Z</time></trkpt><trkpt lat="37.04205748059244" lon="15.043832822773497"><ele>360.4</ele><time>2026-04-26T09:08:41.001Z</time></trkpt><trkpt lat="37.04203505440206" lon="15.043906584510685"><ele>359.0</ele><time>2026-04-26T09:08:42.001Z</time></trkpt><trkpt lat="37.04199069824747" lon="15.044047759127311"><ele>356.83333333333337</ele><time>2026-04-26T09:08:44.001Z</time></trkpt><trkpt lat="37.04194579179223" lon="15.044167798276753"><ele>354.6666666666667</ele><time>2026-04-26T09:08:46.001Z</time></trkpt><trkpt lat="37.04186048160803" lon="15.044238029299159"><ele>352.5</ele><time>2026-04-26T09:08:48.001Z</time></trkpt><trkpt lat="37.04180192288836" lon="15.044275033595294"><ele>350.3333333333333</ele><time>2026-04-26T09:08:49.001Z</time></trkpt><trkpt lat="37.041728300385266" lon="15.044338084209079"><ele>348.16666666666663</ele><time>2026-04-26T09:08:50.001Z</time></trkpt><trkpt lat="37.04167385738676" lon="15.04438952881805"><ele>346.0</ele><time>2026-04-26T09:08:51.001Z</time></trkpt><trkpt lat="37.04157834347713" lon="15.04443874509175"><ele>344.8</ele><time>2026-04-26T09:08:53.001Z</time></trkpt><trkpt lat="37.041492066101505" lon="15.044450055322233"><ele>343.6</ele><time>2026-04-26T09:08:55.001Z</time></trkpt><trkpt lat="37.04141784760568" lon="15.044443580131441"><ele>342.4</ele><time>2026-04-26T09:08:57.001Z</time></trkpt><trkpt lat="37.04136965658165" lon="15.044370440768198"><ele>341.2</ele><time>2026-04-26T09:08:59.001Z</time></trkpt><trkpt lat="37.041351305637086" lon="15.044237601434649"><ele>340.0</ele><time>2026-04-26T09:09:02.001Z</time></trkpt><trkpt lat="37.041347322615756" lon="15.044093319930017"><ele>340.0</ele><time>2026-04-26T09:09:04.001Z</time></trkpt><trkpt lat="37.041370502249315" lon="15.043967858603422"><ele>340.0</ele><time>2026-04-26T09:09:06.001Z</time></trkpt><trkpt lat="37.04138686826575" lon="15.043852516523094"><ele>340.0</ele><time>2026-04-26T09:09:08.001Z</time></trkpt><trkpt lat="37.041369036763676" lon="15.043764382277548"><ele>340.0</ele><time>2026-04-26T09:09:09.999Z</time></trkpt><trkpt lat="37.04130741659379" lon="15.043686576328366"><ele>340.0</ele><time>2026-04-26T09:09:11.999Z</time></trkpt><trkpt lat="37.041239536920415" lon="15.04366127161095"><ele>340.0</ele><time>2026-04-26T09:09:13.999Z</time></trkpt><trkpt lat="37.04114788613052" lon="15.043673324865694"><ele>340.0</ele><time>2026-04-26T09:09:16.999Z</time></trkpt><trkpt lat="37.04111350375572" lon="15.043749640014852"><ele>340.0</ele><time>2026-04-26T09:09:18.999Z</time></trkpt><trkpt lat="37.041127634193636" lon="15.0438383656256"><ele>340.0</ele><time>2026-04-26T09:09:20.999Z</time></trkpt><trkpt lat="37.04112336257988" lon="15.043937711026558"><ele>340.0</ele><time>2026-04-26T09:09:22.999Z</time></trkpt><trkpt lat="37.041039852433904" lon="15.043924281722797"><ele>340.0</ele><time>2026-04-26T09:09:27Z</time></trkpt><trkpt lat="37.04103134880191" lon="15.043786762599924"><ele>340.0</ele><time>2026-04-26T09:09:29Z</time></trkpt><trkpt lat="37.04095752018132" lon="15.043681265784425"><ele>340.0</ele><time>2026-04-26T09:09:31Z</time></trkpt><trkpt lat="37.040859540509" lon="15.04366650543563"><ele>340.0</ele><time>2026-04-26T09:09:33Z</time></trkpt><trkpt lat="37.04079099170633" lon="15.043722769491737"><ele>340.0</ele><time>2026-04-26T09:09:34Z</time></trkpt><trkpt lat="37.04074844687547" lon="15.043808846290348"><ele>340.0</ele><time>2026-04-26T09:09:35Z</time></trkpt><trkpt lat="37.04070019408913" lon="15.043885146486312"><ele>340.0</ele><time>2026-04-26T09:09:37Z</time></trkpt><trkpt lat="37.0406320335012" lon="15.043851056515162"><ele>340.0</ele><time>2026-04-26T09:09:40Z</time></trkpt><trkpt lat="37.04059808578732" lon="15.043703062316498"><ele>347.6</ele><time>2026-04-26T09:09:42Z</time></trkpt><trkpt lat="37.04057082931962" lon="15.043619029334952"><ele>355.2</ele><time>2026-04-26T09:09:43Z</time></trkpt><trkpt lat="37.04049705833798" lon="15.043602878970775"><ele>362.79999999999995</ele><time>2026-04-26T09:09:46Z</time></trkpt><trkpt lat="37.04053920007405" lon="15.0437704530346"><ele>370.4</ele><time>2026-04-26T09:09:48Z</time></trkpt><trkpt lat="37.04058824204893" lon="15.043884753459146"><ele>378.0</ele><time>2026-04-26T09:09:49Z</time></trkpt><trkpt lat="37.04061224126183" lon="15.04401791287438"><ele>378.0</ele><time>2026-04-26T09:09:50Z</time></trkpt><trkpt lat="37.040634248155236" lon="15.04412275215637"><ele>378.0</ele><time>2026-04-26T09:09:51Z</time></trkpt><trkpt lat="37.04060658269298" lon="15.044273943253696"><ele>378.0</ele><time>2026-04-26T09:09:53Z</time></trkpt><trkpt lat="37.04058500697267" lon="15.044349020108555"><ele>378.0</ele><time>2026-04-26T09:09:54Z</time></trkpt><trkpt lat="37.04056776617538" lon="15.04446383975665"><ele>378.0</ele><time>2026-04-26T09:09:55Z</time></trkpt><trkpt lat="37.04056487510871" lon="15.044557695614444"><ele>378.0</ele><time>2026-04-26T09:09:56Z</time></trkpt><trkpt lat="37.04058012437821" lon="15.04465007552114"><ele>378.1666666666667</ele><time>2026-04-26T09:09:57Z</time></trkpt><trkpt lat="37.04061861773681" lon="15.044733923490702"><ele>378.3333333333333</ele><time>2026-04-26T09:09:58Z</time></trkpt><trkpt lat="37.04064836827149" lon="15.044848592131336"><ele>378.5</ele><time>2026-04-26T09:09:59Z</time></trkpt><trkpt lat="37.04068539590039" lon="15.044946638152544"><ele>378.66666666666663</ele><time>2026-04-26T09:10:00Z</time></trkpt><trkpt lat="37.04071938220137" lon="15.045035326666879"><ele>378.8333333333333</ele><time>2026-04-26T09:10:01Z</time></trkpt><trkpt lat="37.04069709577747" lon="15.045144920131232"><ele>379.0</ele><time>2026-04-26T09:10:02Z</time></trkpt><trkpt lat="37.04065109183684" lon="15.045262255968275"><ele>379.0</ele><time>2026-04-26T09:10:04Z</time></trkpt><trkpt lat="37.04058923330776" lon="15.04529130352439"><ele>379.0</ele><time>2026-04-26T09:10:06Z</time></trkpt><trkpt lat="37.04055750054308" lon="15.045178185153802"><ele>379.0</ele><time>2026-04-26T09:10:08Z</time></trkpt><trkpt lat="37.0405168697462" lon="15.04510350722081"><ele>379.0</ele><time>2026-04-26T09:10:09Z</time></trkpt><trkpt lat="37.04045629120865" lon="15.0449579898737"><ele>379.0</ele><time>2026-04-26T09:10:11Z</time></trkpt><trkpt lat="37.04043280686703" lon="15.044856335414035"><ele>379.0</ele><time>2026-04-26T09:10:12Z</time></trkpt><trkpt lat="37.04040304286608" lon="15.044746207214057"><ele>379.0</ele><time>2026-04-26T09:10:14Z</time></trkpt><trkpt lat="37.040319913200975" lon="15.044766619357432"><ele>379.0</ele><time>2026-04-26T09:10:16Z</time></trkpt><trkpt lat="37.04030794878857" lon="15.044844730642911"><ele>379.0</ele><time>2026-04-26T09:10:17Z</time></trkpt><trkpt lat="37.0402892816694" lon="15.044974669684503"><ele>379.0</ele><time>2026-04-26T09:10:19Z</time></trkpt><trkpt lat="37.04024853288157" lon="15.04513975814834"><ele>379.0</ele><time>2026-04-26T09:10:21Z</time></trkpt><trkpt lat="37.0402439310366" lon="15.045258669918224"><ele>378.14285714285717</ele><time>2026-04-26T09:10:22Z</time></trkpt><trkpt lat="37.04024695033512" lon="15.045370242714066"><ele>377.2857142857143</ele><time>2026-04-26T09:10:23Z</time></trkpt><trkpt lat="37.040257912239426" lon="15.045462791397247"><ele>376.42857142857144</ele><time>2026-04-26T09:10:24Z</time></trkpt><trkpt lat="37.04028500996783" lon="15.045555111200887"><ele>375.57142857142856</ele><time>2026-04-26T09:10:25Z</time></trkpt><trkpt lat="37.040297731410284" lon="15.045633726452772"><ele>374.7142857142857</ele><time>2026-04-26T09:10:26Z</time></trkpt><trkpt lat="37.04032750256392" lon="15.045710355755945"><ele>373.8571428571429</ele><time>2026-04-26T09:10:27Z</time></trkpt><trkpt lat="37.040333527938394" lon="15.045796451139372"><ele>373.0</ele><time>2026-04-26T09:10:28Z</time></trkpt><trkpt lat="37.0403576036096" lon="15.045927223419932"><ele>372.59999999999997</ele><time>2026-04-26T09:10:30Z</time></trkpt><trkpt lat="37.04036733984857" lon="15.046012343379925"><ele>372.2</ele><time>2026-04-26T09:10:31Z</time></trkpt><trkpt lat="37.04037584322141" lon="15.046131995249896"><ele>371.8</ele><time>2026-04-26T09:10:32Z</time></trkpt><trkpt lat="37.04039673052661" lon="15.046265212891834"><ele>371.4</ele><time>2026-04-26T09:10:33Z</time></trkpt><trkpt lat="37.04040840810551" lon="15.04639565587644"><ele>371.0</ele><time>2026-04-26T09:10:34Z</time></trkpt><trkpt lat="37.0404077708384" lon="15.046516382425441"><ele>371.0</ele><time>2026-04-26T09:10:35Z</time></trkpt><trkpt lat="37.04040655945226" lon="15.046622679467902"><ele>371.0</ele><time>2026-04-26T09:10:36Z</time></trkpt><trkpt lat="37.04039580230663" lon="15.046722916561857"><ele>371.0</ele><time>2026-04-26T09:10:37Z</time></trkpt><trkpt lat="37.04037091756066" lon="15.046830793972726"><ele>371.0</ele><time>2026-04-26T09:10:38Z</time></trkpt><trkpt lat="37.040332531927895" lon="15.04695136927225"><ele>371.0</ele><time>2026-04-26T09:10:39Z</time></trkpt><trkpt lat="37.04028832103781" lon="15.04707165104846"><ele>371.4</ele><time>2026-04-26T09:10:40Z</time></trkpt><trkpt lat="37.040246053963884" lon="15.047187393884588"><ele>371.8</ele><time>2026-04-26T09:10:41Z</time></trkpt><trkpt lat="37.04020669530697" lon="15.047298090568733"><ele>372.2</ele><time>2026-04-26T09:10:42Z</time></trkpt><trkpt lat="37.040164386235666" lon="15.04741057150907"><ele>372.59999999999997</ele><time>2026-04-26T09:10:43.001Z</time></trkpt><trkpt lat="37.04012194511592" lon="15.047516172564167"><ele>373.0</ele><time>2026-04-26T09:10:44.001Z</time></trkpt><trkpt lat="37.04007982680534" lon="15.047631247427274"><ele>372.0</ele><time>2026-04-26T09:10:45.001Z</time></trkpt><trkpt lat="37.04002262452098" lon="15.047765652022028"><ele>371.0</ele><time>2026-04-26T09:10:46.001Z</time></trkpt><trkpt lat="37.03997666991812" lon="15.047930189554743"><ele>370.0</ele><time>2026-04-26T09:10:47.001Z</time></trkpt><trkpt lat="37.03994239186476" lon="15.048115022324314"><ele>369.0</ele><time>2026-04-26T09:10:48.001Z</time></trkpt><trkpt lat="37.03989726511924" lon="15.048284864134846"><ele>371.4</ele><time>2026-04-26T09:10:49.001Z</time></trkpt><trkpt lat="37.039867381035414" lon="15.048439005959814"><ele>373.79999999999995</ele><time>2026-04-26T09:10:50.001Z</time></trkpt><trkpt lat="37.03984240731697" lon="15.048567496739635"><ele>376.20000000000005</ele><time>2026-04-26T09:10:51.001Z</time></trkpt><trkpt lat="37.039823113586145" lon="15.048688094610581"><ele>378.6</ele><time>2026-04-26T09:10:52.001Z</time></trkpt><trkpt lat="37.03980898384469" lon="15.048804693888403"><ele>381.0</ele><time>2026-04-26T09:10:53.001Z</time></trkpt><trkpt lat="37.03980182040548" lon="15.048935325344424"><ele>381.0</ele><time>2026-04-26T09:10:54.001Z</time></trkpt><trkpt lat="37.039799106258116" lon="15.049078923822051"><ele>381.0</ele><time>2026-04-26T09:10:55.001Z</time></trkpt><trkpt lat="37.03979547588697" lon="15.049217271713538"><ele>381.0</ele><time>2026-04-26T09:10:56.001Z</time></trkpt><trkpt lat="37.039789920539654" lon="15.049350331810343"><ele>381.0</ele><time>2026-04-26T09:10:57.001Z</time></trkpt><trkpt lat="37.03978249729787" lon="15.049481772794135"><ele>381.0</ele><time>2026-04-26T09:10:58.001Z</time></trkpt><trkpt lat="37.039769250000305" lon="15.04959863774792"><ele>380.0</ele><time>2026-04-26T09:10:59.001Z</time></trkpt><trkpt lat="37.03974413501266" lon="15.049715023488524"><ele>379.0</ele><time>2026-04-26T09:11:00.001Z</time></trkpt><trkpt lat="37.03971405177624" lon="15.049832426986114"><ele>378.0</ele><time>2026-04-26T09:11:01.001Z</time></trkpt><trkpt lat="37.03966912814643" lon="15.049954524643537"><ele>377.0</ele><time>2026-04-26T09:11:02.001Z</time></trkpt><trkpt lat="37.03961335871536" lon="15.050080310409175"><ele>376.0</ele><time>2026-04-26T09:11:03.001Z</time></trkpt><trkpt lat="37.03955786575827" lon="15.050192993135363"><ele>375.3333333333333</ele><time>2026-04-26T09:11:04.001Z</time></trkpt><trkpt lat="37.03951477674867" lon="15.050277954284452"><ele>374.66666666666663</ele><time>2026-04-26T09:11:05.001Z</time></trkpt><trkpt lat="37.039465477002295" lon="15.050375161552449"><ele>374.0</ele><time>2026-04-26T09:11:07.001Z</time></trkpt><trkpt lat="37.03942320894762" lon="15.050473699136388"><ele>373.3333333333333</ele><time>2026-04-26T09:11:15.999Z</time></trkpt><trkpt lat="37.03939186676222" lon="15.050547982453848"><ele>372.6666666666667</ele><time>2026-04-26T09:11:16.999Z</time></trkpt><trkpt lat="37.03935642747218" lon="15.050631976367498"><ele>372.0</ele><time>2026-04-26T09:11:17.999Z</time></trkpt><trkpt lat="37.039383328684735" lon="15.050769484245633"><ele>371.5</ele><time>2026-04-26T09:11:18.999Z</time></trkpt><trkpt lat="37.03937606293786" lon="15.050922377636033"><ele>371.0</ele><time>2026-04-26T09:11:19.999Z</time></trkpt><trkpt lat="37.03935904098567" lon="15.051063477835166"><ele>370.5</ele><time>2026-04-26T09:11:20.999Z</time></trkpt><trkpt lat="37.039326190737555" lon="15.051202907180308"><ele>370.0</ele><time>2026-04-26T09:11:21.999Z</time></trkpt><trkpt lat="37.03929181938539" lon="15.051345947835745"><ele>370.0</ele><time>2026-04-26T09:11:22.999Z</time></trkpt><trkpt lat="37.03925029278512" lon="15.051458722780763"><ele>370.0</ele><time>2026-04-26T09:11:23.999Z</time></trkpt><trkpt lat="37.03920149754521" lon="15.05154839189655"><ele>370.0</ele><time>2026-04-26T09:11:24.999Z</time></trkpt><trkpt lat="37.039149535453795" lon="15.051619151576618"><ele>370.0</ele><time>2026-04-26T09:11:25.999Z</time></trkpt><trkpt lat="37.03907731697899" lon="15.051647188425799"><ele>370.0</ele><time>2026-04-26T09:11:26.999Z</time></trkpt><trkpt lat="37.03899650206712" lon="15.051696010796835"><ele>370.0</ele><time>2026-04-26T09:11:27.999Z</time></trkpt><trkpt lat="37.03889292733197" lon="15.051775155982742"><ele>370.8</ele><time>2026-04-26T09:11:28.999Z</time></trkpt><trkpt lat="37.03881274252787" lon="15.051887787712216"><ele>371.6</ele><time>2026-04-26T09:11:29.999Z</time></trkpt><trkpt lat="37.03873709759753" lon="15.051960504069074"><ele>372.4</ele><time>2026-04-26T09:11:30.999Z</time></trkpt><trkpt lat="37.03868547646704" lon="15.052048598526467"><ele>373.2</ele><time>2026-04-26T09:11:31.999Z</time></trkpt><trkpt lat="37.03863424469556" lon="15.052116683336628"><ele>374.0</ele><time>2026-04-26T09:11:32.999Z</time></trkpt><trkpt lat="37.038551987205174" lon="15.052162729937987"><ele>374.0</ele><time>2026-04-26T09:11:34.999Z</time></trkpt><trkpt lat="37.03845558468618" lon="15.052248304340008"><ele>374.0</ele><time>2026-04-26T09:11:36.999Z</time></trkpt><trkpt lat="37.03842754881351" lon="15.052393639095698"><ele>374.0</ele><time>2026-04-26T09:11:38Z</time></trkpt><trkpt lat="37.038382554392506" lon="15.052512493570443"><ele>374.0</ele><time>2026-04-26T09:11:39Z</time></trkpt><trkpt lat="37.038346720955886" lon="15.052641918313297"><ele>373.25</ele><time>2026-04-26T09:11:40Z</time></trkpt><trkpt lat="37.038305931637026" lon="15.052775553886468"><ele>372.5</ele><time>2026-04-26T09:11:41Z</time></trkpt><trkpt lat="37.03825746709839" lon="15.052914745249813"><ele>371.75</ele><time>2026-04-26T09:11:42Z</time></trkpt><trkpt lat="37.038201682441496" lon="15.05305808574776"><ele>371.0</ele><time>2026-04-26T09:11:43Z</time></trkpt><trkpt lat="37.03813163028442" lon="15.053198199513242"><ele>373.25</ele><time>2026-04-26T09:11:44Z</time></trkpt><trkpt lat="37.03805077148594" lon="15.053337946325943"><ele>375.5</ele><time>2026-04-26T09:11:45Z</time></trkpt><trkpt lat="37.03796647119722" lon="15.05347876863822"><ele>377.75</ele><time>2026-04-26T09:11:46Z</time></trkpt><trkpt lat="37.03788396141461" lon="15.053611234089873"><ele>380.0</ele><time>2026-04-26T09:11:47Z</time></trkpt><trkpt lat="37.03780614853944" lon="15.053742327578744"><ele>380.0</ele><time>2026-04-26T09:11:48Z</time></trkpt><trkpt lat="37.03772869199269" lon="15.053878969612185"><ele>380.0</ele><time>2026-04-26T09:11:49Z</time></trkpt><trkpt lat="37.03764986648226" lon="15.054023642351973"><ele>380.0</ele><time>2026-04-26T09:11:50Z</time></trkpt><trkpt lat="37.03756837458177" lon="15.05417302112163"><ele>380.0</ele><time>2026-04-26T09:11:51Z</time></trkpt><trkpt lat="37.037487778331105" lon="15.05432998039552"><ele>383.25</ele><time>2026-04-26T09:11:52Z</time></trkpt><trkpt lat="37.03740390315445" lon="15.054491019708866"><ele>386.5</ele><time>2026-04-26T09:11:53Z</time></trkpt><trkpt lat="37.037325886007125" lon="15.054650996948464"><ele>389.75</ele><time>2026-04-26T09:11:54Z</time></trkpt><trkpt lat="37.03725316753392" lon="15.054789460599839"><ele>393.0</ele><time>2026-04-26T09:11:55Z</time></trkpt><trkpt lat="37.03718455305382" lon="15.054920754223891"><ele>391.0</ele><time>2026-04-26T09:11:56Z</time></trkpt><trkpt lat="37.03711297843197" lon="15.05505636300676"><ele>389.0</ele><time>2026-04-26T09:11:57Z</time></trkpt><trkpt lat="37.037043459917435" lon="15.055192578375085"><ele>387.0</ele><time>2026-04-26T09:11:58Z</time></trkpt><trkpt lat="37.03697775055699" lon="15.055320725548855"><ele>385.0</ele><time>2026-04-26T09:11:59Z</time></trkpt><trkpt lat="37.036911069884084" lon="15.055441480026042"><ele>385.0</ele><time>2026-04-26T09:12:00Z</time></trkpt><trkpt lat="37.03685014974125" lon="15.055556581593038"><ele>385.0</ele><time>2026-04-26T09:12:01Z</time></trkpt><trkpt lat="37.03678843280158" lon="15.055676380470418"><ele>385.0</ele><time>2026-04-26T09:12:02Z</time></trkpt><trkpt lat="37.036733066028276" lon="15.055802730582766"><ele>385.0</ele><time>2026-04-26T09:12:03Z</time></trkpt><trkpt lat="37.03669253917515" lon="15.055917499200037"><ele>385.0</ele><time>2026-04-26T09:12:04Z</time></trkpt><trkpt lat="37.03665866904834" lon="15.056030545194275"><ele>384.4</ele><time>2026-04-26T09:12:05Z</time></trkpt><trkpt lat="37.03662167749755" lon="15.056148886002871"><ele>383.8</ele><time>2026-04-26T09:12:06Z</time></trkpt><trkpt lat="37.036582346678244" lon="15.05626999150989"><ele>383.20000000000005</ele><time>2026-04-26T09:12:07Z</time></trkpt><trkpt lat="37.036543983469144" lon="15.056394553480214"><ele>382.6</ele><time>2026-04-26T09:12:08Z</time></trkpt><trkpt lat="37.0364978717147" lon="15.056525160714228"><ele>382.0</ele><time>2026-04-26T09:12:09Z</time></trkpt><trkpt lat="37.03645256214926" lon="15.05664644539692"><ele>382.0</ele><time>2026-04-26T09:12:10Z</time></trkpt><trkpt lat="37.03640036827996" lon="15.056760841633334"><ele>382.0</ele><time>2026-04-26T09:12:11Z</time></trkpt><trkpt lat="37.03633589448963" lon="15.056874619170008"><ele>382.0</ele><time>2026-04-26T09:12:12Z</time></trkpt><trkpt lat="37.03627457138903" lon="15.056959502631926"><ele>382.0</ele><time>2026-04-26T09:12:13Z</time></trkpt><trkpt lat="37.036199467805" lon="15.056983603355755"><ele>382.0</ele><time>2026-04-26T09:12:15Z</time></trkpt><trkpt lat="37.03613256992759" lon="15.056910342761858"><ele>382.0</ele><time>2026-04-26T09:12:17Z</time></trkpt><trkpt lat="37.0360859484392" lon="15.056835639165655"><ele>382.0</ele><time>2026-04-26T09:12:18Z</time></trkpt><trkpt lat="37.03597643996426" lon="15.05694117109156"><ele>382.0</ele><time>2026-04-26T09:12:20Z</time></trkpt><trkpt lat="37.03595052007709" lon="15.057043735141983"><ele>382.0</ele><time>2026-04-26T09:12:21Z</time></trkpt><trkpt lat="37.03592866702629" lon="15.057168929029297"><ele>382.0</ele><time>2026-04-26T09:12:22Z</time></trkpt><trkpt lat="37.03589719619733" lon="15.05727885529514"><ele>382.0</ele><time>2026-04-26T09:12:23Z</time></trkpt><trkpt lat="37.03585872791596" lon="15.057363531159357"><ele>382.0</ele><time>2026-04-26T09:12:25Z</time></trkpt><trkpt lat="37.03575400598903" lon="15.057386483110168"><ele>382.0</ele><time>2026-04-26T09:12:28Z</time></trkpt><trkpt lat="37.03567375326325" lon="15.057435588790252"><ele>382.0</ele><time>2026-04-26T09:12:29Z</time></trkpt><trkpt lat="37.03560628623503" lon="15.05753923135074"><ele>382.0</ele><time>2026-04-26T09:12:30Z</time></trkpt><trkpt lat="37.035536853883805" lon="15.057673831153013"><ele>384.0</ele><time>2026-04-26T09:12:31Z</time></trkpt><trkpt lat="37.03546525137488" lon="15.057805186077523"><ele>386.0</ele><time>2026-04-26T09:12:32Z</time></trkpt><trkpt lat="37.03538191967405" lon="15.057934713230901"><ele>388.0</ele><time>2026-04-26T09:12:33Z</time></trkpt><trkpt lat="37.035298319483324" lon="15.05805981750729"><ele>390.0</ele><time>2026-04-26T09:12:34Z</time></trkpt><trkpt lat="37.035228309487195" lon="15.058173769091988"><ele>390.0</ele><time>2026-04-26T09:12:35Z</time></trkpt><trkpt lat="37.03516425620675" lon="15.058283292574822"><ele>390.0</ele><time>2026-04-26T09:12:36Z</time></trkpt><trkpt lat="37.035106645452075" lon="15.058372963232214"><ele>390.0</ele><time>2026-04-26T09:12:37Z</time></trkpt><trkpt lat="37.03506273814495" lon="15.058448278260782"><ele>390.0</ele><time>2026-04-26T09:12:38Z</time></trkpt><trkpt lat="37.03498799912328" lon="15.058570696268859"><ele>390.0</ele><time>2026-04-26T09:12:40Z</time></trkpt><trkpt lat="37.03494692072143" lon="15.058635617646495"><ele>390.4</ele><time>2026-04-26T09:12:41Z</time></trkpt><trkpt lat="37.03489812772161" lon="15.058712163694862"><ele>390.8</ele><time>2026-04-26T09:12:42Z</time></trkpt><trkpt lat="37.03484661553618" lon="15.058796270214511"><ele>391.20000000000005</ele><time>2026-04-26T09:12:43Z</time></trkpt><trkpt lat="37.0347859526854" lon="15.058899827857617"><ele>391.6</ele><time>2026-04-26T09:12:44Z</time></trkpt><trkpt lat="37.03472034931077" lon="15.058998819390883"><ele>392.0</ele><time>2026-04-26T09:12:45Z</time></trkpt><trkpt lat="37.034653021034565" lon="15.059102504057297"><ele>390.8</ele><time>2026-04-26T09:12:46Z</time></trkpt><trkpt lat="37.03459255268381" lon="15.059209627603316"><ele>389.6</ele><time>2026-04-26T09:12:47Z</time></trkpt><trkpt lat="37.03452678858015" lon="15.059310782561875"><ele>388.40000000000003</ele><time>2026-04-26T09:12:48Z</time></trkpt><trkpt lat="37.03446359303193" lon="15.059418627649753"><ele>387.20000000000005</ele><time>2026-04-26T09:12:49Z</time></trkpt><trkpt lat="37.034399083855654" lon="15.059522011142622"><ele>386.0</ele><time>2026-04-26T09:12:50Z</time></trkpt><trkpt lat="37.03433195364031" lon="15.059643992348562"><ele>386.0</ele><time>2026-04-26T09:12:51Z</time></trkpt><trkpt lat="37.03426287550586" lon="15.059752073393419"><ele>386.0</ele><time>2026-04-26T09:12:52.001Z</time></trkpt><trkpt lat="37.03419843105244" lon="15.05985432248364"><ele>386.0</ele><time>2026-04-26T09:12:53.001Z</time></trkpt><trkpt lat="37.034132493252145" lon="15.059964559881733"><ele>386.0</ele><time>2026-04-26T09:12:54.001Z</time></trkpt><trkpt lat="37.03406746701793" lon="15.06006407117111"><ele>386.0</ele><time>2026-04-26T09:12:55.001Z</time></trkpt><trkpt lat="37.034002261752384" lon="15.060175747930307"><ele>386.6</ele><time>2026-04-26T09:12:56.001Z</time></trkpt><trkpt lat="37.03393156722336" lon="15.06029160903731"><ele>387.20000000000005</ele><time>2026-04-26T09:12:57.001Z</time></trkpt><trkpt lat="37.03387313493937" lon="15.06039251505382"><ele>387.79999999999995</ele><time>2026-04-26T09:12:58.001Z</time></trkpt><trkpt lat="37.03381491514116" lon="15.060486883232677"><ele>388.4</ele><time>2026-04-26T09:12:59.001Z</time></trkpt><trkpt lat="37.033754581349186" lon="15.060587118714812"><ele>389.0</ele><time>2026-04-26T09:13:00.001Z</time></trkpt><trkpt lat="37.03369782024603" lon="15.06068351730303"><ele>387.79999999999995</ele><time>2026-04-26T09:13:01.001Z</time></trkpt><trkpt lat="37.033640503112494" lon="15.060783875796165"><ele>386.59999999999997</ele><time>2026-04-26T09:13:02.001Z</time></trkpt><trkpt lat="37.03358320627757" lon="15.060876993580921"><ele>385.4</ele><time>2026-04-26T09:13:03.001Z</time></trkpt><trkpt lat="37.033526965918306" lon="15.060971635381083"><ele>384.2</ele><time>2026-04-26T09:13:04.001Z</time></trkpt><trkpt lat="37.03346427914059" lon="15.061068693129718"><ele>383.0</ele><time>2026-04-26T09:13:05.001Z</time></trkpt><trkpt lat="37.03340447576654" lon="15.061161410157597"><ele>383.0</ele><time>2026-04-26T09:13:06.001Z</time></trkpt><trkpt lat="37.0333423443861" lon="15.061258206459803"><ele>383.0</ele><time>2026-04-26T09:13:07.001Z</time></trkpt><trkpt lat="37.033280897168744" lon="15.061360299430927"><ele>383.0</ele><time>2026-04-26T09:13:08.001Z</time></trkpt><trkpt lat="37.03321760950961" lon="15.061468038587826"><ele>383.0</ele><time>2026-04-26T09:13:09.001Z</time></trkpt><trkpt lat="37.03315927927948" lon="15.06156539473409"><ele>383.0</ele><time>2026-04-26T09:13:10.001Z</time></trkpt><trkpt lat="37.03309863257908" lon="15.061663716466619"><ele>383.59999999999997</ele><time>2026-04-26T09:13:11.001Z</time></trkpt><trkpt lat="37.033041119528555" lon="15.061755117904985"><ele>384.2</ele><time>2026-04-26T09:13:12.001Z</time></trkpt><trkpt lat="37.0329802439811" lon="15.061842244534168"><ele>384.8</ele><time>2026-04-26T09:13:13.001Z</time></trkpt><trkpt lat="37.03291646318263" lon="15.061944512737199"><ele>385.4</ele><time>2026-04-26T09:13:14.001Z</time></trkpt><trkpt lat="37.032851073858936" lon="15.062052313088966"><ele>386.0</ele><time>2026-04-26T09:13:15.001Z</time></trkpt><trkpt lat="37.0327937426636" lon="15.062148999976687"><ele>386.0</ele><time>2026-04-26T09:13:16.001Z</time></trkpt><trkpt lat="37.03273893980598" lon="15.062240373931157"><ele>386.0</ele><time>2026-04-26T09:13:17.001Z</time></trkpt><trkpt lat="37.03268131991793" lon="15.06233322485749"><ele>386.0</ele><time>2026-04-26T09:13:18.001Z</time></trkpt><trkpt lat="37.03262192027215" lon="15.062425318581765"><ele>386.0</ele><time>2026-04-26T09:13:19.001Z</time></trkpt><trkpt lat="37.032562352126334" lon="15.062519622425082"><ele>386.0</ele><time>2026-04-26T09:13:20.001Z</time></trkpt><trkpt lat="37.03250645439326" lon="15.062616886726154"><ele>386.99999999999994</ele><time>2026-04-26T09:13:21Z</time></trkpt><trkpt lat="37.03245132880104" lon="15.062708404412462"><ele>388.0</ele><time>2026-04-26T09:13:22Z</time></trkpt><trkpt lat="37.0323933751488" lon="15.062798929048059"><ele>389.0</ele><time>2026-04-26T09:13:23Z</time></trkpt><trkpt lat="37.032340650011285" lon="15.062882659759529"><ele>390.0</ele><time>2026-04-26T09:13:24Z</time></trkpt><trkpt lat="37.03228691024972" lon="15.062966696722471"><ele>390.99999999999994</ele><time>2026-04-26T09:13:25Z</time></trkpt><trkpt lat="37.03223466519669" lon="15.063059830341915"><ele>392.0</ele><time>2026-04-26T09:13:26Z</time></trkpt><trkpt lat="37.03218061435362" lon="15.063148523870854"><ele>392.0</ele><time>2026-04-26T09:13:27Z</time></trkpt><trkpt lat="37.03212189203948" lon="15.063248535386984"><ele>392.0</ele><time>2026-04-26T09:13:28Z</time></trkpt><trkpt lat="37.032065681735794" lon="15.063341281620989"><ele>392.0</ele><time>2026-04-26T09:13:29Z</time></trkpt><trkpt lat="37.03200344277891" lon="15.063433837713838"><ele>392.0</ele><time>2026-04-26T09:13:30Z</time></trkpt><trkpt lat="37.03193830863601" lon="15.063525231454632"><ele>392.0</ele><time>2026-04-26T09:13:31Z</time></trkpt><trkpt lat="37.03187569172186" lon="15.063623143516129"><ele>392.20000000000005</ele><time>2026-04-26T09:13:32Z</time></trkpt><trkpt lat="37.031811176786896" lon="15.063726214209854"><ele>392.4</ele><time>2026-04-26T09:13:33Z</time></trkpt><trkpt lat="37.03174566490067" lon="15.063829635242373"><ele>392.6</ele><time>2026-04-26T09:13:34Z</time></trkpt><trkpt lat="37.03168288052164" lon="15.063933071163186"><ele>392.79999999999995</ele><time>2026-04-26T09:13:35Z</time></trkpt><trkpt lat="37.03161750687176" lon="15.064043704286318"><ele>393.0</ele><time>2026-04-26T09:13:36Z</time></trkpt><trkpt lat="37.03155726577294" lon="15.064137848148363"><ele>391.2</ele><time>2026-04-26T09:13:37Z</time></trkpt><trkpt lat="37.031498319186504" lon="15.064224121736483"><ele>389.4</ele><time>2026-04-26T09:13:38Z</time></trkpt><trkpt lat="37.03143965666567" lon="15.064323885627301"><ele>387.59999999999997</ele><time>2026-04-26T09:13:39Z</time></trkpt><trkpt lat="37.031374135965656" lon="15.064424306637846"><ele>385.79999999999995</ele><time>2026-04-26T09:13:40Z</time></trkpt><trkpt lat="37.031311535795695" lon="15.06453220543907"><ele>384.0</ele><time>2026-04-26T09:13:41Z</time></trkpt><trkpt lat="37.03125115983096" lon="15.064635729939614"><ele>384.0</ele><time>2026-04-26T09:13:42Z</time></trkpt><trkpt lat="37.03119675010344" lon="15.064726923174957"><ele>384.0</ele><time>2026-04-26T09:13:43Z</time></trkpt><trkpt lat="37.0311458865648" lon="15.064815377586035"><ele>384.0</ele><time>2026-04-26T09:13:44Z</time></trkpt><trkpt lat="37.03109652509719" lon="15.06490032128624"><ele>384.0</ele><time>2026-04-26T09:13:45Z</time></trkpt><trkpt lat="37.03103630144184" lon="15.064995194591571"><ele>384.0</ele><time>2026-04-26T09:13:46Z</time></trkpt><trkpt lat="37.030981263557294" lon="15.065073821071632"><ele>384.0</ele><time>2026-04-26T09:13:47Z</time></trkpt><trkpt lat="37.03093162521819" lon="15.065161981978598"><ele>384.6</ele><time>2026-04-26T09:13:48Z</time></trkpt><trkpt lat="37.030866715052404" lon="15.065259553731938"><ele>385.2</ele><time>2026-04-26T09:13:49Z</time></trkpt><trkpt lat="37.03080526397289" lon="15.06536224729785"><ele>385.8</ele><time>2026-04-26T09:13:50Z</time></trkpt><trkpt lat="37.03073962355737" lon="15.065467777958538"><ele>386.40000000000003</ele><time>2026-04-26T09:13:51Z</time></trkpt><trkpt lat="37.03068060620339" lon="15.065569468299994"><ele>387.0</ele><time>2026-04-26T09:13:52Z</time></trkpt><trkpt lat="37.03061672925141" lon="15.065671037019861"><ele>387.0</ele><time>2026-04-26T09:13:53Z</time></trkpt><trkpt lat="37.03056085955099" lon="15.06576847410545"><ele>387.0</ele><time>2026-04-26T09:13:54Z</time></trkpt><trkpt lat="37.03050197083776" lon="15.06586399795496"><ele>387.0</ele><time>2026-04-26T09:13:55Z</time></trkpt><trkpt lat="37.03044216805281" lon="15.0659671978187"><ele>387.0</ele><time>2026-04-26T09:13:56Z</time></trkpt><trkpt lat="37.03038008210301" lon="15.066063395965461"><ele>387.0</ele><time>2026-04-26T09:13:57Z</time></trkpt><trkpt lat="37.03032180543679" lon="15.066156228694618"><ele>385.6666666666667</ele><time>2026-04-26T09:13:58Z</time></trkpt><trkpt lat="37.0302644456133" lon="15.066249896054591"><ele>384.3333333333333</ele><time>2026-04-26T09:13:59Z</time></trkpt><trkpt lat="37.030212542684936" lon="15.066338720828654"><ele>383.0</ele><time>2026-04-26T09:14:00Z</time></trkpt><trkpt lat="37.030162383443354" lon="15.066418997345645"><ele>381.66666666666663</ele><time>2026-04-26T09:14:01Z</time></trkpt><trkpt lat="37.03011452574048" lon="15.066498607184998"><ele>380.3333333333333</ele><time>2026-04-26T09:14:02Z</time></trkpt><trkpt lat="37.03005568427788" lon="15.066587332683588"><ele>379.0</ele><time>2026-04-26T09:14:03Z</time></trkpt><trkpt lat="37.029993108009215" lon="15.06668052096715"><ele>378.6</ele><time>2026-04-26T09:14:04Z</time></trkpt><trkpt lat="37.029928886304" lon="15.06678293631954"><ele>378.2</ele><time>2026-04-26T09:14:05Z</time></trkpt><trkpt lat="37.02986581355915" lon="15.066886722613942"><ele>377.8</ele><time>2026-04-26T09:14:06Z</time></trkpt><trkpt lat="37.02980270985562" lon="15.066994223025553"><ele>377.40000000000003</ele><time>2026-04-26T09:14:07Z</time></trkpt><trkpt lat="37.029740329149305" lon="15.067095837449642"><ele>377.0</ele><time>2026-04-26T09:14:08Z</time></trkpt><trkpt lat="37.02968367033927" lon="15.067186476616385"><ele>377.0</ele><time>2026-04-26T09:14:09Z</time></trkpt><trkpt lat="37.029630605884016" lon="15.06727226011465"><ele>377.0</ele><time>2026-04-26T09:14:10Z</time></trkpt><trkpt lat="37.029582282148596" lon="15.067359870588549"><ele>377.0</ele><time>2026-04-26T09:14:11Z</time></trkpt><trkpt lat="37.02953230073432" lon="15.067435261096843"><ele>377.0</ele><time>2026-04-26T09:14:12Z</time></trkpt><trkpt lat="37.02947817016264" lon="15.067518278503453"><ele>377.0</ele><time>2026-04-26T09:14:13Z</time></trkpt><trkpt lat="37.02942598515487" lon="15.067603738649701"><ele>377.0</ele><time>2026-04-26T09:14:14Z</time></trkpt><trkpt lat="37.02936810110754" lon="15.067694257822673"><ele>376.6</ele><time>2026-04-26T09:14:15Z</time></trkpt><trkpt lat="37.029309064232834" lon="15.067788138557825"><ele>376.20000000000005</ele><time>2026-04-26T09:14:16Z</time></trkpt><trkpt lat="37.02924970914471" lon="15.067884414421309"><ele>375.8</ele><time>2026-04-26T09:14:17Z</time></trkpt><trkpt lat="37.02918721578409" lon="15.067984472742193"><ele>375.4</ele><time>2026-04-26T09:14:18Z</time></trkpt><trkpt lat="37.02913461895232" lon="15.06807147406935"><ele>375.0</ele><time>2026-04-26T09:14:19Z</time></trkpt><trkpt lat="37.02908422890869" lon="15.06815880671743"><ele>375.0</ele><time>2026-04-26T09:14:20Z</time></trkpt><trkpt lat="37.029031306603414" lon="15.068247431819803"><ele>375.0</ele><time>2026-04-26T09:14:21Z</time></trkpt><trkpt lat="37.028973636417945" lon="15.068332681913814"><ele>375.0</ele><time>2026-04-26T09:14:22Z</time></trkpt><trkpt lat="37.028908560716346" lon="15.068429522250552"><ele>375.0</ele><time>2026-04-26T09:14:23Z</time></trkpt><trkpt lat="37.02885221949944" lon="15.068527819723599"><ele>375.0</ele><time>2026-04-26T09:14:24Z</time></trkpt><trkpt lat="37.02879601739638" lon="15.068622363020046"><ele>374.0</ele><time>2026-04-26T09:14:25Z</time></trkpt><trkpt lat="37.0287362716927" lon="15.068718490895385"><ele>373.0</ele><time>2026-04-26T09:14:26Z</time></trkpt><trkpt lat="37.02867739894099" lon="15.068816495446756"><ele>372.0</ele><time>2026-04-26T09:14:27Z</time></trkpt><trkpt lat="37.028611647238236" lon="15.068914179230955"><ele>371.0</ele><time>2026-04-26T09:14:28Z</time></trkpt><trkpt lat="37.02855039701662" lon="15.069014301575407"><ele>370.0</ele><time>2026-04-26T09:14:29Z</time></trkpt><trkpt lat="37.02849385253874" lon="15.069104023248775"><ele>369.8</ele><time>2026-04-26T09:14:30Z</time></trkpt><trkpt lat="37.0284363846357" lon="15.069198405680565"><ele>369.6</ele><time>2026-04-26T09:14:31Z</time></trkpt><trkpt lat="37.028376463125255" lon="15.069296056859129"><ele>369.4</ele><time>2026-04-26T09:14:32Z</time></trkpt><trkpt lat="37.0283231879916" lon="15.069385075957436"><ele>369.2</ele><time>2026-04-26T09:14:33Z</time></trkpt><trkpt lat="37.02826810915836" lon="15.069475366736286"><ele>369.0</ele><time>2026-04-26T09:14:34Z</time></trkpt><trkpt lat="37.02821376915367" lon="15.06955709933602"><ele>369.0</ele><time>2026-04-26T09:14:35Z</time></trkpt><trkpt lat="37.02816095487248" lon="15.069639476178176"><ele>369.0</ele><time>2026-04-26T09:14:36Z</time></trkpt><trkpt lat="37.028115789791606" lon="15.069712509384855"><ele>369.0</ele><time>2026-04-26T09:14:37Z</time></trkpt><trkpt lat="37.02805086630929" lon="15.069815739532052"><ele>369.0</ele><time>2026-04-26T09:14:39Z</time></trkpt><trkpt lat="37.02799977835839" lon="15.069892183614863"><ele>369.0</ele><time>2026-04-26T09:14:43Z</time></trkpt><trkpt lat="37.027893334435426" lon="15.069812195325198"><ele>369.0</ele><time>2026-04-26T09:14:46.001Z</time></trkpt><trkpt lat="37.027803258370014" lon="15.06974326770265"><ele>369.0</ele><time>2026-04-26T09:14:48.001Z</time></trkpt><trkpt lat="37.02775630840355" lon="15.069677524176663"><ele>369.0</ele><time>2026-04-26T09:14:49.001Z</time></trkpt><trkpt lat="37.027677220515166" lon="15.069599795337933"><ele>369.0</ele><time>2026-04-26T09:14:50.001Z</time></trkpt><trkpt lat="37.02758281588109" lon="15.069525344542265"><ele>369.0</ele><time>2026-04-26T09:14:51.001Z</time></trkpt><trkpt lat="37.02748968575239" lon="15.069416554230035"><ele>368.8333333333333</ele><time>2026-04-26T09:14:52.001Z</time></trkpt><trkpt lat="37.02739651733298" lon="15.06931862906972"><ele>368.6666666666667</ele><time>2026-04-26T09:14:53.001Z</time></trkpt><trkpt lat="37.02731291810765" lon="15.069251793018525"><ele>368.5</ele><time>2026-04-26T09:14:54.001Z</time></trkpt><trkpt lat="37.02725221901837" lon="15.069202303222605"><ele>368.33333333333337</ele><time>2026-04-26T09:14:55.001Z</time></trkpt><trkpt lat="37.027194118930154" lon="15.069138553682118"><ele>368.1666666666667</ele><time>2026-04-26T09:14:59.001Z</time></trkpt><trkpt lat="37.02712297717227" lon="15.069121504516994"><ele>368.0</ele><time>2026-04-26T09:15:00.001Z</time></trkpt><trkpt lat="37.02706468876708" lon="15.069083935174897"><ele>367.6666666666667</ele><time>2026-04-26T09:15:03.001Z</time></trkpt><trkpt lat="37.02695122812502" lon="15.069258705186552"><ele>367.3333333333333</ele><time>2026-04-26T09:15:08.001Z</time></trkpt><trkpt lat="37.026907073126736" lon="15.069408954095877"><ele>367.0</ele><time>2026-04-26T09:15:09.001Z</time></trkpt><trkpt lat="37.02686692400968" lon="15.069612901495264"><ele>367.0</ele><time>2026-04-26T09:15:10.001Z</time></trkpt><trkpt lat="37.026833514618986" lon="15.069868667628837"><ele>367.0</ele><time>2026-04-26T09:15:11.001Z</time></trkpt><trkpt lat="37.02678054305543" lon="15.07015166250184"><ele>367.0</ele><time>2026-04-26T09:15:12.001Z</time></trkpt><trkpt lat="37.0267211671597" lon="15.07040653416587"><ele>366.3333333333333</ele><time>2026-04-26T09:15:13.001Z</time></trkpt><trkpt lat="37.026670714591" lon="15.070647015817393"><ele>365.6666666666667</ele><time>2026-04-26T09:15:14.001Z</time></trkpt><trkpt lat="37.02662560069239" lon="15.07086685272094"><ele>365.0</ele><time>2026-04-26T09:15:15.001Z</time></trkpt><trkpt lat="37.026580639526905" lon="15.071111087557304"><ele>364.6666666666667</ele><time>2026-04-26T09:15:16.001Z</time></trkpt><trkpt lat="37.02653875234009" lon="15.071333255882193"><ele>364.3333333333333</ele><time>2026-04-26T09:15:17.001Z</time></trkpt><trkpt lat="37.026496753937" lon="15.071546173888196"><ele>364.0</ele><time>2026-04-26T09:15:18.001Z</time></trkpt><trkpt lat="37.02645313243158" lon="15.071769697676356"><ele>364.0</ele><time>2026-04-26T09:15:19.001Z</time></trkpt><trkpt lat="37.02640968863337" lon="15.07200801248676"><ele>364.0</ele><time>2026-04-26T09:15:20.001Z</time></trkpt><trkpt lat="37.0263665691107" lon="15.072251117374668"><ele>364.0</ele><time>2026-04-26T09:15:21.001Z</time></trkpt><trkpt lat="37.02632533289687" lon="15.07248644900924"><ele>363.66666666666663</ele><time>2026-04-26T09:15:22.001Z</time></trkpt><trkpt lat="37.02629130871002" lon="15.072706670642903"><ele>363.3333333333333</ele><time>2026-04-26T09:15:23.001Z</time></trkpt><trkpt lat="37.02625641116497" lon="15.072914345587042"><ele>363.0</ele><time>2026-04-26T09:15:24.001Z</time></trkpt><trkpt lat="37.026230477401455" lon="15.073125994144622"><ele>362.3333333333333</ele><time>2026-04-26T09:15:25.001Z</time></trkpt><trkpt lat="37.026206738325484" lon="15.073326404800998"><ele>361.66666666666663</ele><time>2026-04-26T09:15:26.001Z</time></trkpt><trkpt lat="37.026185081106355" lon="15.073524994783819"><ele>361.0</ele><time>2026-04-26T09:15:27Z</time></trkpt><trkpt lat="37.026166589501884" lon="15.073711576296343"><ele>361.0</ele><time>2026-04-26T09:15:28Z</time></trkpt><trkpt lat="37.026148378707994" lon="15.073893951630538"><ele>361.0</ele><time>2026-04-26T09:15:29Z</time></trkpt><trkpt lat="37.0261249959714" lon="15.074089452400017"><ele>361.0</ele><time>2026-04-26T09:15:30Z</time></trkpt><trkpt lat="37.02610372560444" lon="15.074292634016238"><ele>359.75</ele><time>2026-04-26T09:15:31Z</time></trkpt><trkpt lat="37.026080101723174" lon="15.07449317142679"><ele>358.5</ele><time>2026-04-26T09:15:32Z</time></trkpt><trkpt lat="37.026064060532335" lon="15.074670000040133"><ele>357.25</ele><time>2026-04-26T09:15:33Z</time></trkpt><trkpt lat="37.026058317046754" lon="15.074809860644026"><ele>356.0</ele><time>2026-04-26T09:15:34Z</time></trkpt><trkpt lat="37.026058875563066" lon="15.074907506545767"><ele>354.5</ele><time>2026-04-26T09:15:35Z</time></trkpt><trkpt lat="37.026052654000004" lon="15.07501972969356"><ele>353.0</ele><time>2026-04-26T09:15:37Z</time></trkpt><trkpt lat="37.02602757132382" lon="15.075179954768851"><ele>351.5</ele><time>2026-04-26T09:15:39Z</time></trkpt><trkpt lat="37.02601585023776" lon="15.075312529247798"><ele>350.0</ele><time>2026-04-26T09:15:40Z</time></trkpt><trkpt lat="37.02600576315955" lon="15.07548758278878"><ele>350.0</ele><time>2026-04-26T09:15:41Z</time></trkpt><trkpt lat="37.02599254424793" lon="15.075723693720706"><ele>350.0</ele><time>2026-04-26T09:15:42Z</time></trkpt><trkpt lat="37.02597689399217" lon="15.075978604007021"><ele>350.0</ele><time>2026-04-26T09:15:43Z</time></trkpt><trkpt lat="37.02596497678039" lon="15.07627858839782"><ele>343.0</ele><time>2026-04-26T09:15:44Z</time></trkpt><trkpt lat="37.02595294626857" lon="15.076630327495522"><ele>336.0</ele><time>2026-04-26T09:15:45Z</time></trkpt><trkpt lat="37.025936380808446" lon="15.077007938903213"><ele>336.0</ele><time>2026-04-26T09:15:46Z</time></trkpt><trkpt lat="37.02592138688966" lon="15.077401974319477"><ele>336.0</ele><time>2026-04-26T09:15:47Z</time></trkpt><trkpt lat="37.025907096733995" lon="15.077814162397107"><ele>333.5</ele><time>2026-04-26T09:15:48Z</time></trkpt><trkpt lat="37.0258960251694" lon="15.078223537865158"><ele>331.0</ele><time>2026-04-26T09:15:49Z</time></trkpt><trkpt lat="37.02588693646747" lon="15.078595881409203"><ele>329.5</ele><time>2026-04-26T09:15:50Z</time></trkpt><trkpt lat="37.025875723276236" lon="15.078947935691762"><ele>328.0</ele><time>2026-04-26T09:15:51Z</time></trkpt><trkpt lat="37.02586324024229" lon="15.079303267794018"><ele>325.5</ele><time>2026-04-26T09:15:52Z</time></trkpt><trkpt lat="37.025853311101415" lon="15.07965436317447"><ele>323.0</ele><time>2026-04-26T09:15:53Z</time></trkpt><trkpt lat="37.025842097437064" lon="15.080009231697558"><ele>321.0</ele><time>2026-04-26T09:15:54Z</time></trkpt><trkpt lat="37.02582695791579" lon="15.080359984942588"><ele>319.0</ele><time>2026-04-26T09:15:55Z</time></trkpt><trkpt lat="37.025813960439564" lon="15.080715164461887"><ele>325.0</ele><time>2026-04-26T09:15:56Z</time></trkpt><trkpt lat="37.02580276280807" lon="15.08107541379496"><ele>331.0</ele><time>2026-04-26T09:15:57Z</time></trkpt><trkpt lat="37.02579074131049" lon="15.081439671551651"><ele>329.0</ele><time>2026-04-26T09:15:58Z</time></trkpt><trkpt lat="37.02577662598693" lon="15.081805430557957"><ele>327.0</ele><time>2026-04-26T09:15:59Z</time></trkpt><trkpt lat="37.0257649892478" lon="15.082169810425215"><ele>326.0</ele><time>2026-04-26T09:16:00Z</time></trkpt><trkpt lat="37.02575190365493" lon="15.082530942169395"><ele>325.0</ele><time>2026-04-26T09:16:01Z</time></trkpt><trkpt lat="37.02574038096999" lon="15.082872250776138"><ele>325.0</ele><time>2026-04-26T09:16:02Z</time></trkpt><trkpt lat="37.02573057800496" lon="15.083186040829029"><ele>325.0</ele><time>2026-04-26T09:16:03Z</time></trkpt><trkpt lat="37.02572150122041" lon="15.083481794704797"><ele>326.3333333333333</ele><time>2026-04-26T09:16:04Z</time></trkpt><trkpt lat="37.02570988963234" lon="15.083761809300725"><ele>327.6666666666667</ele><time>2026-04-26T09:16:05Z</time></trkpt><trkpt lat="37.02570128626271" lon="15.08404075820609"><ele>329.0</ele><time>2026-04-26T09:16:06Z</time></trkpt><trkpt lat="37.02569735775507" lon="15.08432435842522"><ele>330.0</ele><time>2026-04-26T09:16:07Z</time></trkpt><trkpt lat="37.02570288034689" lon="15.084614436757166"><ele>331.0</ele><time>2026-04-26T09:16:08Z</time></trkpt><trkpt lat="37.025725219140135" lon="15.084921777236682"><ele>330.0</ele><time>2026-04-26T09:16:09Z</time></trkpt><trkpt lat="37.025765529381864" lon="15.085231744455152"><ele>329.0</ele><time>2026-04-26T09:16:10Z</time></trkpt><trkpt lat="37.02581355537989" lon="15.085524503843178"><ele>322.33333333333337</ele><time>2026-04-26T09:16:11Z</time></trkpt><trkpt lat="37.02585335573902" lon="15.085791905978331"><ele>315.6666666666667</ele><time>2026-04-26T09:16:12Z</time></trkpt><trkpt lat="37.02587986747914" lon="15.086048447580605"><ele>309.0</ele><time>2026-04-26T09:16:13Z</time></trkpt><trkpt lat="37.025907934871256" lon="15.086313885226197"><ele>309.0</ele><time>2026-04-26T09:16:14Z</time></trkpt><trkpt lat="37.025931870780425" lon="15.086583072922116"><ele>309.0</ele><time>2026-04-26T09:16:15Z</time></trkpt><trkpt lat="37.02593884646701" lon="15.086858718702663"><ele>309.0</ele><time>2026-04-26T09:16:16Z</time></trkpt><trkpt lat="37.025918538842056" lon="15.087136985269145"><ele>309.0</ele><time>2026-04-26T09:16:17Z</time></trkpt><trkpt lat="37.02587920480142" lon="15.087416650171292"><ele>309.0</ele><time>2026-04-26T09:16:18Z</time></trkpt><trkpt lat="37.02583772023663" lon="15.08769330139592"><ele>314.5</ele><time>2026-04-26T09:16:19Z</time></trkpt><trkpt lat="37.025802351150155" lon="15.087975499523614"><ele>320.0</ele><time>2026-04-26T09:16:20Z</time></trkpt><trkpt lat="37.02577382612988" lon="15.088258748318461"><ele>318.5</ele><time>2026-04-26T09:16:21Z</time></trkpt><trkpt lat="37.02574664757138" lon="15.088553625278427"><ele>317.0</ele><time>2026-04-26T09:16:22Z</time></trkpt><trkpt lat="37.02572299967682" lon="15.088851961222998"><ele>316.5</ele><time>2026-04-26T09:16:23Z</time></trkpt><trkpt lat="37.02570279736031" lon="15.089184534268552"><ele>316.0</ele><time>2026-04-26T09:16:24Z</time></trkpt><trkpt lat="37.02569057891259" lon="15.089529565809306"><ele>316.0</ele><time>2026-04-26T09:16:25Z</time></trkpt><trkpt lat="37.025681819400255" lon="15.089873574015533"><ele>316.0</ele><time>2026-04-26T09:16:26Z</time></trkpt><trkpt lat="37.0256728182721" lon="15.090201487459831"><ele>316.0</ele><time>2026-04-26T09:16:27Z</time></trkpt><trkpt lat="37.02566378085474" lon="15.090525974789953"><ele>316.0</ele><time>2026-04-26T09:16:28Z</time></trkpt><trkpt lat="37.02565425241045" lon="15.090838387400815"><ele>314.0</ele><time>2026-04-26T09:16:29Z</time></trkpt><trkpt lat="37.02564052554154" lon="15.091153253652656"><ele>312.0</ele><time>2026-04-26T09:16:30Z</time></trkpt><trkpt lat="37.02562503328241" lon="15.09147386012261"><ele>308.5</ele><time>2026-04-26T09:16:31Z</time></trkpt><trkpt lat="37.02561320414896" lon="15.091796402394547"><ele>305.0</ele><time>2026-04-26T09:16:32Z</time></trkpt><trkpt lat="37.02560552702889" lon="15.092123636624994"><ele>303.0</ele><time>2026-04-26T09:16:33Z</time></trkpt><trkpt lat="37.02560140973314" lon="15.092456354432128"><ele>301.0</ele><time>2026-04-26T09:16:34Z</time></trkpt><trkpt lat="37.02560800355609" lon="15.092797931258476"><ele>301.0</ele><time>2026-04-26T09:16:35Z</time></trkpt><trkpt lat="37.02563680312463" lon="15.093152409397316"><ele>301.0</ele><time>2026-04-26T09:16:36Z</time></trkpt><trkpt lat="37.02568282899422" lon="15.093500516675196"><ele>300.5</ele><time>2026-04-26T09:16:37Z</time></trkpt><trkpt lat="37.02573586589602" lon="15.093839839222584"><ele>300.0</ele><time>2026-04-26T09:16:38Z</time></trkpt><trkpt lat="37.025783888936964" lon="15.094181327647034"><ele>293.0</ele><time>2026-04-26T09:16:39Z</time></trkpt><trkpt lat="37.025822628458315" lon="15.094508946529524"><ele>286.0</ele><time>2026-04-26T09:16:40Z</time></trkpt><trkpt lat="37.02585955962288" lon="15.094826752289775"><ele>285.0</ele><time>2026-04-26T09:16:41Z</time></trkpt><trkpt lat="37.02589156899046" lon="15.095129828054839"><ele>284.0</ele><time>2026-04-26T09:16:42Z</time></trkpt><trkpt lat="37.02591213077133" lon="15.095433563796949"><ele>284.0</ele><time>2026-04-26T09:16:43Z</time></trkpt><trkpt lat="37.02591942879696" lon="15.095736052172231"><ele>284.0</ele><time>2026-04-26T09:16:44Z</time></trkpt><trkpt lat="37.02590916603974" lon="15.096037825432674"><ele>283.5</ele><time>2026-04-26T09:16:45.001Z</time></trkpt><trkpt lat="37.02587943238399" lon="15.096347191771063"><ele>283.0</ele><time>2026-04-26T09:16:46.001Z</time></trkpt><trkpt lat="37.025836188488604" lon="15.09665964556103"><ele>289.0</ele><time>2026-04-26T09:16:47.001Z</time></trkpt><trkpt lat="37.025788877391655" lon="15.096976377407012"><ele>295.0</ele><time>2026-04-26T09:16:48.001Z</time></trkpt><trkpt lat="37.02574772706578" lon="15.09730166487234"><ele>292.5</ele><time>2026-04-26T09:16:49.001Z</time></trkpt><trkpt lat="37.02571166558337" lon="15.097629699528424"><ele>290.0</ele><time>2026-04-26T09:16:50.001Z</time></trkpt><trkpt lat="37.0256753619837" lon="15.097960797253474"><ele>287.5</ele><time>2026-04-26T09:16:51.001Z</time></trkpt><trkpt lat="37.02563375133838" lon="15.098292820691833"><ele>285.0</ele><time>2026-04-26T09:16:52.001Z</time></trkpt><trkpt lat="37.02559167817283" lon="15.098626326350379"><ele>285.0</ele><time>2026-04-26T09:16:53.001Z</time></trkpt><trkpt lat="37.02554621842639" lon="15.098954754756459"><ele>285.0</ele><time>2026-04-26T09:16:54.001Z</time></trkpt><trkpt lat="37.02550025341117" lon="15.099279446003319"><ele>283.0</ele><time>2026-04-26T09:16:55.001Z</time></trkpt><trkpt lat="37.025443290480624" lon="15.09959363105325"><ele>281.0</ele><time>2026-04-26T09:16:56.001Z</time></trkpt><trkpt lat="37.02537391029445" lon="15.099891226580935"><ele>281.5</ele><time>2026-04-26T09:16:57.001Z</time></trkpt><trkpt lat="37.02529003594331" lon="15.10018305236942"><ele>282.0</ele><time>2026-04-26T09:16:58.001Z</time></trkpt><trkpt lat="37.02518697081864" lon="15.100470906039597"><ele>283.5</ele><time>2026-04-26T09:16:59.001Z</time></trkpt><trkpt lat="37.02506583776876" lon="15.100757428303472"><ele>285.0</ele><time>2026-04-26T09:17:00.001Z</time></trkpt><trkpt lat="37.024933494879086" lon="15.101034545223854"><ele>285.0</ele><time>2026-04-26T09:17:01.001Z</time></trkpt><trkpt lat="37.024793513334124" lon="15.101315426829231"><ele>285.0</ele><time>2026-04-26T09:17:02.001Z</time></trkpt><trkpt lat="37.024647545425935" lon="15.101579388804756"><ele>281.0</ele><time>2026-04-26T09:17:03.001Z</time></trkpt><trkpt lat="37.0244844545131" lon="15.10183462291523"><ele>277.0</ele><time>2026-04-26T09:17:04.001Z</time></trkpt><trkpt lat="37.0243105177966" lon="15.102078031231043"><ele>278.0</ele><time>2026-04-26T09:17:05.001Z</time></trkpt><trkpt lat="37.02413288864047" lon="15.10231598405262"><ele>279.0</ele><time>2026-04-26T09:17:06.001Z</time></trkpt><trkpt lat="37.023958130644104" lon="15.102559313439349"><ele>275.5</ele><time>2026-04-26T09:17:07.001Z</time></trkpt><trkpt lat="37.023780064134165" lon="15.102806505670378"><ele>272.0</ele><time>2026-04-26T09:17:08.001Z</time></trkpt><trkpt lat="37.02359463238461" lon="15.10305847980508"><ele>268.5</ele><time>2026-04-26T09:17:09.001Z</time></trkpt><trkpt lat="37.0234061011719" lon="15.103314435767745"><ele>265.0</ele><time>2026-04-26T09:17:10.001Z</time></trkpt><trkpt lat="37.02321934493239" lon="15.10356785414629"><ele>265.0</ele><time>2026-04-26T09:17:11.001Z</time></trkpt><trkpt lat="37.023035188106505" lon="15.103824664282504"><ele>265.0</ele><time>2026-04-26T09:17:12.001Z</time></trkpt><trkpt lat="37.022850885668895" lon="15.104084863233636"><ele>263.5</ele><time>2026-04-26T09:17:13.001Z</time></trkpt><trkpt lat="37.02266542990186" lon="15.104348749367801"><ele>262.0</ele><time>2026-04-26T09:17:14.001Z</time></trkpt><trkpt lat="37.0224799724335" lon="15.104610145716054"><ele>262.0</ele><time>2026-04-26T09:17:15.001Z</time></trkpt><trkpt lat="37.022291019577125" lon="15.104872181229064"><ele>262.0</ele><time>2026-04-26T09:17:16.001Z</time></trkpt><trkpt lat="37.02210408752187" lon="15.105129569472528"><ele>260.0</ele><time>2026-04-26T09:17:17.001Z</time></trkpt><trkpt lat="37.02191667886535" lon="15.105388926623297"><ele>258.0</ele><time>2026-04-26T09:17:18.001Z</time></trkpt><trkpt lat="37.02172970271985" lon="15.105650455927236"><ele>257.0</ele><time>2026-04-26T09:17:19.001Z</time></trkpt><trkpt lat="37.02154775254758" lon="15.105910031857587"><ele>256.0</ele><time>2026-04-26T09:17:20.001Z</time></trkpt><trkpt lat="37.02136616589548" lon="15.106167999203352"><ele>256.0</ele><time>2026-04-26T09:17:21.001Z</time></trkpt><trkpt lat="37.02119006601597" lon="15.106422142089828"><ele>256.0</ele><time>2026-04-26T09:17:22.001Z</time></trkpt><trkpt lat="37.02101656689413" lon="15.106673955738646"><ele>254.0</ele><time>2026-04-26T09:17:23.001Z</time></trkpt><trkpt lat="37.020847798673685" lon="15.106931427497083"><ele>252.0</ele><time>2026-04-26T09:17:24.001Z</time></trkpt><trkpt lat="37.02069261763561" lon="15.107199927395104"><ele>251.0</ele><time>2026-04-26T09:17:25.001Z</time></trkpt><trkpt lat="37.02055479048889" lon="15.107484209181541"><ele>250.0</ele><time>2026-04-26T09:17:26.001Z</time></trkpt><trkpt lat="37.02043185779353" lon="15.107780744161538"><ele>250.0</ele><time>2026-04-26T09:17:27.001Z</time></trkpt><trkpt lat="37.02032310696208" lon="15.108088740170325"><ele>250.0</ele><time>2026-04-26T09:17:28.001Z</time></trkpt><trkpt lat="37.02022791084685" lon="15.108399437950052"><ele>248.0</ele><time>2026-04-26T09:17:29.001Z</time></trkpt><trkpt lat="37.020147724567295" lon="15.10872257069031"><ele>246.0</ele><time>2026-04-26T09:17:30.001Z</time></trkpt><trkpt lat="37.02008741299499" lon="15.109051907069643"><ele>245.0</ele><time>2026-04-26T09:17:31.001Z</time></trkpt><trkpt lat="37.020044566485815" lon="15.109384054667494"><ele>244.0</ele><time>2026-04-26T09:17:32.001Z</time></trkpt><trkpt lat="37.02001551883938" lon="15.10971816112926"><ele>244.0</ele><time>2026-04-26T09:17:33Z</time></trkpt><trkpt lat="37.0200035869297" lon="15.11004761348593"><ele>244.0</ele><time>2026-04-26T09:17:34Z</time></trkpt><trkpt lat="37.02000819480353" lon="15.11038274728222"><ele>244.0</ele><time>2026-04-26T09:17:35Z</time></trkpt><trkpt lat="37.02002970730517" lon="15.110715833022809"><ele>244.0</ele><time>2026-04-26T09:17:36Z</time></trkpt><trkpt lat="37.02006109363431" lon="15.111054277300708"><ele>244.0</ele><time>2026-04-26T09:17:37Z</time></trkpt><trkpt lat="37.020102239943434" lon="15.111390438653965"><ele>244.0</ele><time>2026-04-26T09:17:38Z</time></trkpt><trkpt lat="37.02015157136752" lon="15.111731260821896"><ele>242.5</ele><time>2026-04-26T09:17:39Z</time></trkpt><trkpt lat="37.02020671289549" lon="15.112078557782112"><ele>241.0</ele><time>2026-04-26T09:17:40Z</time></trkpt><trkpt lat="37.02026693550836" lon="15.112428303557243"><ele>240.5</ele><time>2026-04-26T09:17:41Z</time></trkpt><trkpt lat="37.0203290562363" lon="15.112777564888686"><ele>240.0</ele><time>2026-04-26T09:17:42Z</time></trkpt><trkpt lat="37.020385773360466" lon="15.113124810338716"><ele>240.0</ele><time>2026-04-26T09:17:43Z</time></trkpt><trkpt lat="37.02043905833753" lon="15.11347444805325"><ele>240.0</ele><time>2026-04-26T09:17:44Z</time></trkpt><trkpt lat="37.02049263039998" lon="15.113817780798989"><ele>239.0</ele><time>2026-04-26T09:17:45Z</time></trkpt><trkpt lat="37.020547099702185" lon="15.114170142317972"><ele>238.0</ele><time>2026-04-26T09:17:46Z</time></trkpt><trkpt lat="37.02060054806023" lon="15.114509345583418"><ele>238.0</ele><time>2026-04-26T09:17:47Z</time></trkpt><trkpt lat="37.020654442588146" lon="15.114850613478445"><ele>238.0</ele><time>2026-04-26T09:17:48Z</time></trkpt><trkpt lat="37.020706774210325" lon="15.115187463208093"><ele>237.0</ele><time>2026-04-26T09:17:49Z</time></trkpt><trkpt lat="37.020758621605474" lon="15.115527688547159"><ele>236.0</ele><time>2026-04-26T09:17:50Z</time></trkpt><trkpt lat="37.020808447126235" lon="15.115857280221759"><ele>235.5</ele><time>2026-04-26T09:17:51Z</time></trkpt><trkpt lat="37.02085975755981" lon="15.116189929342548"><ele>235.0</ele><time>2026-04-26T09:17:52Z</time></trkpt><trkpt lat="37.02091142267425" lon="15.116526470955023"><ele>235.0</ele><time>2026-04-26T09:17:53Z</time></trkpt><trkpt lat="37.02096305837488" lon="15.116869822912788"><ele>235.0</ele><time>2026-04-26T09:17:54Z</time></trkpt><trkpt lat="37.0210172581597" lon="15.117211007301714"><ele>234.0</ele><time>2026-04-26T09:17:55Z</time></trkpt><trkpt lat="37.02107060128326" lon="15.11755385001544"><ele>233.0</ele><time>2026-04-26T09:17:56Z</time></trkpt><trkpt lat="37.02112198152894" lon="15.11789750240278"><ele>234.0</ele><time>2026-04-26T09:17:57Z</time></trkpt><trkpt lat="37.021173426905555" lon="15.118241703533071"><ele>235.0</ele><time>2026-04-26T09:17:58Z</time></trkpt><trkpt lat="37.02122582339599" lon="15.118577229850167"><ele>235.0</ele><time>2026-04-26T09:17:59Z</time></trkpt><trkpt lat="37.02127624948573" lon="15.118889397538751"><ele>235.0</ele><time>2026-04-26T09:18:00Z</time></trkpt><trkpt lat="37.021320994084" lon="15.119201373625133"><ele>236.0</ele><time>2026-04-26T09:18:01Z</time></trkpt><trkpt lat="37.021363781598694" lon="15.11952069895795"><ele>237.0</ele><time>2026-04-26T09:18:02Z</time></trkpt><trkpt lat="37.02140272413176" lon="15.119845426199923"><ele>236.0</ele><time>2026-04-26T09:18:03Z</time></trkpt><trkpt lat="37.02143668893096" lon="15.120177543515096"><ele>235.0</ele><time>2026-04-26T09:18:04Z</time></trkpt><trkpt lat="37.02145274828352" lon="15.12051591744124"><ele>234.5</ele><time>2026-04-26T09:18:05Z</time></trkpt><trkpt lat="37.02144988948912" lon="15.120857938494446"><ele>234.0</ele><time>2026-04-26T09:18:06Z</time></trkpt><trkpt lat="37.02144091310303" lon="15.12120442825596"><ele>234.0</ele><time>2026-04-26T09:18:07Z</time></trkpt><trkpt lat="37.02142299173405" lon="15.12155451089726"><ele>234.0</ele><time>2026-04-26T09:18:08Z</time></trkpt><trkpt lat="37.02139373348484" lon="15.12190625128148"><ele>233.0</ele><time>2026-04-26T09:18:09Z</time></trkpt><trkpt lat="37.0213578117596" lon="15.122262150373233"><ele>232.0</ele><time>2026-04-26T09:18:10Z</time></trkpt><trkpt lat="37.02132167196345" lon="15.122613671649686"><ele>231.5</ele><time>2026-04-26T09:18:11Z</time></trkpt><trkpt lat="37.021294702213204" lon="15.12293807736748"><ele>231.0</ele><time>2026-04-26T09:18:12Z</time></trkpt><trkpt lat="37.021273833609456" lon="15.123230575460445"><ele>230.5</ele><time>2026-04-26T09:18:13Z</time></trkpt><trkpt lat="37.02125049145173" lon="15.123524294116162"><ele>230.0</ele><time>2026-04-26T09:18:14Z</time></trkpt><trkpt lat="37.02122004869836" lon="15.12383475635922"><ele>229.0</ele><time>2026-04-26T09:18:15Z</time></trkpt><trkpt lat="37.02119053759012" lon="15.124141099982019"><ele>228.0</ele><time>2026-04-26T09:18:16Z</time></trkpt><trkpt lat="37.021158259213514" lon="15.124466209692969"><ele>228.0</ele><time>2026-04-26T09:18:17Z</time></trkpt><trkpt lat="37.02112743187781" lon="15.124785068241767"><ele>228.0</ele><time>2026-04-26T09:18:18Z</time></trkpt><trkpt lat="37.021097197063355" lon="15.125111426641695"><ele>227.0</ele><time>2026-04-26T09:18:19Z</time></trkpt><trkpt lat="37.02106758223245" lon="15.125447925320936"><ele>226.0</ele><time>2026-04-26T09:18:20Z</time></trkpt><trkpt lat="37.02103893538681" lon="15.125777959965959"><ele>226.0</ele><time>2026-04-26T09:18:21Z</time></trkpt><trkpt lat="37.021012048480415" lon="15.126108609504946"><ele>226.0</ele><time>2026-04-26T09:18:22Z</time></trkpt><trkpt lat="37.02098667106076" lon="15.126443577154282"><ele>225.0</ele><time>2026-04-26T09:18:23Z</time></trkpt><trkpt lat="37.020958051473905" lon="15.126780654776022"><ele>224.0</ele><time>2026-04-26T09:18:24Z</time></trkpt><trkpt lat="37.02092800740082" lon="15.127110341216234"><ele>223.0</ele><time>2026-04-26T09:18:25Z</time></trkpt><trkpt lat="37.02089765389076" lon="15.127444880576176"><ele>222.0</ele><time>2026-04-26T09:18:26Z</time></trkpt><trkpt lat="37.020869110336044" lon="15.127777972390879"><ele>222.0</ele><time>2026-04-26T09:18:27Z</time></trkpt><trkpt lat="37.02084092626087" lon="15.128111621388326"><ele>222.0</ele><time>2026-04-26T09:18:28Z</time></trkpt><trkpt lat="37.02081180288012" lon="15.128441623527905"><ele>220.0</ele><time>2026-04-26T09:18:29Z</time></trkpt><trkpt lat="37.02078118581707" lon="15.128771751965946"><ele>218.0</ele><time>2026-04-26T09:18:30Z</time></trkpt><trkpt lat="37.02074527841726" lon="15.12909825314721"><ele>216.5</ele><time>2026-04-26T09:18:31Z</time></trkpt><trkpt lat="37.02071546803361" lon="15.129430499419744"><ele>215.0</ele><time>2026-04-26T09:18:32Z</time></trkpt><trkpt lat="37.02068813905174" lon="15.129760556995354"><ele>214.0</ele><time>2026-04-26T09:18:33Z</time></trkpt><trkpt lat="37.02066113122922" lon="15.130090674110937"><ele>213.0</ele><time>2026-04-26T09:18:34Z</time></trkpt><trkpt lat="37.020636961635425" lon="15.130418835656602"><ele>213.0</ele><time>2026-04-26T09:18:35Z</time></trkpt><trkpt lat="37.020615789091" lon="15.130748037543341"><ele>213.0</ele><time>2026-04-26T09:18:36Z</time></trkpt><trkpt lat="37.02059932674297" lon="15.13107459088515"><ele>213.0</ele><time>2026-04-26T09:18:37Z</time></trkpt><trkpt lat="37.02058566318054" lon="15.13140292717648"><ele>213.0</ele><time>2026-04-26T09:18:38Z</time></trkpt><trkpt lat="37.0205710005563" lon="15.13172827942165"><ele>213.0</ele><time>2026-04-26T09:18:39Z</time></trkpt><trkpt lat="37.02055186786426" lon="15.13205812205276"><ele>213.0</ele><time>2026-04-26T09:18:40Z</time></trkpt><trkpt lat="37.020537297923845" lon="15.132379678428629"><ele>212.5</ele><time>2026-04-26T09:18:41Z</time></trkpt><trkpt lat="37.0205244926047" lon="15.132703970241613"><ele>212.0</ele><time>2026-04-26T09:18:42Z</time></trkpt><trkpt lat="37.02051342299232" lon="15.133030701606897"><ele>211.5</ele><time>2026-04-26T09:18:43Z</time></trkpt><trkpt lat="37.02050882851691" lon="15.133359476179276"><ele>211.0</ele><time>2026-04-26T09:18:44Z</time></trkpt><trkpt lat="37.02050601630115" lon="15.133683318860149"><ele>211.0</ele><time>2026-04-26T09:18:45Z</time></trkpt><trkpt lat="37.020504591046794" lon="15.134007818181466"><ele>211.0</ele><time>2026-04-26T09:18:46Z</time></trkpt><trkpt lat="37.020503398911416" lon="15.1343274439189"><ele>210.0</ele><time>2026-04-26T09:18:47Z</time></trkpt><trkpt lat="37.020500115604406" lon="15.13464763619204"><ele>209.0</ele><time>2026-04-26T09:18:48Z</time></trkpt><trkpt lat="37.020498103480065" lon="15.134964151659132"><ele>208.5</ele><time>2026-04-26T09:18:49Z</time></trkpt><trkpt lat="37.02049465123632" lon="15.135283203329148"><ele>208.0</ele><time>2026-04-26T09:18:50Z</time></trkpt><trkpt lat="37.020490951557015" lon="15.135595954380197"><ele>208.5</ele><time>2026-04-26T09:18:51.001Z</time></trkpt><trkpt lat="37.02048706542468" lon="15.135913368466618"><ele>209.0</ele><time>2026-04-26T09:18:52.001Z</time></trkpt><trkpt lat="37.02048517519556" lon="15.136236853853763"><ele>209.0</ele><time>2026-04-26T09:18:53.001Z</time></trkpt><trkpt lat="37.02048702293196" lon="15.136558804399714"><ele>209.0</ele><time>2026-04-26T09:18:54.001Z</time></trkpt><trkpt lat="37.02049219467665" lon="15.136872678641337"><ele>209.0</ele><time>2026-04-26T09:18:55.001Z</time></trkpt><trkpt lat="37.02049808068002" lon="15.137190849565666"><ele>209.0</ele><time>2026-04-26T09:18:56.001Z</time></trkpt><trkpt lat="37.020512462538285" lon="15.137496312829835"><ele>211.0</ele><time>2026-04-26T09:18:57.001Z</time></trkpt><trkpt lat="37.02051539531579" lon="15.13780285271056"><ele>213.0</ele><time>2026-04-26T09:18:58.001Z</time></trkpt><trkpt lat="37.02052119222071" lon="15.138107087368933"><ele>214.0</ele><time>2026-04-26T09:18:59.001Z</time></trkpt><trkpt lat="37.020528554464946" lon="15.138406947273946"><ele>215.0</ele><time>2026-04-26T09:19:00.001Z</time></trkpt><trkpt lat="37.02054449519396" lon="15.13870447635537"><ele>215.0</ele><time>2026-04-26T09:19:01.001Z</time></trkpt><trkpt lat="37.02057231722667" lon="15.13900731588537"><ele>215.0</ele><time>2026-04-26T09:19:02.001Z</time></trkpt><trkpt lat="37.02061387731073" lon="15.139303964831482"><ele>214.5</ele><time>2026-04-26T09:19:03.001Z</time></trkpt><trkpt lat="37.020665638758665" lon="15.139605252547335"><ele>214.0</ele><time>2026-04-26T09:19:04.001Z</time></trkpt><trkpt lat="37.02071728753711" lon="15.139901150251852"><ele>213.5</ele><time>2026-04-26T09:19:05.001Z</time></trkpt><trkpt lat="37.02077070013745" lon="15.140204178190348"><ele>213.0</ele><time>2026-04-26T09:19:06.001Z</time></trkpt><trkpt lat="37.02082342691259" lon="15.14051211665576"><ele>209.5</ele><time>2026-04-26T09:19:07.001Z</time></trkpt><trkpt lat="37.02087310066941" lon="15.140821088640651"><ele>206.0</ele><time>2026-04-26T09:19:08.001Z</time></trkpt><trkpt lat="37.02092200792107" lon="15.141126088591545"><ele>206.0</ele><time>2026-04-26T09:19:09.001Z</time></trkpt><trkpt lat="37.02097426260271" lon="15.141432049108296"><ele>206.0</ele><time>2026-04-26T09:19:10.001Z</time></trkpt><trkpt lat="37.021028881608075" lon="15.141743307797434"><ele>204.0</ele><time>2026-04-26T09:19:11.001Z</time></trkpt><trkpt lat="37.02107289872272" lon="15.142055118456222"><ele>202.0</ele><time>2026-04-26T09:19:12.001Z</time></trkpt><trkpt lat="37.021100099676595" lon="15.142364085129254"><ele>200.0</ele><time>2026-04-26T09:19:13.001Z</time></trkpt><trkpt lat="37.02111620992652" lon="15.142675321279315"><ele>198.0</ele><time>2026-04-26T09:19:14.001Z</time></trkpt><trkpt lat="37.02111845064946" lon="15.14298657912365"><ele>196.5</ele><time>2026-04-26T09:19:15.001Z</time></trkpt><trkpt lat="37.021110096755216" lon="15.143296062378216"><ele>195.0</ele><time>2026-04-26T09:19:16.001Z</time></trkpt><trkpt lat="37.02109258340387" lon="15.14360771559685"><ele>195.0</ele><time>2026-04-26T09:19:17.001Z</time></trkpt><trkpt lat="37.02106245737359" lon="15.143919802008817"><ele>195.0</ele><time>2026-04-26T09:19:18.001Z</time></trkpt><trkpt lat="37.02103265008783" lon="15.144228772630212"><ele>193.5</ele><time>2026-04-26T09:19:19.001Z</time></trkpt><trkpt lat="37.02100077081709" lon="15.144537071909872"><ele>192.0</ele><time>2026-04-26T09:19:20.001Z</time></trkpt><trkpt lat="37.02097134285892" lon="15.14483776756101"><ele>191.0</ele><time>2026-04-26T09:19:21.001Z</time></trkpt><trkpt lat="37.02094322757584" lon="15.14514196854572"><ele>190.0</ele><time>2026-04-26T09:19:22.001Z</time></trkpt><trkpt lat="37.02091635423569" lon="15.145444686139983"><ele>189.0</ele><time>2026-04-26T09:19:23.001Z</time></trkpt><trkpt lat="37.02088856563618" lon="15.145741408801722"><ele>188.0</ele><time>2026-04-26T09:19:24.001Z</time></trkpt><trkpt lat="37.02085820255717" lon="15.146037980305525"><ele>188.0</ele><time>2026-04-26T09:19:25.001Z</time></trkpt><trkpt lat="37.02083037964331" lon="15.146334438947251"><ele>188.0</ele><time>2026-04-26T09:19:26.001Z</time></trkpt><trkpt lat="37.02080397093604" lon="15.146630194512083"><ele>188.0</ele><time>2026-04-26T09:19:27.001Z</time></trkpt><trkpt lat="37.020781363326634" lon="15.146928868318897"><ele>188.0</ele><time>2026-04-26T09:19:28.001Z</time></trkpt><trkpt lat="37.02076583752324" lon="15.147230135392645"><ele>189.0</ele><time>2026-04-26T09:19:29.001Z</time></trkpt><trkpt lat="37.020757267862756" lon="15.147526306228238"><ele>190.0</ele><time>2026-04-26T09:19:30.001Z</time></trkpt><trkpt lat="37.02076233512039" lon="15.147834827440418"><ele>190.0</ele><time>2026-04-26T09:19:31.001Z</time></trkpt><trkpt lat="37.02077940456984" lon="15.148134147928804"><ele>190.0</ele><time>2026-04-26T09:19:32.001Z</time></trkpt><trkpt lat="37.020795884186434" lon="15.148438694159548"><ele>189.0</ele><time>2026-04-26T09:19:33.001Z</time></trkpt><trkpt lat="37.02080923414072" lon="15.148744170745834"><ele>188.0</ele><time>2026-04-26T09:19:34.001Z</time></trkpt><trkpt lat="37.02082182552275" lon="15.149048939002665"><ele>181.5</ele><time>2026-04-26T09:19:35.001Z</time></trkpt><trkpt lat="37.02083499207202" lon="15.149354990346673"><ele>175.0</ele><time>2026-04-26T09:19:36.001Z</time></trkpt><trkpt lat="37.02084777563637" lon="15.149667246932216"><ele>174.0</ele><time>2026-04-26T09:19:37.001Z</time></trkpt><trkpt lat="37.02085989864209" lon="15.14997716403198"><ele>173.0</ele><time>2026-04-26T09:19:38.001Z</time></trkpt><trkpt lat="37.02087226353409" lon="15.150294953404213"><ele>173.0</ele><time>2026-04-26T09:19:39Z</time></trkpt><trkpt lat="37.0208837193814" lon="15.150595772760152"><ele>173.0</ele><time>2026-04-26T09:19:40Z</time></trkpt><trkpt lat="37.02089799372086" lon="15.15091524709215"><ele>170.5</ele><time>2026-04-26T09:19:41Z</time></trkpt><trkpt lat="37.02091102266682" lon="15.151223324997119"><ele>168.0</ele><time>2026-04-26T09:19:42Z</time></trkpt><trkpt lat="37.020923466832265" lon="15.15153785665696"><ele>166.5</ele><time>2026-04-26T09:19:43Z</time></trkpt><trkpt lat="37.02093595240092" lon="15.151857857661106"><ele>165.0</ele><time>2026-04-26T09:19:44Z</time></trkpt><trkpt lat="37.02094824041004" lon="15.152168331483352"><ele>163.0</ele><time>2026-04-26T09:19:45Z</time></trkpt><trkpt lat="37.02096104745682" lon="15.1524805991492"><ele>161.0</ele><time>2026-04-26T09:19:46Z</time></trkpt><trkpt lat="37.0209724658822" lon="15.152794022786699"><ele>161.0</ele><time>2026-04-26T09:19:47Z</time></trkpt><trkpt lat="37.0209816219882" lon="15.153100816537183"><ele>161.0</ele><time>2026-04-26T09:19:48Z</time></trkpt><trkpt lat="37.02099151369574" lon="15.153408878801471"><ele>161.5</ele><time>2026-04-26T09:19:49Z</time></trkpt><trkpt lat="37.02100427849993" lon="15.153723710676992"><ele>162.0</ele><time>2026-04-26T09:19:50Z</time></trkpt><trkpt lat="37.021014894065196" lon="15.154031007289491"><ele>161.0</ele><time>2026-04-26T09:19:51Z</time></trkpt><trkpt lat="37.02102731339956" lon="15.15433723849376"><ele>160.0</ele><time>2026-04-26T09:19:52Z</time></trkpt><trkpt lat="37.021038411084824" lon="15.154640088429828"><ele>159.0</ele><time>2026-04-26T09:19:53Z</time></trkpt><trkpt lat="37.0210510570027" lon="15.15494784667179"><ele>158.0</ele><time>2026-04-26T09:19:54Z</time></trkpt><trkpt lat="37.02106691905938" lon="15.15526100810628"><ele>158.0</ele><time>2026-04-26T09:19:55Z</time></trkpt><trkpt lat="37.0210800773038" lon="15.15556775217809"><ele>158.0</ele><time>2026-04-26T09:19:56Z</time></trkpt><trkpt lat="37.02109207737199" lon="15.155869542681048"><ele>157.0</ele><time>2026-04-26T09:19:57Z</time></trkpt><trkpt lat="37.02110902352204" lon="15.156181920614191"><ele>156.0</ele><time>2026-04-26T09:19:58Z</time></trkpt><trkpt lat="37.02113926616897" lon="15.156491681087914"><ele>155.0</ele><time>2026-04-26T09:19:59Z</time></trkpt><trkpt lat="37.02118988687263" lon="15.15679628089633"><ele>154.0</ele><time>2026-04-26T09:20:00Z</time></trkpt><trkpt lat="37.02125788417384" lon="15.15709812559534"><ele>154.0</ele><time>2026-04-26T09:20:01Z</time></trkpt><trkpt lat="37.02134834351006" lon="15.157397002038845"><ele>154.0</ele><time>2026-04-26T09:20:02Z</time></trkpt><trkpt lat="37.021456497440454" lon="15.157674945069047"><ele>154.0</ele><time>2026-04-26T09:20:03Z</time></trkpt><trkpt lat="37.021586491654276" lon="15.15794871633831"><ele>154.0</ele><time>2026-04-26T09:20:04Z</time></trkpt><trkpt lat="37.021734045456924" lon="15.158211646869924"><ele>152.0</ele><time>2026-04-26T09:20:05Z</time></trkpt><trkpt lat="37.021890125634606" lon="15.158463598564618"><ele>150.0</ele><time>2026-04-26T09:20:06Z</time></trkpt><trkpt lat="37.02206386880349" lon="15.15870606517057"><ele>150.0</ele><time>2026-04-26T09:20:07Z</time></trkpt><trkpt lat="37.02224277930226" lon="15.15894305046461"><ele>150.0</ele><time>2026-04-26T09:20:08Z</time></trkpt><trkpt lat="37.02242762336261" lon="15.159175162449824"><ele>145.0</ele><time>2026-04-26T09:20:09Z</time></trkpt><trkpt lat="37.02260861558886" lon="15.159409948692561"><ele>140.0</ele><time>2026-04-26T09:20:10Z</time></trkpt><trkpt lat="37.02278919311238" lon="15.159648365060004"><ele>141.5</ele><time>2026-04-26T09:20:11Z</time></trkpt><trkpt lat="37.02295912623319" lon="15.159892662235574"><ele>143.0</ele><time>2026-04-26T09:20:12Z</time></trkpt><trkpt lat="37.02311830607761" lon="15.160147988560169"><ele>143.0</ele><time>2026-04-26T09:20:13Z</time></trkpt><trkpt lat="37.02326731877578" lon="15.160414588028873"><ele>143.0</ele><time>2026-04-26T09:20:14Z</time></trkpt><trkpt lat="37.02339819357964" lon="15.160695425826402"><ele>137.0</ele><time>2026-04-26T09:20:15Z</time></trkpt><trkpt lat="37.023516536954645" lon="15.160986127205835"><ele>131.0</ele><time>2026-04-26T09:20:16Z</time></trkpt><trkpt lat="37.02362342052007" lon="15.161284764256473"><ele>128.5</ele><time>2026-04-26T09:20:17Z</time></trkpt><trkpt lat="37.02371756199302" lon="15.161585164408836"><ele>126.0</ele><time>2026-04-26T09:20:18Z</time></trkpt><trkpt lat="37.02380012216336" lon="15.161891732590691"><ele>126.0</ele><time>2026-04-26T09:20:19Z</time></trkpt><trkpt lat="37.02387526322867" lon="15.16219671437341"><ele>126.0</ele><time>2026-04-26T09:20:20Z</time></trkpt><trkpt lat="37.023947515958746" lon="15.162499378662844"><ele>119.5</ele><time>2026-04-26T09:20:21Z</time></trkpt><trkpt lat="37.024028502444736" lon="15.162808304616213"><ele>113.0</ele><time>2026-04-26T09:20:22Z</time></trkpt><trkpt lat="37.02410847245665" lon="15.16311346780981"><ele>109.0</ele><time>2026-04-26T09:20:23Z</time></trkpt><trkpt lat="37.02418762313833" lon="15.163418208456683"><ele>105.0</ele><time>2026-04-26T09:20:24Z</time></trkpt><trkpt lat="37.024266711348346" lon="15.163723073769638"><ele>102.5</ele><time>2026-04-26T09:20:25Z</time></trkpt><trkpt lat="37.024348408811605" lon="15.164030929519392"><ele>100.0</ele><time>2026-04-26T09:20:26Z</time></trkpt><trkpt lat="37.024425941994565" lon="15.16433192709641"><ele>100.0</ele><time>2026-04-26T09:20:27Z</time></trkpt><trkpt lat="37.024502789156045" lon="15.164633835659052"><ele>100.0</ele><time>2026-04-26T09:20:28Z</time></trkpt><trkpt lat="37.02458494212136" lon="15.164945194621103"><ele>97.5</ele><time>2026-04-26T09:20:29Z</time></trkpt><trkpt lat="37.024663634153825" lon="15.165249204335765"><ele>95.0</ele><time>2026-04-26T09:20:30Z</time></trkpt><trkpt lat="37.02473998082717" lon="15.165549122808674"><ele>93.5</ele><time>2026-04-26T09:20:31Z</time></trkpt><trkpt lat="37.02481970138602" lon="15.165848214856343"><ele>92.0</ele><time>2026-04-26T09:20:32Z</time></trkpt><trkpt lat="37.02489815616738" lon="15.16614912281368"><ele>92.0</ele><time>2026-04-26T09:20:33Z</time></trkpt><trkpt lat="37.02497545522835" lon="15.166445617088458"><ele>92.0</ele><time>2026-04-26T09:20:34Z</time></trkpt><trkpt lat="37.02505395057971" lon="15.166742591693302"><ele>92.0</ele><time>2026-04-26T09:20:35Z</time></trkpt><trkpt lat="37.025131652120955" lon="15.167033381350556"><ele>92.0</ele><time>2026-04-26T09:20:36Z</time></trkpt><trkpt lat="37.02520879420565" lon="15.167326960207626"><ele>91.0</ele><time>2026-04-26T09:20:37Z</time></trkpt><trkpt lat="37.02528590760667" lon="15.167619025908023"><ele>90.0</ele><time>2026-04-26T09:20:38Z</time></trkpt><trkpt lat="37.025365082045404" lon="15.167915104285866"><ele>87.5</ele><time>2026-04-26T09:20:39Z</time></trkpt><trkpt lat="37.02544547510603" lon="15.168218174177403"><ele>85.0</ele><time>2026-04-26T09:20:40Z</time></trkpt><trkpt lat="37.025528784989916" lon="15.168519221200375"><ele>85.0</ele><time>2026-04-26T09:20:41Z</time></trkpt><trkpt lat="37.02561506900174" lon="15.168828080147987"><ele>85.0</ele><time>2026-04-26T09:20:42Z</time></trkpt><trkpt lat="37.025698118467815" lon="15.169133040622084"><ele>84.0</ele><time>2026-04-26T09:20:43Z</time></trkpt><trkpt lat="37.025781366269776" lon="15.169437272491377"><ele>83.0</ele><time>2026-04-26T09:20:44Z</time></trkpt><trkpt lat="37.02586637962097" lon="15.169737552931599"><ele>82.5</ele><time>2026-04-26T09:20:45Z</time></trkpt><trkpt lat="37.02596299288347" lon="15.170039893954515"><ele>82.0</ele><time>2026-04-26T09:20:46Z</time></trkpt><trkpt lat="37.0260704853648" lon="15.170338077997284"><ele>82.0</ele><time>2026-04-26T09:20:47Z</time></trkpt><trkpt lat="37.02618196902097" lon="15.170635778700847"><ele>82.0</ele><time>2026-04-26T09:20:48Z</time></trkpt><trkpt lat="37.02629734324695" lon="15.17093646633559"><ele>80.5</ele><time>2026-04-26T09:20:49Z</time></trkpt><trkpt lat="37.02641372954018" lon="15.171233164031214"><ele>79.0</ele><time>2026-04-26T09:20:50Z</time></trkpt><trkpt lat="37.02653145656854" lon="15.17153691609311"><ele>77.0</ele><time>2026-04-26T09:20:51Z</time></trkpt><trkpt lat="37.02665220289782" lon="15.171845553456437"><ele>75.0</ele><time>2026-04-26T09:20:52.001Z</time></trkpt><trkpt lat="37.026773645202944" lon="15.172147344808918"><ele>75.0</ele><time>2026-04-26T09:20:53.001Z</time></trkpt><trkpt lat="37.02689754179393" lon="15.172451602989742"><ele>75.0</ele><time>2026-04-26T09:20:54.001Z</time></trkpt><trkpt lat="37.02702111614823" lon="15.172754780693008"><ele>75.0</ele><time>2026-04-26T09:20:55.001Z</time></trkpt><trkpt lat="37.0271453095903" lon="15.173059161422591"><ele>75.0</ele><time>2026-04-26T09:20:56.001Z</time></trkpt><trkpt lat="37.02726915594275" lon="15.17335588154254"><ele>73.5</ele><time>2026-04-26T09:20:57.001Z</time></trkpt><trkpt lat="37.0273904578779" lon="15.173655594398804"><ele>72.0</ele><time>2026-04-26T09:20:58.001Z</time></trkpt><trkpt lat="37.027511132140475" lon="15.17395364151506"><ele>71.0</ele><time>2026-04-26T09:20:59.001Z</time></trkpt><trkpt lat="37.02763418770087" lon="15.174248827858968"><ele>70.0</ele><time>2026-04-26T09:21:00.001Z</time></trkpt><trkpt lat="37.02775448648682" lon="15.17454153362832"><ele>70.0</ele><time>2026-04-26T09:21:01.001Z</time></trkpt><trkpt lat="37.027876646930366" lon="15.174832644802963"><ele>70.0</ele><time>2026-04-26T09:21:02.001Z</time></trkpt><trkpt lat="37.02799658626594" lon="15.17512817447794"><ele>69.0</ele><time>2026-04-26T09:21:03.001Z</time></trkpt><trkpt lat="37.02811605835033" lon="15.175420379382597"><ele>68.0</ele><time>2026-04-26T09:21:04.001Z</time></trkpt><trkpt lat="37.028236769493745" lon="15.175709265834817"><ele>66.5</ele><time>2026-04-26T09:21:05.001Z</time></trkpt><trkpt lat="37.02835605375529" lon="15.176001217619998"><ele>65.0</ele><time>2026-04-26T09:21:06.001Z</time></trkpt><trkpt lat="37.02847545189074" lon="15.176294221356294"><ele>63.5</ele><time>2026-04-26T09:21:07.001Z</time></trkpt><trkpt lat="37.02859622097557" lon="15.17658711447429"><ele>62.0</ele><time>2026-04-26T09:21:08.001Z</time></trkpt><trkpt lat="37.0287156635208" lon="15.176882067166275"><ele>62.0</ele><time>2026-04-26T09:21:09.001Z</time></trkpt><trkpt lat="37.02883325128569" lon="15.177174498879674"><ele>62.0</ele><time>2026-04-26T09:21:10.001Z</time></trkpt><trkpt lat="37.028950344363075" lon="15.17747081260293"><ele>61.5</ele><time>2026-04-26T09:21:11.001Z</time></trkpt><trkpt lat="37.029067217328056" lon="15.177758958454886"><ele>61.0</ele><time>2026-04-26T09:21:12.001Z</time></trkpt><trkpt lat="37.02918558954385" lon="15.178048051373866"><ele>60.0</ele><time>2026-04-26T09:21:13.001Z</time></trkpt><trkpt lat="37.02930529995405" lon="15.178340054824094"><ele>59.0</ele><time>2026-04-26T09:21:14.001Z</time></trkpt><trkpt lat="37.029426008418675" lon="15.17863021677924"><ele>59.0</ele><time>2026-04-26T09:21:15.001Z</time></trkpt><trkpt lat="37.029549362664135" lon="15.178920377176068"><ele>59.0</ele><time>2026-04-26T09:21:16.001Z</time></trkpt><trkpt lat="37.02968092604926" lon="15.179201709328456"><ele>58.5</ele><time>2026-04-26T09:21:17.001Z</time></trkpt><trkpt lat="37.02982527271561" lon="15.179475722503206"><ele>58.0</ele><time>2026-04-26T09:21:18.001Z</time></trkpt><trkpt lat="37.02997857378269" lon="15.17974719050877"><ele>57.0</ele><time>2026-04-26T09:21:19.001Z</time></trkpt><trkpt lat="37.03013778993124" lon="15.180018438619094"><ele>56.0</ele><time>2026-04-26T09:21:20.001Z</time></trkpt><trkpt lat="37.03029971553643" lon="15.180288826522759"><ele>56.0</ele><time>2026-04-26T09:21:21.001Z</time></trkpt><trkpt lat="37.030462120376676" lon="15.180562947701647"><ele>56.0</ele><time>2026-04-26T09:21:22.001Z</time></trkpt><trkpt lat="37.03062279802132" lon="15.180838871138654"><ele>56.5</ele><time>2026-04-26T09:21:23.001Z</time></trkpt><trkpt lat="37.030784713149615" lon="15.181113007934961"><ele>57.0</ele><time>2026-04-26T09:21:24.001Z</time></trkpt><trkpt lat="37.030945824191285" lon="15.181388893472436"><ele>55.5</ele><time>2026-04-26T09:21:25.001Z</time></trkpt><trkpt lat="37.03110703289456" lon="15.181665769494549"><ele>54.0</ele><time>2026-04-26T09:21:26.001Z</time></trkpt><trkpt lat="37.03127444045848" lon="15.181945962691369"><ele>54.0</ele><time>2026-04-26T09:21:27.001Z</time></trkpt><trkpt lat="37.031439630887604" lon="15.18222513723992"><ele>54.0</ele><time>2026-04-26T09:21:28.001Z</time></trkpt><trkpt lat="37.03160569334505" lon="15.182505974964622"><ele>55.0</ele><time>2026-04-26T09:21:29.001Z</time></trkpt><trkpt lat="37.03177011042654" lon="15.182788092992102"><ele>56.0</ele><time>2026-04-26T09:21:30.001Z</time></trkpt><trkpt lat="37.031933998284565" lon="15.183073957026393"><ele>56.0</ele><time>2026-04-26T09:21:31.001Z</time></trkpt><trkpt lat="37.03208508788163" lon="15.183366023469636"><ele>56.0</ele><time>2026-04-26T09:21:32.001Z</time></trkpt><trkpt lat="37.03222552522309" lon="15.18366690730981"><ele>56.0</ele><time>2026-04-26T09:21:33.001Z</time></trkpt><trkpt lat="37.032345162875345" lon="15.183976527806351"><ele>56.0</ele><time>2026-04-26T09:21:34.001Z</time></trkpt><trkpt lat="37.032456957334226" lon="15.184293569963167"><ele>56.5</ele><time>2026-04-26T09:21:35.001Z</time></trkpt><trkpt lat="37.03256178957279" lon="15.184620876251895"><ele>57.0</ele><time>2026-04-26T09:21:36.001Z</time></trkpt><trkpt lat="37.03265632779953" lon="15.184953916542977"><ele>57.0</ele><time>2026-04-26T09:21:37.001Z</time></trkpt><trkpt lat="37.032738094701635" lon="15.18529086362526"><ele>57.0</ele><time>2026-04-26T09:21:38.001Z</time></trkpt><trkpt lat="37.03281773832" lon="15.185632701770668"><ele>56.0</ele><time>2026-04-26T09:21:39.001Z</time></trkpt><trkpt lat="37.03289942003233" lon="15.185977590689157"><ele>55.0</ele><time>2026-04-26T09:21:40.001Z</time></trkpt><trkpt lat="37.03295971347486" lon="15.186321325134028"><ele>54.5</ele><time>2026-04-26T09:21:41.001Z</time></trkpt><trkpt lat="37.03304168521849" lon="15.186671860408653"><ele>54.0</ele><time>2026-04-26T09:21:42.001Z</time></trkpt><trkpt lat="37.0331407949264" lon="15.187008033163218"><ele>53.0</ele><time>2026-04-26T09:21:43.001Z</time></trkpt><trkpt lat="37.03323777219992" lon="15.18735328079213"><ele>52.0</ele><time>2026-04-26T09:21:44.001Z</time></trkpt><trkpt lat="37.03335626850099" lon="15.187678802164692"><ele>50.0</ele><time>2026-04-26T09:21:45Z</time></trkpt><trkpt lat="37.033490401774706" lon="15.1879929780966"><ele>48.0</ele><time>2026-04-26T09:21:46Z</time></trkpt><trkpt lat="37.03363463291557" lon="15.188299968025328"><ele>46.0</ele><time>2026-04-26T09:21:47Z</time></trkpt><trkpt lat="37.033764165891526" lon="15.188621490942067"><ele>44.0</ele><time>2026-04-26T09:21:48Z</time></trkpt><trkpt lat="37.03392285763674" lon="15.188927179945129"><ele>43.0</ele><time>2026-04-26T09:21:49Z</time></trkpt><trkpt lat="37.03404563336212" lon="15.18924366218597"><ele>42.0</ele><time>2026-04-26T09:21:50Z</time></trkpt><trkpt lat="37.034184961556406" lon="15.189570872612455"><ele>40.5</ele><time>2026-04-26T09:21:51Z</time></trkpt><trkpt lat="37.03432988676347" lon="15.189888878519836"><ele>39.0</ele><time>2026-04-26T09:21:52Z</time></trkpt><trkpt lat="37.03447432701739" lon="15.190205991294764"><ele>39.0</ele><time>2026-04-26T09:21:53Z</time></trkpt><trkpt lat="37.03461697070531" lon="15.190524721392286"><ele>39.0</ele><time>2026-04-26T09:21:54Z</time></trkpt><trkpt lat="37.03476132720509" lon="15.190839358297445"><ele>39.5</ele><time>2026-04-26T09:21:55Z</time></trkpt><trkpt lat="37.034907570145755" lon="15.19115137823994"><ele>40.0</ele><time>2026-04-26T09:21:56Z</time></trkpt><trkpt lat="37.035054374124336" lon="15.191469842150694"><ele>40.0</ele><time>2026-04-26T09:21:57Z</time></trkpt><trkpt lat="37.03520224789392" lon="15.191790262996244"><ele>40.0</ele><time>2026-04-26T09:21:58Z</time></trkpt><trkpt lat="37.03534716609347" lon="15.19210820726685"><ele>40.0</ele><time>2026-04-26T09:21:59Z</time></trkpt><trkpt lat="37.03549418839672" lon="15.19243174436899"><ele>40.0</ele><time>2026-04-26T09:22:00Z</time></trkpt><trkpt lat="37.03564127786806" lon="15.19274470929919"><ele>40.0</ele><time>2026-04-26T09:22:01Z</time></trkpt><trkpt lat="37.035792710016494" lon="15.193060085958031"><ele>40.0</ele><time>2026-04-26T09:22:02Z</time></trkpt><trkpt lat="37.03594293272041" lon="15.19336940518498"><ele>41.5</ele><time>2026-04-26T09:22:03Z</time></trkpt><trkpt lat="37.03609039444626" lon="15.193679525467026"><ele>43.0</ele><time>2026-04-26T09:22:04Z</time></trkpt><trkpt lat="37.0362368700281" lon="15.193991329689856"><ele>44.0</ele><time>2026-04-26T09:22:05Z</time></trkpt><trkpt lat="37.03638936589206" lon="15.194302098433164"><ele>45.0</ele><time>2026-04-26T09:22:06Z</time></trkpt><trkpt lat="37.03653965524445" lon="15.194616349633238"><ele>45.0</ele><time>2026-04-26T09:22:07Z</time></trkpt><trkpt lat="37.03669332760123" lon="15.19492916602899"><ele>45.0</ele><time>2026-04-26T09:22:08Z</time></trkpt><trkpt lat="37.03684359655493" lon="15.195236734620536"><ele>45.0</ele><time>2026-04-26T09:22:09Z</time></trkpt><trkpt lat="37.03699047222796" lon="15.195550942330245"><ele>45.0</ele><time>2026-04-26T09:22:10Z</time></trkpt><trkpt lat="37.03713523605965" lon="15.195852553446755"><ele>45.0</ele><time>2026-04-26T09:22:11Z</time></trkpt><trkpt lat="37.03727797993318" lon="15.196160972585108"><ele>45.0</ele><time>2026-04-26T09:22:12Z</time></trkpt><trkpt lat="37.03742331528179" lon="15.196474896273118"><ele>45.0</ele><time>2026-04-26T09:22:13Z</time></trkpt><trkpt lat="37.037572766800686" lon="15.19679096789539"><ele>45.0</ele><time>2026-04-26T09:22:14Z</time></trkpt><trkpt lat="37.037723596516564" lon="15.197106291100718"><ele>45.5</ele><time>2026-04-26T09:22:15Z</time></trkpt><trkpt lat="37.037877338050016" lon="15.197425886938866"><ele>46.0</ele><time>2026-04-26T09:22:16Z</time></trkpt><trkpt lat="37.03803187466016" lon="15.197749416499388"><ele>46.0</ele><time>2026-04-26T09:22:17Z</time></trkpt><trkpt lat="37.03818550554129" lon="15.198073462081387"><ele>46.0</ele><time>2026-04-26T09:22:18Z</time></trkpt><trkpt lat="37.03833891835148" lon="15.19840338119845"><ele>46.0</ele><time>2026-04-26T09:22:19Z</time></trkpt><trkpt lat="37.03849163110478" lon="15.198730985699141"><ele>46.0</ele><time>2026-04-26T09:22:20Z</time></trkpt><trkpt lat="37.03864328030727" lon="15.19905868667525"><ele>45.0</ele><time>2026-04-26T09:22:21Z</time></trkpt><trkpt lat="37.03879283075726" lon="15.199386034269397"><ele>44.0</ele><time>2026-04-26T09:22:22Z</time></trkpt><trkpt lat="37.03894057464293" lon="15.19971110666752"><ele>44.0</ele><time>2026-04-26T09:22:23Z</time></trkpt><trkpt lat="37.03908468375401" lon="15.200031631231454"><ele>44.0</ele><time>2026-04-26T09:22:24Z</time></trkpt><trkpt lat="37.03922929496654" lon="15.200360859390294"><ele>43.0</ele><time>2026-04-26T09:22:25Z</time></trkpt><trkpt lat="37.03937156951178" lon="15.200680066762594"><ele>42.0</ele><time>2026-04-26T09:22:26Z</time></trkpt><trkpt lat="37.03951666743237" lon="15.201000610970858"><ele>42.0</ele><time>2026-04-26T09:22:27Z</time></trkpt><trkpt lat="37.03966040466458" lon="15.201318400804679"><ele>42.0</ele><time>2026-04-26T09:22:28Z</time></trkpt><trkpt lat="37.03980052355872" lon="15.20163552217845"><ele>41.5</ele><time>2026-04-26T09:22:29Z</time></trkpt><trkpt lat="37.03994101959677" lon="15.20194724020228"><ele>41.0</ele><time>2026-04-26T09:22:30Z</time></trkpt><trkpt lat="37.040088633799876" lon="15.202255078021945"><ele>41.0</ele><time>2026-04-26T09:22:31Z</time></trkpt><trkpt lat="37.040247812229296" lon="15.202548992168364"><ele>41.0</ele><time>2026-04-26T09:22:32Z</time></trkpt><trkpt lat="37.0404219753388" lon="15.202832526162624"><ele>41.0</ele><time>2026-04-26T09:22:33Z</time></trkpt><trkpt lat="37.040610690566325" lon="15.203103495661933"><ele>41.0</ele><time>2026-04-26T09:22:34Z</time></trkpt><trkpt lat="37.04081286726744" lon="15.203360364512147"><ele>40.0</ele><time>2026-04-26T09:22:35Z</time></trkpt><trkpt lat="37.04103034220887" lon="15.203596380838878"><ele>39.0</ele><time>2026-04-26T09:22:36Z</time></trkpt><trkpt lat="37.04125700389201" lon="15.203819457331663"><ele>39.0</ele><time>2026-04-26T09:22:37Z</time></trkpt><trkpt lat="37.04148417822471" lon="15.204039318130894"><ele>39.0</ele><time>2026-04-26T09:22:38Z</time></trkpt><trkpt lat="37.041714724318965" lon="15.204259577590669"><ele>39.0</ele><time>2026-04-26T09:22:39Z</time></trkpt><trkpt lat="37.04194494032695" lon="15.204481409122682"><ele>39.0</ele><time>2026-04-26T09:22:40Z</time></trkpt><trkpt lat="37.04217566960116" lon="15.204708293507409"><ele>38.5</ele><time>2026-04-26T09:22:41Z</time></trkpt><trkpt lat="37.04240470050374" lon="15.20493412257306"><ele>38.0</ele><time>2026-04-26T09:22:42Z</time></trkpt><trkpt lat="37.04263529129392" lon="15.205163089966131"><ele>39.0</ele><time>2026-04-26T09:22:43Z</time></trkpt><trkpt lat="37.042861014442025" lon="15.20538776392655"><ele>40.0</ele><time>2026-04-26T09:22:44Z</time></trkpt><trkpt lat="37.043090403176535" lon="15.205612881950726"><ele>41.5</ele><time>2026-04-26T09:22:45Z</time></trkpt><trkpt lat="37.0433175010941" lon="15.205838153014595"><ele>43.0</ele><time>2026-04-26T09:22:46Z</time></trkpt><trkpt lat="37.04354514842423" lon="15.206065306900596"><ele>43.0</ele><time>2026-04-26T09:22:47Z</time></trkpt><trkpt lat="37.0437674821303" lon="15.206286381039336"><ele>43.0</ele><time>2026-04-26T09:22:48Z</time></trkpt><trkpt lat="37.04398668426904" lon="15.206514803314759"><ele>43.0</ele><time>2026-04-26T09:22:49Z</time></trkpt><trkpt lat="37.044197153025735" lon="15.206749564985254"><ele>43.0</ele><time>2026-04-26T09:22:50Z</time></trkpt><trkpt lat="37.04440387441779" lon="15.206994288524871"><ele>43.0</ele><time>2026-04-26T09:22:51Z</time></trkpt><trkpt lat="37.044603675403266" lon="15.207238716889076"><ele>43.0</ele><time>2026-04-26T09:22:52Z</time></trkpt><trkpt lat="37.044802464382244" lon="15.207490216073925"><ele>43.5</ele><time>2026-04-26T09:22:53Z</time></trkpt><trkpt lat="37.04500252228692" lon="15.207744771084062"><ele>44.0</ele><time>2026-04-26T09:22:54Z</time></trkpt><trkpt lat="37.04520171785411" lon="15.20799866905341"><ele>43.0</ele><time>2026-04-26T09:22:55Z</time></trkpt><trkpt lat="37.04540789608637" lon="15.208255074422222"><ele>42.0</ele><time>2026-04-26T09:22:56Z</time></trkpt><trkpt lat="37.04561934391738" lon="15.208512793835007"><ele>42.5</ele><time>2026-04-26T09:22:57Z</time></trkpt><trkpt lat="37.045831513798575" lon="15.208764079284691"><ele>43.0</ele><time>2026-04-26T09:22:58Z</time></trkpt><trkpt lat="37.046047414536964" lon="15.20902246807477"><ele>43.0</ele><time>2026-04-26T09:22:59Z</time></trkpt><trkpt lat="37.04626162566955" lon="15.209281676610996"><ele>43.0</ele><time>2026-04-26T09:23:00Z</time></trkpt><trkpt lat="37.0464782563075" lon="15.209543055181244"><ele>43.5</ele><time>2026-04-26T09:23:01Z</time></trkpt><trkpt lat="37.046696279370174" lon="15.209804423225629"><ele>44.0</ele><time>2026-04-26T09:23:02Z</time></trkpt><trkpt lat="37.046912003474475" lon="15.210065958881644"><ele>43.0</ele><time>2026-04-26T09:23:03Z</time></trkpt><trkpt lat="37.04712853924186" lon="15.210327704575283"><ele>42.0</ele><time>2026-04-26T09:23:04Z</time></trkpt><trkpt lat="37.04734093422012" lon="15.210585565897729"><ele>41.5</ele><time>2026-04-26T09:23:05Z</time></trkpt><trkpt lat="37.047553657517305" lon="15.210843683112133"><ele>41.0</ele><time>2026-04-26T09:23:06Z</time></trkpt><trkpt lat="37.04776719015188" lon="15.211101657594904"><ele>41.0</ele><time>2026-04-26T09:23:07Z</time></trkpt><trkpt lat="37.047976425239725" lon="15.211357921905044"><ele>41.0</ele><time>2026-04-26T09:23:08Z</time></trkpt><trkpt lat="37.048182354021215" lon="15.211610902656634"><ele>41.0</ele><time>2026-04-26T09:23:09.001Z</time></trkpt><trkpt lat="37.048383195885826" lon="15.21185368751525"><ele>41.0</ele><time>2026-04-26T09:23:10.001Z</time></trkpt><trkpt lat="37.048584500056116" lon="15.212100168581362"><ele>41.0</ele><time>2026-04-26T09:23:11.001Z</time></trkpt><trkpt lat="37.048779033471654" lon="15.212337082517573"><ele>41.0</ele><time>2026-04-26T09:23:12.001Z</time></trkpt><trkpt lat="37.04896075212845" lon="15.212557648668842"><ele>40.5</ele><time>2026-04-26T09:23:13.001Z</time></trkpt><trkpt lat="37.049131852031536" lon="15.2127656148185"><ele>40.0</ele><time>2026-04-26T09:23:14.001Z</time></trkpt><trkpt lat="37.049291418109526" lon="15.21296069068569"><ele>40.0</ele><time>2026-04-26T09:23:15.001Z</time></trkpt><trkpt lat="37.04943785829225" lon="15.213146282160857"><ele>40.0</ele><time>2026-04-26T09:23:16.001Z</time></trkpt><trkpt lat="37.049567902048445" lon="15.213321302423601"><ele>40.0</ele><time>2026-04-26T09:23:17.001Z</time></trkpt><trkpt lat="37.049682689592636" lon="15.213478993518903"><ele>40.0</ele><time>2026-04-26T09:23:18.001Z</time></trkpt><trkpt lat="37.04978818656328" lon="15.213626014778066"><ele>40.0</ele><time>2026-04-26T09:23:19.001Z</time></trkpt><trkpt lat="37.049879584228435" lon="15.21375618949092"><ele>40.0</ele><time>2026-04-26T09:23:20.001Z</time></trkpt><trkpt lat="37.049960118118484" lon="15.213870012390922"><ele>40.0</ele><time>2026-04-26T09:23:21.001Z</time></trkpt><trkpt lat="37.050028561905584" lon="15.213969226798595"><ele>40.16666666666667</ele><time>2026-04-26T09:23:22.001Z</time></trkpt><trkpt lat="37.05007996595194" lon="15.214058141593423"><ele>40.333333333333336</ele><time>2026-04-26T09:23:23.001Z</time></trkpt><trkpt lat="37.0501124981387" lon="15.214156003745034"><ele>40.5</ele><time>2026-04-26T09:23:24.001Z</time></trkpt><trkpt lat="37.05013478888861" lon="15.214253883324929"><ele>40.666666666666664</ele><time>2026-04-26T09:23:25.001Z</time></trkpt><trkpt lat="37.05017257897826" lon="15.21434222261994"><ele>40.83333333333333</ele><time>2026-04-26T09:23:26.001Z</time></trkpt><trkpt lat="37.050229561380995" lon="15.214416019333191"><ele>41.0</ele><time>2026-04-26T09:23:27.001Z</time></trkpt><trkpt lat="37.050301952621304" lon="15.214478480998848"><ele>41.0</ele><time>2026-04-26T09:23:28.001Z</time></trkpt><trkpt lat="37.05038081894675" lon="15.214563921563093"><ele>41.0</ele><time>2026-04-26T09:23:29.001Z</time></trkpt><trkpt lat="37.05047362667029" lon="15.214663852378093"><ele>41.0</ele><time>2026-04-26T09:23:30.001Z</time></trkpt><trkpt lat="37.050515534887374" lon="15.214891025639393"><ele>41.0</ele><time>2026-04-26T09:23:31.001Z</time></trkpt><trkpt lat="37.05060816900084" lon="15.215097622756783"><ele>40.666666666666664</ele><time>2026-04-26T09:23:32.001Z</time></trkpt><trkpt lat="37.05068630041814" lon="15.215340908399845"><ele>40.333333333333336</ele><time>2026-04-26T09:23:33.001Z</time></trkpt><trkpt lat="37.050763835011445" lon="15.21560856549866"><ele>40.0</ele><time>2026-04-26T09:23:34.001Z</time></trkpt><trkpt lat="37.05083320510231" lon="15.215901712993427"><ele>39.0</ele><time>2026-04-26T09:23:35.001Z</time></trkpt><trkpt lat="37.05089960016827" lon="15.216208382839534"><ele>38.0</ele><time>2026-04-26T09:23:36.001Z</time></trkpt><trkpt lat="37.05097728255271" lon="15.216533942540549"><ele>38.0</ele><time>2026-04-26T09:23:37.001Z</time></trkpt><trkpt lat="37.051055576903124" lon="15.216853705536053"><ele>38.0</ele><time>2026-04-26T09:23:38.001Z</time></trkpt><trkpt lat="37.051138156692666" lon="15.217165743773593"><ele>37.0</ele><time>2026-04-26T09:23:39.001Z</time></trkpt><trkpt lat="37.051232100825835" lon="15.217469196233344"><ele>36.0</ele><time>2026-04-26T09:23:40.001Z</time></trkpt><trkpt lat="37.05133898964058" lon="15.217763557379474"><ele>36.0</ele><time>2026-04-26T09:23:41.001Z</time></trkpt><trkpt lat="37.051457485382805" lon="15.218048568556984"><ele>36.0</ele><time>2026-04-26T09:23:42.001Z</time></trkpt><trkpt lat="37.05159139033949" lon="15.218327581287793"><ele>33.5</ele><time>2026-04-26T09:23:43.001Z</time></trkpt><trkpt lat="37.05173652189494" lon="15.21859328288244"><ele>31.0</ele><time>2026-04-26T09:23:44.001Z</time></trkpt><trkpt lat="37.05189405111168" lon="15.218850413690875"><ele>29.5</ele><time>2026-04-26T09:23:45.001Z</time></trkpt><trkpt lat="37.05205836637099" lon="15.21909092925499"><ele>28.0</ele><time>2026-04-26T09:23:46.001Z</time></trkpt><trkpt lat="37.05222951937488" lon="15.219327066038565"><ele>28.0</ele><time>2026-04-26T09:23:47.001Z</time></trkpt><trkpt lat="37.05240340354372" lon="15.219551017185024"><ele>28.0</ele><time>2026-04-26T09:23:48.001Z</time></trkpt><trkpt lat="37.05257938047217" lon="15.219778134248761"><ele>24.5</ele><time>2026-04-26T09:23:49.001Z</time></trkpt><trkpt lat="37.0527517363098" lon="15.220000900322566"><ele>21.0</ele><time>2026-04-26T09:23:50.001Z</time></trkpt><trkpt lat="37.05291777602164" lon="15.220225338277537"><ele>21.0</ele><time>2026-04-26T09:23:51Z</time></trkpt><trkpt lat="37.05307482862251" lon="15.220454679127553"><ele>21.0</ele><time>2026-04-26T09:23:52Z</time></trkpt><trkpt lat="37.053227235368716" lon="15.22069820352188"><ele>17.0</ele><time>2026-04-26T09:23:53Z</time></trkpt><trkpt lat="37.05336768846232" lon="15.220944011342398"><ele>13.0</ele><time>2026-04-26T09:23:54Z</time></trkpt><trkpt lat="37.05350173159344" lon="15.221201406585662"><ele>13.0</ele><time>2026-04-26T09:23:55Z</time></trkpt><trkpt lat="37.05362340908952" lon="15.221450784721387"><ele>13.0</ele><time>2026-04-26T09:23:56Z</time></trkpt><trkpt lat="37.05373129595841" lon="15.221685219969359"><ele>13.0</ele><time>2026-04-26T09:23:57Z</time></trkpt><trkpt lat="37.05383207324888" lon="15.221915436442618"><ele>13.0</ele><time>2026-04-26T09:23:58Z</time></trkpt><trkpt lat="37.05391893394535" lon="15.222126760356147"><ele>13.0</ele><time>2026-04-26T09:23:59Z</time></trkpt><trkpt lat="37.05399444234461" lon="15.222334952607442"><ele>13.0</ele><time>2026-04-26T09:24:00Z</time></trkpt><trkpt lat="37.05404418338287" lon="15.222535485317515"><ele>12.333333333333332</ele><time>2026-04-26T09:24:01Z</time></trkpt><trkpt lat="37.05407628702422" lon="15.222732337752623"><ele>11.666666666666666</ele><time>2026-04-26T09:24:02Z</time></trkpt><trkpt lat="37.05410159269503" lon="15.222935079477988"><ele>11.0</ele><time>2026-04-26T09:24:03Z</time></trkpt><trkpt lat="37.05411365819669" lon="15.223111801852074"><ele>11.0</ele><time>2026-04-26T09:24:04Z</time></trkpt><trkpt lat="37.054121069910586" lon="15.223268935365434"><ele>11.0</ele><time>2026-04-26T09:24:05Z</time></trkpt><trkpt lat="37.054107416678" lon="15.223372930564787"><ele>11.0</ele><time>2026-04-26T09:24:06Z</time></trkpt><trkpt lat="37.054092895600775" lon="15.22345848646054"><ele>11.0</ele><time>2026-04-26T09:24:07Z</time></trkpt><trkpt lat="37.054071342057945" lon="15.223542613035473"><ele>11.0</ele><time>2026-04-26T09:24:08Z</time></trkpt><trkpt lat="37.05403462566202" lon="15.223636932679211"><ele>11.0</ele><time>2026-04-26T09:24:09Z</time></trkpt><trkpt lat="37.05400147741012" lon="15.223748000424429"><ele>11.0</ele><time>2026-04-26T09:24:10Z</time></trkpt><trkpt lat="37.053994791964456" lon="15.223866108510213"><ele>11.0</ele><time>2026-04-26T09:24:11Z</time></trkpt><trkpt lat="37.05403853525618" lon="15.223959898947738"><ele>11.0</ele><time>2026-04-26T09:24:12Z</time></trkpt><trkpt lat="37.054108069538444" lon="15.224035556318022"><ele>11.0</ele><time>2026-04-26T09:24:13Z</time></trkpt><trkpt lat="37.05421588871324" lon="15.224087905183445"><ele>11.0</ele><time>2026-04-26T09:24:14Z</time></trkpt><trkpt lat="37.05434037366528" lon="15.224140099779271"><ele>11.333333333333332</ele><time>2026-04-26T09:24:15Z</time></trkpt><trkpt lat="37.05447257875092" lon="15.224182751967486"><ele>11.666666666666666</ele><time>2026-04-26T09:24:16Z</time></trkpt><trkpt lat="37.05456480531474" lon="15.224392855002414"><ele>12.0</ele><time>2026-04-26T09:24:17Z</time></trkpt><trkpt lat="37.05465692911456" lon="15.224586578910879"><ele>12.0</ele><time>2026-04-26T09:24:18Z</time></trkpt><trkpt lat="37.054732720743615" lon="15.22479650064271"><ele>12.0</ele><time>2026-04-26T09:24:19Z</time></trkpt><trkpt lat="37.054813867309846" lon="15.225025420661156"><ele>12.0</ele><time>2026-04-26T09:24:20Z</time></trkpt><trkpt lat="37.05490837641823" lon="15.225265859988017"><ele>11.333333333333334</ele><time>2026-04-26T09:24:21Z</time></trkpt><trkpt lat="37.05501001369823" lon="15.225506712481062"><ele>10.666666666666668</ele><time>2026-04-26T09:24:22Z</time></trkpt><trkpt lat="37.0551181156686" lon="15.225747354366007"><ele>10.0</ele><time>2026-04-26T09:24:23Z</time></trkpt><trkpt lat="37.05522077192196" lon="15.225968491080625"><ele>10.0</ele><time>2026-04-26T09:24:24Z</time></trkpt><trkpt lat="37.055306136207946" lon="15.226179717516404"><ele>10.0</ele><time>2026-04-26T09:24:25Z</time></trkpt><trkpt lat="37.05535996031681" lon="15.22639151628935"><ele>10.0</ele><time>2026-04-26T09:24:26Z</time></trkpt><trkpt lat="37.055380226548266" lon="15.226595504281528"><ele>10.5</ele><time>2026-04-26T09:24:27Z</time></trkpt><trkpt lat="37.05539052561575" lon="15.226784458063346"><ele>11.0</ele><time>2026-04-26T09:24:28Z</time></trkpt><trkpt lat="37.05538516460317" lon="15.226944091600297"><ele>11.5</ele><time>2026-04-26T09:24:29Z</time></trkpt><trkpt lat="37.05535049543168" lon="15.227075772902209"><ele>12.0</ele><time>2026-04-26T09:24:30Z</time></trkpt><trkpt lat="37.05530014283077" lon="15.227197721398632"><ele>12.0</ele><time>2026-04-26T09:24:31Z</time></trkpt><trkpt lat="37.055249311943456" lon="15.227302572153503"><ele>12.0</ele><time>2026-04-26T09:24:32Z</time></trkpt><trkpt lat="37.055233618201065" lon="15.227401027231178"><ele>12.0</ele><time>2026-04-26T09:24:33Z</time></trkpt><trkpt lat="37.05525992451609" lon="15.227494497656858"><ele>12.0</ele><time>2026-04-26T09:24:34Z</time></trkpt><trkpt lat="37.055323547625555" lon="15.227572872335756"><ele>12.0</ele><time>2026-04-26T09:24:35Z</time></trkpt><trkpt lat="37.055417027660724" lon="15.227628168361006"><ele>11.0</ele><time>2026-04-26T09:24:36Z</time></trkpt><trkpt lat="37.05553535800662" lon="15.227658475478407"><ele>10.0</ele><time>2026-04-26T09:24:37Z</time></trkpt><trkpt lat="37.05566693595603" lon="15.227705871502096"><ele>9.0</ele><time>2026-04-26T09:24:38Z</time></trkpt><trkpt lat="37.055790293244115" lon="15.227818013738588"><ele>8.0</ele><time>2026-04-26T09:24:39Z</time></trkpt><trkpt lat="37.05591865594105" lon="15.227968441640268"><ele>8.0</ele><time>2026-04-26T09:24:40.001Z</time></trkpt><trkpt lat="37.056033397974" lon="15.228096919417009"><ele>8.0</ele><time>2026-04-26T09:24:41.001Z</time></trkpt><trkpt lat="37.05614445214534" lon="15.228210013020608"><ele>8.0</ele><time>2026-04-26T09:24:42.001Z</time></trkpt><trkpt lat="37.05625865888066" lon="15.228319083231606"><ele>8.0</ele><time>2026-04-26T09:24:43.001Z</time></trkpt><trkpt lat="37.05637723693706" lon="15.228424775625617"><ele>8.333333333333332</ele><time>2026-04-26T09:24:44.001Z</time></trkpt><trkpt lat="37.05649630887577" lon="15.22852615464545"><ele>8.666666666666666</ele><time>2026-04-26T09:24:45.001Z</time></trkpt><trkpt lat="37.056623168263584" lon="15.22863005186321"><ele>9.0</ele><time>2026-04-26T09:24:46.001Z</time></trkpt><trkpt lat="37.05675129141247" lon="15.228739505057035"><ele>9.0</ele><time>2026-04-26T09:24:47.001Z</time></trkpt><trkpt lat="37.056867075230855" lon="15.228852776544773"><ele>9.0</ele><time>2026-04-26T09:24:48.001Z</time></trkpt><trkpt lat="37.05696938536141" lon="15.22897730648094"><ele>9.0</ele><time>2026-04-26T09:24:49.001Z</time></trkpt><trkpt lat="37.057067171279584" lon="15.229111531905465"><ele>9.0</ele><time>2026-04-26T09:24:50.001Z</time></trkpt><trkpt lat="37.05716314235363" lon="15.229249206270229"><ele>9.75</ele><time>2026-04-26T09:24:51.001Z</time></trkpt><trkpt lat="37.057260401185076" lon="15.229380688864126"><ele>10.5</ele><time>2026-04-26T09:24:52.001Z</time></trkpt><trkpt lat="37.057345658625586" lon="15.22949649052898"><ele>11.25</ele><time>2026-04-26T09:24:53.001Z</time></trkpt><trkpt lat="37.05742477322304" lon="15.22960688637549"><ele>12.0</ele><time>2026-04-26T09:24:54.001Z</time></trkpt><trkpt lat="37.057501047190975" lon="15.229707525189642"><ele>13.399999999999999</ele><time>2026-04-26T09:24:55.001Z</time></trkpt><trkpt lat="37.05757545458216" lon="15.229812874095531"><ele>14.799999999999999</ele><time>2026-04-26T09:24:56.001Z</time></trkpt><trkpt lat="37.057653427350104" lon="15.229914416909676"><ele>16.2</ele><time>2026-04-26T09:24:57.001Z</time></trkpt><trkpt lat="37.057734036682334" lon="15.230009257294725"><ele>17.599999999999998</ele><time>2026-04-26T09:24:58.001Z</time></trkpt><trkpt lat="37.057815466635915" lon="15.230099794803275"><ele>19.0</ele><time>2026-04-26T09:24:59.001Z</time></trkpt><trkpt lat="37.057892863004454" lon="15.230178515135522"><ele>19.0</ele><time>2026-04-26T09:25:00.001Z</time></trkpt><trkpt lat="37.057967933379786" lon="15.23024891635279"><ele>19.0</ele><time>2026-04-26T09:25:01.001Z</time></trkpt><trkpt lat="37.05805234792581" lon="15.230321131064738"><ele>19.0</ele><time>2026-04-26T09:25:02.001Z</time></trkpt><trkpt lat="37.05814461093599" lon="15.230396413095777"><ele>19.0</ele><time>2026-04-26T09:25:03.001Z</time></trkpt><trkpt lat="37.05823860716581" lon="15.230475344868399"><ele>19.0</ele><time>2026-04-26T09:25:04.001Z</time></trkpt><trkpt lat="37.0583345294429" lon="15.230557028410647"><ele>18.75</ele><time>2026-04-26T09:25:05.001Z</time></trkpt><trkpt lat="37.05843458580863" lon="15.230641330544833"><ele>18.5</ele><time>2026-04-26T09:25:06.001Z</time></trkpt><trkpt lat="37.05853644751486" lon="15.230726068148352"><ele>18.25</ele><time>2026-04-26T09:25:07.001Z</time></trkpt><trkpt lat="37.05864033560952" lon="15.230813102427962"><ele>18.0</ele><time>2026-04-26T09:25:08.001Z</time></trkpt><trkpt lat="37.05874590935546" lon="15.230903300392661"><ele>18.0</ele><time>2026-04-26T09:25:09.001Z</time></trkpt><trkpt lat="37.058852134678844" lon="15.230994303511189"><ele>18.0</ele><time>2026-04-26T09:25:10.001Z</time></trkpt><trkpt lat="37.058954970180146" lon="15.231088969462375"><ele>18.0</ele><time>2026-04-26T09:25:11.001Z</time></trkpt><trkpt lat="37.05904680951792" lon="15.231176644646595"><ele>18.0</ele><time>2026-04-26T09:25:12.001Z</time></trkpt><trkpt lat="37.05913363590109" lon="15.231261736752865"><ele>17.8</ele><time>2026-04-26T09:25:13.001Z</time></trkpt><trkpt lat="37.059212098459504" lon="15.23134582572575"><ele>17.6</ele><time>2026-04-26T09:25:14.001Z</time></trkpt><trkpt lat="37.05928152039604" lon="15.231423950049082"><ele>17.4</ele><time>2026-04-26T09:25:15.001Z</time></trkpt><trkpt lat="37.059334229262625" lon="15.231484610689755"><ele>17.2</ele><time>2026-04-26T09:25:16.001Z</time></trkpt><trkpt lat="37.05937723110957" lon="15.231576346156306"><ele>17.0</ele><time>2026-04-26T09:25:18.001Z</time></trkpt><trkpt lat="37.059528850876234" lon="15.231461583896738"><ele>17.0</ele><time>2026-04-26T09:25:20.001Z</time></trkpt><trkpt lat="37.0595994714296" lon="15.231353550679259"><ele>17.0</ele><time>2026-04-26T09:25:22.001Z</time></trkpt><trkpt lat="37.05963825261183" lon="15.231282389661086"><ele>17.0</ele><time>2026-04-26T09:25:23.001Z</time></trkpt><trkpt lat="37.0597092387361" lon="15.231147015819843"><ele>17.0</ele><time>2026-04-26T09:25:24.002Z</time></trkpt><trkpt lat="37.059783489844484" lon="15.231011135817928"><ele>17.0</ele><time>2026-04-26T09:25:25.002Z</time></trkpt><trkpt lat="37.05987398520355" lon="15.230839983375922"><ele>17.333333333333336</ele><time>2026-04-26T09:25:26.002Z</time></trkpt><trkpt lat="37.05997520132678" lon="15.230650619807589"><ele>17.666666666666668</ele><time>2026-04-26T09:25:27.002Z</time></trkpt><trkpt lat="37.060059263918724" lon="15.230501555141561"><ele>18.0</ele><time>2026-04-26T09:25:28.002Z</time></trkpt><trkpt lat="37.06012594446567" lon="15.23037231973514"><ele>19.25</ele><time>2026-04-26T09:25:29.002Z</time></trkpt><trkpt lat="37.060183442818385" lon="15.230246555036015"><ele>20.5</ele><time>2026-04-26T09:25:30.002Z</time></trkpt><trkpt lat="37.0602060538971" lon="15.230106833531238"><ele>21.75</ele><time>2026-04-26T09:25:31.002Z</time></trkpt><trkpt lat="37.06020171522187" lon="15.229952054196948"><ele>23.0</ele><time>2026-04-26T09:25:32.002Z</time></trkpt><trkpt lat="37.06017187279304" lon="15.229799259010132"><ele>23.333333333333336</ele><time>2026-04-26T09:25:33.002Z</time></trkpt><trkpt lat="37.0601773815553" lon="15.22965456400614"><ele>23.666666666666668</ele><time>2026-04-26T09:25:34.002Z</time></trkpt><trkpt lat="37.06018094155147" lon="15.22946113391421"><ele>24.0</ele><time>2026-04-26T09:25:35.002Z</time></trkpt><trkpt lat="37.06019860831079" lon="15.22922358333623"><ele>24.0</ele><time>2026-04-26T09:25:36.002Z</time></trkpt><trkpt lat="37.06020481530544" lon="15.22902657895448"><ele>24.0</ele><time>2026-04-26T09:25:37.002Z</time></trkpt><trkpt lat="37.06022615582243" lon="15.228883303972626"><ele>24.0</ele><time>2026-04-26T09:25:38.002Z</time></trkpt><trkpt lat="37.060238538668855" lon="15.228745436637395"><ele>24.0</ele><time>2026-04-26T09:25:39.002Z</time></trkpt><trkpt lat="37.060233340562604" lon="15.228571274561029"><ele>24.5</ele><time>2026-04-26T09:25:40.002Z</time></trkpt><trkpt lat="37.06020921333105" lon="15.228390270544299"><ele>25.0</ele><time>2026-04-26T09:25:41.002Z</time></trkpt><trkpt lat="37.060207903513636" lon="15.228239546421614"><ele>25.5</ele><time>2026-04-26T09:25:42.002Z</time></trkpt><trkpt lat="37.0601983487322" lon="15.228102594571222"><ele>26.0</ele><time>2026-04-26T09:25:43.002Z</time></trkpt><trkpt lat="37.06017650281492" lon="15.227977619789339"><ele>26.0</ele><time>2026-04-26T09:25:44.002Z</time></trkpt><trkpt lat="37.060164805853155" lon="15.227851984506449"><ele>26.0</ele><time>2026-04-26T09:25:45.002Z</time></trkpt><trkpt lat="37.06012111560551" lon="15.227699256048654"><ele>26.0</ele><time>2026-04-26T09:25:46.002Z</time></trkpt><trkpt lat="37.06008454515555" lon="15.227524514751883"><ele>26.0</ele><time>2026-04-26T09:25:47.002Z</time></trkpt><trkpt lat="37.060064384943466" lon="15.227298017496295"><ele>25.666666666666664</ele><time>2026-04-26T09:25:48.002Z</time></trkpt><trkpt lat="37.06005240491237" lon="15.227069224995255"><ele>25.333333333333336</ele><time>2026-04-26T09:25:49.002Z</time></trkpt><trkpt lat="37.06004670244187" lon="15.226844172361423"><ele>25.0</ele><time>2026-04-26T09:25:50.002Z</time></trkpt><trkpt lat="37.06003862261115" lon="15.22661186722744"><ele>25.333333333333336</ele><time>2026-04-26T09:25:51.002Z</time></trkpt><trkpt lat="37.06003150838965" lon="15.22637333158085"><ele>25.666666666666664</ele><time>2026-04-26T09:25:52.002Z</time></trkpt><trkpt lat="37.06002727661825" lon="15.22616518213667"><ele>26.0</ele><time>2026-04-26T09:25:53.002Z</time></trkpt><trkpt lat="37.06002321521535" lon="15.225975378611361"><ele>26.0</ele><time>2026-04-26T09:25:54.002Z</time></trkpt><trkpt lat="37.06002428077776" lon="15.225803272714002"><ele>26.0</ele><time>2026-04-26T09:25:55.002Z</time></trkpt><trkpt lat="37.06002309960033" lon="15.22563633296614"><ele>26.0</ele><time>2026-04-26T09:25:56.002Z</time></trkpt><trkpt lat="37.060017106826486" lon="15.225488702776206"><ele>26.0</ele><time>2026-04-26T09:25:57.001Z</time></trkpt><trkpt lat="37.06001647741698" lon="15.225344454673778"><ele>26.0</ele><time>2026-04-26T09:25:58.001Z</time></trkpt><trkpt lat="37.060024385310875" lon="15.225194894557776"><ele>26.0</ele><time>2026-04-26T09:25:59.001Z</time></trkpt><trkpt lat="37.060023100754044" lon="15.225046202800653"><ele>26.0</ele><time>2026-04-26T09:26:00.001Z</time></trkpt><trkpt lat="37.06002914677212" lon="15.22490804925734"><ele>26.0</ele><time>2026-04-26T09:26:01.001Z</time></trkpt><trkpt lat="37.06003660455296" lon="15.224776577464148"><ele>26.200000000000003</ele><time>2026-04-26T09:26:02.001Z</time></trkpt><trkpt lat="37.06003369128162" lon="15.224640869816996"><ele>26.400000000000002</ele><time>2026-04-26T09:26:03.001Z</time></trkpt><trkpt lat="37.060050840170646" lon="15.224520290444401"><ele>26.6</ele><time>2026-04-26T09:26:04.001Z</time></trkpt><trkpt lat="37.060071465668926" lon="15.224391264246618"><ele>26.8</ele><time>2026-04-26T09:26:05.001Z</time></trkpt><trkpt lat="37.06010454796512" lon="15.224238151453942"><ele>27.0</ele><time>2026-04-26T09:26:06.001Z</time></trkpt><trkpt lat="37.060159774157036" lon="15.224044243280929"><ele>25.666666666666668</ele><time>2026-04-26T09:26:07.001Z</time></trkpt><trkpt lat="37.06023389755006" lon="15.2238289700164"><ele>24.333333333333336</ele><time>2026-04-26T09:26:08.001Z</time></trkpt><trkpt lat="37.06030504022243" lon="15.223652477174728"><ele>23.0</ele><time>2026-04-26T09:26:09.001Z</time></trkpt><trkpt lat="37.060372640378965" lon="15.22350141373755"><ele>23.0</ele><time>2026-04-26T09:26:10.001Z</time></trkpt><trkpt lat="37.06044768396218" lon="15.22337317983556"><ele>23.0</ele><time>2026-04-26T09:26:11.001Z</time></trkpt><trkpt lat="37.06051350261712" lon="15.223256710319966"><ele>23.0</ele><time>2026-04-26T09:26:12.001Z</time></trkpt><trkpt lat="37.06057229402602" lon="15.223157190069244"><ele>23.0</ele><time>2026-04-26T09:26:13.001Z</time></trkpt><trkpt lat="37.060629923090445" lon="15.223071538430323"><ele>23.0</ele><time>2026-04-26T09:26:14.001Z</time></trkpt><trkpt lat="37.060729011436315" lon="15.222993719442812"><ele>23.333333333333336</ele><time>2026-04-26T09:26:15.001Z</time></trkpt><trkpt lat="37.060862611045856" lon="15.22286103748504"><ele>23.666666666666668</ele><time>2026-04-26T09:26:16.001Z</time></trkpt><trkpt lat="37.06103762620121" lon="15.222731085141008"><ele>24.0</ele><time>2026-04-26T09:26:17.001Z</time></trkpt><trkpt lat="37.06117666871749" lon="15.222633392420871"><ele>24.0</ele><time>2026-04-26T09:26:18.001Z</time></trkpt><trkpt lat="37.06129548534554" lon="15.222537160434968"><ele>24.0</ele><time>2026-04-26T09:26:19.001Z</time></trkpt><trkpt lat="37.061426499532885" lon="15.222422036812231"><ele>24.0</ele><time>2026-04-26T09:26:20.001Z</time></trkpt><trkpt lat="37.061541396011236" lon="15.22228739280099"><ele>25.333333333333336</ele><time>2026-04-26T09:26:21.001Z</time></trkpt><trkpt lat="37.06165773399163" lon="15.222109257932207"><ele>26.666666666666668</ele><time>2026-04-26T09:26:22.001Z</time></trkpt><trkpt lat="37.06174039092055" lon="15.221944397144584"><ele>28.0</ele><time>2026-04-26T09:26:23.001Z</time></trkpt><trkpt lat="37.061792218387886" lon="15.221804988950225"><ele>28.0</ele><time>2026-04-26T09:26:24.001Z</time></trkpt><trkpt lat="37.06183211185428" lon="15.221677728731466"><ele>28.0</ele><time>2026-04-26T09:26:25.001Z</time></trkpt><trkpt lat="37.06187041581825" lon="15.221572545709403"><ele>28.0</ele><time>2026-04-26T09:26:26.001Z</time></trkpt><trkpt lat="37.06184806094734" lon="15.221423546334346"><ele>28.0</ele><time>2026-04-26T09:26:27.001Z</time></trkpt><trkpt lat="37.06184058136932" lon="15.221222160613904"><ele>28.2</ele><time>2026-04-26T09:26:28.001Z</time></trkpt><trkpt lat="37.061816930805946" lon="15.221041324414708"><ele>28.4</ele><time>2026-04-26T09:26:29.001Z</time></trkpt><trkpt lat="37.06180402320966" lon="15.220926374906336"><ele>28.599999999999998</ele><time>2026-04-26T09:26:30.001Z</time></trkpt><trkpt lat="37.06178131730453" lon="15.220849500403435"><ele>28.799999999999997</ele><time>2026-04-26T09:26:31.001Z</time></trkpt><trkpt lat="37.061801700849585" lon="15.220702821514829"><ele>29.0</ele><time>2026-04-26T09:26:33.001Z</time></trkpt><trkpt lat="37.06181631856564" lon="15.220587634740458"><ele>29.0</ele><time>2026-04-26T09:26:35.001Z</time></trkpt><trkpt lat="37.062072825476406" lon="15.220634406824722"><ele>29.0</ele><time>2026-04-26T09:27:05.001Z</time></trkpt><trkpt lat="37.06213514407379" lon="15.220659515530949"><ele>29.0</ele><time>2026-04-26T09:27:08.001Z</time></trkpt><trkpt lat="37.06220175520844" lon="15.220647758019425"><ele>29.0</ele><time>2026-04-26T09:27:11.001Z</time></trkpt><trkpt lat="37.062241527740056" lon="15.220584390380102"><ele>29.000000000000004</ele><time>2026-04-26T09:28:04.001Z</time></trkpt><trkpt lat="37.06228155167496" lon="15.220519750707881"><ele>29.0</ele><time>2026-04-26T09:29:12.001Z</time></trkpt><trkpt lat="37.062222566307845" lon="15.220471162664708"><ele>29.000000000000004</ele><time>2026-04-26T09:29:16.001Z</time></trkpt><trkpt lat="37.06213577306131" lon="15.220503627997331"><ele>29.000000000000004</ele><time>2026-04-26T09:29:18.001Z</time></trkpt><trkpt lat="37.06207975151721" lon="15.220541769650731"><ele>29.0</ele><time>2026-04-26T09:29:20.001Z</time></trkpt><trkpt lat="37.0620437293315" lon="15.220608205597747"><ele>29.000000000000004</ele><time>2026-04-26T09:29:22.001Z</time></trkpt><trkpt lat="37.06198373580873" lon="15.220665412224001"><ele>29.000000000000004</ele><time>2026-04-26T09:29:24.001Z</time></trkpt><trkpt lat="37.06191370930951" lon="15.220747047590283"><ele>28.999999999999996</ele><time>2026-04-26T09:29:26.001Z</time></trkpt><trkpt lat="37.061956814875536" lon="15.220805585841843"><ele>29.0</ele><time>2026-04-26T09:29:30.001Z</time></trkpt><trkpt lat="37.06202129597357" lon="15.22075090486313"><ele>29.0</ele><time>2026-04-26T09:29:33.001Z</time></trkpt><trkpt lat="37.06204869941948" lon="15.22083234092224"><ele>29.0</ele><time>2026-04-26T09:29:38.001Z</time></trkpt><trkpt lat="37.062140874221285" lon="15.220873639251288"><ele>28.999999999999996</ele><time>2026-04-26T09:29:43.001Z</time></trkpt><trkpt lat="37.06221329863939" lon="15.220880057787147"><ele>29.0</ele><time>2026-04-26T09:29:46.001Z</time></trkpt><trkpt lat="37.062259021526" lon="15.220814909953864"><ele>29.0</ele><time>2026-04-26T09:29:51.001Z</time></trkpt><trkpt lat="37.0622507530326" lon="15.22089587776131"><ele>29.0</ele><time>2026-04-26T09:30:12Z</time></trkpt><trkpt lat="37.06220437553702" lon="15.220977247761727"><ele>29.0</ele><time>2026-04-26T09:30:15Z</time></trkpt><trkpt lat="37.06223149761933" lon="15.22087766223297"><ele>29.0</ele><time>2026-04-26T09:30:25Z</time></trkpt><trkpt lat="37.06218766641265" lon="15.220819746846166"><ele>29.0</ele><time>2026-04-26T09:30:47Z</time></trkpt><trkpt lat="37.06223841740885" lon="15.220771272349191"><ele>29.0</ele><time>2026-04-26T09:30:59Z</time></trkpt></trkseg></trk></gpx>